<?xml version='1.0' encoding='UTF-8'?><gpx version="1.1" creator="JPX - https://github.com/jenetics/jpx" xmlns="http://www.topografix.com/GPX/1/1"><trk><trkseg><trkpt lat="44.1507537" lon="10.412486"><ele>546.0</ele><time>2026-03-23T08:03:34.136Z</time></trkpt><trkpt lat="44.1507841" lon="10.4123848"><ele>546.0</ele><time>2026-03-23T08:03:35.972Z</time></trkpt><trkpt lat="44.1507828" lon="10.4122894"><ele>546.0</ele><time>2026-03-23T08:03:37.137Z</time></trkpt><trkpt lat="44.1508285" lon="10.412169"><ele>546.0</ele><time>2026-03-23T08:03:39.128Z</time></trkpt><trkpt lat="44.1509065" lon="10.4121286"><ele>546.0</ele><time>2026-03-23T08:03:41.133Z</time></trkpt><trkpt lat="44.1509885" lon="10.4121246"><ele>546.0</ele><time>2026-03-23T08:03:43.123Z</time></trkpt><trkpt lat="44.1510512" lon="10.412135"><ele>543.0</ele><time>2026-03-23T08:03:46.077Z</time></trkpt><trkpt lat="44.1510953" lon="10.4120231"><ele>540.0</ele><time>2026-03-23T08:03:49.128Z</time></trkpt><trkpt lat="44.1510217" lon="10.411929"><ele>537.0</ele><time>2026-03-23T08:03:51.135Z</time></trkpt><trkpt lat="44.150933" lon="10.4118588"><ele>534.0</ele><time>2026-03-23T08:03:53.135Z</time></trkpt><trkpt lat="44.1508604" lon="10.4117858"><ele>531.0</ele><time>2026-03-23T08:03:55.132Z</time></trkpt><trkpt lat="44.1507645" lon="10.4117652"><ele>530.8333333333334</ele><time>2026-03-23T08:03:57.133Z</time></trkpt><trkpt lat="44.1506523" lon="10.4117884"><ele>530.6666666666666</ele><time>2026-03-23T08:03:59.128Z</time></trkpt><trkpt lat="44.1505891" lon="10.4117855"><ele>530.5</ele><time>2026-03-23T08:04:00.134Z</time></trkpt><trkpt lat="44.1505243" lon="10.4117601"><ele>530.3333333333333</ele><time>2026-03-23T08:04:01.13Z</time></trkpt><trkpt lat="44.150459" lon="10.4117355"><ele>530.1666666666666</ele><time>2026-03-23T08:04:02.136Z</time></trkpt><trkpt lat="44.150392" lon="10.4117031"><ele>530.0</ele><time>2026-03-23T08:04:03.141Z</time></trkpt><trkpt lat="44.150321" lon="10.411666"><ele>530.0</ele><time>2026-03-23T08:04:04.128Z</time></trkpt><trkpt lat="44.1502505" lon="10.4116262"><ele>530.0</ele><time>2026-03-23T08:04:05.129Z</time></trkpt><trkpt lat="44.1501771" lon="10.4115935"><ele>530.0</ele><time>2026-03-23T08:04:06.132Z</time></trkpt><trkpt lat="44.1501026" lon="10.4115583"><ele>530.0</ele><time>2026-03-23T08:04:07.13Z</time></trkpt><trkpt lat="44.1500302" lon="10.411522"><ele>530.0</ele><time>2026-03-23T08:04:08.135Z</time></trkpt><trkpt lat="44.1499555" lon="10.4114829"><ele>530.0</ele><time>2026-03-23T08:04:09.145Z</time></trkpt><trkpt lat="44.1498793" lon="10.4114431"><ele>529.0</ele><time>2026-03-23T08:04:10.129Z</time></trkpt><trkpt lat="44.1498044" lon="10.4114036"><ele>528.0</ele><time>2026-03-23T08:04:11.136Z</time></trkpt><trkpt lat="44.1497292" lon="10.4113596"><ele>527.0</ele><time>2026-03-23T08:04:12.143Z</time></trkpt><trkpt lat="44.1496514" lon="10.4113224"><ele>526.0</ele><time>2026-03-23T08:04:13.138Z</time></trkpt><trkpt lat="44.1495728" lon="10.4112827"><ele>525.0</ele><time>2026-03-23T08:04:14.131Z</time></trkpt><trkpt lat="44.1494974" lon="10.411245"><ele>524.0</ele><time>2026-03-23T08:04:15.138Z</time></trkpt><trkpt lat="44.1494215" lon="10.4112004"><ele>524.1428571428571</ele><time>2026-03-23T08:04:16.148Z</time></trkpt><trkpt lat="44.149351" lon="10.4111593"><ele>524.2857142857143</ele><time>2026-03-23T08:04:17.137Z</time></trkpt><trkpt lat="44.1492767" lon="10.4111298"><ele>524.4285714285714</ele><time>2026-03-23T08:04:18.143Z</time></trkpt><trkpt lat="44.1492023" lon="10.41112"><ele>524.5714285714286</ele><time>2026-03-23T08:04:19.138Z</time></trkpt><trkpt lat="44.1491345" lon="10.4111424"><ele>524.7142857142858</ele><time>2026-03-23T08:04:20.152Z</time></trkpt><trkpt lat="44.1490697" lon="10.4111813"><ele>524.8571428571429</ele><time>2026-03-23T08:04:21.142Z</time></trkpt><trkpt lat="44.1490127" lon="10.4112256"><ele>525.0</ele><time>2026-03-23T08:04:22.14Z</time></trkpt><trkpt lat="44.1489589" lon="10.4112741"><ele>525.0</ele><time>2026-03-23T08:04:23.133Z</time></trkpt><trkpt lat="44.148857" lon="10.4113534"><ele>525.0</ele><time>2026-03-23T08:04:25.139Z</time></trkpt><trkpt lat="44.1487549" lon="10.4113828"><ele>525.0</ele><time>2026-03-23T08:04:27.142Z</time></trkpt><trkpt lat="44.1486643" lon="10.4113415"><ele>525.0</ele><time>2026-03-23T08:04:29.127Z</time></trkpt><trkpt lat="44.1485989" lon="10.4112587"><ele>525.0</ele><time>2026-03-23T08:04:31.139Z</time></trkpt><trkpt lat="44.1485508" lon="10.4111509"><ele>525.0</ele><time>2026-03-23T08:04:33.138Z</time></trkpt><trkpt lat="44.1484989" lon="10.4110479"><ele>525.0</ele><time>2026-03-23T08:04:35.126Z</time></trkpt><trkpt lat="44.1484558" lon="10.4109374"><ele>525.0</ele><time>2026-03-23T08:04:37.138Z</time></trkpt><trkpt lat="44.1484137" lon="10.4108147"><ele>525.0</ele><time>2026-03-23T08:04:39.132Z</time></trkpt><trkpt lat="44.1483668" lon="10.4106996"><ele>525.0</ele><time>2026-03-23T08:04:41.141Z</time></trkpt><trkpt lat="44.1483218" lon="10.4105709"><ele>525.8</ele><time>2026-03-23T08:04:43.129Z</time></trkpt><trkpt lat="44.1482884" lon="10.410434"><ele>526.6</ele><time>2026-03-23T08:04:45.136Z</time></trkpt><trkpt lat="44.1482563" lon="10.4102922"><ele>527.4</ele><time>2026-03-23T08:04:47.142Z</time></trkpt><trkpt lat="44.1482197" lon="10.4101604"><ele>528.2</ele><time>2026-03-23T08:04:49.128Z</time></trkpt><trkpt lat="44.1481964" lon="10.4100285"><ele>529.0</ele><time>2026-03-23T08:04:51.136Z</time></trkpt><trkpt lat="44.148172" lon="10.40989"><ele>525.0</ele><time>2026-03-23T08:04:53.14Z</time></trkpt><trkpt lat="44.1481514" lon="10.4097357"><ele>521.0</ele><time>2026-03-23T08:04:55.127Z</time></trkpt><trkpt lat="44.1481374" lon="10.4095705"><ele>517.0</ele><time>2026-03-23T08:04:57.14Z</time></trkpt><trkpt lat="44.1481291" lon="10.4094806"><ele>513.0</ele><time>2026-03-23T08:04:58.138Z</time></trkpt><trkpt lat="44.1481119" lon="10.4093171"><ele>509.0</ele><time>2026-03-23T08:05:00.138Z</time></trkpt><trkpt lat="44.1480987" lon="10.4091485"><ele>509.0</ele><time>2026-03-23T08:05:02.136Z</time></trkpt><trkpt lat="44.1480894" lon="10.4089791"><ele>509.0</ele><time>2026-03-23T08:05:04.136Z</time></trkpt><trkpt lat="44.1480783" lon="10.4088155"><ele>509.0</ele><time>2026-03-23T08:05:06.141Z</time></trkpt><trkpt lat="44.1480625" lon="10.408647"><ele>509.0</ele><time>2026-03-23T08:05:08.131Z</time></trkpt><trkpt lat="44.1480537" lon="10.4084765"><ele>508.8333333333333</ele><time>2026-03-23T08:05:10.128Z</time></trkpt><trkpt lat="44.1480321" lon="10.4082977"><ele>508.66666666666663</ele><time>2026-03-23T08:05:12.139Z</time></trkpt><trkpt lat="44.1480213" lon="10.4082039"><ele>508.5</ele><time>2026-03-23T08:05:13.143Z</time></trkpt><trkpt lat="44.148014" lon="10.4081124"><ele>508.33333333333337</ele><time>2026-03-23T08:05:14.141Z</time></trkpt><trkpt lat="44.1480035" lon="10.408012"><ele>508.1666666666667</ele><time>2026-03-23T08:05:15.135Z</time></trkpt><trkpt lat="44.1479675" lon="10.4079188"><ele>508.0</ele><time>2026-03-23T08:05:16.131Z</time></trkpt><trkpt lat="44.1479148" lon="10.4078443"><ele>508.00000000000006</ele><time>2026-03-23T08:05:17.132Z</time></trkpt><trkpt lat="44.1478434" lon="10.4077946"><ele>508.0</ele><time>2026-03-23T08:05:18.134Z</time></trkpt><trkpt lat="44.1477632" lon="10.4077692"><ele>508.0</ele><time>2026-03-23T08:05:19.134Z</time></trkpt><trkpt lat="44.1476814" lon="10.4077496"><ele>508.0</ele><time>2026-03-23T08:05:20.146Z</time></trkpt><trkpt lat="44.1475944" lon="10.4077276"><ele>508.00000000000006</ele><time>2026-03-23T08:05:21.146Z</time></trkpt><trkpt lat="44.1475046" lon="10.4077079"><ele>508.0</ele><time>2026-03-23T08:05:22.138Z</time></trkpt><trkpt lat="44.1474172" lon="10.4077126"><ele>506.4</ele><time>2026-03-23T08:05:23.135Z</time></trkpt><trkpt lat="44.1473355" lon="10.4077487"><ele>504.79999999999995</ele><time>2026-03-23T08:05:24.137Z</time></trkpt><trkpt lat="44.1472645" lon="10.4078027"><ele>503.2</ele><time>2026-03-23T08:05:25.132Z</time></trkpt><trkpt lat="44.1472128" lon="10.407863"><ele>501.6</ele><time>2026-03-23T08:05:26.135Z</time></trkpt><trkpt lat="44.1471775" lon="10.4080115"><ele>500.0</ele><time>2026-03-23T08:05:28.136Z</time></trkpt><trkpt lat="44.1472384" lon="10.4081573"><ele>499.99999999999994</ele><time>2026-03-23T08:05:30.127Z</time></trkpt><trkpt lat="44.1472934" lon="10.4082189"><ele>500.0</ele><time>2026-03-23T08:05:31.129Z</time></trkpt><trkpt lat="44.1473435" lon="10.4082953"><ele>500.0</ele><time>2026-03-23T08:05:32.133Z</time></trkpt><trkpt lat="44.1473877" lon="10.4083785"><ele>500.0</ele><time>2026-03-23T08:05:33.139Z</time></trkpt><trkpt lat="44.1474232" lon="10.4084735"><ele>499.99999999999994</ele><time>2026-03-23T08:05:34.133Z</time></trkpt><trkpt lat="44.1474489" lon="10.4085763"><ele>500.0</ele><time>2026-03-23T08:05:35.149Z</time></trkpt><trkpt lat="44.1474753" lon="10.4086888"><ele>501.49999999999994</ele><time>2026-03-23T08:05:36.146Z</time></trkpt><trkpt lat="44.1474973" lon="10.4088068"><ele>503.0</ele><time>2026-03-23T08:05:37.145Z</time></trkpt><trkpt lat="44.1475158" lon="10.4089281"><ele>504.5</ele><time>2026-03-23T08:05:38.145Z</time></trkpt><trkpt lat="44.1475335" lon="10.4090452"><ele>506.0</ele><time>2026-03-23T08:05:39.147Z</time></trkpt><trkpt lat="44.1475481" lon="10.4091655"><ele>507.49999999999994</ele><time>2026-03-23T08:05:40.136Z</time></trkpt><trkpt lat="44.1475685" lon="10.4092845"><ele>509.0</ele><time>2026-03-23T08:05:41.156Z</time></trkpt><trkpt lat="44.1475884" lon="10.4094121"><ele>509.0</ele><time>2026-03-23T08:05:42.138Z</time></trkpt><trkpt lat="44.1476076" lon="10.4095425"><ele>509.0</ele><time>2026-03-23T08:05:43.132Z</time></trkpt><trkpt lat="44.1476266" lon="10.409675"><ele>509.0</ele><time>2026-03-23T08:05:44.141Z</time></trkpt><trkpt lat="44.1476439" lon="10.4098067"><ele>509.0</ele><time>2026-03-23T08:05:45.139Z</time></trkpt><trkpt lat="44.1476603" lon="10.4099471"><ele>509.0</ele><time>2026-03-23T08:05:46.139Z</time></trkpt><trkpt lat="44.1476795" lon="10.4100864"><ele>507.0</ele><time>2026-03-23T08:05:47.146Z</time></trkpt><trkpt lat="44.1477003" lon="10.4102204"><ele>505.0</ele><time>2026-03-23T08:05:48.147Z</time></trkpt><trkpt lat="44.1477207" lon="10.4103546"><ele>503.0</ele><time>2026-03-23T08:05:49.141Z</time></trkpt><trkpt lat="44.1477418" lon="10.4104947"><ele>501.0</ele><time>2026-03-23T08:05:50.148Z</time></trkpt><trkpt lat="44.1477654" lon="10.4106351"><ele>499.0</ele><time>2026-03-23T08:05:51.143Z</time></trkpt><trkpt lat="44.1477866" lon="10.4107713"><ele>498.0</ele><time>2026-03-23T08:05:52.149Z</time></trkpt><trkpt lat="44.1478163" lon="10.4109074"><ele>497.0</ele><time>2026-03-23T08:05:53.133Z</time></trkpt><trkpt lat="44.1478434" lon="10.41105"><ele>496.0</ele><time>2026-03-23T08:05:54.149Z</time></trkpt><trkpt lat="44.1478748" lon="10.411193"><ele>495.0</ele><time>2026-03-23T08:05:55.135Z</time></trkpt><trkpt lat="44.1479055" lon="10.4113393"><ele>494.0</ele><time>2026-03-23T08:05:56.15Z</time></trkpt><trkpt lat="44.1479303" lon="10.4114797"><ele>493.2</ele><time>2026-03-23T08:05:57.142Z</time></trkpt><trkpt lat="44.1479483" lon="10.4116181"><ele>492.4</ele><time>2026-03-23T08:05:58.133Z</time></trkpt><trkpt lat="44.147966" lon="10.4117565"><ele>491.6</ele><time>2026-03-23T08:05:59.131Z</time></trkpt><trkpt lat="44.1479896" lon="10.4118926"><ele>490.8</ele><time>2026-03-23T08:06:00.14Z</time></trkpt><trkpt lat="44.1480117" lon="10.4120237"><ele>490.0</ele><time>2026-03-23T08:06:01.135Z</time></trkpt><trkpt lat="44.148033" lon="10.4121515"><ele>490.2</ele><time>2026-03-23T08:06:02.134Z</time></trkpt><trkpt lat="44.1480581" lon="10.4122795"><ele>490.4</ele><time>2026-03-23T08:06:03.143Z</time></trkpt><trkpt lat="44.1480808" lon="10.4124117"><ele>490.6</ele><time>2026-03-23T08:06:04.144Z</time></trkpt><trkpt lat="44.1481037" lon="10.4125409"><ele>490.8</ele><time>2026-03-23T08:06:05.127Z</time></trkpt><trkpt lat="44.1481316" lon="10.4126697"><ele>491.0</ele><time>2026-03-23T08:06:06.155Z</time></trkpt><trkpt lat="44.1481577" lon="10.4127892"><ele>491.0</ele><time>2026-03-23T08:06:07.132Z</time></trkpt><trkpt lat="44.1481822" lon="10.412899"><ele>491.0</ele><time>2026-03-23T08:06:08.143Z</time></trkpt><trkpt lat="44.1482024" lon="10.4129916"><ele>491.0</ele><time>2026-03-23T08:06:09.144Z</time></trkpt><trkpt lat="44.1481647" lon="10.4131158"><ele>491.0</ele><time>2026-03-23T08:06:11.14Z</time></trkpt><trkpt lat="44.1480658" lon="10.4130719"><ele>491.0</ele><time>2026-03-23T08:06:13.145Z</time></trkpt><trkpt lat="44.1479743" lon="10.4129465"><ele>490.99999999999994</ele><time>2026-03-23T08:06:15.134Z</time></trkpt><trkpt lat="44.1479271" lon="10.4128776"><ele>491.0</ele><time>2026-03-23T08:06:16.131Z</time></trkpt><trkpt lat="44.147877" lon="10.4128026"><ele>491.0</ele><time>2026-03-23T08:06:17.137Z</time></trkpt><trkpt lat="44.147828" lon="10.4127228"><ele>491.0</ele><time>2026-03-23T08:06:18.135Z</time></trkpt><trkpt lat="44.1477729" lon="10.4126435"><ele>490.99999999999994</ele><time>2026-03-23T08:06:19.148Z</time></trkpt><trkpt lat="44.1477179" lon="10.4125633"><ele>491.0</ele><time>2026-03-23T08:06:20.146Z</time></trkpt><trkpt lat="44.1476592" lon="10.4124794"><ele>491.0</ele><time>2026-03-23T08:06:21.134Z</time></trkpt><trkpt lat="44.1476" lon="10.4123904"><ele>491.0</ele><time>2026-03-23T08:06:22.145Z</time></trkpt><trkpt lat="44.1475416" lon="10.4122974"><ele>491.0</ele><time>2026-03-23T08:06:23.138Z</time></trkpt><trkpt lat="44.1474775" lon="10.4122046"><ele>491.0</ele><time>2026-03-23T08:06:24.14Z</time></trkpt><trkpt lat="44.1474119" lon="10.4121092"><ele>491.0</ele><time>2026-03-23T08:06:25.14Z</time></trkpt><trkpt lat="44.1473446" lon="10.4120115"><ele>490.20000000000005</ele><time>2026-03-23T08:06:26.137Z</time></trkpt><trkpt lat="44.1472781" lon="10.4119138"><ele>489.40000000000003</ele><time>2026-03-23T08:06:27.162Z</time></trkpt><trkpt lat="44.1472096" lon="10.4118139"><ele>488.6</ele><time>2026-03-23T08:06:28.144Z</time></trkpt><trkpt lat="44.1471365" lon="10.4117105"><ele>487.8</ele><time>2026-03-23T08:06:29.142Z</time></trkpt><trkpt lat="44.1470627" lon="10.4116016"><ele>487.0</ele><time>2026-03-23T08:06:30.141Z</time></trkpt><trkpt lat="44.1469881" lon="10.4114897"><ele>487.0</ele><time>2026-03-23T08:06:31.142Z</time></trkpt><trkpt lat="44.1469113" lon="10.4113817"><ele>487.0</ele><time>2026-03-23T08:06:32.145Z</time></trkpt><trkpt lat="44.1468313" lon="10.4112697"><ele>487.0</ele><time>2026-03-23T08:06:33.15Z</time></trkpt><trkpt lat="44.1467553" lon="10.4111569"><ele>487.0</ele><time>2026-03-23T08:06:34.139Z</time></trkpt><trkpt lat="44.1466724" lon="10.4110422"><ele>485.25</ele><time>2026-03-23T08:06:35.149Z</time></trkpt><trkpt lat="44.1465809" lon="10.4109427"><ele>483.5</ele><time>2026-03-23T08:06:36.134Z</time></trkpt><trkpt lat="44.1464777" lon="10.4108773"><ele>481.75</ele><time>2026-03-23T08:06:37.147Z</time></trkpt><trkpt lat="44.1463631" lon="10.4108354"><ele>480.0</ele><time>2026-03-23T08:06:38.132Z</time></trkpt><trkpt lat="44.1462456" lon="10.4107964"><ele>478.75</ele><time>2026-03-23T08:06:39.144Z</time></trkpt><trkpt lat="44.1461319" lon="10.4107523"><ele>477.5</ele><time>2026-03-23T08:06:40.133Z</time></trkpt><trkpt lat="44.146014" lon="10.4107138"><ele>476.25</ele><time>2026-03-23T08:06:41.136Z</time></trkpt><trkpt lat="44.145896" lon="10.4106695"><ele>475.0</ele><time>2026-03-23T08:06:42.136Z</time></trkpt><trkpt lat="44.1457765" lon="10.4106281"><ele>474.5</ele><time>2026-03-23T08:06:43.131Z</time></trkpt><trkpt lat="44.1456581" lon="10.4105863"><ele>474.0</ele><time>2026-03-23T08:06:44.138Z</time></trkpt><trkpt lat="44.1455378" lon="10.4105463"><ele>473.5</ele><time>2026-03-23T08:06:45.144Z</time></trkpt><trkpt lat="44.1454158" lon="10.4105093"><ele>473.0</ele><time>2026-03-23T08:06:46.145Z</time></trkpt><trkpt lat="44.1452968" lon="10.4104687"><ele>472.5</ele><time>2026-03-23T08:06:47.128Z</time></trkpt><trkpt lat="44.1451744" lon="10.4104273"><ele>472.0</ele><time>2026-03-23T08:06:48.133Z</time></trkpt><trkpt lat="44.145052" lon="10.4103832"><ele>471.5</ele><time>2026-03-23T08:06:49.132Z</time></trkpt><trkpt lat="44.144929" lon="10.4103423"><ele>471.0</ele><time>2026-03-23T08:06:50.141Z</time></trkpt><trkpt lat="44.1448078" lon="10.4102995"><ele>469.25</ele><time>2026-03-23T08:06:51.132Z</time></trkpt><trkpt lat="44.1446859" lon="10.4102575"><ele>467.5</ele><time>2026-03-23T08:06:52.148Z</time></trkpt><trkpt lat="44.1445629" lon="10.410215"><ele>465.75</ele><time>2026-03-23T08:06:53.149Z</time></trkpt><trkpt lat="44.1444387" lon="10.4101733"><ele>464.0</ele><time>2026-03-23T08:06:54.131Z</time></trkpt><trkpt lat="44.1443159" lon="10.4101273"><ele>464.0</ele><time>2026-03-23T08:06:55.143Z</time></trkpt><trkpt lat="44.1441912" lon="10.4100784"><ele>464.0</ele><time>2026-03-23T08:06:56.138Z</time></trkpt><trkpt lat="44.1440623" lon="10.4100565"><ele>464.0</ele><time>2026-03-23T08:06:57.134Z</time></trkpt><trkpt lat="44.1439346" lon="10.4100754"><ele>464.0</ele><time>2026-03-23T08:06:58.148Z</time></trkpt><trkpt lat="44.1438074" lon="10.4101238"><ele>461.2</ele><time>2026-03-23T08:06:59.139Z</time></trkpt><trkpt lat="44.1436821" lon="10.4101826"><ele>458.4</ele><time>2026-03-23T08:07:00.14Z</time></trkpt><trkpt lat="44.1435699" lon="10.4102353"><ele>455.6</ele><time>2026-03-23T08:07:01.133Z</time></trkpt><trkpt lat="44.143473" lon="10.4102863"><ele>452.8</ele><time>2026-03-23T08:07:02.131Z</time></trkpt><trkpt lat="44.1434027" lon="10.410357"><ele>450.0</ele><time>2026-03-23T08:07:03.142Z</time></trkpt><trkpt lat="44.1433781" lon="10.410462"><ele>449.5</ele><time>2026-03-23T08:07:04.139Z</time></trkpt><trkpt lat="44.1433805" lon="10.4105707"><ele>449.0</ele><time>2026-03-23T08:07:05.132Z</time></trkpt><trkpt lat="44.1434199" lon="10.4106692"><ele>448.5</ele><time>2026-03-23T08:07:06.147Z</time></trkpt><trkpt lat="44.1434808" lon="10.410737"><ele>448.0</ele><time>2026-03-23T08:07:07.146Z</time></trkpt><trkpt lat="44.1435514" lon="10.4108018"><ele>447.5</ele><time>2026-03-23T08:07:08.137Z</time></trkpt><trkpt lat="44.1436231" lon="10.4108695"><ele>447.0</ele><time>2026-03-23T08:07:09.142Z</time></trkpt><trkpt lat="44.1436927" lon="10.4109384"><ele>447.0</ele><time>2026-03-23T08:07:10.139Z</time></trkpt><trkpt lat="44.1437633" lon="10.411001"><ele>447.0</ele><time>2026-03-23T08:07:11.157Z</time></trkpt><trkpt lat="44.1438374" lon="10.411077"><ele>447.0</ele><time>2026-03-23T08:07:12.155Z</time></trkpt><trkpt lat="44.143903" lon="10.4111531"><ele>447.0</ele><time>2026-03-23T08:07:13.136Z</time></trkpt><trkpt lat="44.1439585" lon="10.4112504"><ele>447.0</ele><time>2026-03-23T08:07:14.131Z</time></trkpt><trkpt lat="44.1439909" lon="10.4113682"><ele>447.0</ele><time>2026-03-23T08:07:15.132Z</time></trkpt><trkpt lat="44.1439981" lon="10.4114946"><ele>445.6</ele><time>2026-03-23T08:07:16.129Z</time></trkpt><trkpt lat="44.1439784" lon="10.4116277"><ele>444.20000000000005</ele><time>2026-03-23T08:07:17.129Z</time></trkpt><trkpt lat="44.1439308" lon="10.4117526"><ele>442.8</ele><time>2026-03-23T08:07:18.131Z</time></trkpt><trkpt lat="44.1438648" lon="10.4118624"><ele>441.4</ele><time>2026-03-23T08:07:19.129Z</time></trkpt><trkpt lat="44.143793" lon="10.4119593"><ele>440.0</ele><time>2026-03-23T08:07:20.132Z</time></trkpt><trkpt lat="44.1436882" lon="10.4120189"><ele>440.0</ele><time>2026-03-23T08:07:21.138Z</time></trkpt><trkpt lat="44.1435924" lon="10.4120608"><ele>440.0</ele><time>2026-03-23T08:07:22.142Z</time></trkpt><trkpt lat="44.1434806" lon="10.4120896"><ele>440.0</ele><time>2026-03-23T08:07:23.139Z</time></trkpt><trkpt lat="44.1433672" lon="10.4121101"><ele>440.0</ele><time>2026-03-23T08:07:24.148Z</time></trkpt><trkpt lat="44.1432593" lon="10.412149"><ele>440.0</ele><time>2026-03-23T08:07:25.133Z</time></trkpt><trkpt lat="44.1431552" lon="10.412194"><ele>437.8</ele><time>2026-03-23T08:07:26.132Z</time></trkpt><trkpt lat="44.1430526" lon="10.4122399"><ele>435.6</ele><time>2026-03-23T08:07:27.142Z</time></trkpt><trkpt lat="44.1429477" lon="10.4122854"><ele>433.4</ele><time>2026-03-23T08:07:28.133Z</time></trkpt><trkpt lat="44.1428548" lon="10.4123262"><ele>431.2</ele><time>2026-03-23T08:07:29.128Z</time></trkpt><trkpt lat="44.1427755" lon="10.4123817"><ele>429.0</ele><time>2026-03-23T08:07:30.126Z</time></trkpt><trkpt lat="44.1427156" lon="10.412465"><ele>429.0</ele><time>2026-03-23T08:07:31.134Z</time></trkpt><trkpt lat="44.1426902" lon="10.4125712"><ele>429.0</ele><time>2026-03-23T08:07:32.136Z</time></trkpt><trkpt lat="44.1426918" lon="10.4126816"><ele>429.0</ele><time>2026-03-23T08:07:33.131Z</time></trkpt><trkpt lat="44.1427254" lon="10.4127748"><ele>429.0</ele><time>2026-03-23T08:07:34.139Z</time></trkpt><trkpt lat="44.1427868" lon="10.4128413"><ele>429.0</ele><time>2026-03-23T08:07:35.128Z</time></trkpt><trkpt lat="44.1428538" lon="10.4128709"><ele>429.0</ele><time>2026-03-23T08:07:36.137Z</time></trkpt><trkpt lat="44.1429244" lon="10.4128864"><ele>429.0</ele><time>2026-03-23T08:07:37.136Z</time></trkpt><trkpt lat="44.1430106" lon="10.412906"><ele>429.0</ele><time>2026-03-23T08:07:38.128Z</time></trkpt><trkpt lat="44.1430999" lon="10.41294"><ele>429.0</ele><time>2026-03-23T08:07:39.131Z</time></trkpt><trkpt lat="44.1431764" lon="10.4130078"><ele>429.0</ele><time>2026-03-23T08:07:40.129Z</time></trkpt><trkpt lat="44.143231" lon="10.4131158"><ele>429.0</ele><time>2026-03-23T08:07:41.129Z</time></trkpt><trkpt lat="44.1432594" lon="10.4132395"><ele>429.4</ele><time>2026-03-23T08:07:42.127Z</time></trkpt><trkpt lat="44.143289" lon="10.413359"><ele>429.79999999999995</ele><time>2026-03-23T08:07:43.135Z</time></trkpt><trkpt lat="44.1433168" lon="10.413483"><ele>430.20000000000005</ele><time>2026-03-23T08:07:44.136Z</time></trkpt><trkpt lat="44.1433431" lon="10.4135977"><ele>430.6</ele><time>2026-03-23T08:07:45.131Z</time></trkpt><trkpt lat="44.1433699" lon="10.4137185"><ele>431.0</ele><time>2026-03-23T08:07:46.128Z</time></trkpt><trkpt lat="44.1433873" lon="10.4138437"><ele>429.99999999999994</ele><time>2026-03-23T08:07:47.125Z</time></trkpt><trkpt lat="44.1433906" lon="10.4139688"><ele>429.0</ele><time>2026-03-23T08:07:48.137Z</time></trkpt><trkpt lat="44.1433886" lon="10.4140934"><ele>428.0</ele><time>2026-03-23T08:07:49.131Z</time></trkpt><trkpt lat="44.1433841" lon="10.4142175"><ele>427.0</ele><time>2026-03-23T08:07:50.127Z</time></trkpt><trkpt lat="44.1433813" lon="10.4143439"><ele>425.99999999999994</ele><time>2026-03-23T08:07:51.125Z</time></trkpt><trkpt lat="44.1433934" lon="10.4144678"><ele>425.0</ele><time>2026-03-23T08:07:52.151Z</time></trkpt><trkpt lat="44.1434363" lon="10.4145781"><ele>423.0</ele><time>2026-03-23T08:07:53.133Z</time></trkpt><trkpt lat="44.1435112" lon="10.4146615"><ele>421.0</ele><time>2026-03-23T08:07:54.124Z</time></trkpt><trkpt lat="44.1436012" lon="10.4147116"><ele>419.0</ele><time>2026-03-23T08:07:55.139Z</time></trkpt><trkpt lat="44.1437005" lon="10.4147197"><ele>417.0</ele><time>2026-03-23T08:07:56.13Z</time></trkpt><trkpt lat="44.1437998" lon="10.4147293"><ele>415.0</ele><time>2026-03-23T08:07:57.128Z</time></trkpt><trkpt lat="44.1439011" lon="10.4147542"><ele>415.00000000000006</ele><time>2026-03-23T08:07:58.138Z</time></trkpt><trkpt lat="44.1439967" lon="10.4147987"><ele>415.0</ele><time>2026-03-23T08:07:59.157Z</time></trkpt><trkpt lat="44.1440706" lon="10.4148512"><ele>415.0</ele><time>2026-03-23T08:08:00.134Z</time></trkpt><trkpt lat="44.1441116" lon="10.4149199"><ele>415.0</ele><time>2026-03-23T08:08:01.13Z</time></trkpt><trkpt lat="44.1441108" lon="10.4150613"><ele>415.00000000000006</ele><time>2026-03-23T08:08:03.131Z</time></trkpt><trkpt lat="44.1440427" lon="10.4150926"><ele>415.0</ele><time>2026-03-23T08:08:04.139Z</time></trkpt><trkpt lat="44.1439793" lon="10.4150916"><ele>415.00000000000006</ele><time>2026-03-23T08:08:05.132Z</time></trkpt><trkpt lat="44.1439139" lon="10.4150703"><ele>415.0</ele><time>2026-03-23T08:08:06.13Z</time></trkpt><trkpt lat="44.1438436" lon="10.415039"><ele>415.0</ele><time>2026-03-23T08:08:07.135Z</time></trkpt><trkpt lat="44.1437681" lon="10.4150098"><ele>415.0</ele><time>2026-03-23T08:08:08.146Z</time></trkpt><trkpt lat="44.1436919" lon="10.4149802"><ele>415.00000000000006</ele><time>2026-03-23T08:08:09.133Z</time></trkpt><trkpt lat="44.143614" lon="10.4149562"><ele>415.0</ele><time>2026-03-23T08:08:10.128Z</time></trkpt><trkpt lat="44.1435323" lon="10.414927"><ele>415.0</ele><time>2026-03-23T08:08:11.128Z</time></trkpt><trkpt lat="44.1434454" lon="10.4149007"><ele>415.0</ele><time>2026-03-23T08:08:12.133Z</time></trkpt><trkpt lat="44.1433539" lon="10.4148775"><ele>415.0</ele><time>2026-03-23T08:08:13.137Z</time></trkpt><trkpt lat="44.1432556" lon="10.4148596"><ele>415.0</ele><time>2026-03-23T08:08:14.131Z</time></trkpt><trkpt lat="44.1431561" lon="10.41486"><ele>415.0</ele><time>2026-03-23T08:08:15.131Z</time></trkpt><trkpt lat="44.1430523" lon="10.4148837"><ele>412.0</ele><time>2026-03-23T08:08:16.138Z</time></trkpt><trkpt lat="44.1429469" lon="10.4149141"><ele>409.0</ele><time>2026-03-23T08:08:17.128Z</time></trkpt><trkpt lat="44.1428352" lon="10.4149347"><ele>406.0</ele><time>2026-03-23T08:08:18.132Z</time></trkpt><trkpt lat="44.1427209" lon="10.4149471"><ele>403.0</ele><time>2026-03-23T08:08:19.153Z</time></trkpt><trkpt lat="44.1426043" lon="10.4149444"><ele>403.0</ele><time>2026-03-23T08:08:20.128Z</time></trkpt><trkpt lat="44.1424849" lon="10.4149262"><ele>403.0</ele><time>2026-03-23T08:08:21.145Z</time></trkpt><trkpt lat="44.1423654" lon="10.4149"><ele>403.0</ele><time>2026-03-23T08:08:22.147Z</time></trkpt><trkpt lat="44.142249" lon="10.4148704"><ele>403.0</ele><time>2026-03-23T08:08:23.146Z</time></trkpt><trkpt lat="44.1421278" lon="10.4148463"><ele>401.5</ele><time>2026-03-23T08:08:24.133Z</time></trkpt><trkpt lat="44.1420032" lon="10.4148255"><ele>400.0</ele><time>2026-03-23T08:08:25.149Z</time></trkpt><trkpt lat="44.141879" lon="10.4148233"><ele>398.5</ele><time>2026-03-23T08:08:26.136Z</time></trkpt><trkpt lat="44.1417544" lon="10.4148427"><ele>397.0</ele><time>2026-03-23T08:08:27.134Z</time></trkpt><trkpt lat="44.1416265" lon="10.4148679"><ele>395.0</ele><time>2026-03-23T08:08:28.139Z</time></trkpt><trkpt lat="44.1415015" lon="10.4148977"><ele>393.0</ele><time>2026-03-23T08:08:29.129Z</time></trkpt><trkpt lat="44.1413869" lon="10.4149172"><ele>391.0</ele><time>2026-03-23T08:08:30.126Z</time></trkpt><trkpt lat="44.1412846" lon="10.4149026"><ele>389.0</ele><time>2026-03-23T08:08:31.135Z</time></trkpt><trkpt lat="44.1411973" lon="10.4148397"><ele>387.0</ele><time>2026-03-23T08:08:32.148Z</time></trkpt><trkpt lat="44.141136" lon="10.4147351"><ele>388.20000000000005</ele><time>2026-03-23T08:08:33.153Z</time></trkpt><trkpt lat="44.1411016" lon="10.4146105"><ele>389.4</ele><time>2026-03-23T08:08:34.133Z</time></trkpt><trkpt lat="44.1410906" lon="10.4144724"><ele>390.6</ele><time>2026-03-23T08:08:35.155Z</time></trkpt><trkpt lat="44.1410705" lon="10.4143398"><ele>391.79999999999995</ele><time>2026-03-23T08:08:36.148Z</time></trkpt><trkpt lat="44.1410074" lon="10.4142303"><ele>393.0</ele><time>2026-03-23T08:08:37.134Z</time></trkpt><trkpt lat="44.140928" lon="10.4141668"><ele>393.0</ele><time>2026-03-23T08:08:38.127Z</time></trkpt><trkpt lat="44.140838" lon="10.4141579"><ele>393.0</ele><time>2026-03-23T08:08:39.129Z</time></trkpt><trkpt lat="44.140754" lon="10.4142024"><ele>393.0</ele><time>2026-03-23T08:08:40.125Z</time></trkpt><trkpt lat="44.1406932" lon="10.4142947"><ele>393.0</ele><time>2026-03-23T08:08:41.135Z</time></trkpt><trkpt lat="44.1406619" lon="10.4144193"><ele>393.0</ele><time>2026-03-23T08:08:42.15Z</time></trkpt><trkpt lat="44.1406547" lon="10.4145503"><ele>390.0</ele><time>2026-03-23T08:08:43.14Z</time></trkpt><trkpt lat="44.1406591" lon="10.4146815"><ele>387.0</ele><time>2026-03-23T08:08:44.129Z</time></trkpt><trkpt lat="44.1406628" lon="10.4148109"><ele>384.0</ele><time>2026-03-23T08:08:45.13Z</time></trkpt><trkpt lat="44.1406687" lon="10.414941"><ele>381.0</ele><time>2026-03-23T08:08:46.134Z</time></trkpt><trkpt lat="44.1406784" lon="10.4150696"><ele>378.0</ele><time>2026-03-23T08:08:47.13Z</time></trkpt><trkpt lat="44.1406847" lon="10.4152011"><ele>378.0</ele><time>2026-03-23T08:08:48.133Z</time></trkpt><trkpt lat="44.1406899" lon="10.415332"><ele>378.0</ele><time>2026-03-23T08:08:49.148Z</time></trkpt><trkpt lat="44.1406943" lon="10.4154606"><ele>378.0</ele><time>2026-03-23T08:08:50.137Z</time></trkpt><trkpt lat="44.1406897" lon="10.4155843"><ele>378.0</ele><time>2026-03-23T08:08:51.134Z</time></trkpt><trkpt lat="44.1406808" lon="10.415708"><ele>378.0</ele><time>2026-03-23T08:08:52.134Z</time></trkpt><trkpt lat="44.1406653" lon="10.4158297"><ele>378.0</ele><time>2026-03-23T08:08:53.152Z</time></trkpt><trkpt lat="44.1406477" lon="10.4159461"><ele>378.0</ele><time>2026-03-23T08:08:54.128Z</time></trkpt><trkpt lat="44.1406304" lon="10.4160601"><ele>378.0</ele><time>2026-03-23T08:08:55.133Z</time></trkpt><trkpt lat="44.1406147" lon="10.4161709"><ele>378.0</ele><time>2026-03-23T08:08:56.138Z</time></trkpt><trkpt lat="44.1406001" lon="10.4162793"><ele>378.0</ele><time>2026-03-23T08:08:57.139Z</time></trkpt><trkpt lat="44.1405866" lon="10.4163827"><ele>378.0</ele><time>2026-03-23T08:08:58.155Z</time></trkpt><trkpt lat="44.140572" lon="10.4164838"><ele>378.0</ele><time>2026-03-23T08:08:59.142Z</time></trkpt><trkpt lat="44.1405583" lon="10.4165788"><ele>378.0</ele><time>2026-03-23T08:09:00.128Z</time></trkpt><trkpt lat="44.1405436" lon="10.4166721"><ele>378.0</ele><time>2026-03-23T08:09:01.138Z</time></trkpt><trkpt lat="44.140532" lon="10.4167651"><ele>378.0</ele><time>2026-03-23T08:09:02.139Z</time></trkpt><trkpt lat="44.1405085" lon="10.4169335"><ele>378.0</ele><time>2026-03-23T08:09:04.13Z</time></trkpt><trkpt lat="44.1404849" lon="10.4171037"><ele>379.0</ele><time>2026-03-23T08:09:06.138Z</time></trkpt><trkpt lat="44.1404644" lon="10.4172615"><ele>380.0</ele><time>2026-03-23T08:09:08.148Z</time></trkpt><trkpt lat="44.140441" lon="10.4174188"><ele>381.0</ele><time>2026-03-23T08:09:10.134Z</time></trkpt><trkpt lat="44.1404207" lon="10.4175656"><ele>382.0</ele><time>2026-03-23T08:09:12.124Z</time></trkpt><trkpt lat="44.1403973" lon="10.4177098"><ele>383.0</ele><time>2026-03-23T08:09:14.135Z</time></trkpt><trkpt lat="44.1403634" lon="10.4178496"><ele>383.0</ele><time>2026-03-23T08:09:16.13Z</time></trkpt><trkpt lat="44.140314" lon="10.4179816"><ele>383.0</ele><time>2026-03-23T08:09:18.129Z</time></trkpt><trkpt lat="44.1402349" lon="10.4180575"><ele>383.0</ele><time>2026-03-23T08:09:20.13Z</time></trkpt><trkpt lat="44.1401557" lon="10.4181096"><ele>383.0</ele><time>2026-03-23T08:09:22.129Z</time></trkpt><trkpt lat="44.1400794" lon="10.4181402"><ele>383.0</ele><time>2026-03-23T08:09:24.13Z</time></trkpt><trkpt lat="44.1400005" lon="10.4181489"><ele>383.0</ele><time>2026-03-23T08:09:26.13Z</time></trkpt><trkpt lat="44.1399296" lon="10.4181578"><ele>384.85714285714283</ele><time>2026-03-23T08:09:28.133Z</time></trkpt><trkpt lat="44.139858" lon="10.4181663"><ele>386.71428571428567</ele><time>2026-03-23T08:09:30.154Z</time></trkpt><trkpt lat="44.139783" lon="10.4181746"><ele>388.57142857142856</ele><time>2026-03-23T08:09:32.13Z</time></trkpt><trkpt lat="44.1397111" lon="10.4181839"><ele>390.42857142857144</ele><time>2026-03-23T08:09:34.13Z</time></trkpt><trkpt lat="44.1396406" lon="10.4181929"><ele>392.2857142857143</ele><time>2026-03-23T08:09:36.132Z</time></trkpt><trkpt lat="44.1395719" lon="10.418196"><ele>394.14285714285717</ele><time>2026-03-23T08:09:38.135Z</time></trkpt><trkpt lat="44.1395031" lon="10.418201"><ele>396.0</ele><time>2026-03-23T08:09:40.14Z</time></trkpt><trkpt lat="44.1394302" lon="10.4182078"><ele>396.0</ele><time>2026-03-23T08:09:42.131Z</time></trkpt><trkpt lat="44.1393631" lon="10.4182067"><ele>396.0</ele><time>2026-03-23T08:09:44.129Z</time></trkpt><trkpt lat="44.1392927" lon="10.4182022"><ele>396.0</ele><time>2026-03-23T08:09:46.134Z</time></trkpt><trkpt lat="44.1392223" lon="10.4181919"><ele>396.0</ele><time>2026-03-23T08:09:48.127Z</time></trkpt><trkpt lat="44.139149" lon="10.4181814"><ele>396.0</ele><time>2026-03-23T08:09:50.134Z</time></trkpt><trkpt lat="44.1390762" lon="10.4181762"><ele>396.0</ele><time>2026-03-23T08:09:52.148Z</time></trkpt><trkpt lat="44.1390056" lon="10.41817"><ele>396.0</ele><time>2026-03-23T08:09:54.137Z</time></trkpt><trkpt lat="44.1389337" lon="10.4181753"><ele>397.0</ele><time>2026-03-23T08:09:56.131Z</time></trkpt><trkpt lat="44.1388638" lon="10.418181"><ele>398.0</ele><time>2026-03-23T08:09:58.161Z</time></trkpt><trkpt lat="44.1387966" lon="10.4181804"><ele>399.0</ele><time>2026-03-23T08:10:00.151Z</time></trkpt><trkpt lat="44.1387284" lon="10.418181"><ele>400.0</ele><time>2026-03-23T08:10:02.134Z</time></trkpt><trkpt lat="44.138658" lon="10.418183"><ele>401.0</ele><time>2026-03-23T08:10:04.139Z</time></trkpt><trkpt lat="44.138587" lon="10.4181839"><ele>402.0</ele><time>2026-03-23T08:10:06.13Z</time></trkpt><trkpt lat="44.138516" lon="10.4181796"><ele>403.0</ele><time>2026-03-23T08:10:08.143Z</time></trkpt><trkpt lat="44.1384463" lon="10.4181667"><ele>403.0</ele><time>2026-03-23T08:10:10.162Z</time></trkpt><trkpt lat="44.1383791" lon="10.4181493"><ele>403.0</ele><time>2026-03-23T08:10:12.142Z</time></trkpt><trkpt lat="44.1383123" lon="10.4181253"><ele>403.0</ele><time>2026-03-23T08:10:14.133Z</time></trkpt><trkpt lat="44.1382523" lon="10.4180979"><ele>403.0</ele><time>2026-03-23T08:10:16.15Z</time></trkpt><trkpt lat="44.1381885" lon="10.4180643"><ele>403.0</ele><time>2026-03-23T08:10:18.137Z</time></trkpt><trkpt lat="44.1381244" lon="10.4180264"><ele>403.0</ele><time>2026-03-23T08:10:20.127Z</time></trkpt><trkpt lat="44.138061" lon="10.4179871"><ele>403.0</ele><time>2026-03-23T08:10:22.151Z</time></trkpt><trkpt lat="44.1379992" lon="10.4179399"><ele>402.5714285714286</ele><time>2026-03-23T08:10:24.136Z</time></trkpt><trkpt lat="44.1379434" lon="10.4178819"><ele>402.1428571428571</ele><time>2026-03-23T08:10:26.133Z</time></trkpt><trkpt lat="44.1378894" lon="10.4178228"><ele>401.7142857142857</ele><time>2026-03-23T08:10:28.131Z</time></trkpt><trkpt lat="44.1378362" lon="10.4177607"><ele>401.28571428571433</ele><time>2026-03-23T08:10:30.129Z</time></trkpt><trkpt lat="44.1377772" lon="10.4177016"><ele>400.8571428571429</ele><time>2026-03-23T08:10:32.126Z</time></trkpt><trkpt lat="44.1377209" lon="10.417645"><ele>400.42857142857144</ele><time>2026-03-23T08:10:34.143Z</time></trkpt><trkpt lat="44.1376645" lon="10.4175826"><ele>400.0</ele><time>2026-03-23T08:10:36.132Z</time></trkpt><trkpt lat="44.1376116" lon="10.4175223"><ele>400.00000000000006</ele><time>2026-03-23T08:10:38.156Z</time></trkpt><trkpt lat="44.137556" lon="10.4174648"><ele>400.0</ele><time>2026-03-23T08:10:40.137Z</time></trkpt><trkpt lat="44.1374991" lon="10.41741"><ele>400.0</ele><time>2026-03-23T08:10:42.125Z</time></trkpt><trkpt lat="44.1374449" lon="10.4173504"><ele>400.0</ele><time>2026-03-23T08:10:44.142Z</time></trkpt><trkpt lat="44.1373927" lon="10.4172937"><ele>400.0</ele><time>2026-03-23T08:10:46.134Z</time></trkpt><trkpt lat="44.1373382" lon="10.4172372"><ele>400.00000000000006</ele><time>2026-03-23T08:10:48.155Z</time></trkpt><trkpt lat="44.137274" lon="10.4171659"><ele>400.0</ele><time>2026-03-23T08:10:50.141Z</time></trkpt><trkpt lat="44.1371973" lon="10.4170779"><ele>398.8</ele><time>2026-03-23T08:10:52.134Z</time></trkpt><trkpt lat="44.1371132" lon="10.4169826"><ele>397.6</ele><time>2026-03-23T08:10:54.141Z</time></trkpt><trkpt lat="44.1370262" lon="10.4168783"><ele>396.4</ele><time>2026-03-23T08:10:56.145Z</time></trkpt><trkpt lat="44.1369249" lon="10.4167762"><ele>395.2</ele><time>2026-03-23T08:10:58.141Z</time></trkpt><trkpt lat="44.1368707" lon="10.4167168"><ele>394.0</ele><time>2026-03-23T08:10:59.136Z</time></trkpt><trkpt lat="44.1368143" lon="10.4166616"><ele>394.00000000000006</ele><time>2026-03-23T08:11:00.135Z</time></trkpt><trkpt lat="44.13676" lon="10.416602"><ele>394.0</ele><time>2026-03-23T08:11:01.134Z</time></trkpt><trkpt lat="44.1367006" lon="10.4165411"><ele>394.0</ele><time>2026-03-23T08:11:02.14Z</time></trkpt><trkpt lat="44.1366393" lon="10.4164802"><ele>394.0</ele><time>2026-03-23T08:11:03.138Z</time></trkpt><trkpt lat="44.1365779" lon="10.4164178"><ele>394.00000000000006</ele><time>2026-03-23T08:11:04.142Z</time></trkpt><trkpt lat="44.1365124" lon="10.4163544"><ele>394.0</ele><time>2026-03-23T08:11:05.152Z</time></trkpt><trkpt lat="44.1364452" lon="10.4162921"><ele>393.00000000000006</ele><time>2026-03-23T08:11:06.144Z</time></trkpt><trkpt lat="44.1363772" lon="10.4162279"><ele>392.0</ele><time>2026-03-23T08:11:07.147Z</time></trkpt><trkpt lat="44.1363065" lon="10.4161685"><ele>391.0</ele><time>2026-03-23T08:11:08.164Z</time></trkpt><trkpt lat="44.1362301" lon="10.4161109"><ele>390.0</ele><time>2026-03-23T08:11:09.139Z</time></trkpt><trkpt lat="44.1361548" lon="10.4160615"><ele>389.00000000000006</ele><time>2026-03-23T08:11:10.147Z</time></trkpt><trkpt lat="44.1360756" lon="10.416018"><ele>388.0</ele><time>2026-03-23T08:11:11.139Z</time></trkpt><trkpt lat="44.1359906" lon="10.4159789"><ele>388.0</ele><time>2026-03-23T08:11:12.145Z</time></trkpt><trkpt lat="44.1359059" lon="10.4159465"><ele>388.0</ele><time>2026-03-23T08:11:13.139Z</time></trkpt><trkpt lat="44.1358211" lon="10.415911"><ele>388.0</ele><time>2026-03-23T08:11:14.138Z</time></trkpt><trkpt lat="44.1357334" lon="10.4158711"><ele>388.0</ele><time>2026-03-23T08:11:15.147Z</time></trkpt><trkpt lat="44.1356417" lon="10.41583"><ele>388.0</ele><time>2026-03-23T08:11:16.142Z</time></trkpt><trkpt lat="44.1355515" lon="10.4157913"><ele>387.2</ele><time>2026-03-23T08:11:17.141Z</time></trkpt><trkpt lat="44.1354619" lon="10.4157512"><ele>386.4</ele><time>2026-03-23T08:11:18.14Z</time></trkpt><trkpt lat="44.1353693" lon="10.4157143"><ele>385.59999999999997</ele><time>2026-03-23T08:11:19.148Z</time></trkpt><trkpt lat="44.1352748" lon="10.4156786"><ele>384.79999999999995</ele><time>2026-03-23T08:11:20.139Z</time></trkpt><trkpt lat="44.1351827" lon="10.415632"><ele>384.0</ele><time>2026-03-23T08:11:21.129Z</time></trkpt><trkpt lat="44.1350928" lon="10.4155813"><ele>384.0</ele><time>2026-03-23T08:11:22.149Z</time></trkpt><trkpt lat="44.1350025" lon="10.4155289"><ele>384.0</ele><time>2026-03-23T08:11:23.14Z</time></trkpt><trkpt lat="44.1349094" lon="10.4154755"><ele>384.0</ele><time>2026-03-23T08:11:24.136Z</time></trkpt><trkpt lat="44.1348225" lon="10.4154044"><ele>384.0</ele><time>2026-03-23T08:11:25.135Z</time></trkpt><trkpt lat="44.1347385" lon="10.4153248"><ele>384.0</ele><time>2026-03-23T08:11:26.148Z</time></trkpt><trkpt lat="44.1346533" lon="10.4152403"><ele>383.6666666666667</ele><time>2026-03-23T08:11:27.142Z</time></trkpt><trkpt lat="44.1345719" lon="10.415151"><ele>383.3333333333333</ele><time>2026-03-23T08:11:28.131Z</time></trkpt><trkpt lat="44.1344908" lon="10.4150649"><ele>383.0</ele><time>2026-03-23T08:11:29.138Z</time></trkpt><trkpt lat="44.1344163" lon="10.4149814"><ele>382.66666666666663</ele><time>2026-03-23T08:11:30.134Z</time></trkpt><trkpt lat="44.1343639" lon="10.414923"><ele>382.3333333333333</ele><time>2026-03-23T08:11:31.138Z</time></trkpt><trkpt lat="44.1343074" lon="10.414862"><ele>382.0</ele><time>2026-03-23T08:11:33.143Z</time></trkpt><trkpt lat="44.1342548" lon="10.4147967"><ele>382.0</ele><time>2026-03-23T08:11:36.142Z</time></trkpt><trkpt lat="44.1341933" lon="10.4147305"><ele>382.0</ele><time>2026-03-23T08:11:40.129Z</time></trkpt><trkpt lat="44.1341207" lon="10.4146775"><ele>382.0</ele><time>2026-03-23T08:11:43.153Z</time></trkpt><trkpt lat="44.134071" lon="10.41461"><ele>382.0</ele><time>2026-03-23T08:11:45.15Z</time></trkpt><trkpt lat="44.1339969" lon="10.4145294"><ele>382.0</ele><time>2026-03-23T08:11:47.13Z</time></trkpt><trkpt lat="44.1339119" lon="10.4144429"><ele>382.0</ele><time>2026-03-23T08:11:49.151Z</time></trkpt><trkpt lat="44.1338237" lon="10.4143421"><ele>381.20000000000005</ele><time>2026-03-23T08:11:51.134Z</time></trkpt><trkpt lat="44.1337317" lon="10.4142387"><ele>380.4</ele><time>2026-03-23T08:11:53.146Z</time></trkpt><trkpt lat="44.1336376" lon="10.414132"><ele>379.6</ele><time>2026-03-23T08:11:55.145Z</time></trkpt><trkpt lat="44.1335865" lon="10.4140738"><ele>378.79999999999995</ele><time>2026-03-23T08:11:56.146Z</time></trkpt><trkpt lat="44.1334916" lon="10.4139672"><ele>378.0</ele><time>2026-03-23T08:11:58.141Z</time></trkpt><trkpt lat="44.1333867" lon="10.4138902"><ele>378.0</ele><time>2026-03-23T08:12:00.142Z</time></trkpt><trkpt lat="44.1332747" lon="10.4138192"><ele>378.0</ele><time>2026-03-23T08:12:02.142Z</time></trkpt><trkpt lat="44.1332121" lon="10.4137867"><ele>378.0</ele><time>2026-03-23T08:12:03.144Z</time></trkpt><trkpt lat="44.1331476" lon="10.4137564"><ele>378.0</ele><time>2026-03-23T08:12:04.148Z</time></trkpt><trkpt lat="44.1330778" lon="10.4137282"><ele>378.0</ele><time>2026-03-23T08:12:05.149Z</time></trkpt><trkpt lat="44.1330105" lon="10.4136988"><ele>378.0</ele><time>2026-03-23T08:12:06.15Z</time></trkpt><trkpt lat="44.1329393" lon="10.413668"><ele>377.1666666666667</ele><time>2026-03-23T08:12:07.15Z</time></trkpt><trkpt lat="44.1328676" lon="10.4136377"><ele>376.3333333333333</ele><time>2026-03-23T08:12:08.149Z</time></trkpt><trkpt lat="44.1327937" lon="10.4136021"><ele>375.5</ele><time>2026-03-23T08:12:09.146Z</time></trkpt><trkpt lat="44.1327147" lon="10.4135715"><ele>374.66666666666663</ele><time>2026-03-23T08:12:10.148Z</time></trkpt><trkpt lat="44.1326319" lon="10.413537"><ele>373.8333333333333</ele><time>2026-03-23T08:12:11.14Z</time></trkpt><trkpt lat="44.1325477" lon="10.413504"><ele>373.0</ele><time>2026-03-23T08:12:12.133Z</time></trkpt><trkpt lat="44.1324645" lon="10.4134733"><ele>372.0</ele><time>2026-03-23T08:12:13.135Z</time></trkpt><trkpt lat="44.1323771" lon="10.4134389"><ele>371.0</ele><time>2026-03-23T08:12:14.144Z</time></trkpt><trkpt lat="44.1322853" lon="10.4134059"><ele>370.0</ele><time>2026-03-23T08:12:15.144Z</time></trkpt><trkpt lat="44.1321974" lon="10.4133663"><ele>369.0</ele><time>2026-03-23T08:12:16.145Z</time></trkpt><trkpt lat="44.1321018" lon="10.4133294"><ele>368.0</ele><time>2026-03-23T08:12:17.139Z</time></trkpt><trkpt lat="44.1320085" lon="10.413294"><ele>368.0</ele><time>2026-03-23T08:12:18.137Z</time></trkpt><trkpt lat="44.1319114" lon="10.4132568"><ele>368.0</ele><time>2026-03-23T08:12:19.159Z</time></trkpt><trkpt lat="44.1318153" lon="10.4132068"><ele>368.0</ele><time>2026-03-23T08:12:20.141Z</time></trkpt><trkpt lat="44.1317195" lon="10.4131625"><ele>368.0</ele><time>2026-03-23T08:12:21.148Z</time></trkpt><trkpt lat="44.1316237" lon="10.4131175"><ele>368.0</ele><time>2026-03-23T08:12:22.153Z</time></trkpt><trkpt lat="44.1315288" lon="10.4130642"><ele>367.59999999999997</ele><time>2026-03-23T08:12:23.132Z</time></trkpt><trkpt lat="44.131436" lon="10.4130068"><ele>367.2</ele><time>2026-03-23T08:12:24.141Z</time></trkpt><trkpt lat="44.1313416" lon="10.4129478"><ele>366.8</ele><time>2026-03-23T08:12:25.146Z</time></trkpt><trkpt lat="44.1312518" lon="10.4128836"><ele>366.4</ele><time>2026-03-23T08:12:26.138Z</time></trkpt><trkpt lat="44.1311661" lon="10.4128247"><ele>366.0</ele><time>2026-03-23T08:12:27.142Z</time></trkpt><trkpt lat="44.1310863" lon="10.4127703"><ele>365.7142857142857</ele><time>2026-03-23T08:12:28.141Z</time></trkpt><trkpt lat="44.1310158" lon="10.412729"><ele>365.42857142857144</ele><time>2026-03-23T08:12:29.13Z</time></trkpt><trkpt lat="44.1309455" lon="10.4126794"><ele>365.1428571428571</ele><time>2026-03-23T08:12:30.141Z</time></trkpt><trkpt lat="44.130879" lon="10.4126293"><ele>364.8571428571429</ele><time>2026-03-23T08:12:31.145Z</time></trkpt><trkpt lat="44.1308132" lon="10.4125854"><ele>364.57142857142856</ele><time>2026-03-23T08:12:32.143Z</time></trkpt><trkpt lat="44.1307501" lon="10.4125414"><ele>364.2857142857143</ele><time>2026-03-23T08:12:33.139Z</time></trkpt><trkpt lat="44.1306879" lon="10.4124973"><ele>364.0</ele><time>2026-03-23T08:12:34.126Z</time></trkpt><trkpt lat="44.1306258" lon="10.4124557"><ele>363.8333333333333</ele><time>2026-03-23T08:12:35.139Z</time></trkpt><trkpt lat="44.1305614" lon="10.4124155"><ele>363.66666666666663</ele><time>2026-03-23T08:12:36.148Z</time></trkpt><trkpt lat="44.1304992" lon="10.412371"><ele>363.5</ele><time>2026-03-23T08:12:37.148Z</time></trkpt><trkpt lat="44.1304424" lon="10.4123269"><ele>363.3333333333333</ele><time>2026-03-23T08:12:38.139Z</time></trkpt><trkpt lat="44.1303301" lon="10.4122439"><ele>363.1666666666667</ele><time>2026-03-23T08:12:40.15Z</time></trkpt><trkpt lat="44.130233" lon="10.4121767"><ele>363.0</ele><time>2026-03-23T08:12:42.135Z</time></trkpt><trkpt lat="44.1301327" lon="10.4121032"><ele>362.59999999999997</ele><time>2026-03-23T08:12:44.134Z</time></trkpt><trkpt lat="44.1300303" lon="10.4120358"><ele>362.2</ele><time>2026-03-23T08:12:46.135Z</time></trkpt><trkpt lat="44.1299327" lon="10.4119774"><ele>361.8</ele><time>2026-03-23T08:12:48.137Z</time></trkpt><trkpt lat="44.1298315" lon="10.4119225"><ele>361.4</ele><time>2026-03-23T08:12:50.132Z</time></trkpt><trkpt lat="44.129769" lon="10.4118992"><ele>361.0</ele><time>2026-03-23T08:12:51.129Z</time></trkpt><trkpt lat="44.1297027" lon="10.4118788"><ele>360.0</ele><time>2026-03-23T08:12:52.134Z</time></trkpt><trkpt lat="44.1296284" lon="10.4118517"><ele>359.0</ele><time>2026-03-23T08:12:53.142Z</time></trkpt><trkpt lat="44.1295501" lon="10.4118222"><ele>358.0</ele><time>2026-03-23T08:12:54.152Z</time></trkpt><trkpt lat="44.1294711" lon="10.4117888"><ele>357.0</ele><time>2026-03-23T08:12:55.139Z</time></trkpt><trkpt lat="44.1293912" lon="10.4117499"><ele>356.0</ele><time>2026-03-23T08:12:56.131Z</time></trkpt><trkpt lat="44.1293076" lon="10.4117169"><ele>355.0</ele><time>2026-03-23T08:12:57.148Z</time></trkpt><trkpt lat="44.1292254" lon="10.4116858"><ele>355.0</ele><time>2026-03-23T08:12:58.135Z</time></trkpt><trkpt lat="44.129149" lon="10.4116572"><ele>355.0</ele><time>2026-03-23T08:12:59.141Z</time></trkpt><trkpt lat="44.1290848" lon="10.4116189"><ele>355.0</ele><time>2026-03-23T08:13:00.152Z</time></trkpt><trkpt lat="44.1290333" lon="10.4115606"><ele>355.0</ele><time>2026-03-23T08:13:01.148Z</time></trkpt><trkpt lat="44.1289967" lon="10.4114766"><ele>355.0</ele><time>2026-03-23T08:13:02.136Z</time></trkpt><trkpt lat="44.1289527" lon="10.4114001"><ele>355.0</ele><time>2026-03-23T08:13:03.142Z</time></trkpt><trkpt lat="44.1288312" lon="10.4113738"><ele>354.66666666666663</ele><time>2026-03-23T08:13:05.149Z</time></trkpt><trkpt lat="44.1287076" lon="10.4114031"><ele>354.3333333333333</ele><time>2026-03-23T08:13:07.147Z</time></trkpt><trkpt lat="44.1286426" lon="10.411396"><ele>354.0</ele><time>2026-03-23T08:13:08.153Z</time></trkpt><trkpt lat="44.1285746" lon="10.4113944"><ele>353.6666666666667</ele><time>2026-03-23T08:13:09.137Z</time></trkpt><trkpt lat="44.1285051" lon="10.4113897"><ele>353.33333333333337</ele><time>2026-03-23T08:13:10.15Z</time></trkpt><trkpt lat="44.1284354" lon="10.4113913"><ele>353.0</ele><time>2026-03-23T08:13:11.134Z</time></trkpt><trkpt lat="44.1283661" lon="10.411382"><ele>353.0</ele><time>2026-03-23T08:13:12.136Z</time></trkpt><trkpt lat="44.1282998" lon="10.4113615"><ele>353.0</ele><time>2026-03-23T08:13:13.142Z</time></trkpt><trkpt lat="44.1282284" lon="10.4113315"><ele>353.0</ele><time>2026-03-23T08:13:14.14Z</time></trkpt><trkpt lat="44.1281572" lon="10.4113034"><ele>353.0</ele><time>2026-03-23T08:13:15.143Z</time></trkpt><trkpt lat="44.1280831" lon="10.4112725"><ele>353.0</ele><time>2026-03-23T08:13:16.14Z</time></trkpt><trkpt lat="44.1280163" lon="10.4112431"><ele>353.0</ele><time>2026-03-23T08:13:17.148Z</time></trkpt><trkpt lat="44.127943" lon="10.411219"><ele>353.0</ele><time>2026-03-23T08:13:18.149Z</time></trkpt><trkpt lat="44.1278709" lon="10.4111923"><ele>352.57142857142856</ele><time>2026-03-23T08:13:19.146Z</time></trkpt><trkpt lat="44.1277962" lon="10.4111675"><ele>352.14285714285717</ele><time>2026-03-23T08:13:20.151Z</time></trkpt><trkpt lat="44.1277236" lon="10.4111462"><ele>351.7142857142857</ele><time>2026-03-23T08:13:21.131Z</time></trkpt><trkpt lat="44.1276563" lon="10.411127"><ele>351.2857142857143</ele><time>2026-03-23T08:13:22.138Z</time></trkpt><trkpt lat="44.1275824" lon="10.4111082"><ele>350.8571428571429</ele><time>2026-03-23T08:13:23.149Z</time></trkpt><trkpt lat="44.1275122" lon="10.4110821"><ele>350.42857142857144</ele><time>2026-03-23T08:13:24.134Z</time></trkpt><trkpt lat="44.127441" lon="10.4110637"><ele>350.0</ele><time>2026-03-23T08:13:25.146Z</time></trkpt><trkpt lat="44.1273694" lon="10.4110413"><ele>349.85714285714283</ele><time>2026-03-23T08:13:26.137Z</time></trkpt><trkpt lat="44.1272975" lon="10.4110167"><ele>349.7142857142857</ele><time>2026-03-23T08:13:27.143Z</time></trkpt><trkpt lat="44.1272226" lon="10.4109929"><ele>349.57142857142856</ele><time>2026-03-23T08:13:28.132Z</time></trkpt><trkpt lat="44.1271531" lon="10.410968"><ele>349.42857142857144</ele><time>2026-03-23T08:13:29.145Z</time></trkpt><trkpt lat="44.1270829" lon="10.410947"><ele>349.2857142857143</ele><time>2026-03-23T08:13:30.142Z</time></trkpt><trkpt lat="44.1270063" lon="10.4109283"><ele>349.1428571428571</ele><time>2026-03-23T08:13:31.129Z</time></trkpt><trkpt lat="44.1269381" lon="10.4109091"><ele>349.0</ele><time>2026-03-23T08:13:32.146Z</time></trkpt><trkpt lat="44.1268641" lon="10.41089"><ele>349.0</ele><time>2026-03-23T08:13:33.147Z</time></trkpt><trkpt lat="44.1267909" lon="10.4108704"><ele>349.0</ele><time>2026-03-23T08:13:34.152Z</time></trkpt><trkpt lat="44.1267164" lon="10.4108497"><ele>349.0</ele><time>2026-03-23T08:13:35.131Z</time></trkpt><trkpt lat="44.1266443" lon="10.4108286"><ele>349.0</ele><time>2026-03-23T08:13:36.148Z</time></trkpt><trkpt lat="44.1265677" lon="10.4108076"><ele>349.0</ele><time>2026-03-23T08:13:37.14Z</time></trkpt><trkpt lat="44.1264856" lon="10.4107916"><ele>349.0</ele><time>2026-03-23T08:13:38.139Z</time></trkpt><trkpt lat="44.1264072" lon="10.4107712"><ele>348.8333333333333</ele><time>2026-03-23T08:13:39.145Z</time></trkpt><trkpt lat="44.126326" lon="10.4107471"><ele>348.66666666666663</ele><time>2026-03-23T08:13:40.149Z</time></trkpt><trkpt lat="44.1262457" lon="10.4107239"><ele>348.5</ele><time>2026-03-23T08:13:41.142Z</time></trkpt><trkpt lat="44.1261613" lon="10.4107032"><ele>348.3333333333333</ele><time>2026-03-23T08:13:42.128Z</time></trkpt><trkpt lat="44.1260787" lon="10.4106862"><ele>348.1666666666667</ele><time>2026-03-23T08:13:43.141Z</time></trkpt><trkpt lat="44.126004" lon="10.4106607"><ele>348.0</ele><time>2026-03-23T08:13:44.148Z</time></trkpt><trkpt lat="44.1259226" lon="10.4106302"><ele>348.0</ele><time>2026-03-23T08:13:45.142Z</time></trkpt><trkpt lat="44.1258447" lon="10.4105986"><ele>348.0</ele><time>2026-03-23T08:13:46.143Z</time></trkpt><trkpt lat="44.1257663" lon="10.4105698"><ele>348.0</ele><time>2026-03-23T08:13:47.145Z</time></trkpt><trkpt lat="44.1256902" lon="10.4105414"><ele>348.0</ele><time>2026-03-23T08:13:48.146Z</time></trkpt><trkpt lat="44.1256167" lon="10.4105063"><ele>348.0</ele><time>2026-03-23T08:13:49.144Z</time></trkpt><trkpt lat="44.1255367" lon="10.4104764"><ele>348.0</ele><time>2026-03-23T08:13:50.139Z</time></trkpt><trkpt lat="44.1254618" lon="10.4104398"><ele>347.3333333333333</ele><time>2026-03-23T08:13:51.135Z</time></trkpt><trkpt lat="44.1253878" lon="10.4103978"><ele>346.6666666666667</ele><time>2026-03-23T08:13:52.149Z</time></trkpt><trkpt lat="44.1253093" lon="10.4103551"><ele>346.0</ele><time>2026-03-23T08:13:53.155Z</time></trkpt><trkpt lat="44.1252404" lon="10.4102931"><ele>345.33333333333337</ele><time>2026-03-23T08:13:54.146Z</time></trkpt><trkpt lat="44.125175" lon="10.4102177"><ele>344.6666666666667</ele><time>2026-03-23T08:13:55.144Z</time></trkpt><trkpt lat="44.1251244" lon="10.4101203"><ele>344.0</ele><time>2026-03-23T08:13:56.147Z</time></trkpt><trkpt lat="44.1250725" lon="10.4100324"><ele>344.0</ele><time>2026-03-23T08:13:57.144Z</time></trkpt><trkpt lat="44.1250047" lon="10.4099687"><ele>344.0</ele><time>2026-03-23T08:13:58.135Z</time></trkpt><trkpt lat="44.1249293" lon="10.4099318"><ele>344.0</ele><time>2026-03-23T08:13:59.135Z</time></trkpt><trkpt lat="44.1248476" lon="10.4099258"><ele>344.0</ele><time>2026-03-23T08:14:00.145Z</time></trkpt><trkpt lat="44.1247677" lon="10.4099411"><ele>344.0</ele><time>2026-03-23T08:14:01.147Z</time></trkpt><trkpt lat="44.1246914" lon="10.4099618"><ele>344.0</ele><time>2026-03-23T08:14:02.141Z</time></trkpt><trkpt lat="44.1246089" lon="10.4099728"><ele>343.33333333333337</ele><time>2026-03-23T08:14:03.15Z</time></trkpt><trkpt lat="44.1245313" lon="10.4099593"><ele>342.6666666666667</ele><time>2026-03-23T08:14:04.147Z</time></trkpt><trkpt lat="44.1244569" lon="10.4099336"><ele>342.0</ele><time>2026-03-23T08:14:05.149Z</time></trkpt><trkpt lat="44.1243809" lon="10.409894"><ele>341.3333333333333</ele><time>2026-03-23T08:14:06.139Z</time></trkpt><trkpt lat="44.1243014" lon="10.4098511"><ele>340.66666666666663</ele><time>2026-03-23T08:14:07.142Z</time></trkpt><trkpt lat="44.1242223" lon="10.4098051"><ele>340.0</ele><time>2026-03-23T08:14:08.147Z</time></trkpt><trkpt lat="44.1241422" lon="10.4097638"><ele>339.3333333333333</ele><time>2026-03-23T08:14:09.131Z</time></trkpt><trkpt lat="44.1240625" lon="10.4097217"><ele>338.66666666666663</ele><time>2026-03-23T08:14:10.148Z</time></trkpt><trkpt lat="44.1239802" lon="10.4096895"><ele>338.0</ele><time>2026-03-23T08:14:11.143Z</time></trkpt><trkpt lat="44.123897" lon="10.409657"><ele>337.3333333333333</ele><time>2026-03-23T08:14:12.13Z</time></trkpt><trkpt lat="44.123814" lon="10.4096278"><ele>336.6666666666667</ele><time>2026-03-23T08:14:13.129Z</time></trkpt><trkpt lat="44.1237364" lon="10.4095995"><ele>336.0</ele><time>2026-03-23T08:14:14.142Z</time></trkpt><trkpt lat="44.1236554" lon="10.4095714"><ele>335.8333333333333</ele><time>2026-03-23T08:14:15.13Z</time></trkpt><trkpt lat="44.1235745" lon="10.4095403"><ele>335.6666666666667</ele><time>2026-03-23T08:14:16.143Z</time></trkpt><trkpt lat="44.1234925" lon="10.4095149"><ele>335.5</ele><time>2026-03-23T08:14:17.139Z</time></trkpt><trkpt lat="44.1234126" lon="10.4094847"><ele>335.33333333333337</ele><time>2026-03-23T08:14:18.137Z</time></trkpt><trkpt lat="44.1233324" lon="10.4094571"><ele>335.1666666666667</ele><time>2026-03-23T08:14:19.155Z</time></trkpt><trkpt lat="44.1232542" lon="10.4094281"><ele>335.0</ele><time>2026-03-23T08:14:20.143Z</time></trkpt><trkpt lat="44.1231745" lon="10.409404"><ele>334.6666666666667</ele><time>2026-03-23T08:14:21.145Z</time></trkpt><trkpt lat="44.123095" lon="10.409375"><ele>334.33333333333337</ele><time>2026-03-23T08:14:22.139Z</time></trkpt><trkpt lat="44.1230138" lon="10.4093493"><ele>334.0</ele><time>2026-03-23T08:14:23.132Z</time></trkpt><trkpt lat="44.1229337" lon="10.4093313"><ele>333.6666666666667</ele><time>2026-03-23T08:14:24.148Z</time></trkpt><trkpt lat="44.1228547" lon="10.4093127"><ele>333.3333333333333</ele><time>2026-03-23T08:14:25.144Z</time></trkpt><trkpt lat="44.1227721" lon="10.4092953"><ele>333.0</ele><time>2026-03-23T08:14:26.129Z</time></trkpt><trkpt lat="44.1226897" lon="10.4092844"><ele>333.0</ele><time>2026-03-23T08:14:27.15Z</time></trkpt><trkpt lat="44.1226167" lon="10.4092754"><ele>333.0</ele><time>2026-03-23T08:14:28.139Z</time></trkpt><trkpt lat="44.1225334" lon="10.4092636"><ele>333.0</ele><time>2026-03-23T08:14:29.151Z</time></trkpt><trkpt lat="44.1224503" lon="10.4092457"><ele>333.0</ele><time>2026-03-23T08:14:30.141Z</time></trkpt><trkpt lat="44.1223655" lon="10.4092294"><ele>333.0</ele><time>2026-03-23T08:14:31.131Z</time></trkpt><trkpt lat="44.1222803" lon="10.4092162"><ele>333.0</ele><time>2026-03-23T08:14:32.142Z</time></trkpt><trkpt lat="44.1221982" lon="10.4092041"><ele>332.5</ele><time>2026-03-23T08:14:33.145Z</time></trkpt><trkpt lat="44.1221142" lon="10.4091858"><ele>332.0</ele><time>2026-03-23T08:14:34.142Z</time></trkpt><trkpt lat="44.1220318" lon="10.4091658"><ele>331.5</ele><time>2026-03-23T08:14:35.148Z</time></trkpt><trkpt lat="44.1219459" lon="10.409151"><ele>331.0</ele><time>2026-03-23T08:14:36.154Z</time></trkpt><trkpt lat="44.121861" lon="10.4091305"><ele>330.5</ele><time>2026-03-23T08:14:37.146Z</time></trkpt><trkpt lat="44.1217759" lon="10.4091161"><ele>330.0</ele><time>2026-03-23T08:14:38.14Z</time></trkpt><trkpt lat="44.1216919" lon="10.4091038"><ele>330.0</ele><time>2026-03-23T08:14:39.153Z</time></trkpt><trkpt lat="44.1216069" lon="10.4090936"><ele>330.0</ele><time>2026-03-23T08:14:40.15Z</time></trkpt><trkpt lat="44.1215231" lon="10.409085"><ele>330.0</ele><time>2026-03-23T08:14:41.143Z</time></trkpt><trkpt lat="44.1214332" lon="10.4090782"><ele>330.0</ele><time>2026-03-23T08:14:42.148Z</time></trkpt><trkpt lat="44.1213477" lon="10.4090656"><ele>330.0</ele><time>2026-03-23T08:14:43.14Z</time></trkpt><trkpt lat="44.1212584" lon="10.4090565"><ele>330.0</ele><time>2026-03-23T08:14:44.135Z</time></trkpt><trkpt lat="44.121169" lon="10.4090478"><ele>329.5</ele><time>2026-03-23T08:14:45.143Z</time></trkpt><trkpt lat="44.1210796" lon="10.4090392"><ele>329.0</ele><time>2026-03-23T08:14:46.141Z</time></trkpt><trkpt lat="44.1209876" lon="10.4090334"><ele>328.5</ele><time>2026-03-23T08:14:47.137Z</time></trkpt><trkpt lat="44.1208967" lon="10.4090254"><ele>328.0</ele><time>2026-03-23T08:14:48.143Z</time></trkpt><trkpt lat="44.1208082" lon="10.4090241"><ele>327.5</ele><time>2026-03-23T08:14:49.163Z</time></trkpt><trkpt lat="44.1207323" lon="10.4090184"><ele>327.0</ele><time>2026-03-23T08:14:50.143Z</time></trkpt><trkpt lat="44.1206562" lon="10.4090063"><ele>326.6</ele><time>2026-03-23T08:14:51.141Z</time></trkpt><trkpt lat="44.1205514" lon="10.4089503"><ele>326.20000000000005</ele><time>2026-03-23T08:14:53.148Z</time></trkpt><trkpt lat="44.1205639" lon="10.4088265"><ele>325.8</ele><time>2026-03-23T08:14:55.144Z</time></trkpt><trkpt lat="44.1206286" lon="10.4087283"><ele>325.4</ele><time>2026-03-23T08:14:57.129Z</time></trkpt><trkpt lat="44.1206932" lon="10.4086335"><ele>325.0</ele><time>2026-03-23T08:14:59.14Z</time></trkpt><trkpt lat="44.1207509" lon="10.4085296"><ele>325.0</ele><time>2026-03-23T08:15:01.143Z</time></trkpt><trkpt lat="44.1208118" lon="10.4084322"><ele>325.0</ele><time>2026-03-23T08:15:03.136Z</time></trkpt><trkpt lat="44.1208734" lon="10.408323"><ele>325.0</ele><time>2026-03-23T08:15:05.139Z</time></trkpt><trkpt lat="44.1209341" lon="10.4082239"><ele>325.0</ele><time>2026-03-23T08:15:07.134Z</time></trkpt><trkpt lat="44.1209999" lon="10.408126"><ele>325.0</ele><time>2026-03-23T08:15:09.143Z</time></trkpt><trkpt lat="44.1210582" lon="10.4080267"><ele>323.2</ele><time>2026-03-23T08:15:11.143Z</time></trkpt><trkpt lat="44.121122" lon="10.4079186"><ele>321.4</ele><time>2026-03-23T08:15:13.146Z</time></trkpt><trkpt lat="44.1211853" lon="10.4078143"><ele>319.6</ele><time>2026-03-23T08:15:15.136Z</time></trkpt><trkpt lat="44.121251" lon="10.4077139"><ele>317.8</ele><time>2026-03-23T08:15:17.14Z</time></trkpt><trkpt lat="44.1213111" lon="10.4076011"><ele>316.0</ele><time>2026-03-23T08:15:19.145Z</time></trkpt><trkpt lat="44.1213715" lon="10.4074916"><ele>316.0</ele><time>2026-03-23T08:15:21.147Z</time></trkpt><trkpt lat="44.1214347" lon="10.4073919"><ele>316.0</ele><time>2026-03-23T08:15:23.148Z</time></trkpt><trkpt lat="44.1214969" lon="10.4072958"><ele>316.0</ele><time>2026-03-23T08:15:25.146Z</time></trkpt><trkpt lat="44.1215534" lon="10.4071913"><ele>316.0</ele><time>2026-03-23T08:15:27.127Z</time></trkpt><trkpt lat="44.1216194" lon="10.4070878"><ele>316.0</ele><time>2026-03-23T08:15:29.136Z</time></trkpt><trkpt lat="44.1216817" lon="10.406987"><ele>317.0</ele><time>2026-03-23T08:15:31.137Z</time></trkpt><trkpt lat="44.1217467" lon="10.4068772"><ele>318.0</ele><time>2026-03-23T08:15:33.132Z</time></trkpt><trkpt lat="44.1218054" lon="10.406769"><ele>319.0</ele><time>2026-03-23T08:15:35.152Z</time></trkpt><trkpt lat="44.1218647" lon="10.4066536"><ele>320.0</ele><time>2026-03-23T08:15:37.138Z</time></trkpt><trkpt lat="44.121927" lon="10.406551"><ele>321.0</ele><time>2026-03-23T08:15:39.138Z</time></trkpt><trkpt lat="44.1219916" lon="10.4064563"><ele>321.0</ele><time>2026-03-23T08:15:41.151Z</time></trkpt><trkpt lat="44.1220545" lon="10.4063531"><ele>321.0</ele><time>2026-03-23T08:15:43.138Z</time></trkpt><trkpt lat="44.1221193" lon="10.4062515"><ele>321.0</ele><time>2026-03-23T08:15:45.133Z</time></trkpt><trkpt lat="44.1221896" lon="10.4061467"><ele>321.0</ele><time>2026-03-23T08:15:47.145Z</time></trkpt><trkpt lat="44.122255" lon="10.4060448"><ele>321.0</ele><time>2026-03-23T08:15:49.138Z</time></trkpt><trkpt lat="44.1223276" lon="10.4059307"><ele>321.4</ele><time>2026-03-23T08:15:51.135Z</time></trkpt><trkpt lat="44.1223949" lon="10.4058304"><ele>321.8</ele><time>2026-03-23T08:15:53.132Z</time></trkpt><trkpt lat="44.1224569" lon="10.40573"><ele>322.2</ele><time>2026-03-23T08:15:55.132Z</time></trkpt><trkpt lat="44.1225193" lon="10.4056322"><ele>322.59999999999997</ele><time>2026-03-23T08:15:57.128Z</time></trkpt><trkpt lat="44.122583" lon="10.4055245"><ele>323.0</ele><time>2026-03-23T08:15:59.144Z</time></trkpt><trkpt lat="44.1226493" lon="10.4054105"><ele>323.0</ele><time>2026-03-23T08:16:01.132Z</time></trkpt><trkpt lat="44.1227126" lon="10.4052988"><ele>323.0</ele><time>2026-03-23T08:16:03.133Z</time></trkpt><trkpt lat="44.1227815" lon="10.405186"><ele>323.0</ele><time>2026-03-23T08:16:05.135Z</time></trkpt><trkpt lat="44.1228465" lon="10.4050739"><ele>323.0</ele><time>2026-03-23T08:16:07.143Z</time></trkpt><trkpt lat="44.1229143" lon="10.4049643"><ele>323.0</ele><time>2026-03-23T08:16:09.131Z</time></trkpt><trkpt lat="44.1229755" lon="10.4048508"><ele>323.0</ele><time>2026-03-23T08:16:11.142Z</time></trkpt><trkpt lat="44.1230461" lon="10.4047495"><ele>323.0</ele><time>2026-03-23T08:16:13.135Z</time></trkpt><trkpt lat="44.1231141" lon="10.4046415"><ele>323.0</ele><time>2026-03-23T08:16:15.139Z</time></trkpt><trkpt lat="44.123178" lon="10.404533"><ele>323.0</ele><time>2026-03-23T08:16:17.139Z</time></trkpt><trkpt lat="44.1232463" lon="10.4044316"><ele>323.0</ele><time>2026-03-23T08:16:19.131Z</time></trkpt><trkpt lat="44.1233118" lon="10.4043249"><ele>323.2</ele><time>2026-03-23T08:16:21.139Z</time></trkpt><trkpt lat="44.1233786" lon="10.4042137"><ele>323.4</ele><time>2026-03-23T08:16:23.152Z</time></trkpt><trkpt lat="44.1234494" lon="10.4041086"><ele>323.59999999999997</ele><time>2026-03-23T08:16:25.143Z</time></trkpt><trkpt lat="44.1235035" lon="10.4039996"><ele>323.79999999999995</ele><time>2026-03-23T08:16:27.135Z</time></trkpt><trkpt lat="44.1235684" lon="10.4038881"><ele>324.0</ele><time>2026-03-23T08:16:29.138Z</time></trkpt><trkpt lat="44.1236283" lon="10.4037882"><ele>323.4</ele><time>2026-03-23T08:16:31.147Z</time></trkpt><trkpt lat="44.1236875" lon="10.4036838"><ele>322.79999999999995</ele><time>2026-03-23T08:16:33.132Z</time></trkpt><trkpt lat="44.1237459" lon="10.4035773"><ele>322.20000000000005</ele><time>2026-03-23T08:16:35.138Z</time></trkpt><trkpt lat="44.1238155" lon="10.4034686"><ele>321.6</ele><time>2026-03-23T08:16:37.139Z</time></trkpt><trkpt lat="44.123878" lon="10.4033661"><ele>321.0</ele><time>2026-03-23T08:16:39.146Z</time></trkpt><trkpt lat="44.1239429" lon="10.4032639"><ele>321.0</ele><time>2026-03-23T08:16:41.144Z</time></trkpt><trkpt lat="44.1240059" lon="10.4031695"><ele>321.0</ele><time>2026-03-23T08:16:43.141Z</time></trkpt><trkpt lat="44.1240803" lon="10.4030632"><ele>321.0</ele><time>2026-03-23T08:16:45.134Z</time></trkpt><trkpt lat="44.1241436" lon="10.4029593"><ele>321.0</ele><time>2026-03-23T08:16:47.135Z</time></trkpt><trkpt lat="44.124208" lon="10.4028527"><ele>321.0</ele><time>2026-03-23T08:16:49.134Z</time></trkpt><trkpt lat="44.1242676" lon="10.4027447"><ele>321.20000000000005</ele><time>2026-03-23T08:16:51.149Z</time></trkpt><trkpt lat="44.1243323" lon="10.4026347"><ele>321.40000000000003</ele><time>2026-03-23T08:16:53.146Z</time></trkpt><trkpt lat="44.1243986" lon="10.4025253"><ele>321.6</ele><time>2026-03-23T08:16:55.138Z</time></trkpt><trkpt lat="44.1244567" lon="10.4024237"><ele>321.8</ele><time>2026-03-23T08:16:57.147Z</time></trkpt><trkpt lat="44.1245253" lon="10.40232"><ele>322.0</ele><time>2026-03-23T08:16:59.135Z</time></trkpt><trkpt lat="44.1245914" lon="10.402212"><ele>322.40000000000003</ele><time>2026-03-23T08:17:01.139Z</time></trkpt><trkpt lat="44.1246603" lon="10.4021054"><ele>322.8</ele><time>2026-03-23T08:17:03.14Z</time></trkpt><trkpt lat="44.124724" lon="10.4020015"><ele>323.2</ele><time>2026-03-23T08:17:05.142Z</time></trkpt><trkpt lat="44.1247863" lon="10.4018922"><ele>323.6</ele><time>2026-03-23T08:17:07.142Z</time></trkpt><trkpt lat="44.1248559" lon="10.4017934"><ele>324.0</ele><time>2026-03-23T08:17:09.129Z</time></trkpt><trkpt lat="44.1249163" lon="10.4016814"><ele>324.0</ele><time>2026-03-23T08:17:11.141Z</time></trkpt><trkpt lat="44.124975" lon="10.4015777"><ele>324.0</ele><time>2026-03-23T08:17:13.137Z</time></trkpt><trkpt lat="44.1250404" lon="10.4014725"><ele>324.0</ele><time>2026-03-23T08:17:15.138Z</time></trkpt><trkpt lat="44.1251006" lon="10.4013773"><ele>324.0</ele><time>2026-03-23T08:17:17.145Z</time></trkpt><trkpt lat="44.1251613" lon="10.4012805"><ele>324.0</ele><time>2026-03-23T08:17:19.14Z</time></trkpt><trkpt lat="44.1252149" lon="10.401182"><ele>323.3333333333333</ele><time>2026-03-23T08:17:21.129Z</time></trkpt><trkpt lat="44.1252671" lon="10.4010934"><ele>322.6666666666667</ele><time>2026-03-23T08:17:23.141Z</time></trkpt><trkpt lat="44.12532" lon="10.4010219"><ele>322.0</ele><time>2026-03-23T08:17:25.136Z</time></trkpt><trkpt lat="44.1253945" lon="10.4009746"><ele>321.33333333333337</ele><time>2026-03-23T08:17:29.14Z</time></trkpt><trkpt lat="44.1254319" lon="10.4008845"><ele>320.6666666666667</ele><time>2026-03-23T08:17:32.14Z</time></trkpt><trkpt lat="44.1254963" lon="10.4007877"><ele>320.0</ele><time>2026-03-23T08:17:35.142Z</time></trkpt><trkpt lat="44.1255419" lon="10.4007187"><ele>320.0</ele><time>2026-03-23T08:17:37.14Z</time></trkpt><trkpt lat="44.1255854" lon="10.4006511"><ele>320.0</ele><time>2026-03-23T08:17:39.133Z</time></trkpt><trkpt lat="44.1256368" lon="10.4005643"><ele>320.0</ele><time>2026-03-23T08:17:42.137Z</time></trkpt><trkpt lat="44.1256421" lon="10.4004683"><ele>320.0</ele><time>2026-03-23T08:17:45.135Z</time></trkpt><trkpt lat="44.1256703" lon="10.4003705"><ele>320.0</ele><time>2026-03-23T08:17:50.136Z</time></trkpt><trkpt lat="44.1257377" lon="10.400355"><ele>320.0</ele><time>2026-03-23T08:17:54.16Z</time></trkpt><trkpt lat="44.1257557" lon="10.4002486"><ele>320.0</ele><time>2026-03-23T08:17:59.142Z</time></trkpt><trkpt lat="44.1257392" lon="10.4001546"><ele>320.0</ele><time>2026-03-23T08:18:01.143Z</time></trkpt><trkpt lat="44.1257226" lon="10.4000641"><ele>320.0</ele><time>2026-03-23T08:18:03.133Z</time></trkpt><trkpt lat="44.1257793" lon="10.4001565"><ele>320.0</ele><time>2026-03-23T08:18:09.138Z</time></trkpt><trkpt lat="44.1257939" lon="10.4002578"><ele>320.0</ele><time>2026-03-23T08:18:11.145Z</time></trkpt><trkpt lat="44.1258081" lon="10.4003796"><ele>320.0</ele><time>2026-03-23T08:18:13.14Z</time></trkpt><trkpt lat="44.1258292" lon="10.4004667"><ele>320.0</ele><time>2026-03-23T08:18:15.143Z</time></trkpt><trkpt lat="44.1258985" lon="10.4004638"><ele>320.0</ele><time>2026-03-23T08:18:17.14Z</time></trkpt><trkpt lat="44.1259469" lon="10.4003985"><ele>320.0</ele><time>2026-03-23T08:18:19.139Z</time></trkpt><trkpt lat="44.1259268" lon="10.4002954"><ele>320.0</ele><time>2026-03-23T08:18:21.14Z</time></trkpt><trkpt lat="44.1258907" lon="10.4001775"><ele>320.0</ele><time>2026-03-23T08:18:23.142Z</time></trkpt><trkpt lat="44.1259477" lon="10.4000531"><ele>320.0</ele><time>2026-03-23T08:18:25.142Z</time></trkpt><trkpt lat="44.1260533" lon="10.399957"><ele>320.0</ele><time>2026-03-23T08:18:27.134Z</time></trkpt><trkpt lat="44.126119" lon="10.399919"><ele>320.0</ele><time>2026-03-23T08:18:28.141Z</time></trkpt><trkpt lat="44.1261845" lon="10.3998861"><ele>320.0</ele><time>2026-03-23T08:18:29.13Z</time></trkpt><trkpt lat="44.126251" lon="10.3998558"><ele>320.0</ele><time>2026-03-23T08:18:30.146Z</time></trkpt><trkpt lat="44.1263162" lon="10.3998257"><ele>320.0</ele><time>2026-03-23T08:18:31.139Z</time></trkpt><trkpt lat="44.1263815" lon="10.399789"><ele>320.0</ele><time>2026-03-23T08:18:32.145Z</time></trkpt><trkpt lat="44.1264521" lon="10.3997615"><ele>320.0</ele><time>2026-03-23T08:18:33.13Z</time></trkpt><trkpt lat="44.1265239" lon="10.3997232"><ele>319.0</ele><time>2026-03-23T08:18:34.148Z</time></trkpt><trkpt lat="44.1265965" lon="10.3996886"><ele>318.0</ele><time>2026-03-23T08:18:35.146Z</time></trkpt><trkpt lat="44.1266735" lon="10.3996614"><ele>317.0</ele><time>2026-03-23T08:18:36.148Z</time></trkpt><trkpt lat="44.1267476" lon="10.3996326"><ele>316.0</ele><time>2026-03-23T08:18:37.144Z</time></trkpt><trkpt lat="44.1268234" lon="10.3996024"><ele>315.0</ele><time>2026-03-23T08:18:38.15Z</time></trkpt><trkpt lat="44.1268936" lon="10.3995647"><ele>314.0</ele><time>2026-03-23T08:18:39.155Z</time></trkpt><trkpt lat="44.1269562" lon="10.3995078"><ele>314.0</ele><time>2026-03-23T08:18:40.146Z</time></trkpt><trkpt lat="44.1270095" lon="10.3994362"><ele>314.0</ele><time>2026-03-23T08:18:41.153Z</time></trkpt><trkpt lat="44.1270406" lon="10.3993548"><ele>314.0</ele><time>2026-03-23T08:18:42.135Z</time></trkpt><trkpt lat="44.1270464" lon="10.3992597"><ele>314.0</ele><time>2026-03-23T08:18:43.147Z</time></trkpt><trkpt lat="44.1270134" lon="10.3991035"><ele>314.0</ele><time>2026-03-23T08:18:45.143Z</time></trkpt><trkpt lat="44.126973" lon="10.3989869"><ele>314.0</ele><time>2026-03-23T08:18:47.148Z</time></trkpt><trkpt lat="44.1269383" lon="10.3988815"><ele>315.1428571428571</ele><time>2026-03-23T08:18:49.132Z</time></trkpt><trkpt lat="44.1269038" lon="10.3987929"><ele>316.2857142857143</ele><time>2026-03-23T08:18:51.148Z</time></trkpt><trkpt lat="44.1268676" lon="10.3987064"><ele>317.42857142857144</ele><time>2026-03-23T08:18:53.147Z</time></trkpt><trkpt lat="44.1268297" lon="10.3986225"><ele>318.57142857142856</ele><time>2026-03-23T08:18:55.137Z</time></trkpt><trkpt lat="44.1267946" lon="10.3985429"><ele>319.7142857142857</ele><time>2026-03-23T08:18:57.137Z</time></trkpt><trkpt lat="44.1267653" lon="10.3984617"><ele>320.85714285714283</ele><time>2026-03-23T08:18:59.139Z</time></trkpt><trkpt lat="44.1267331" lon="10.3983824"><ele>322.0</ele><time>2026-03-23T08:19:01.138Z</time></trkpt><trkpt lat="44.1267022" lon="10.3983002"><ele>322.0</ele><time>2026-03-23T08:19:03.135Z</time></trkpt><trkpt lat="44.1266694" lon="10.3982155"><ele>322.0</ele><time>2026-03-23T08:19:05.141Z</time></trkpt><trkpt lat="44.1266338" lon="10.3981335"><ele>322.0</ele><time>2026-03-23T08:19:07.146Z</time></trkpt><trkpt lat="44.1266016" lon="10.3980536"><ele>322.0</ele><time>2026-03-23T08:19:09.142Z</time></trkpt><trkpt lat="44.1265762" lon="10.3979699"><ele>322.0</ele><time>2026-03-23T08:19:11.135Z</time></trkpt><trkpt lat="44.1265695" lon="10.3978754"><ele>322.0</ele><time>2026-03-23T08:19:13.141Z</time></trkpt><trkpt lat="44.126577" lon="10.3977857"><ele>322.0</ele><time>2026-03-23T08:19:15.133Z</time></trkpt><trkpt lat="44.1265973" lon="10.3976937"><ele>322.42857142857144</ele><time>2026-03-23T08:19:17.136Z</time></trkpt><trkpt lat="44.1266335" lon="10.3976113"><ele>322.8571428571429</ele><time>2026-03-23T08:19:19.142Z</time></trkpt><trkpt lat="44.1266759" lon="10.3975368"><ele>323.2857142857143</ele><time>2026-03-23T08:19:21.153Z</time></trkpt><trkpt lat="44.1267209" lon="10.3974632"><ele>323.7142857142857</ele><time>2026-03-23T08:19:23.136Z</time></trkpt><trkpt lat="44.1267619" lon="10.397388"><ele>324.14285714285717</ele><time>2026-03-23T08:19:25.134Z</time></trkpt><trkpt lat="44.1268005" lon="10.3973088"><ele>324.57142857142856</ele><time>2026-03-23T08:19:27.14Z</time></trkpt><trkpt lat="44.1268366" lon="10.3972326"><ele>325.0</ele><time>2026-03-23T08:19:29.135Z</time></trkpt><trkpt lat="44.1268724" lon="10.3971489"><ele>324.0</ele><time>2026-03-23T08:19:31.132Z</time></trkpt><trkpt lat="44.1269078" lon="10.3970661"><ele>323.0</ele><time>2026-03-23T08:19:33.131Z</time></trkpt><trkpt lat="44.126945" lon="10.3969828"><ele>322.0</ele><time>2026-03-23T08:19:35.128Z</time></trkpt><trkpt lat="44.1269825" lon="10.3968974"><ele>321.0</ele><time>2026-03-23T08:19:37.154Z</time></trkpt><trkpt lat="44.1270165" lon="10.3968149"><ele>320.0</ele><time>2026-03-23T08:19:39.148Z</time></trkpt><trkpt lat="44.1270581" lon="10.3967385"><ele>319.0</ele><time>2026-03-23T08:19:41.138Z</time></trkpt><trkpt lat="44.1271027" lon="10.396659"><ele>318.0</ele><time>2026-03-23T08:19:43.137Z</time></trkpt><trkpt lat="44.1271491" lon="10.396573"><ele>318.0</ele><time>2026-03-23T08:19:45.15Z</time></trkpt><trkpt lat="44.1271965" lon="10.396491"><ele>318.0</ele><time>2026-03-23T08:19:47.146Z</time></trkpt><trkpt lat="44.1272418" lon="10.3964055"><ele>318.0</ele><time>2026-03-23T08:19:49.13Z</time></trkpt><trkpt lat="44.1272917" lon="10.3963174"><ele>318.0</ele><time>2026-03-23T08:19:51.125Z</time></trkpt><trkpt lat="44.1273395" lon="10.3962292"><ele>318.0</ele><time>2026-03-23T08:19:53.144Z</time></trkpt><trkpt lat="44.1273836" lon="10.3961404"><ele>318.0</ele><time>2026-03-23T08:19:55.13Z</time></trkpt><trkpt lat="44.1274204" lon="10.3960387"><ele>319.1666666666667</ele><time>2026-03-23T08:19:57.132Z</time></trkpt><trkpt lat="44.1274578" lon="10.3959284"><ele>320.3333333333333</ele><time>2026-03-23T08:19:59.129Z</time></trkpt><trkpt lat="44.1274866" lon="10.3958081"><ele>321.5</ele><time>2026-03-23T08:20:01.134Z</time></trkpt><trkpt lat="44.1275147" lon="10.3956954"><ele>322.66666666666663</ele><time>2026-03-23T08:20:03.131Z</time></trkpt><trkpt lat="44.127538" lon="10.3955769"><ele>323.8333333333333</ele><time>2026-03-23T08:20:05.128Z</time></trkpt><trkpt lat="44.1275551" lon="10.3954573"><ele>325.0</ele><time>2026-03-23T08:20:07.128Z</time></trkpt><trkpt lat="44.1275684" lon="10.3953381"><ele>325.0</ele><time>2026-03-23T08:20:09.134Z</time></trkpt><trkpt lat="44.1275842" lon="10.395223"><ele>325.0</ele><time>2026-03-23T08:20:11.131Z</time></trkpt><trkpt lat="44.1275986" lon="10.3951062"><ele>325.0</ele><time>2026-03-23T08:20:13.127Z</time></trkpt><trkpt lat="44.1276149" lon="10.3949836"><ele>325.0</ele><time>2026-03-23T08:20:15.14Z</time></trkpt><trkpt lat="44.1276284" lon="10.3948666"><ele>325.0</ele><time>2026-03-23T08:20:17.136Z</time></trkpt><trkpt lat="44.1276397" lon="10.3947318"><ele>325.0</ele><time>2026-03-23T08:20:19.13Z</time></trkpt><trkpt lat="44.1276535" lon="10.3946207"><ele>324.8333333333333</ele><time>2026-03-23T08:20:21.134Z</time></trkpt><trkpt lat="44.1276641" lon="10.3945135"><ele>324.66666666666663</ele><time>2026-03-23T08:20:23.126Z</time></trkpt><trkpt lat="44.1276801" lon="10.3944158"><ele>324.5</ele><time>2026-03-23T08:20:25.134Z</time></trkpt><trkpt lat="44.1276974" lon="10.3943144"><ele>324.3333333333333</ele><time>2026-03-23T08:20:27.13Z</time></trkpt><trkpt lat="44.1277175" lon="10.3942128"><ele>324.1666666666667</ele><time>2026-03-23T08:20:29.133Z</time></trkpt><trkpt lat="44.1277493" lon="10.3941111"><ele>324.0</ele><time>2026-03-23T08:20:31.126Z</time></trkpt><trkpt lat="44.1277935" lon="10.394018"><ele>324.0</ele><time>2026-03-23T08:20:33.136Z</time></trkpt><trkpt lat="44.1278427" lon="10.3939414"><ele>324.0</ele><time>2026-03-23T08:20:35.14Z</time></trkpt><trkpt lat="44.1279124" lon="10.3938629"><ele>324.0</ele><time>2026-03-23T08:20:37.131Z</time></trkpt><trkpt lat="44.1279851" lon="10.3938017"><ele>324.0</ele><time>2026-03-23T08:20:39.129Z</time></trkpt><trkpt lat="44.1280605" lon="10.3937586"><ele>324.0</ele><time>2026-03-23T08:20:41.134Z</time></trkpt><trkpt lat="44.1281376" lon="10.3937237"><ele>324.0</ele><time>2026-03-23T08:20:43.131Z</time></trkpt><trkpt lat="44.1282159" lon="10.3936932"><ele>325.5</ele><time>2026-03-23T08:20:45.137Z</time></trkpt><trkpt lat="44.1282953" lon="10.3936641"><ele>327.0</ele><time>2026-03-23T08:20:47.141Z</time></trkpt><trkpt lat="44.1283743" lon="10.3936364"><ele>328.5</ele><time>2026-03-23T08:20:49.13Z</time></trkpt><trkpt lat="44.1284504" lon="10.3936059"><ele>330.0</ele><time>2026-03-23T08:20:51.128Z</time></trkpt><trkpt lat="44.1285275" lon="10.3935747"><ele>331.5</ele><time>2026-03-23T08:20:53.132Z</time></trkpt><trkpt lat="44.1286" lon="10.3935387"><ele>333.0</ele><time>2026-03-23T08:20:55.13Z</time></trkpt><trkpt lat="44.1286739" lon="10.3935027"><ele>333.0</ele><time>2026-03-23T08:20:57.135Z</time></trkpt><trkpt lat="44.1287484" lon="10.3934647"><ele>333.0</ele><time>2026-03-23T08:20:59.143Z</time></trkpt><trkpt lat="44.1288203" lon="10.3934171"><ele>333.0</ele><time>2026-03-23T08:21:01.136Z</time></trkpt><trkpt lat="44.1288934" lon="10.3933639"><ele>333.0</ele><time>2026-03-23T08:21:03.141Z</time></trkpt><trkpt lat="44.1289648" lon="10.3933067"><ele>333.0</ele><time>2026-03-23T08:21:05.133Z</time></trkpt><trkpt lat="44.1290334" lon="10.3932458"><ele>333.0</ele><time>2026-03-23T08:21:07.148Z</time></trkpt><trkpt lat="44.1291002" lon="10.3931801"><ele>333.3333333333333</ele><time>2026-03-23T08:21:09.142Z</time></trkpt><trkpt lat="44.1291642" lon="10.3931089"><ele>333.6666666666667</ele><time>2026-03-23T08:21:11.147Z</time></trkpt><trkpt lat="44.1292211" lon="10.3930329"><ele>334.0</ele><time>2026-03-23T08:21:13.133Z</time></trkpt><trkpt lat="44.1292748" lon="10.3929544"><ele>334.33333333333337</ele><time>2026-03-23T08:21:15.13Z</time></trkpt><trkpt lat="44.1293289" lon="10.3928727"><ele>334.6666666666667</ele><time>2026-03-23T08:21:17.13Z</time></trkpt><trkpt lat="44.1293779" lon="10.392788"><ele>335.0</ele><time>2026-03-23T08:21:19.134Z</time></trkpt><trkpt lat="44.129426" lon="10.3927012"><ele>335.0</ele><time>2026-03-23T08:21:21.149Z</time></trkpt><trkpt lat="44.1294768" lon="10.3926152"><ele>335.0</ele><time>2026-03-23T08:21:23.138Z</time></trkpt><trkpt lat="44.1295254" lon="10.3925299"><ele>335.0</ele><time>2026-03-23T08:21:25.139Z</time></trkpt><trkpt lat="44.1295747" lon="10.3924472"><ele>335.0</ele><time>2026-03-23T08:21:27.133Z</time></trkpt><trkpt lat="44.1296268" lon="10.392369"><ele>335.0</ele><time>2026-03-23T08:21:29.154Z</time></trkpt><trkpt lat="44.1296918" lon="10.3922999"><ele>335.0</ele><time>2026-03-23T08:21:31.131Z</time></trkpt><trkpt lat="44.1297625" lon="10.3922464"><ele>335.0</ele><time>2026-03-23T08:21:33.139Z</time></trkpt><trkpt lat="44.1298329" lon="10.3922078"><ele>335.0</ele><time>2026-03-23T08:21:35.134Z</time></trkpt><trkpt lat="44.1299132" lon="10.3921823"><ele>335.0</ele><time>2026-03-23T08:21:37.147Z</time></trkpt><trkpt lat="44.1299963" lon="10.3921634"><ele>335.0</ele><time>2026-03-23T08:21:39.143Z</time></trkpt><trkpt lat="44.1300771" lon="10.3921446"><ele>335.0</ele><time>2026-03-23T08:21:41.148Z</time></trkpt><trkpt lat="44.1301575" lon="10.3921221"><ele>335.0</ele><time>2026-03-23T08:21:43.14Z</time></trkpt><trkpt lat="44.1302405" lon="10.3921008"><ele>335.5</ele><time>2026-03-23T08:21:45.138Z</time></trkpt><trkpt lat="44.1303203" lon="10.392084"><ele>336.0</ele><time>2026-03-23T08:21:47.133Z</time></trkpt><trkpt lat="44.1304013" lon="10.3920645"><ele>336.5</ele><time>2026-03-23T08:21:49.126Z</time></trkpt><trkpt lat="44.1304839" lon="10.3920431"><ele>337.0</ele><time>2026-03-23T08:21:51.158Z</time></trkpt><trkpt lat="44.1305637" lon="10.3920255"><ele>337.5</ele><time>2026-03-23T08:21:53.136Z</time></trkpt><trkpt lat="44.1306468" lon="10.3920126"><ele>338.0</ele><time>2026-03-23T08:21:55.13Z</time></trkpt><trkpt lat="44.1307293" lon="10.3920176"><ele>338.6666666666667</ele><time>2026-03-23T08:21:57.138Z</time></trkpt><trkpt lat="44.130809" lon="10.392031"><ele>339.33333333333337</ele><time>2026-03-23T08:21:59.14Z</time></trkpt><trkpt lat="44.1308896" lon="10.3920534"><ele>340.0</ele><time>2026-03-23T08:22:01.13Z</time></trkpt><trkpt lat="44.1309699" lon="10.392076"><ele>340.6666666666667</ele><time>2026-03-23T08:22:03.133Z</time></trkpt><trkpt lat="44.1310503" lon="10.3920974"><ele>341.3333333333333</ele><time>2026-03-23T08:22:05.136Z</time></trkpt><trkpt lat="44.131129" lon="10.392118"><ele>342.0</ele><time>2026-03-23T08:22:07.162Z</time></trkpt><trkpt lat="44.1312089" lon="10.3921363"><ele>342.0</ele><time>2026-03-23T08:22:09.134Z</time></trkpt><trkpt lat="44.1312889" lon="10.3921574"><ele>342.0</ele><time>2026-03-23T08:22:11.137Z</time></trkpt><trkpt lat="44.1313668" lon="10.3921859"><ele>342.0</ele><time>2026-03-23T08:22:13.147Z</time></trkpt><trkpt lat="44.1314432" lon="10.3922223"><ele>342.0</ele><time>2026-03-23T08:22:15.138Z</time></trkpt><trkpt lat="44.1315174" lon="10.3922715"><ele>342.0</ele><time>2026-03-23T08:22:17.136Z</time></trkpt><trkpt lat="44.1315893" lon="10.3923268"><ele>342.0</ele><time>2026-03-23T08:22:19.135Z</time></trkpt><trkpt lat="44.1316617" lon="10.3923824"><ele>344.5</ele><time>2026-03-23T08:22:21.131Z</time></trkpt><trkpt lat="44.1317329" lon="10.3924374"><ele>347.0</ele><time>2026-03-23T08:22:23.137Z</time></trkpt><trkpt lat="44.1318018" lon="10.3924976"><ele>349.5</ele><time>2026-03-23T08:22:25.138Z</time></trkpt><trkpt lat="44.1318753" lon="10.3925515"><ele>352.0</ele><time>2026-03-23T08:22:27.146Z</time></trkpt><trkpt lat="44.131947" lon="10.3926094"><ele>354.5</ele><time>2026-03-23T08:22:29.132Z</time></trkpt><trkpt lat="44.1320224" lon="10.3926545"><ele>357.0</ele><time>2026-03-23T08:22:31.132Z</time></trkpt><trkpt lat="44.132103" lon="10.3926905"><ele>357.0</ele><time>2026-03-23T08:22:33.131Z</time></trkpt><trkpt lat="44.1321823" lon="10.3927182"><ele>357.0</ele><time>2026-03-23T08:22:35.136Z</time></trkpt><trkpt lat="44.1322606" lon="10.392734"><ele>357.0</ele><time>2026-03-23T08:22:37.145Z</time></trkpt><trkpt lat="44.132339" lon="10.3927297"><ele>357.0</ele><time>2026-03-23T08:22:39.132Z</time></trkpt><trkpt lat="44.1324207" lon="10.3927209"><ele>357.0</ele><time>2026-03-23T08:22:41.141Z</time></trkpt><trkpt lat="44.1325069" lon="10.3927026"><ele>357.0</ele><time>2026-03-23T08:22:43.151Z</time></trkpt><trkpt lat="44.1325954" lon="10.3926854"><ele>355.20000000000005</ele><time>2026-03-23T08:22:45.145Z</time></trkpt><trkpt lat="44.1326848" lon="10.3926664"><ele>353.4</ele><time>2026-03-23T08:22:47.141Z</time></trkpt><trkpt lat="44.1327762" lon="10.3926432"><ele>351.6</ele><time>2026-03-23T08:22:49.137Z</time></trkpt><trkpt lat="44.1328723" lon="10.3926386"><ele>349.79999999999995</ele><time>2026-03-23T08:22:51.143Z</time></trkpt><trkpt lat="44.1329742" lon="10.3926681"><ele>348.0</ele><time>2026-03-23T08:22:53.141Z</time></trkpt><trkpt lat="44.1330851" lon="10.3927251"><ele>348.0</ele><time>2026-03-23T08:22:55.149Z</time></trkpt><trkpt lat="44.1331439" lon="10.3927582"><ele>348.0</ele><time>2026-03-23T08:22:56.141Z</time></trkpt><trkpt lat="44.1332048" lon="10.3927902"><ele>348.0</ele><time>2026-03-23T08:22:57.152Z</time></trkpt><trkpt lat="44.1333246" lon="10.3928571"><ele>348.0</ele><time>2026-03-23T08:22:59.142Z</time></trkpt><trkpt lat="44.1333861" lon="10.3928912"><ele>348.0</ele><time>2026-03-23T08:23:00.145Z</time></trkpt><trkpt lat="44.1334462" lon="10.3929261"><ele>348.0</ele><time>2026-03-23T08:23:01.151Z</time></trkpt><trkpt lat="44.1335071" lon="10.392957"><ele>348.1428571428571</ele><time>2026-03-23T08:23:02.158Z</time></trkpt><trkpt lat="44.1335695" lon="10.3929896"><ele>348.2857142857143</ele><time>2026-03-23T08:23:03.151Z</time></trkpt><trkpt lat="44.1336329" lon="10.3930229"><ele>348.42857142857144</ele><time>2026-03-23T08:23:04.138Z</time></trkpt><trkpt lat="44.1336974" lon="10.3930468"><ele>348.57142857142856</ele><time>2026-03-23T08:23:05.156Z</time></trkpt><trkpt lat="44.1337699" lon="10.393065"><ele>348.7142857142857</ele><time>2026-03-23T08:23:06.152Z</time></trkpt><trkpt lat="44.1338438" lon="10.3930745"><ele>348.85714285714283</ele><time>2026-03-23T08:23:07.156Z</time></trkpt><trkpt lat="44.1339156" lon="10.3930805"><ele>349.0</ele><time>2026-03-23T08:23:08.14Z</time></trkpt><trkpt lat="44.1339975" lon="10.3930912"><ele>349.0</ele><time>2026-03-23T08:23:09.148Z</time></trkpt><trkpt lat="44.1340776" lon="10.3930967"><ele>349.0</ele><time>2026-03-23T08:23:10.143Z</time></trkpt><trkpt lat="44.134156" lon="10.3930861"><ele>349.0</ele><time>2026-03-23T08:23:11.155Z</time></trkpt><trkpt lat="44.134238" lon="10.3930667"><ele>349.0</ele><time>2026-03-23T08:23:12.145Z</time></trkpt><trkpt lat="44.1343143" lon="10.3930271"><ele>349.0</ele><time>2026-03-23T08:23:13.147Z</time></trkpt><trkpt lat="44.1343872" lon="10.3929677"><ele>349.0</ele><time>2026-03-23T08:23:14.146Z</time></trkpt><trkpt lat="44.1344601" lon="10.3929045"><ele>346.6</ele><time>2026-03-23T08:23:15.146Z</time></trkpt><trkpt lat="44.1345457" lon="10.3928572"><ele>344.2</ele><time>2026-03-23T08:23:16.135Z</time></trkpt><trkpt lat="44.1346397" lon="10.3928321"><ele>341.8</ele><time>2026-03-23T08:23:17.128Z</time></trkpt><trkpt lat="44.1347339" lon="10.392815"><ele>339.40000000000003</ele><time>2026-03-23T08:23:18.146Z</time></trkpt><trkpt lat="44.1348309" lon="10.3928224"><ele>337.0</ele><time>2026-03-23T08:23:19.14Z</time></trkpt><trkpt lat="44.1349268" lon="10.3928188"><ele>336.40000000000003</ele><time>2026-03-23T08:23:20.141Z</time></trkpt><trkpt lat="44.1350259" lon="10.392783"><ele>335.8</ele><time>2026-03-23T08:23:21.141Z</time></trkpt><trkpt lat="44.1351093" lon="10.3927171"><ele>335.2</ele><time>2026-03-23T08:23:22.148Z</time></trkpt><trkpt lat="44.1351913" lon="10.3926443"><ele>334.6</ele><time>2026-03-23T08:23:23.147Z</time></trkpt><trkpt lat="44.1352705" lon="10.3925641"><ele>334.0</ele><time>2026-03-23T08:23:24.133Z</time></trkpt><trkpt lat="44.1353449" lon="10.3924862"><ele>334.0</ele><time>2026-03-23T08:23:25.148Z</time></trkpt><trkpt lat="44.1354103" lon="10.3924102"><ele>334.0</ele><time>2026-03-23T08:23:26.148Z</time></trkpt><trkpt lat="44.1354657" lon="10.3923231"><ele>334.0</ele><time>2026-03-23T08:23:27.136Z</time></trkpt><trkpt lat="44.1354991" lon="10.3922372"><ele>334.0</ele><time>2026-03-23T08:23:28.133Z</time></trkpt><trkpt lat="44.1355233" lon="10.3920802"><ele>334.0</ele><time>2026-03-23T08:23:30.135Z</time></trkpt><trkpt lat="44.1355045" lon="10.3919563"><ele>334.0</ele><time>2026-03-23T08:23:32.131Z</time></trkpt><trkpt lat="44.1354828" lon="10.3918697"><ele>333.85714285714283</ele><time>2026-03-23T08:23:34.128Z</time></trkpt><trkpt lat="44.135428" lon="10.3917984"><ele>333.7142857142857</ele><time>2026-03-23T08:23:36.151Z</time></trkpt><trkpt lat="44.1353869" lon="10.391729"><ele>333.57142857142856</ele><time>2026-03-23T08:23:38.136Z</time></trkpt><trkpt lat="44.1353443" lon="10.3916567"><ele>333.42857142857144</ele><time>2026-03-23T08:23:40.142Z</time></trkpt><trkpt lat="44.1352953" lon="10.3915854"><ele>333.2857142857143</ele><time>2026-03-23T08:23:42.147Z</time></trkpt><trkpt lat="44.1352508" lon="10.39151"><ele>333.14285714285717</ele><time>2026-03-23T08:23:44.134Z</time></trkpt><trkpt lat="44.1352085" lon="10.3914321"><ele>333.0</ele><time>2026-03-23T08:23:46.139Z</time></trkpt><trkpt lat="44.1351681" lon="10.3913589"><ele>335.3333333333333</ele><time>2026-03-23T08:23:48.149Z</time></trkpt><trkpt lat="44.1351308" lon="10.3912854"><ele>337.6666666666667</ele><time>2026-03-23T08:23:50.136Z</time></trkpt><trkpt lat="44.1350782" lon="10.3911759"><ele>340.0</ele><time>2026-03-23T08:23:53.148Z</time></trkpt><trkpt lat="44.1350315" lon="10.39107"><ele>342.33333333333337</ele><time>2026-03-23T08:23:56.13Z</time></trkpt><trkpt lat="44.1349942" lon="10.390991"><ele>344.6666666666667</ele><time>2026-03-23T08:23:58.14Z</time></trkpt><trkpt lat="44.1349582" lon="10.3909081"><ele>347.0</ele><time>2026-03-23T08:24:00.134Z</time></trkpt><trkpt lat="44.1349214" lon="10.3908201"><ele>344.5714285714286</ele><time>2026-03-23T08:24:02.131Z</time></trkpt><trkpt lat="44.1348856" lon="10.3907353"><ele>342.1428571428571</ele><time>2026-03-23T08:24:04.135Z</time></trkpt><trkpt lat="44.1348551" lon="10.3906535"><ele>339.7142857142857</ele><time>2026-03-23T08:24:06.148Z</time></trkpt><trkpt lat="44.1348249" lon="10.3905727"><ele>337.28571428571433</ele><time>2026-03-23T08:24:08.135Z</time></trkpt><trkpt lat="44.1347903" lon="10.3904955"><ele>334.8571428571429</ele><time>2026-03-23T08:24:10.15Z</time></trkpt><trkpt lat="44.1347551" lon="10.3904119"><ele>332.42857142857144</ele><time>2026-03-23T08:24:12.15Z</time></trkpt><trkpt lat="44.1347282" lon="10.3903251"><ele>330.0</ele><time>2026-03-23T08:24:14.138Z</time></trkpt><trkpt lat="44.1347041" lon="10.3902417"><ele>330.00000000000006</ele><time>2026-03-23T08:24:16.141Z</time></trkpt><trkpt lat="44.1346755" lon="10.3901589"><ele>330.0</ele><time>2026-03-23T08:24:18.142Z</time></trkpt><trkpt lat="44.1346458" lon="10.390079"><ele>330.0</ele><time>2026-03-23T08:24:20.149Z</time></trkpt><trkpt lat="44.1346168" lon="10.3899958"><ele>330.0</ele><time>2026-03-23T08:24:22.143Z</time></trkpt><trkpt lat="44.1346012" lon="10.3899089"><ele>330.0</ele><time>2026-03-23T08:24:24.135Z</time></trkpt><trkpt lat="44.1346029" lon="10.3897838"><ele>330.00000000000006</ele><time>2026-03-23T08:24:27.135Z</time></trkpt><trkpt lat="44.1346224" lon="10.3896916"><ele>330.0</ele><time>2026-03-23T08:24:29.134Z</time></trkpt><trkpt lat="44.1346478" lon="10.3895986"><ele>331.8333333333333</ele><time>2026-03-23T08:24:31.142Z</time></trkpt><trkpt lat="44.1346758" lon="10.389509"><ele>333.6666666666667</ele><time>2026-03-23T08:24:33.131Z</time></trkpt><trkpt lat="44.1347028" lon="10.3894266"><ele>335.5</ele><time>2026-03-23T08:24:35.141Z</time></trkpt><trkpt lat="44.1347305" lon="10.3893475"><ele>337.33333333333337</ele><time>2026-03-23T08:24:37.135Z</time></trkpt><trkpt lat="44.134764" lon="10.3892675"><ele>339.1666666666667</ele><time>2026-03-23T08:24:39.141Z</time></trkpt><trkpt lat="44.1348031" lon="10.3891497"><ele>341.0</ele><time>2026-03-23T08:24:42.137Z</time></trkpt><trkpt lat="44.1348223" lon="10.3890202"><ele>341.0</ele><time>2026-03-23T08:24:45.141Z</time></trkpt><trkpt lat="44.1348354" lon="10.388927"><ele>341.0</ele><time>2026-03-23T08:24:47.137Z</time></trkpt><trkpt lat="44.1348441" lon="10.3888326"><ele>341.0</ele><time>2026-03-23T08:24:49.136Z</time></trkpt><trkpt lat="44.1348462" lon="10.3887403"><ele>341.0</ele><time>2026-03-23T08:24:51.139Z</time></trkpt><trkpt lat="44.1348503" lon="10.388651"><ele>341.0</ele><time>2026-03-23T08:24:53.143Z</time></trkpt><trkpt lat="44.1348604" lon="10.3885605"><ele>341.0</ele><time>2026-03-23T08:24:55.149Z</time></trkpt><trkpt lat="44.1348793" lon="10.3884663"><ele>341.0</ele><time>2026-03-23T08:24:57.128Z</time></trkpt><trkpt lat="44.1349041" lon="10.3883784"><ele>343.0</ele><time>2026-03-23T08:24:59.142Z</time></trkpt><trkpt lat="44.134935" lon="10.3882941"><ele>345.0</ele><time>2026-03-23T08:25:01.136Z</time></trkpt><trkpt lat="44.1349667" lon="10.3882102"><ele>347.0</ele><time>2026-03-23T08:25:03.148Z</time></trkpt><trkpt lat="44.1349967" lon="10.3881271"><ele>349.0</ele><time>2026-03-23T08:25:05.14Z</time></trkpt><trkpt lat="44.1350259" lon="10.3880427"><ele>351.0</ele><time>2026-03-23T08:25:07.147Z</time></trkpt><trkpt lat="44.1350539" lon="10.387956"><ele>353.0</ele><time>2026-03-23T08:25:09.151Z</time></trkpt><trkpt lat="44.1350833" lon="10.3878696"><ele>355.0</ele><time>2026-03-23T08:25:11.136Z</time></trkpt><trkpt lat="44.1351095" lon="10.3877827"><ele>355.0</ele><time>2026-03-23T08:25:13.139Z</time></trkpt><trkpt lat="44.1351381" lon="10.3876994"><ele>355.0</ele><time>2026-03-23T08:25:15.14Z</time></trkpt><trkpt lat="44.1351676" lon="10.3876147"><ele>355.0</ele><time>2026-03-23T08:25:17.153Z</time></trkpt><trkpt lat="44.1351939" lon="10.3875273"><ele>355.0</ele><time>2026-03-23T08:25:19.134Z</time></trkpt><trkpt lat="44.1352233" lon="10.3874392"><ele>355.0</ele><time>2026-03-23T08:25:21.142Z</time></trkpt><trkpt lat="44.1352536" lon="10.3873507"><ele>355.0</ele><time>2026-03-23T08:25:23.136Z</time></trkpt><trkpt lat="44.1352854" lon="10.3872629"><ele>355.0</ele><time>2026-03-23T08:25:25.145Z</time></trkpt><trkpt lat="44.1353207" lon="10.3871773"><ele>354.42857142857144</ele><time>2026-03-23T08:25:27.129Z</time></trkpt><trkpt lat="44.1353625" lon="10.3870999"><ele>353.8571428571429</ele><time>2026-03-23T08:25:29.133Z</time></trkpt><trkpt lat="44.1354132" lon="10.3870377"><ele>353.28571428571433</ele><time>2026-03-23T08:25:31.132Z</time></trkpt><trkpt lat="44.1354754" lon="10.386991"><ele>352.7142857142857</ele><time>2026-03-23T08:25:33.132Z</time></trkpt><trkpt lat="44.1355392" lon="10.3869525"><ele>352.14285714285717</ele><time>2026-03-23T08:25:35.14Z</time></trkpt><trkpt lat="44.1356066" lon="10.3869189"><ele>351.5714285714286</ele><time>2026-03-23T08:25:37.139Z</time></trkpt><trkpt lat="44.135673" lon="10.3868855"><ele>351.0</ele><time>2026-03-23T08:25:39.152Z</time></trkpt><trkpt lat="44.1357401" lon="10.3868502"><ele>352.14285714285717</ele><time>2026-03-23T08:25:41.133Z</time></trkpt><trkpt lat="44.1358077" lon="10.3868203"><ele>353.2857142857143</ele><time>2026-03-23T08:25:43.151Z</time></trkpt><trkpt lat="44.1358746" lon="10.3867908"><ele>354.42857142857144</ele><time>2026-03-23T08:25:45.132Z</time></trkpt><trkpt lat="44.1359421" lon="10.3867577"><ele>355.57142857142856</ele><time>2026-03-23T08:25:47.137Z</time></trkpt><trkpt lat="44.1360084" lon="10.3867285"><ele>356.7142857142857</ele><time>2026-03-23T08:25:49.141Z</time></trkpt><trkpt lat="44.1360759" lon="10.3867037"><ele>357.8571428571429</ele><time>2026-03-23T08:25:51.137Z</time></trkpt><trkpt lat="44.1361429" lon="10.3866763"><ele>359.0</ele><time>2026-03-23T08:25:53.149Z</time></trkpt><trkpt lat="44.136208" lon="10.3866448"><ele>359.0</ele><time>2026-03-23T08:25:55.148Z</time></trkpt><trkpt lat="44.136273" lon="10.3866187"><ele>359.0</ele><time>2026-03-23T08:25:57.139Z</time></trkpt><trkpt lat="44.1363377" lon="10.386591"><ele>359.0</ele><time>2026-03-23T08:25:59.139Z</time></trkpt><trkpt lat="44.1364025" lon="10.3865636"><ele>359.0</ele><time>2026-03-23T08:26:01.157Z</time></trkpt><trkpt lat="44.1364677" lon="10.386538"><ele>359.0</ele><time>2026-03-23T08:26:03.129Z</time></trkpt><trkpt lat="44.1365329" lon="10.3865077"><ele>359.0</ele><time>2026-03-23T08:26:05.137Z</time></trkpt><trkpt lat="44.1365981" lon="10.3864768"><ele>359.0</ele><time>2026-03-23T08:26:07.15Z</time></trkpt><trkpt lat="44.1366643" lon="10.3864447"><ele>359.7142857142857</ele><time>2026-03-23T08:26:09.144Z</time></trkpt><trkpt lat="44.1367297" lon="10.3864135"><ele>360.42857142857144</ele><time>2026-03-23T08:26:11.136Z</time></trkpt><trkpt lat="44.1367934" lon="10.386374"><ele>361.1428571428571</ele><time>2026-03-23T08:26:13.141Z</time></trkpt><trkpt lat="44.1368447" lon="10.3863115"><ele>361.8571428571429</ele><time>2026-03-23T08:26:15.144Z</time></trkpt><trkpt lat="44.136882" lon="10.3862266"><ele>362.57142857142856</ele><time>2026-03-23T08:26:17.134Z</time></trkpt><trkpt lat="44.1369049" lon="10.3861325"><ele>363.2857142857143</ele><time>2026-03-23T08:26:19.153Z</time></trkpt><trkpt lat="44.1369021" lon="10.386035"><ele>364.0</ele><time>2026-03-23T08:26:21.151Z</time></trkpt><trkpt lat="44.1368904" lon="10.3859405"><ele>364.0</ele><time>2026-03-23T08:26:23.159Z</time></trkpt><trkpt lat="44.136868" lon="10.3858466"><ele>364.0</ele><time>2026-03-23T08:26:25.152Z</time></trkpt><trkpt lat="44.1368503" lon="10.3857525"><ele>364.0</ele><time>2026-03-23T08:26:27.14Z</time></trkpt><trkpt lat="44.1368355" lon="10.3856536"><ele>364.0</ele><time>2026-03-23T08:26:29.149Z</time></trkpt><trkpt lat="44.1368244" lon="10.3855597"><ele>364.0</ele><time>2026-03-23T08:26:31.141Z</time></trkpt><trkpt lat="44.1368157" lon="10.3854651"><ele>364.0</ele><time>2026-03-23T08:26:33.135Z</time></trkpt><trkpt lat="44.1368082" lon="10.3853706"><ele>364.0</ele><time>2026-03-23T08:26:35.138Z</time></trkpt><trkpt lat="44.1367962" lon="10.3852742"><ele>364.57142857142856</ele><time>2026-03-23T08:26:37.157Z</time></trkpt><trkpt lat="44.1367846" lon="10.3851777"><ele>365.1428571428571</ele><time>2026-03-23T08:26:39.138Z</time></trkpt><trkpt lat="44.1367715" lon="10.3850847"><ele>365.7142857142857</ele><time>2026-03-23T08:26:41.135Z</time></trkpt><trkpt lat="44.1367591" lon="10.3849936"><ele>366.2857142857143</ele><time>2026-03-23T08:26:43.15Z</time></trkpt><trkpt lat="44.1367449" lon="10.3849016"><ele>366.85714285714283</ele><time>2026-03-23T08:26:45.141Z</time></trkpt><trkpt lat="44.1367334" lon="10.3848082"><ele>367.42857142857144</ele><time>2026-03-23T08:26:47.136Z</time></trkpt><trkpt lat="44.1367219" lon="10.3847127"><ele>368.0</ele><time>2026-03-23T08:26:49.144Z</time></trkpt><trkpt lat="44.1367098" lon="10.3846174"><ele>368.8571428571429</ele><time>2026-03-23T08:26:51.146Z</time></trkpt><trkpt lat="44.1366973" lon="10.384523"><ele>369.71428571428567</ele><time>2026-03-23T08:26:53.154Z</time></trkpt><trkpt lat="44.1366833" lon="10.3844256"><ele>370.57142857142856</ele><time>2026-03-23T08:26:55.147Z</time></trkpt><trkpt lat="44.1366704" lon="10.3843294"><ele>371.42857142857144</ele><time>2026-03-23T08:26:57.149Z</time></trkpt><trkpt lat="44.1366574" lon="10.384234"><ele>372.28571428571433</ele><time>2026-03-23T08:26:59.147Z</time></trkpt><trkpt lat="44.1366457" lon="10.3841358"><ele>373.1428571428571</ele><time>2026-03-23T08:27:01.149Z</time></trkpt><trkpt lat="44.1366361" lon="10.3840329"><ele>374.0</ele><time>2026-03-23T08:27:03.145Z</time></trkpt><trkpt lat="44.1366263" lon="10.3839242"><ele>374.0</ele><time>2026-03-23T08:27:05.146Z</time></trkpt><trkpt lat="44.1366143" lon="10.3838218"><ele>374.0</ele><time>2026-03-23T08:27:07.142Z</time></trkpt><trkpt lat="44.1366084" lon="10.3837153"><ele>374.0</ele><time>2026-03-23T08:27:09.15Z</time></trkpt><trkpt lat="44.1366111" lon="10.3836191"><ele>374.0</ele><time>2026-03-23T08:27:11.147Z</time></trkpt><trkpt lat="44.1366169" lon="10.3835224"><ele>374.0</ele><time>2026-03-23T08:27:13.144Z</time></trkpt><trkpt lat="44.1366197" lon="10.3833948"><ele>374.0</ele><time>2026-03-23T08:27:15.143Z</time></trkpt><trkpt lat="44.1366404" lon="10.3832941"><ele>374.0</ele><time>2026-03-23T08:27:17.151Z</time></trkpt><trkpt lat="44.1366789" lon="10.3831964"><ele>374.0</ele><time>2026-03-23T08:27:19.139Z</time></trkpt><trkpt lat="44.1367302" lon="10.3831077"><ele>374.0</ele><time>2026-03-23T08:27:21.152Z</time></trkpt><trkpt lat="44.1367868" lon="10.3830306"><ele>374.0</ele><time>2026-03-23T08:27:23.138Z</time></trkpt><trkpt lat="44.1368506" lon="10.3829677"><ele>374.0</ele><time>2026-03-23T08:27:25.15Z</time></trkpt><trkpt lat="44.1369221" lon="10.3829122"><ele>374.0</ele><time>2026-03-23T08:27:27.143Z</time></trkpt><trkpt lat="44.1369959" lon="10.3828606"><ele>372.83333333333337</ele><time>2026-03-23T08:27:29.145Z</time></trkpt><trkpt lat="44.1370705" lon="10.3828129"><ele>371.6666666666667</ele><time>2026-03-23T08:27:31.149Z</time></trkpt><trkpt lat="44.1371447" lon="10.3827633"><ele>370.5</ele><time>2026-03-23T08:27:33.134Z</time></trkpt><trkpt lat="44.1372195" lon="10.3827145"><ele>369.3333333333333</ele><time>2026-03-23T08:27:35.145Z</time></trkpt><trkpt lat="44.1372919" lon="10.3826673"><ele>368.16666666666663</ele><time>2026-03-23T08:27:37.137Z</time></trkpt><trkpt lat="44.1373612" lon="10.3826203"><ele>367.0</ele><time>2026-03-23T08:27:39.147Z</time></trkpt><trkpt lat="44.1374324" lon="10.3825713"><ele>367.5</ele><time>2026-03-23T08:27:41.15Z</time></trkpt><trkpt lat="44.1375025" lon="10.3825194"><ele>368.0</ele><time>2026-03-23T08:27:43.132Z</time></trkpt><trkpt lat="44.1375674" lon="10.3824547"><ele>368.5</ele><time>2026-03-23T08:27:45.139Z</time></trkpt><trkpt lat="44.1376283" lon="10.382377"><ele>369.0</ele><time>2026-03-23T08:27:47.139Z</time></trkpt><trkpt lat="44.1376827" lon="10.3822915"><ele>369.5</ele><time>2026-03-23T08:27:49.154Z</time></trkpt><trkpt lat="44.1377308" lon="10.3821985"><ele>370.0</ele><time>2026-03-23T08:27:51.142Z</time></trkpt><trkpt lat="44.1377706" lon="10.3821012"><ele>370.0</ele><time>2026-03-23T08:27:53.139Z</time></trkpt><trkpt lat="44.1378091" lon="10.3819999"><ele>370.0</ele><time>2026-03-23T08:27:55.137Z</time></trkpt><trkpt lat="44.1378511" lon="10.381903"><ele>370.0</ele><time>2026-03-23T08:27:57.148Z</time></trkpt><trkpt lat="44.1378971" lon="10.3818046"><ele>370.0</ele><time>2026-03-23T08:27:59.171Z</time></trkpt><trkpt lat="44.1379598" lon="10.3817345"><ele>370.0</ele><time>2026-03-23T08:28:01.151Z</time></trkpt><trkpt lat="44.1380297" lon="10.3816738"><ele>370.0</ele><time>2026-03-23T08:28:03.14Z</time></trkpt><trkpt lat="44.1381034" lon="10.3816157"><ele>370.0</ele><time>2026-03-23T08:28:05.145Z</time></trkpt><trkpt lat="44.1381736" lon="10.381547"><ele>370.0</ele><time>2026-03-23T08:28:07.141Z</time></trkpt><trkpt lat="44.1382396" lon="10.3814739"><ele>370.0</ele><time>2026-03-23T08:28:09.137Z</time></trkpt><trkpt lat="44.138299" lon="10.3813894"><ele>370.0</ele><time>2026-03-23T08:28:11.133Z</time></trkpt><trkpt lat="44.1383569" lon="10.3813056"><ele>370.0</ele><time>2026-03-23T08:28:13.142Z</time></trkpt><trkpt lat="44.138415" lon="10.3812208"><ele>370.0</ele><time>2026-03-23T08:28:15.146Z</time></trkpt><trkpt lat="44.1384764" lon="10.3811453"><ele>371.5</ele><time>2026-03-23T08:28:17.15Z</time></trkpt><trkpt lat="44.1385399" lon="10.3810747"><ele>373.0</ele><time>2026-03-23T08:28:19.155Z</time></trkpt><trkpt lat="44.1386062" lon="10.3810119"><ele>374.5</ele><time>2026-03-23T08:28:21.139Z</time></trkpt><trkpt lat="44.1386703" lon="10.3809534"><ele>376.0</ele><time>2026-03-23T08:28:23.151Z</time></trkpt><trkpt lat="44.1387329" lon="10.3808971"><ele>377.5</ele><time>2026-03-23T08:28:25.142Z</time></trkpt><trkpt lat="44.1387978" lon="10.3808387"><ele>379.0</ele><time>2026-03-23T08:28:27.142Z</time></trkpt><trkpt lat="44.1388624" lon="10.3807763"><ele>379.0</ele><time>2026-03-23T08:28:29.133Z</time></trkpt><trkpt lat="44.1389276" lon="10.3807129"><ele>379.0</ele><time>2026-03-23T08:28:31.139Z</time></trkpt><trkpt lat="44.1389925" lon="10.3806446"><ele>379.0</ele><time>2026-03-23T08:28:33.144Z</time></trkpt><trkpt lat="44.1390487" lon="10.3805637"><ele>379.0</ele><time>2026-03-23T08:28:35.133Z</time></trkpt><trkpt lat="44.1390999" lon="10.3804775"><ele>379.0</ele><time>2026-03-23T08:28:37.137Z</time></trkpt><trkpt lat="44.139145" lon="10.3803855"><ele>379.0</ele><time>2026-03-23T08:28:39.131Z</time></trkpt><trkpt lat="44.139187" lon="10.3802932"><ele>380.5</ele><time>2026-03-23T08:28:41.149Z</time></trkpt><trkpt lat="44.1392293" lon="10.3802"><ele>382.0</ele><time>2026-03-23T08:28:43.144Z</time></trkpt><trkpt lat="44.1392724" lon="10.3801084"><ele>383.5</ele><time>2026-03-23T08:28:45.14Z</time></trkpt><trkpt lat="44.1393136" lon="10.3800105"><ele>385.0</ele><time>2026-03-23T08:28:47.146Z</time></trkpt><trkpt lat="44.1393564" lon="10.3799104"><ele>386.50000000000006</ele><time>2026-03-23T08:28:49.16Z</time></trkpt><trkpt lat="44.1394002" lon="10.3798147"><ele>388.0</ele><time>2026-03-23T08:28:51.138Z</time></trkpt><trkpt lat="44.1394494" lon="10.3797249"><ele>387.1666666666667</ele><time>2026-03-23T08:28:53.145Z</time></trkpt><trkpt lat="44.1395013" lon="10.3796386"><ele>386.33333333333337</ele><time>2026-03-23T08:28:55.149Z</time></trkpt><trkpt lat="44.1395562" lon="10.3795545"><ele>385.5</ele><time>2026-03-23T08:28:57.138Z</time></trkpt><trkpt lat="44.1396141" lon="10.37948"><ele>384.6666666666667</ele><time>2026-03-23T08:28:59.135Z</time></trkpt><trkpt lat="44.139676" lon="10.379409"><ele>383.83333333333337</ele><time>2026-03-23T08:29:01.136Z</time></trkpt><trkpt lat="44.1397354" lon="10.3793321"><ele>383.0</ele><time>2026-03-23T08:29:03.144Z</time></trkpt><trkpt lat="44.1397968" lon="10.3792596"><ele>383.0</ele><time>2026-03-23T08:29:05.147Z</time></trkpt><trkpt lat="44.139865" lon="10.3791946"><ele>383.0</ele><time>2026-03-23T08:29:07.135Z</time></trkpt><trkpt lat="44.1399264" lon="10.3791193"><ele>383.0</ele><time>2026-03-23T08:29:09.145Z</time></trkpt><trkpt lat="44.1399732" lon="10.3790326"><ele>383.0</ele><time>2026-03-23T08:29:11.152Z</time></trkpt><trkpt lat="44.1400112" lon="10.3789383"><ele>383.0</ele><time>2026-03-23T08:29:13.138Z</time></trkpt><trkpt lat="44.1400436" lon="10.3788429"><ele>383.0</ele><time>2026-03-23T08:29:15.147Z</time></trkpt><trkpt lat="44.1400728" lon="10.3787398"><ele>385.33333333333337</ele><time>2026-03-23T08:29:17.138Z</time></trkpt><trkpt lat="44.1401027" lon="10.3786359"><ele>387.6666666666667</ele><time>2026-03-23T08:29:19.152Z</time></trkpt><trkpt lat="44.140136" lon="10.3785327"><ele>390.0</ele><time>2026-03-23T08:29:21.14Z</time></trkpt><trkpt lat="44.1401768" lon="10.3784397"><ele>392.33333333333337</ele><time>2026-03-23T08:29:23.148Z</time></trkpt><trkpt lat="44.1402206" lon="10.3783481"><ele>394.6666666666667</ele><time>2026-03-23T08:29:25.137Z</time></trkpt><trkpt lat="44.1402734" lon="10.3782574"><ele>397.0</ele><time>2026-03-23T08:29:27.153Z</time></trkpt><trkpt lat="44.1403359" lon="10.3781769"><ele>397.00000000000006</ele><time>2026-03-23T08:29:29.133Z</time></trkpt><trkpt lat="44.1404037" lon="10.3781108"><ele>397.0</ele><time>2026-03-23T08:29:31.14Z</time></trkpt><trkpt lat="44.1404782" lon="10.3780689"><ele>397.0</ele><time>2026-03-23T08:29:33.136Z</time></trkpt><trkpt lat="44.1405551" lon="10.3780455"><ele>397.0</ele><time>2026-03-23T08:29:35.151Z</time></trkpt><trkpt lat="44.1406346" lon="10.3780311"><ele>397.00000000000006</ele><time>2026-03-23T08:29:37.148Z</time></trkpt><trkpt lat="44.1407162" lon="10.3780276"><ele>397.0</ele><time>2026-03-23T08:29:39.129Z</time></trkpt><trkpt lat="44.1408045" lon="10.3780307"><ele>397.40000000000003</ele><time>2026-03-23T08:29:41.142Z</time></trkpt><trkpt lat="44.1408959" lon="10.3780271"><ele>397.8</ele><time>2026-03-23T08:29:43.135Z</time></trkpt><trkpt lat="44.1409904" lon="10.378007"><ele>398.2</ele><time>2026-03-23T08:29:45.145Z</time></trkpt><trkpt lat="44.1410748" lon="10.3779779"><ele>398.6</ele><time>2026-03-23T08:29:47.147Z</time></trkpt><trkpt lat="44.1411554" lon="10.3779298"><ele>399.0</ele><time>2026-03-23T08:29:49.135Z</time></trkpt><trkpt lat="44.141239" lon="10.3778587"><ele>399.0</ele><time>2026-03-23T08:29:51.14Z</time></trkpt><trkpt lat="44.1413212" lon="10.3777804"><ele>399.0</ele><time>2026-03-23T08:29:53.14Z</time></trkpt><trkpt lat="44.1413954" lon="10.3777004"><ele>399.0</ele><time>2026-03-23T08:29:55.148Z</time></trkpt><trkpt lat="44.1414707" lon="10.3776291"><ele>399.0</ele><time>2026-03-23T08:29:57.161Z</time></trkpt><trkpt lat="44.1415527" lon="10.377561"><ele>399.0</ele><time>2026-03-23T08:29:59.148Z</time></trkpt><trkpt lat="44.1416292" lon="10.3774923"><ele>399.0</ele><time>2026-03-23T08:30:01.132Z</time></trkpt><trkpt lat="44.1417053" lon="10.3774248"><ele>399.0</ele><time>2026-03-23T08:30:03.145Z</time></trkpt><trkpt lat="44.1417795" lon="10.3773513"><ele>399.0</ele><time>2026-03-23T08:30:05.136Z</time></trkpt><trkpt lat="44.1418468" lon="10.3772661"><ele>399.0</ele><time>2026-03-23T08:30:07.148Z</time></trkpt><trkpt lat="44.1419064" lon="10.3771611"><ele>399.0</ele><time>2026-03-23T08:30:09.138Z</time></trkpt><trkpt lat="44.1419591" lon="10.3770499"><ele>399.0</ele><time>2026-03-23T08:30:11.151Z</time></trkpt><trkpt lat="44.1420053" lon="10.3769362"><ele>399.0</ele><time>2026-03-23T08:30:13.143Z</time></trkpt><trkpt lat="44.1420539" lon="10.376819"><ele>399.0</ele><time>2026-03-23T08:30:15.147Z</time></trkpt><trkpt lat="44.1420942" lon="10.3766982"><ele>399.0</ele><time>2026-03-23T08:30:17.145Z</time></trkpt><trkpt lat="44.1421372" lon="10.3765758"><ele>399.0</ele><time>2026-03-23T08:30:19.152Z</time></trkpt><trkpt lat="44.1421821" lon="10.376455"><ele>398.2</ele><time>2026-03-23T08:30:21.151Z</time></trkpt><trkpt lat="44.1422106" lon="10.3763344"><ele>397.4</ele><time>2026-03-23T08:30:23.157Z</time></trkpt><trkpt lat="44.1422315" lon="10.376212"><ele>396.6</ele><time>2026-03-23T08:30:25.142Z</time></trkpt><trkpt lat="44.1422531" lon="10.3760914"><ele>395.8</ele><time>2026-03-23T08:30:27.136Z</time></trkpt><trkpt lat="44.1422707" lon="10.3759681"><ele>395.0</ele><time>2026-03-23T08:30:29.181Z</time></trkpt><trkpt lat="44.1422802" lon="10.3758412"><ele>395.0</ele><time>2026-03-23T08:30:31.155Z</time></trkpt><trkpt lat="44.1422809" lon="10.3757101"><ele>395.0</ele><time>2026-03-23T08:30:33.137Z</time></trkpt><trkpt lat="44.1422856" lon="10.3755794"><ele>395.0</ele><time>2026-03-23T08:30:35.152Z</time></trkpt><trkpt lat="44.1422926" lon="10.3754439"><ele>395.0</ele><time>2026-03-23T08:30:37.132Z</time></trkpt><trkpt lat="44.1423019" lon="10.3753193"><ele>395.0</ele><time>2026-03-23T08:30:39.147Z</time></trkpt><trkpt lat="44.1423228" lon="10.3751997"><ele>394.8</ele><time>2026-03-23T08:30:41.142Z</time></trkpt><trkpt lat="44.142353" lon="10.3750759"><ele>394.6</ele><time>2026-03-23T08:30:43.141Z</time></trkpt><trkpt lat="44.1423899" lon="10.3749549"><ele>394.4</ele><time>2026-03-23T08:30:45.15Z</time></trkpt><trkpt lat="44.1424286" lon="10.3748406"><ele>394.2</ele><time>2026-03-23T08:30:47.145Z</time></trkpt><trkpt lat="44.1424654" lon="10.3747269"><ele>394.0</ele><time>2026-03-23T08:30:49.134Z</time></trkpt><trkpt lat="44.1425051" lon="10.3746105"><ele>397.2</ele><time>2026-03-23T08:30:51.141Z</time></trkpt><trkpt lat="44.1425442" lon="10.3744911"><ele>400.4</ele><time>2026-03-23T08:30:53.149Z</time></trkpt><trkpt lat="44.1425771" lon="10.3743787"><ele>403.6</ele><time>2026-03-23T08:30:55.138Z</time></trkpt><trkpt lat="44.142612" lon="10.3742582"><ele>406.8</ele><time>2026-03-23T08:30:57.172Z</time></trkpt><trkpt lat="44.1426473" lon="10.3741345"><ele>410.0</ele><time>2026-03-23T08:30:59.143Z</time></trkpt><trkpt lat="44.1426829" lon="10.3740123"><ele>410.0</ele><time>2026-03-23T08:31:01.139Z</time></trkpt><trkpt lat="44.1427152" lon="10.3739022"><ele>410.0</ele><time>2026-03-23T08:31:03.132Z</time></trkpt><trkpt lat="44.1427638" lon="10.3737929"><ele>410.0</ele><time>2026-03-23T08:31:05.147Z</time></trkpt><trkpt lat="44.1428221" lon="10.3736955"><ele>410.0</ele><time>2026-03-23T08:31:07.148Z</time></trkpt><trkpt lat="44.1429065" lon="10.373643"><ele>410.0</ele><time>2026-03-23T08:31:09.149Z</time></trkpt><trkpt lat="44.143004" lon="10.3736372"><ele>410.4</ele><time>2026-03-23T08:31:11.152Z</time></trkpt><trkpt lat="44.1431062" lon="10.3736679"><ele>410.8</ele><time>2026-03-23T08:31:13.16Z</time></trkpt><trkpt lat="44.1431918" lon="10.3737291"><ele>411.20000000000005</ele><time>2026-03-23T08:31:15.145Z</time></trkpt><trkpt lat="44.14328" lon="10.3737962"><ele>411.6</ele><time>2026-03-23T08:31:17.15Z</time></trkpt><trkpt lat="44.1433699" lon="10.3738584"><ele>412.0</ele><time>2026-03-23T08:31:19.145Z</time></trkpt><trkpt lat="44.1434508" lon="10.3739245"><ele>412.6</ele><time>2026-03-23T08:31:21.151Z</time></trkpt><trkpt lat="44.1435359" lon="10.3739843"><ele>413.20000000000005</ele><time>2026-03-23T08:31:23.149Z</time></trkpt><trkpt lat="44.1436264" lon="10.3740293"><ele>413.8</ele><time>2026-03-23T08:31:25.14Z</time></trkpt><trkpt lat="44.1437174" lon="10.3740641"><ele>414.4</ele><time>2026-03-23T08:31:27.138Z</time></trkpt><trkpt lat="44.1438123" lon="10.3740783"><ele>415.0</ele><time>2026-03-23T08:31:29.133Z</time></trkpt><trkpt lat="44.1439124" lon="10.3740721"><ele>415.0</ele><time>2026-03-23T08:31:31.147Z</time></trkpt><trkpt lat="44.1440049" lon="10.3740631"><ele>415.0</ele><time>2026-03-23T08:31:33.147Z</time></trkpt><trkpt lat="44.1440947" lon="10.3740422"><ele>415.0</ele><time>2026-03-23T08:31:35.14Z</time></trkpt><trkpt lat="44.1441874" lon="10.3740088"><ele>415.0</ele><time>2026-03-23T08:31:37.143Z</time></trkpt><trkpt lat="44.1442827" lon="10.373966"><ele>415.0</ele><time>2026-03-23T08:31:39.131Z</time></trkpt><trkpt lat="44.1443639" lon="10.3739115"><ele>413.8</ele><time>2026-03-23T08:31:41.161Z</time></trkpt><trkpt lat="44.1444407" lon="10.3738455"><ele>412.6</ele><time>2026-03-23T08:31:43.149Z</time></trkpt><trkpt lat="44.1445211" lon="10.3737825"><ele>411.4</ele><time>2026-03-23T08:31:45.153Z</time></trkpt><trkpt lat="44.1446006" lon="10.3737175"><ele>410.2</ele><time>2026-03-23T08:31:47.153Z</time></trkpt><trkpt lat="44.1446763" lon="10.3736541"><ele>409.0</ele><time>2026-03-23T08:31:49.144Z</time></trkpt><trkpt lat="44.1447614" lon="10.373595"><ele>409.0</ele><time>2026-03-23T08:31:51.141Z</time></trkpt><trkpt lat="44.1448447" lon="10.3735292"><ele>409.0</ele><time>2026-03-23T08:31:53.159Z</time></trkpt><trkpt lat="44.1449255" lon="10.3734564"><ele>409.0</ele><time>2026-03-23T08:31:55.144Z</time></trkpt><trkpt lat="44.1450055" lon="10.3733748"><ele>409.0</ele><time>2026-03-23T08:31:57.146Z</time></trkpt><trkpt lat="44.1450815" lon="10.3733065"><ele>409.0</ele><time>2026-03-23T08:31:59.142Z</time></trkpt><trkpt lat="44.1451597" lon="10.3732282"><ele>410.2</ele><time>2026-03-23T08:32:01.132Z</time></trkpt><trkpt lat="44.1452431" lon="10.3731592"><ele>411.4</ele><time>2026-03-23T08:32:03.147Z</time></trkpt><trkpt lat="44.1453207" lon="10.3730918"><ele>412.6</ele><time>2026-03-23T08:32:05.14Z</time></trkpt><trkpt lat="44.1454037" lon="10.3730239"><ele>413.8</ele><time>2026-03-23T08:32:07.144Z</time></trkpt><trkpt lat="44.145483" lon="10.3729443"><ele>415.0</ele><time>2026-03-23T08:32:09.147Z</time></trkpt><trkpt lat="44.1455621" lon="10.3728683"><ele>414.6</ele><time>2026-03-23T08:32:11.147Z</time></trkpt><trkpt lat="44.1456458" lon="10.3727906"><ele>414.2</ele><time>2026-03-23T08:32:13.137Z</time></trkpt><trkpt lat="44.1457275" lon="10.3727221"><ele>413.79999999999995</ele><time>2026-03-23T08:32:15.147Z</time></trkpt><trkpt lat="44.1458067" lon="10.372708"><ele>413.4</ele><time>2026-03-23T08:32:17.132Z</time></trkpt><trkpt lat="44.1459048" lon="10.3727481"><ele>413.0</ele><time>2026-03-23T08:32:19.155Z</time></trkpt><trkpt lat="44.1460018" lon="10.3727867"><ele>413.0</ele><time>2026-03-23T08:32:21.143Z</time></trkpt><trkpt lat="44.1460897" lon="10.3728194"><ele>413.0</ele><time>2026-03-23T08:32:23.147Z</time></trkpt><trkpt lat="44.1461893" lon="10.372851"><ele>413.0</ele><time>2026-03-23T08:32:25.154Z</time></trkpt><trkpt lat="44.1462855" lon="10.3728918"><ele>413.0</ele><time>2026-03-23T08:32:27.137Z</time></trkpt><trkpt lat="44.1463742" lon="10.3729246"><ele>413.0</ele><time>2026-03-23T08:32:29.15Z</time></trkpt><trkpt lat="44.1464667" lon="10.3729506"><ele>414.0</ele><time>2026-03-23T08:32:31.161Z</time></trkpt><trkpt lat="44.1465653" lon="10.3729577"><ele>415.0</ele><time>2026-03-23T08:32:33.134Z</time></trkpt><trkpt lat="44.1466628" lon="10.3729319"><ele>416.0</ele><time>2026-03-23T08:32:35.136Z</time></trkpt><trkpt lat="44.1467509" lon="10.3728817"><ele>417.0</ele><time>2026-03-23T08:32:37.155Z</time></trkpt><trkpt lat="44.146823" lon="10.3727866"><ele>418.0</ele><time>2026-03-23T08:32:39.145Z</time></trkpt><trkpt lat="44.1468751" lon="10.3726753"><ele>418.0</ele><time>2026-03-23T08:32:41.144Z</time></trkpt><trkpt lat="44.1468907" lon="10.3725435"><ele>418.0</ele><time>2026-03-23T08:32:43.149Z</time></trkpt><trkpt lat="44.1468794" lon="10.3724007"><ele>418.0</ele><time>2026-03-23T08:32:45.148Z</time></trkpt><trkpt lat="44.1468643" lon="10.3722699"><ele>418.0</ele><time>2026-03-23T08:32:47.157Z</time></trkpt><trkpt lat="44.1468465" lon="10.372139"><ele>418.0</ele><time>2026-03-23T08:32:49.148Z</time></trkpt><trkpt lat="44.1468394" lon="10.3720126"><ele>418.0</ele><time>2026-03-23T08:32:51.148Z</time></trkpt><trkpt lat="44.1468463" lon="10.3718909"><ele>418.0</ele><time>2026-03-23T08:32:53.132Z</time></trkpt><trkpt lat="44.1468504" lon="10.3717687"><ele>418.0</ele><time>2026-03-23T08:32:55.134Z</time></trkpt><trkpt lat="44.1468616" lon="10.3716331"><ele>418.0</ele><time>2026-03-23T08:32:57.148Z</time></trkpt><trkpt lat="44.1468805" lon="10.3715097"><ele>418.0</ele><time>2026-03-23T08:32:59.148Z</time></trkpt><trkpt lat="44.1469014" lon="10.3713755"><ele>417.2</ele><time>2026-03-23T08:33:01.138Z</time></trkpt><trkpt lat="44.1469264" lon="10.3712525"><ele>416.4</ele><time>2026-03-23T08:33:03.135Z</time></trkpt><trkpt lat="44.1469687" lon="10.3711313"><ele>415.59999999999997</ele><time>2026-03-23T08:33:05.147Z</time></trkpt><trkpt lat="44.1470107" lon="10.3710168"><ele>414.79999999999995</ele><time>2026-03-23T08:33:07.139Z</time></trkpt><trkpt lat="44.1470589" lon="10.3709016"><ele>414.0</ele><time>2026-03-23T08:33:09.153Z</time></trkpt><trkpt lat="44.1471133" lon="10.3708024"><ele>414.0</ele><time>2026-03-23T08:33:11.134Z</time></trkpt><trkpt lat="44.14717" lon="10.3707102"><ele>414.0</ele><time>2026-03-23T08:33:13.144Z</time></trkpt><trkpt lat="44.1472326" lon="10.3706197"><ele>414.0</ele><time>2026-03-23T08:33:15.137Z</time></trkpt><trkpt lat="44.1472962" lon="10.3705322"><ele>414.0</ele><time>2026-03-23T08:33:17.152Z</time></trkpt><trkpt lat="44.1473704" lon="10.3704505"><ele>414.0</ele><time>2026-03-23T08:33:19.14Z</time></trkpt><trkpt lat="44.1474472" lon="10.3703723"><ele>415.0</ele><time>2026-03-23T08:33:21.13Z</time></trkpt><trkpt lat="44.1475236" lon="10.3703005"><ele>416.0</ele><time>2026-03-23T08:33:23.138Z</time></trkpt><trkpt lat="44.1476043" lon="10.370236"><ele>417.0</ele><time>2026-03-23T08:33:25.144Z</time></trkpt><trkpt lat="44.1476902" lon="10.3701819"><ele>418.0</ele><time>2026-03-23T08:33:27.156Z</time></trkpt><trkpt lat="44.1477787" lon="10.3701358"><ele>419.0</ele><time>2026-03-23T08:33:29.144Z</time></trkpt><trkpt lat="44.1478694" lon="10.3700971"><ele>419.0</ele><time>2026-03-23T08:33:31.149Z</time></trkpt><trkpt lat="44.1479682" lon="10.3700704"><ele>419.0</ele><time>2026-03-23T08:33:33.147Z</time></trkpt><trkpt lat="44.1480617" lon="10.3700452"><ele>419.0</ele><time>2026-03-23T08:33:35.132Z</time></trkpt><trkpt lat="44.1481547" lon="10.3700183"><ele>419.0</ele><time>2026-03-23T08:33:37.135Z</time></trkpt><trkpt lat="44.1482475" lon="10.3699767"><ele>419.0</ele><time>2026-03-23T08:33:39.171Z</time></trkpt><trkpt lat="44.1483402" lon="10.3699371"><ele>419.0</ele><time>2026-03-23T08:33:41.142Z</time></trkpt><trkpt lat="44.1484248" lon="10.3698812"><ele>419.0</ele><time>2026-03-23T08:33:43.149Z</time></trkpt><trkpt lat="44.1485085" lon="10.3698198"><ele>419.0</ele><time>2026-03-23T08:33:45.155Z</time></trkpt><trkpt lat="44.1485816" lon="10.3697323"><ele>419.0</ele><time>2026-03-23T08:33:47.14Z</time></trkpt><trkpt lat="44.1486472" lon="10.3696367"><ele>419.0</ele><time>2026-03-23T08:33:49.141Z</time></trkpt><trkpt lat="44.1487079" lon="10.3695272"><ele>419.0</ele><time>2026-03-23T08:33:51.142Z</time></trkpt><trkpt lat="44.1487512" lon="10.369402"><ele>419.0</ele><time>2026-03-23T08:33:53.143Z</time></trkpt><trkpt lat="44.1487784" lon="10.3692709"><ele>419.0</ele><time>2026-03-23T08:33:55.144Z</time></trkpt><trkpt lat="44.1487938" lon="10.3691377"><ele>419.0</ele><time>2026-03-23T08:33:57.149Z</time></trkpt><trkpt lat="44.1488013" lon="10.3690033"><ele>419.0</ele><time>2026-03-23T08:33:59.145Z</time></trkpt><trkpt lat="44.1487996" lon="10.3688595"><ele>417.6</ele><time>2026-03-23T08:34:01.142Z</time></trkpt><trkpt lat="44.1487977" lon="10.3687107"><ele>416.2</ele><time>2026-03-23T08:34:03.136Z</time></trkpt><trkpt lat="44.1487914" lon="10.3685688"><ele>414.8</ele><time>2026-03-23T08:34:05.134Z</time></trkpt><trkpt lat="44.1487897" lon="10.3684298"><ele>413.40000000000003</ele><time>2026-03-23T08:34:07.148Z</time></trkpt><trkpt lat="44.1487862" lon="10.3682829"><ele>412.0</ele><time>2026-03-23T08:34:09.131Z</time></trkpt><trkpt lat="44.1487975" lon="10.3681418"><ele>411.20000000000005</ele><time>2026-03-23T08:34:11.14Z</time></trkpt><trkpt lat="44.1488314" lon="10.3680106"><ele>410.4</ele><time>2026-03-23T08:34:13.134Z</time></trkpt><trkpt lat="44.1489" lon="10.3678988"><ele>409.6</ele><time>2026-03-23T08:34:15.142Z</time></trkpt><trkpt lat="44.1489905" lon="10.3678395"><ele>408.79999999999995</ele><time>2026-03-23T08:34:17.14Z</time></trkpt><trkpt lat="44.1490887" lon="10.3678065"><ele>408.0</ele><time>2026-03-23T08:34:19.142Z</time></trkpt><trkpt lat="44.1491822" lon="10.3677572"><ele>410.59999999999997</ele><time>2026-03-23T08:34:21.147Z</time></trkpt><trkpt lat="44.1492788" lon="10.3677113"><ele>413.2</ele><time>2026-03-23T08:34:23.148Z</time></trkpt><trkpt lat="44.1493747" lon="10.3676679"><ele>415.8</ele><time>2026-03-23T08:34:25.149Z</time></trkpt><trkpt lat="44.1494725" lon="10.3676239"><ele>418.4</ele><time>2026-03-23T08:34:27.144Z</time></trkpt><trkpt lat="44.1495697" lon="10.367573"><ele>421.0</ele><time>2026-03-23T08:34:29.144Z</time></trkpt><trkpt lat="44.1496668" lon="10.3675217"><ele>421.0</ele><time>2026-03-23T08:34:31.139Z</time></trkpt><trkpt lat="44.1497649" lon="10.3674748"><ele>421.0</ele><time>2026-03-23T08:34:33.147Z</time></trkpt><trkpt lat="44.1498593" lon="10.3674195"><ele>421.0</ele><time>2026-03-23T08:34:35.141Z</time></trkpt><trkpt lat="44.1499545" lon="10.3673665"><ele>421.0</ele><time>2026-03-23T08:34:37.134Z</time></trkpt><trkpt lat="44.1500543" lon="10.3673195"><ele>421.0</ele><time>2026-03-23T08:34:39.134Z</time></trkpt><trkpt lat="44.1501599" lon="10.3672734"><ele>423.0</ele><time>2026-03-23T08:34:41.135Z</time></trkpt><trkpt lat="44.1502539" lon="10.3672391"><ele>425.0</ele><time>2026-03-23T08:34:43.14Z</time></trkpt><trkpt lat="44.1503523" lon="10.3672273"><ele>427.0</ele><time>2026-03-23T08:34:45.144Z</time></trkpt><trkpt lat="44.1504529" lon="10.3672218"><ele>429.0</ele><time>2026-03-23T08:34:47.138Z</time></trkpt><trkpt lat="44.1505586" lon="10.3672457"><ele>431.0</ele><time>2026-03-23T08:34:49.146Z</time></trkpt><trkpt lat="44.1506489" lon="10.367264"><ele>432.3333333333333</ele><time>2026-03-23T08:34:51.134Z</time></trkpt><trkpt lat="44.1507242" lon="10.3672514"><ele>433.66666666666663</ele><time>2026-03-23T08:34:53.128Z</time></trkpt><trkpt lat="44.1507973" lon="10.3672208"><ele>435.0</ele><time>2026-03-23T08:34:55.152Z</time></trkpt><trkpt lat="44.1508699" lon="10.3671825"><ele>436.33333333333337</ele><time>2026-03-23T08:34:57.14Z</time></trkpt><trkpt lat="44.1509451" lon="10.3671408"><ele>437.6666666666667</ele><time>2026-03-23T08:34:59.138Z</time></trkpt><trkpt lat="44.1510189" lon="10.367098"><ele>439.0</ele><time>2026-03-23T08:35:01.133Z</time></trkpt><trkpt lat="44.1510952" lon="10.367055"><ele>437.83333333333337</ele><time>2026-03-23T08:35:03.138Z</time></trkpt><trkpt lat="44.1511707" lon="10.3670106"><ele>436.6666666666667</ele><time>2026-03-23T08:35:05.15Z</time></trkpt><trkpt lat="44.1512473" lon="10.3669679"><ele>435.5</ele><time>2026-03-23T08:35:07.152Z</time></trkpt><trkpt lat="44.1513237" lon="10.3669341"><ele>434.33333333333337</ele><time>2026-03-23T08:35:09.149Z</time></trkpt><trkpt lat="44.1514081" lon="10.3668999"><ele>433.1666666666667</ele><time>2026-03-23T08:35:11.148Z</time></trkpt><trkpt lat="44.1514889" lon="10.3668872"><ele>432.0</ele><time>2026-03-23T08:35:13.147Z</time></trkpt><trkpt lat="44.1515673" lon="10.3668766"><ele>432.0</ele><time>2026-03-23T08:35:15.142Z</time></trkpt><trkpt lat="44.151644" lon="10.3668608"><ele>432.0</ele><time>2026-03-23T08:35:17.135Z</time></trkpt><trkpt lat="44.1517195" lon="10.3668491"><ele>432.0</ele><time>2026-03-23T08:35:19.159Z</time></trkpt><trkpt lat="44.151799" lon="10.3668491"><ele>432.0</ele><time>2026-03-23T08:35:21.145Z</time></trkpt><trkpt lat="44.1518779" lon="10.3668415"><ele>432.0</ele><time>2026-03-23T08:35:23.134Z</time></trkpt><trkpt lat="44.1519561" lon="10.3668151"><ele>432.0</ele><time>2026-03-23T08:35:25.15Z</time></trkpt><trkpt lat="44.1520312" lon="10.3667671"><ele>432.0</ele><time>2026-03-23T08:35:27.147Z</time></trkpt><trkpt lat="44.1520991" lon="10.3667102"><ele>432.0</ele><time>2026-03-23T08:35:29.151Z</time></trkpt><trkpt lat="44.1521595" lon="10.3666386"><ele>432.0</ele><time>2026-03-23T08:35:31.153Z</time></trkpt><trkpt lat="44.1522225" lon="10.366564"><ele>432.0</ele><time>2026-03-23T08:35:33.138Z</time></trkpt><trkpt lat="44.1522871" lon="10.3664947"><ele>432.0</ele><time>2026-03-23T08:35:35.132Z</time></trkpt><trkpt lat="44.1523562" lon="10.3664391"><ele>432.0</ele><time>2026-03-23T08:35:37.146Z</time></trkpt><trkpt lat="44.1524322" lon="10.3663991"><ele>433.0</ele><time>2026-03-23T08:35:39.144Z</time></trkpt><trkpt lat="44.1525125" lon="10.3663766"><ele>434.0</ele><time>2026-03-23T08:35:41.143Z</time></trkpt><trkpt lat="44.1525936" lon="10.3663684"><ele>435.0</ele><time>2026-03-23T08:35:43.145Z</time></trkpt><trkpt lat="44.1526736" lon="10.3663718"><ele>436.0</ele><time>2026-03-23T08:35:45.137Z</time></trkpt><trkpt lat="44.1527524" lon="10.3663762"><ele>437.0</ele><time>2026-03-23T08:35:47.137Z</time></trkpt><trkpt lat="44.1528316" lon="10.3663832"><ele>438.0</ele><time>2026-03-23T08:35:49.143Z</time></trkpt><trkpt lat="44.1529107" lon="10.3663885"><ele>438.0</ele><time>2026-03-23T08:35:51.14Z</time></trkpt><trkpt lat="44.1529923" lon="10.366393"><ele>438.0</ele><time>2026-03-23T08:35:53.139Z</time></trkpt><trkpt lat="44.1530733" lon="10.3663991"><ele>438.0</ele><time>2026-03-23T08:35:55.176Z</time></trkpt><trkpt lat="44.1531558" lon="10.3664026"><ele>438.0</ele><time>2026-03-23T08:35:57.131Z</time></trkpt><trkpt lat="44.153238" lon="10.3664126"><ele>438.0</ele><time>2026-03-23T08:35:59.133Z</time></trkpt><trkpt lat="44.1533197" lon="10.3664229"><ele>438.0</ele><time>2026-03-23T08:36:01.136Z</time></trkpt><trkpt lat="44.1534004" lon="10.3664302"><ele>439.1666666666667</ele><time>2026-03-23T08:36:03.142Z</time></trkpt><trkpt lat="44.1534825" lon="10.3664356"><ele>440.33333333333337</ele><time>2026-03-23T08:36:05.133Z</time></trkpt><trkpt lat="44.153564" lon="10.3664407"><ele>441.5</ele><time>2026-03-23T08:36:07.129Z</time></trkpt><trkpt lat="44.1536469" lon="10.3664449"><ele>442.6666666666667</ele><time>2026-03-23T08:36:09.139Z</time></trkpt><trkpt lat="44.1537288" lon="10.3664461"><ele>443.83333333333337</ele><time>2026-03-23T08:36:11.14Z</time></trkpt><trkpt lat="44.1538096" lon="10.3664491"><ele>445.0</ele><time>2026-03-23T08:36:13.13Z</time></trkpt><trkpt lat="44.1538917" lon="10.3664551"><ele>445.00000000000006</ele><time>2026-03-23T08:36:15.151Z</time></trkpt><trkpt lat="44.1539734" lon="10.3664659"><ele>445.0</ele><time>2026-03-23T08:36:17.16Z</time></trkpt><trkpt lat="44.1540528" lon="10.3664874"><ele>445.0</ele><time>2026-03-23T08:36:19.131Z</time></trkpt><trkpt lat="44.1541298" lon="10.3665126"><ele>445.0</ele><time>2026-03-23T08:36:21.142Z</time></trkpt><trkpt lat="44.1542101" lon="10.366539"><ele>445.00000000000006</ele><time>2026-03-23T08:36:23.143Z</time></trkpt><trkpt lat="44.1542856" lon="10.3665681"><ele>445.0</ele><time>2026-03-23T08:36:25.155Z</time></trkpt><trkpt lat="44.1543611" lon="10.3666049"><ele>444.6666666666667</ele><time>2026-03-23T08:36:27.135Z</time></trkpt><trkpt lat="44.1544361" lon="10.3666477"><ele>444.33333333333337</ele><time>2026-03-23T08:36:29.148Z</time></trkpt><trkpt lat="44.1545099" lon="10.3666903"><ele>444.0</ele><time>2026-03-23T08:36:31.134Z</time></trkpt><trkpt lat="44.1545818" lon="10.3667337"><ele>443.66666666666663</ele><time>2026-03-23T08:36:33.15Z</time></trkpt><trkpt lat="44.1546525" lon="10.3667776"><ele>443.3333333333333</ele><time>2026-03-23T08:36:35.135Z</time></trkpt><trkpt lat="44.1547271" lon="10.3668123"><ele>443.0</ele><time>2026-03-23T08:36:37.142Z</time></trkpt><trkpt lat="44.1548048" lon="10.3668338"><ele>442.49999999999994</ele><time>2026-03-23T08:36:39.155Z</time></trkpt><trkpt lat="44.1548866" lon="10.3668394"><ele>442.0</ele><time>2026-03-23T08:36:41.138Z</time></trkpt><trkpt lat="44.1549657" lon="10.3668214"><ele>441.5</ele><time>2026-03-23T08:36:43.152Z</time></trkpt><trkpt lat="44.1550415" lon="10.3667771"><ele>441.0</ele><time>2026-03-23T08:36:45.15Z</time></trkpt><trkpt lat="44.1551129" lon="10.36671"><ele>440.49999999999994</ele><time>2026-03-23T08:36:47.15Z</time></trkpt><trkpt lat="44.1551748" lon="10.3666331"><ele>440.0</ele><time>2026-03-23T08:36:49.145Z</time></trkpt><trkpt lat="44.1552338" lon="10.3665538"><ele>439.99999999999994</ele><time>2026-03-23T08:36:51.153Z</time></trkpt><trkpt lat="44.1552913" lon="10.3664739"><ele>440.0</ele><time>2026-03-23T08:36:53.144Z</time></trkpt><trkpt lat="44.1553469" lon="10.3663911"><ele>440.0</ele><time>2026-03-23T08:36:55.151Z</time></trkpt><trkpt lat="44.1553992" lon="10.3663065"><ele>440.0</ele><time>2026-03-23T08:36:57.144Z</time></trkpt><trkpt lat="44.1554559" lon="10.3662315"><ele>439.99999999999994</ele><time>2026-03-23T08:36:59.16Z</time></trkpt><trkpt lat="44.1555122" lon="10.3661665"><ele>440.0</ele><time>2026-03-23T08:37:01.14Z</time></trkpt><trkpt lat="44.155572" lon="10.3661245"><ele>439.71428571428567</ele><time>2026-03-23T08:37:03.148Z</time></trkpt><trkpt lat="44.1556362" lon="10.3660929"><ele>439.42857142857144</ele><time>2026-03-23T08:37:05.155Z</time></trkpt><trkpt lat="44.1557042" lon="10.3660768"><ele>439.1428571428571</ele><time>2026-03-23T08:37:07.147Z</time></trkpt><trkpt lat="44.1557768" lon="10.3660782"><ele>438.85714285714283</ele><time>2026-03-23T08:37:09.159Z</time></trkpt><trkpt lat="44.1558457" lon="10.3660928"><ele>438.57142857142856</ele><time>2026-03-23T08:37:11.155Z</time></trkpt><trkpt lat="44.1559161" lon="10.3660969"><ele>438.2857142857143</ele><time>2026-03-23T08:37:13.142Z</time></trkpt><trkpt lat="44.1559832" lon="10.3660967"><ele>438.0</ele><time>2026-03-23T08:37:15.142Z</time></trkpt><trkpt lat="44.1560514" lon="10.366082"><ele>438.0</ele><time>2026-03-23T08:37:17.15Z</time></trkpt><trkpt lat="44.1561186" lon="10.3660605"><ele>438.0</ele><time>2026-03-23T08:37:19.133Z</time></trkpt><trkpt lat="44.1561794" lon="10.3660217"><ele>438.0</ele><time>2026-03-23T08:37:21.143Z</time></trkpt><trkpt lat="44.156232" lon="10.365958"><ele>438.0</ele><time>2026-03-23T08:37:23.136Z</time></trkpt><trkpt lat="44.1562766" lon="10.3658739"><ele>438.0</ele><time>2026-03-23T08:37:25.157Z</time></trkpt><trkpt lat="44.1563249" lon="10.3657903"><ele>438.0</ele><time>2026-03-23T08:37:27.137Z</time></trkpt><trkpt lat="44.1563706" lon="10.3656934"><ele>438.0</ele><time>2026-03-23T08:37:29.147Z</time></trkpt><trkpt lat="44.1564155" lon="10.3655961"><ele>437.5714285714286</ele><time>2026-03-23T08:37:31.159Z</time></trkpt><trkpt lat="44.1564534" lon="10.365501"><ele>437.1428571428571</ele><time>2026-03-23T08:37:33.142Z</time></trkpt><trkpt lat="44.1564862" lon="10.3654097"><ele>436.7142857142857</ele><time>2026-03-23T08:37:35.145Z</time></trkpt><trkpt lat="44.1565044" lon="10.3653133"><ele>436.28571428571433</ele><time>2026-03-23T08:37:37.151Z</time></trkpt><trkpt lat="44.1564954" lon="10.3652131"><ele>435.8571428571429</ele><time>2026-03-23T08:37:39.143Z</time></trkpt><trkpt lat="44.1564738" lon="10.3651168"><ele>435.42857142857144</ele><time>2026-03-23T08:37:41.162Z</time></trkpt><trkpt lat="44.1564369" lon="10.3650326"><ele>435.0</ele><time>2026-03-23T08:37:43.136Z</time></trkpt><trkpt lat="44.1563914" lon="10.3649587"><ele>435.00000000000006</ele><time>2026-03-23T08:37:45.147Z</time></trkpt><trkpt lat="44.1563484" lon="10.3648838"><ele>435.0</ele><time>2026-03-23T08:37:47.15Z</time></trkpt><trkpt lat="44.1563107" lon="10.364807"><ele>435.0</ele><time>2026-03-23T08:37:49.149Z</time></trkpt><trkpt lat="44.1562794" lon="10.3647213"><ele>435.0</ele><time>2026-03-23T08:37:51.14Z</time></trkpt><trkpt lat="44.1562547" lon="10.3646289"><ele>435.0</ele><time>2026-03-23T08:37:53.135Z</time></trkpt><trkpt lat="44.1562382" lon="10.3645322"><ele>435.00000000000006</ele><time>2026-03-23T08:37:55.139Z</time></trkpt><trkpt lat="44.1562331" lon="10.3644351"><ele>435.0</ele><time>2026-03-23T08:37:57.148Z</time></trkpt><trkpt lat="44.1562417" lon="10.364339"><ele>434.8571428571429</ele><time>2026-03-23T08:37:59.14Z</time></trkpt><trkpt lat="44.1562646" lon="10.3642446"><ele>434.7142857142857</ele><time>2026-03-23T08:38:01.131Z</time></trkpt><trkpt lat="44.156284" lon="10.3641488"><ele>434.57142857142856</ele><time>2026-03-23T08:38:03.15Z</time></trkpt><trkpt lat="44.1562977" lon="10.3640496"><ele>434.42857142857144</ele><time>2026-03-23T08:38:05.142Z</time></trkpt><trkpt lat="44.1563142" lon="10.3639516"><ele>434.2857142857143</ele><time>2026-03-23T08:38:07.155Z</time></trkpt><trkpt lat="44.1563265" lon="10.3638614"><ele>434.14285714285717</ele><time>2026-03-23T08:38:09.148Z</time></trkpt><trkpt lat="44.1563392" lon="10.3637693"><ele>434.0</ele><time>2026-03-23T08:38:11.152Z</time></trkpt><trkpt lat="44.156353" lon="10.3636717"><ele>434.42857142857144</ele><time>2026-03-23T08:38:13.155Z</time></trkpt><trkpt lat="44.1563712" lon="10.3635779"><ele>434.8571428571429</ele><time>2026-03-23T08:38:15.144Z</time></trkpt><trkpt lat="44.1563818" lon="10.363486"><ele>435.2857142857143</ele><time>2026-03-23T08:38:17.147Z</time></trkpt><trkpt lat="44.156402" lon="10.3633956"><ele>435.7142857142857</ele><time>2026-03-23T08:38:19.144Z</time></trkpt><trkpt lat="44.1564266" lon="10.3633086"><ele>436.14285714285717</ele><time>2026-03-23T08:38:21.138Z</time></trkpt><trkpt lat="44.1564444" lon="10.3632139"><ele>436.57142857142856</ele><time>2026-03-23T08:38:23.148Z</time></trkpt><trkpt lat="44.1564633" lon="10.3631215"><ele>437.0</ele><time>2026-03-23T08:38:25.147Z</time></trkpt><trkpt lat="44.1564888" lon="10.3630343"><ele>436.57142857142856</ele><time>2026-03-23T08:38:27.148Z</time></trkpt><trkpt lat="44.1565111" lon="10.3629392"><ele>436.14285714285717</ele><time>2026-03-23T08:38:29.16Z</time></trkpt><trkpt lat="44.1565369" lon="10.3628481"><ele>435.7142857142857</ele><time>2026-03-23T08:38:31.143Z</time></trkpt><trkpt lat="44.1565684" lon="10.3627537"><ele>435.2857142857143</ele><time>2026-03-23T08:38:33.137Z</time></trkpt><trkpt lat="44.1565956" lon="10.3626656"><ele>434.8571428571429</ele><time>2026-03-23T08:38:35.151Z</time></trkpt><trkpt lat="44.1566225" lon="10.3625828"><ele>434.42857142857144</ele><time>2026-03-23T08:38:37.14Z</time></trkpt><trkpt lat="44.1566498" lon="10.3624945"><ele>434.0</ele><time>2026-03-23T08:38:39.145Z</time></trkpt><trkpt lat="44.1567123" lon="10.3624041"><ele>436.57142857142856</ele><time>2026-03-23T08:38:42.15Z</time></trkpt><trkpt lat="44.1567706" lon="10.3623659"><ele>439.1428571428571</ele><time>2026-03-23T08:38:44.144Z</time></trkpt><trkpt lat="44.156834" lon="10.3623433"><ele>441.7142857142857</ele><time>2026-03-23T08:38:46.151Z</time></trkpt><trkpt lat="44.1568975" lon="10.3623403"><ele>444.2857142857143</ele><time>2026-03-23T08:38:48.139Z</time></trkpt><trkpt lat="44.1569686" lon="10.3623448"><ele>446.85714285714283</ele><time>2026-03-23T08:38:50.139Z</time></trkpt><trkpt lat="44.1570357" lon="10.3623503"><ele>449.42857142857144</ele><time>2026-03-23T08:38:52.131Z</time></trkpt><trkpt lat="44.1571032" lon="10.362352"><ele>452.0</ele><time>2026-03-23T08:38:54.142Z</time></trkpt><trkpt lat="44.1571686" lon="10.3623482"><ele>451.99999999999994</ele><time>2026-03-23T08:38:56.141Z</time></trkpt><trkpt lat="44.1572349" lon="10.3623345"><ele>452.0</ele><time>2026-03-23T08:38:58.148Z</time></trkpt><trkpt lat="44.1573232" lon="10.3622882"><ele>452.0</ele><time>2026-03-23T08:39:01.147Z</time></trkpt><trkpt lat="44.1573843" lon="10.3622281"><ele>452.0</ele><time>2026-03-23T08:39:03.136Z</time></trkpt><trkpt lat="44.1574394" lon="10.3621575"><ele>451.99999999999994</ele><time>2026-03-23T08:39:05.153Z</time></trkpt><trkpt lat="44.1574883" lon="10.3620839"><ele>452.0</ele><time>2026-03-23T08:39:07.144Z</time></trkpt><trkpt lat="44.1575409" lon="10.3620186"><ele>452.57142857142856</ele><time>2026-03-23T08:39:09.136Z</time></trkpt><trkpt lat="44.1575917" lon="10.3619534"><ele>453.1428571428571</ele><time>2026-03-23T08:39:11.141Z</time></trkpt><trkpt lat="44.157643" lon="10.3618836"><ele>453.71428571428567</ele><time>2026-03-23T08:39:13.142Z</time></trkpt><trkpt lat="44.1576934" lon="10.3618163"><ele>454.2857142857143</ele><time>2026-03-23T08:39:15.146Z</time></trkpt><trkpt lat="44.1577484" lon="10.3617539"><ele>454.8571428571428</ele><time>2026-03-23T08:39:17.139Z</time></trkpt><trkpt lat="44.1578045" lon="10.3616945"><ele>455.4285714285714</ele><time>2026-03-23T08:39:19.152Z</time></trkpt><trkpt lat="44.1578532" lon="10.3616285"><ele>456.0</ele><time>2026-03-23T08:39:21.143Z</time></trkpt><trkpt lat="44.1579012" lon="10.3615625"><ele>456.0</ele><time>2026-03-23T08:39:23.143Z</time></trkpt><trkpt lat="44.1579483" lon="10.3614943"><ele>455.99999999999994</ele><time>2026-03-23T08:39:25.15Z</time></trkpt><trkpt lat="44.1579916" lon="10.361421"><ele>456.0</ele><time>2026-03-23T08:39:27.145Z</time></trkpt><trkpt lat="44.1580345" lon="10.3613394"><ele>456.0</ele><time>2026-03-23T08:39:29.155Z</time></trkpt><trkpt lat="44.1580675" lon="10.3612552"><ele>455.99999999999994</ele><time>2026-03-23T08:39:31.133Z</time></trkpt><trkpt lat="44.1580952" lon="10.3611685"><ele>456.0</ele><time>2026-03-23T08:39:33.137Z</time></trkpt><trkpt lat="44.1581173" lon="10.3610789"><ele>456.0</ele><time>2026-03-23T08:39:35.141Z</time></trkpt><trkpt lat="44.1581346" lon="10.3609869"><ele>456.85714285714283</ele><time>2026-03-23T08:39:37.142Z</time></trkpt><trkpt lat="44.15815" lon="10.3608945"><ele>457.71428571428567</ele><time>2026-03-23T08:39:39.144Z</time></trkpt><trkpt lat="44.1581694" lon="10.3608031"><ele>458.57142857142856</ele><time>2026-03-23T08:39:41.16Z</time></trkpt><trkpt lat="44.1581863" lon="10.360712"><ele>459.42857142857144</ele><time>2026-03-23T08:39:43.135Z</time></trkpt><trkpt lat="44.1582029" lon="10.36062"><ele>460.2857142857143</ele><time>2026-03-23T08:39:45.148Z</time></trkpt><trkpt lat="44.1582196" lon="10.3605295"><ele>461.1428571428571</ele><time>2026-03-23T08:39:47.141Z</time></trkpt><trkpt lat="44.1582392" lon="10.3604369"><ele>462.0</ele><time>2026-03-23T08:39:49.145Z</time></trkpt><trkpt lat="44.1582606" lon="10.3603452"><ele>462.0</ele><time>2026-03-23T08:39:51.142Z</time></trkpt><trkpt lat="44.1582848" lon="10.3602568"><ele>462.0</ele><time>2026-03-23T08:39:53.14Z</time></trkpt><trkpt lat="44.1583185" lon="10.3601736"><ele>462.0</ele><time>2026-03-23T08:39:55.132Z</time></trkpt><trkpt lat="44.1583639" lon="10.3601005"><ele>462.0</ele><time>2026-03-23T08:39:57.145Z</time></trkpt><trkpt lat="44.1584167" lon="10.3600409"><ele>462.0</ele><time>2026-03-23T08:39:59.149Z</time></trkpt><trkpt lat="44.1584766" lon="10.3599938"><ele>462.0</ele><time>2026-03-23T08:40:01.145Z</time></trkpt><trkpt lat="44.1585414" lon="10.359965"><ele>462.0</ele><time>2026-03-23T08:40:03.138Z</time></trkpt><trkpt lat="44.1586105" lon="10.3599397"><ele>462.0</ele><time>2026-03-23T08:40:05.138Z</time></trkpt><trkpt lat="44.1586805" lon="10.3599199"><ele>462.0</ele><time>2026-03-23T08:40:07.139Z</time></trkpt><trkpt lat="44.1587501" lon="10.3598977"><ele>462.0</ele><time>2026-03-23T08:40:09.145Z</time></trkpt><trkpt lat="44.1588189" lon="10.3598757"><ele>462.0</ele><time>2026-03-23T08:40:11.136Z</time></trkpt><trkpt lat="44.1588867" lon="10.3598559"><ele>462.0</ele><time>2026-03-23T08:40:13.151Z</time></trkpt><trkpt lat="44.1589523" lon="10.3598295"><ele>462.0</ele><time>2026-03-23T08:40:15.149Z</time></trkpt><trkpt lat="44.1590215" lon="10.3598011"><ele>462.0</ele><time>2026-03-23T08:40:17.154Z</time></trkpt><trkpt lat="44.1590925" lon="10.3597754"><ele>461.7142857142857</ele><time>2026-03-23T08:40:19.148Z</time></trkpt><trkpt lat="44.1591604" lon="10.3597471"><ele>461.42857142857144</ele><time>2026-03-23T08:40:21.141Z</time></trkpt><trkpt lat="44.1592284" lon="10.3597217"><ele>461.1428571428571</ele><time>2026-03-23T08:40:23.133Z</time></trkpt><trkpt lat="44.1592958" lon="10.359708"><ele>460.85714285714283</ele><time>2026-03-23T08:40:25.153Z</time></trkpt><trkpt lat="44.159364" lon="10.3596842"><ele>460.57142857142856</ele><time>2026-03-23T08:40:27.164Z</time></trkpt><trkpt lat="44.1594325" lon="10.3596562"><ele>460.2857142857142</ele><time>2026-03-23T08:40:29.153Z</time></trkpt><trkpt lat="44.1595018" lon="10.3596246"><ele>459.99999999999994</ele><time>2026-03-23T08:40:31.145Z</time></trkpt><trkpt lat="44.1595712" lon="10.3595935"><ele>459.99999999999994</ele><time>2026-03-23T08:40:33.146Z</time></trkpt><trkpt lat="44.1596415" lon="10.3595643"><ele>460.0</ele><time>2026-03-23T08:40:35.147Z</time></trkpt><trkpt lat="44.1597105" lon="10.359537"><ele>459.99999999999994</ele><time>2026-03-23T08:40:37.144Z</time></trkpt><trkpt lat="44.1597758" lon="10.3595037"><ele>459.99999999999994</ele><time>2026-03-23T08:40:39.148Z</time></trkpt><trkpt lat="44.1598402" lon="10.3594606"><ele>460.0</ele><time>2026-03-23T08:40:41.149Z</time></trkpt><trkpt lat="44.159909" lon="10.3594047"><ele>459.99999999999994</ele><time>2026-03-23T08:40:43.136Z</time></trkpt><trkpt lat="44.1599704" lon="10.3593541"><ele>459.99999999999994</ele><time>2026-03-23T08:40:45.144Z</time></trkpt><trkpt lat="44.1600279" lon="10.3592922"><ele>461.5714285714285</ele><time>2026-03-23T08:40:47.136Z</time></trkpt><trkpt lat="44.1600858" lon="10.359232"><ele>463.1428571428571</ele><time>2026-03-23T08:40:49.141Z</time></trkpt><trkpt lat="44.1601381" lon="10.359161"><ele>464.7142857142857</ele><time>2026-03-23T08:40:51.139Z</time></trkpt><trkpt lat="44.160189" lon="10.3590832"><ele>466.2857142857143</ele><time>2026-03-23T08:40:53.146Z</time></trkpt><trkpt lat="44.1602405" lon="10.3590062"><ele>467.8571428571429</ele><time>2026-03-23T08:40:55.155Z</time></trkpt><trkpt lat="44.1602886" lon="10.3589267"><ele>469.4285714285715</ele><time>2026-03-23T08:40:57.134Z</time></trkpt><trkpt lat="44.1603355" lon="10.3588484"><ele>471.00000000000006</ele><time>2026-03-23T08:40:59.147Z</time></trkpt><trkpt lat="44.1603843" lon="10.358773"><ele>471.0</ele><time>2026-03-23T08:41:01.15Z</time></trkpt><trkpt lat="44.160433" lon="10.3586954"><ele>471.0</ele><time>2026-03-23T08:41:03.144Z</time></trkpt><trkpt lat="44.1604828" lon="10.3586159"><ele>471.0</ele><time>2026-03-23T08:41:05.141Z</time></trkpt><trkpt lat="44.1605341" lon="10.358535"><ele>471.0</ele><time>2026-03-23T08:41:07.15Z</time></trkpt><trkpt lat="44.1605844" lon="10.3584523"><ele>471.0</ele><time>2026-03-23T08:41:09.143Z</time></trkpt><trkpt lat="44.1606348" lon="10.3583673"><ele>471.0</ele><time>2026-03-23T08:41:11.136Z</time></trkpt><trkpt lat="44.1606884" lon="10.3582847"><ele>473.0</ele><time>2026-03-23T08:41:13.135Z</time></trkpt><trkpt lat="44.1607406" lon="10.3582068"><ele>475.0</ele><time>2026-03-23T08:41:15.139Z</time></trkpt><trkpt lat="44.1607933" lon="10.3581238"><ele>477.0</ele><time>2026-03-23T08:41:17.141Z</time></trkpt><trkpt lat="44.1608407" lon="10.3580352"><ele>479.0</ele><time>2026-03-23T08:41:19.148Z</time></trkpt><trkpt lat="44.1608825" lon="10.3579408"><ele>481.0</ele><time>2026-03-23T08:41:21.142Z</time></trkpt><trkpt lat="44.1609242" lon="10.3578442"><ele>483.0</ele><time>2026-03-23T08:41:23.143Z</time></trkpt><trkpt lat="44.1609606" lon="10.357749"><ele>483.0</ele><time>2026-03-23T08:41:25.149Z</time></trkpt><trkpt lat="44.1609994" lon="10.3576534"><ele>483.0</ele><time>2026-03-23T08:41:27.136Z</time></trkpt><trkpt lat="44.1610304" lon="10.3575526"><ele>483.0</ele><time>2026-03-23T08:41:29.155Z</time></trkpt><trkpt lat="44.1610598" lon="10.3574499"><ele>483.0</ele><time>2026-03-23T08:41:31.147Z</time></trkpt><trkpt lat="44.161088" lon="10.3573489"><ele>483.0</ele><time>2026-03-23T08:41:33.136Z</time></trkpt><trkpt lat="44.161114" lon="10.3572481"><ele>483.0</ele><time>2026-03-23T08:41:35.143Z</time></trkpt><trkpt lat="44.1611406" lon="10.3571479"><ele>482.1666666666667</ele><time>2026-03-23T08:41:37.146Z</time></trkpt><trkpt lat="44.1611682" lon="10.3570463"><ele>481.33333333333337</ele><time>2026-03-23T08:41:39.143Z</time></trkpt><trkpt lat="44.1611947" lon="10.3569451"><ele>480.5</ele><time>2026-03-23T08:41:41.149Z</time></trkpt><trkpt lat="44.1612236" lon="10.3568445"><ele>479.6666666666667</ele><time>2026-03-23T08:41:43.149Z</time></trkpt><trkpt lat="44.1612551" lon="10.3567404"><ele>478.83333333333337</ele><time>2026-03-23T08:41:45.146Z</time></trkpt><trkpt lat="44.1612846" lon="10.3566378"><ele>478.0</ele><time>2026-03-23T08:41:47.161Z</time></trkpt><trkpt lat="44.1613118" lon="10.3565336"><ele>478.00000000000006</ele><time>2026-03-23T08:41:49.141Z</time></trkpt><trkpt lat="44.1613405" lon="10.3564312"><ele>478.0</ele><time>2026-03-23T08:41:51.142Z</time></trkpt><trkpt lat="44.1613735" lon="10.35633"><ele>478.0</ele><time>2026-03-23T08:41:53.135Z</time></trkpt><trkpt lat="44.1614056" lon="10.3562268"><ele>478.0</ele><time>2026-03-23T08:41:55.142Z</time></trkpt><trkpt lat="44.1614377" lon="10.3561209"><ele>478.00000000000006</ele><time>2026-03-23T08:41:57.154Z</time></trkpt><trkpt lat="44.1614618" lon="10.3560097"><ele>478.0</ele><time>2026-03-23T08:41:59.147Z</time></trkpt><trkpt lat="44.1614708" lon="10.3558948"><ele>479.0</ele><time>2026-03-23T08:42:01.15Z</time></trkpt><trkpt lat="44.1614469" lon="10.3557921"><ele>479.99999999999994</ele><time>2026-03-23T08:42:03.153Z</time></trkpt><trkpt lat="44.1613892" lon="10.3556936"><ele>480.99999999999994</ele><time>2026-03-23T08:42:05.151Z</time></trkpt><trkpt lat="44.1613152" lon="10.3555982"><ele>482.0</ele><time>2026-03-23T08:42:07.14Z</time></trkpt><trkpt lat="44.1612487" lon="10.3555092"><ele>483.0</ele><time>2026-03-23T08:42:09.155Z</time></trkpt><trkpt lat="44.1611802" lon="10.3554227"><ele>484.5</ele><time>2026-03-23T08:42:11.154Z</time></trkpt><trkpt lat="44.1611164" lon="10.355344"><ele>486.0</ele><time>2026-03-23T08:42:13.152Z</time></trkpt><trkpt lat="44.1610543" lon="10.3552647"><ele>487.5</ele><time>2026-03-23T08:42:15.138Z</time></trkpt><trkpt lat="44.1609915" lon="10.3551832"><ele>489.0</ele><time>2026-03-23T08:42:17.14Z</time></trkpt><trkpt lat="44.1609272" lon="10.3551022"><ele>490.5</ele><time>2026-03-23T08:42:19.152Z</time></trkpt><trkpt lat="44.1608634" lon="10.3550207"><ele>492.0</ele><time>2026-03-23T08:42:21.15Z</time></trkpt><trkpt lat="44.1607989" lon="10.3549441"><ele>492.0</ele><time>2026-03-23T08:42:23.135Z</time></trkpt><trkpt lat="44.1607354" lon="10.3548611"><ele>492.0</ele><time>2026-03-23T08:42:25.144Z</time></trkpt><trkpt lat="44.1606807" lon="10.354755"><ele>492.0</ele><time>2026-03-23T08:42:27.156Z</time></trkpt><trkpt lat="44.1606466" lon="10.3546439"><ele>492.0</ele><time>2026-03-23T08:42:29.141Z</time></trkpt><trkpt lat="44.1606317" lon="10.3545381"><ele>492.0</ele><time>2026-03-23T08:42:31.146Z</time></trkpt><trkpt lat="44.1606447" lon="10.3544149"><ele>492.0</ele><time>2026-03-23T08:42:33.148Z</time></trkpt><trkpt lat="44.1606828" lon="10.3542954"><ele>491.3333333333333</ele><time>2026-03-23T08:42:35.132Z</time></trkpt><trkpt lat="44.1607391" lon="10.3541936"><ele>490.66666666666663</ele><time>2026-03-23T08:42:37.139Z</time></trkpt><trkpt lat="44.1607888" lon="10.354094"><ele>490.0</ele><time>2026-03-23T08:42:39.145Z</time></trkpt><trkpt lat="44.1608437" lon="10.3539862"><ele>489.3333333333333</ele><time>2026-03-23T08:42:41.141Z</time></trkpt><trkpt lat="44.160895" lon="10.3538881"><ele>488.66666666666663</ele><time>2026-03-23T08:42:43.139Z</time></trkpt><trkpt lat="44.1609437" lon="10.353795"><ele>488.0</ele><time>2026-03-23T08:42:45.142Z</time></trkpt><trkpt lat="44.1609966" lon="10.3537083"><ele>488.0</ele><time>2026-03-23T08:42:47.148Z</time></trkpt><trkpt lat="44.1610652" lon="10.353628"><ele>487.99999999999994</ele><time>2026-03-23T08:42:49.138Z</time></trkpt><trkpt lat="44.1611427" lon="10.3535702"><ele>487.99999999999994</ele><time>2026-03-23T08:42:51.143Z</time></trkpt><trkpt lat="44.1612286" lon="10.3535931"><ele>488.0</ele><time>2026-03-23T08:42:53.14Z</time></trkpt><trkpt lat="44.161316" lon="10.3536393"><ele>488.0</ele><time>2026-03-23T08:42:55.135Z</time></trkpt><trkpt lat="44.1613957" lon="10.3537075"><ele>488.0</ele><time>2026-03-23T08:42:57.149Z</time></trkpt><trkpt lat="44.1614715" lon="10.3537837"><ele>487.99999999999994</ele><time>2026-03-23T08:42:59.148Z</time></trkpt><trkpt lat="44.1615363" lon="10.3538688"><ele>487.99999999999994</ele><time>2026-03-23T08:43:01.146Z</time></trkpt><trkpt lat="44.1616118" lon="10.3539457"><ele>488.0</ele><time>2026-03-23T08:43:03.147Z</time></trkpt><trkpt lat="44.1616913" lon="10.3540232"><ele>488.0</ele><time>2026-03-23T08:43:05.147Z</time></trkpt><trkpt lat="44.161767" lon="10.354101"><ele>491.0</ele><time>2026-03-23T08:43:07.144Z</time></trkpt><trkpt lat="44.1618426" lon="10.3541811"><ele>493.99999999999994</ele><time>2026-03-23T08:43:09.144Z</time></trkpt><trkpt lat="44.1619187" lon="10.3542595"><ele>496.99999999999994</ele><time>2026-03-23T08:43:11.154Z</time></trkpt><trkpt lat="44.1619905" lon="10.3543376"><ele>500.0</ele><time>2026-03-23T08:43:13.149Z</time></trkpt><trkpt lat="44.1620629" lon="10.3544141"><ele>503.0</ele><time>2026-03-23T08:43:15.142Z</time></trkpt><trkpt lat="44.1621372" lon="10.3544722"><ele>503.0</ele><time>2026-03-23T08:43:17.136Z</time></trkpt><trkpt lat="44.1622217" lon="10.3545233"><ele>502.99999999999994</ele><time>2026-03-23T08:43:19.149Z</time></trkpt><trkpt lat="44.1623083" lon="10.3545543"><ele>502.99999999999994</ele><time>2026-03-23T08:43:21.154Z</time></trkpt><trkpt lat="44.162402" lon="10.3545791"><ele>503.0</ele><time>2026-03-23T08:43:23.137Z</time></trkpt><trkpt lat="44.1624896" lon="10.3545865"><ele>503.0</ele><time>2026-03-23T08:43:25.168Z</time></trkpt><trkpt lat="44.1625866" lon="10.354577"><ele>501.4</ele><time>2026-03-23T08:43:27.147Z</time></trkpt><trkpt lat="44.1626769" lon="10.3545707"><ele>499.79999999999995</ele><time>2026-03-23T08:43:29.146Z</time></trkpt><trkpt lat="44.1627716" lon="10.3545634"><ele>498.2</ele><time>2026-03-23T08:43:31.147Z</time></trkpt><trkpt lat="44.1628637" lon="10.3545524"><ele>496.6</ele><time>2026-03-23T08:43:33.147Z</time></trkpt><trkpt lat="44.162957" lon="10.3545423"><ele>495.0</ele><time>2026-03-23T08:43:35.144Z</time></trkpt><trkpt lat="44.1630502" lon="10.3545279"><ele>495.0</ele><time>2026-03-23T08:43:37.131Z</time></trkpt><trkpt lat="44.1631373" lon="10.3545113"><ele>495.0</ele><time>2026-03-23T08:43:39.137Z</time></trkpt><trkpt lat="44.163227" lon="10.3544885"><ele>495.0</ele><time>2026-03-23T08:43:41.139Z</time></trkpt><trkpt lat="44.1633213" lon="10.3544675"><ele>495.0</ele><time>2026-03-23T08:43:43.134Z</time></trkpt><trkpt lat="44.1634175" lon="10.354456"><ele>495.0</ele><time>2026-03-23T08:43:45.133Z</time></trkpt><trkpt lat="44.1635104" lon="10.3544425"><ele>495.2</ele><time>2026-03-23T08:43:47.151Z</time></trkpt><trkpt lat="44.1636043" lon="10.3544299"><ele>495.4</ele><time>2026-03-23T08:43:49.153Z</time></trkpt><trkpt lat="44.1636948" lon="10.3544085"><ele>495.6</ele><time>2026-03-23T08:43:51.145Z</time></trkpt><trkpt lat="44.1637858" lon="10.3543873"><ele>495.8</ele><time>2026-03-23T08:43:53.163Z</time></trkpt><trkpt lat="44.1638792" lon="10.3543661"><ele>496.0</ele><time>2026-03-23T08:43:55.147Z</time></trkpt><trkpt lat="44.1639726" lon="10.3543447"><ele>496.20000000000005</ele><time>2026-03-23T08:43:57.141Z</time></trkpt><trkpt lat="44.1640611" lon="10.3543009"><ele>496.40000000000003</ele><time>2026-03-23T08:43:59.161Z</time></trkpt><trkpt lat="44.1641459" lon="10.3542521"><ele>496.6</ele><time>2026-03-23T08:44:01.141Z</time></trkpt><trkpt lat="44.1642265" lon="10.3541859"><ele>496.8</ele><time>2026-03-23T08:44:03.147Z</time></trkpt><trkpt lat="44.1642985" lon="10.3541049"><ele>497.0</ele><time>2026-03-23T08:44:05.141Z</time></trkpt><trkpt lat="44.164361" lon="10.354015"><ele>497.0</ele><time>2026-03-23T08:44:07.148Z</time></trkpt><trkpt lat="44.1644243" lon="10.3539139"><ele>497.00000000000006</ele><time>2026-03-23T08:44:09.147Z</time></trkpt><trkpt lat="44.1644938" lon="10.3538215"><ele>497.00000000000006</ele><time>2026-03-23T08:44:11.137Z</time></trkpt><trkpt lat="44.164557" lon="10.3537234"><ele>497.0</ele><time>2026-03-23T08:44:13.136Z</time></trkpt><trkpt lat="44.164621" lon="10.3536316"><ele>497.0</ele><time>2026-03-23T08:44:15.15Z</time></trkpt><trkpt lat="44.1646849" lon="10.3535373"><ele>497.66666666666663</ele><time>2026-03-23T08:44:17.151Z</time></trkpt><trkpt lat="44.1647483" lon="10.3534508"><ele>498.3333333333333</ele><time>2026-03-23T08:44:19.145Z</time></trkpt><trkpt lat="44.164812" lon="10.3533697"><ele>499.0</ele><time>2026-03-23T08:44:21.138Z</time></trkpt><trkpt lat="44.1648759" lon="10.3532852"><ele>499.66666666666663</ele><time>2026-03-23T08:44:23.132Z</time></trkpt><trkpt lat="44.1649506" lon="10.3532108"><ele>500.3333333333333</ele><time>2026-03-23T08:44:25.146Z</time></trkpt><trkpt lat="44.1650288" lon="10.3531428"><ele>501.0</ele><time>2026-03-23T08:44:27.153Z</time></trkpt><trkpt lat="44.1651099" lon="10.3531014"><ele>501.0</ele><time>2026-03-23T08:44:29.141Z</time></trkpt><trkpt lat="44.1651969" lon="10.3530618"><ele>501.0</ele><time>2026-03-23T08:44:31.154Z</time></trkpt><trkpt lat="44.1652809" lon="10.3530295"><ele>501.0</ele><time>2026-03-23T08:44:33.151Z</time></trkpt><trkpt lat="44.1653647" lon="10.3529973"><ele>501.0</ele><time>2026-03-23T08:44:35.138Z</time></trkpt><trkpt lat="44.1654497" lon="10.3529645"><ele>501.0</ele><time>2026-03-23T08:44:37.139Z</time></trkpt><trkpt lat="44.1655325" lon="10.352931"><ele>501.0</ele><time>2026-03-23T08:44:39.139Z</time></trkpt><trkpt lat="44.1656208" lon="10.3528984"><ele>499.8</ele><time>2026-03-23T08:44:41.146Z</time></trkpt><trkpt lat="44.1657039" lon="10.3528617"><ele>498.6</ele><time>2026-03-23T08:44:43.14Z</time></trkpt><trkpt lat="44.1657921" lon="10.3528203"><ele>497.4</ele><time>2026-03-23T08:44:45.156Z</time></trkpt><trkpt lat="44.1658849" lon="10.3527731"><ele>496.2</ele><time>2026-03-23T08:44:47.154Z</time></trkpt><trkpt lat="44.1659737" lon="10.3527359"><ele>495.0</ele><time>2026-03-23T08:44:49.15Z</time></trkpt><trkpt lat="44.1660606" lon="10.3527017"><ele>495.0</ele><time>2026-03-23T08:44:51.133Z</time></trkpt><trkpt lat="44.1661436" lon="10.352673"><ele>495.0</ele><time>2026-03-23T08:44:53.144Z</time></trkpt><trkpt lat="44.1662301" lon="10.3526413"><ele>495.0</ele><time>2026-03-23T08:44:55.136Z</time></trkpt><trkpt lat="44.1663151" lon="10.3526047"><ele>495.0</ele><time>2026-03-23T08:44:57.133Z</time></trkpt><trkpt lat="44.1664014" lon="10.3525726"><ele>495.0</ele><time>2026-03-23T08:44:59.146Z</time></trkpt><trkpt lat="44.1664878" lon="10.3525468"><ele>495.0</ele><time>2026-03-23T08:45:01.136Z</time></trkpt><trkpt lat="44.166577" lon="10.3525157"><ele>493.6666666666667</ele><time>2026-03-23T08:45:03.153Z</time></trkpt><trkpt lat="44.1666668" lon="10.3524808"><ele>492.33333333333337</ele><time>2026-03-23T08:45:05.147Z</time></trkpt><trkpt lat="44.1667561" lon="10.3524389"><ele>491.0</ele><time>2026-03-23T08:45:07.153Z</time></trkpt><trkpt lat="44.1668323" lon="10.3523888"><ele>489.6666666666667</ele><time>2026-03-23T08:45:09.144Z</time></trkpt><trkpt lat="44.1669016" lon="10.352319"><ele>488.33333333333337</ele><time>2026-03-23T08:45:11.139Z</time></trkpt><trkpt lat="44.1669685" lon="10.3522361"><ele>487.0</ele><time>2026-03-23T08:45:13.152Z</time></trkpt><trkpt lat="44.1670341" lon="10.3521495"><ele>487.00000000000006</ele><time>2026-03-23T08:45:15.133Z</time></trkpt><trkpt lat="44.1671048" lon="10.3520587"><ele>487.0</ele><time>2026-03-23T08:45:17.14Z</time></trkpt><trkpt lat="44.1671692" lon="10.3519757"><ele>487.0</ele><time>2026-03-23T08:45:19.138Z</time></trkpt><trkpt lat="44.1672377" lon="10.3518975"><ele>487.0</ele><time>2026-03-23T08:45:21.142Z</time></trkpt><trkpt lat="44.1673051" lon="10.3518213"><ele>487.00000000000006</ele><time>2026-03-23T08:45:23.131Z</time></trkpt><trkpt lat="44.1673826" lon="10.3517603"><ele>487.0</ele><time>2026-03-23T08:45:25.144Z</time></trkpt><trkpt lat="44.1674668" lon="10.351713"><ele>491.00000000000006</ele><time>2026-03-23T08:45:27.148Z</time></trkpt><trkpt lat="44.1675532" lon="10.3516769"><ele>495.0</ele><time>2026-03-23T08:45:29.142Z</time></trkpt><trkpt lat="44.1676328" lon="10.3516624"><ele>499.0</ele><time>2026-03-23T08:45:31.153Z</time></trkpt><trkpt lat="44.1677187" lon="10.3516579"><ele>503.0</ele><time>2026-03-23T08:45:33.144Z</time></trkpt><trkpt lat="44.1678018" lon="10.3516605"><ele>507.00000000000006</ele><time>2026-03-23T08:45:35.144Z</time></trkpt><trkpt lat="44.1678831" lon="10.3516661"><ele>511.0</ele><time>2026-03-23T08:45:37.137Z</time></trkpt><trkpt lat="44.167969" lon="10.3516912"><ele>511.00000000000006</ele><time>2026-03-23T08:45:39.136Z</time></trkpt><trkpt lat="44.168055" lon="10.3517187"><ele>511.0</ele><time>2026-03-23T08:45:41.14Z</time></trkpt><trkpt lat="44.1681378" lon="10.3517512"><ele>511.0</ele><time>2026-03-23T08:45:43.136Z</time></trkpt><trkpt lat="44.1682211" lon="10.3517736"><ele>511.0</ele><time>2026-03-23T08:45:45.151Z</time></trkpt><trkpt lat="44.1683034" lon="10.35179"><ele>511.00000000000006</ele><time>2026-03-23T08:45:47.144Z</time></trkpt><trkpt lat="44.1683905" lon="10.3517822"><ele>511.0</ele><time>2026-03-23T08:45:49.145Z</time></trkpt><trkpt lat="44.168469" lon="10.3517433"><ele>509.33333333333337</ele><time>2026-03-23T08:45:51.133Z</time></trkpt><trkpt lat="44.1685412" lon="10.3516818"><ele>507.6666666666667</ele><time>2026-03-23T08:45:53.137Z</time></trkpt><trkpt lat="44.1685954" lon="10.3515941"><ele>506.0</ele><time>2026-03-23T08:45:55.137Z</time></trkpt><trkpt lat="44.1686244" lon="10.351479"><ele>504.33333333333337</ele><time>2026-03-23T08:45:57.142Z</time></trkpt><trkpt lat="44.1686416" lon="10.3513471"><ele>502.6666666666667</ele><time>2026-03-23T08:45:59.136Z</time></trkpt><trkpt lat="44.168662" lon="10.3512198"><ele>501.0</ele><time>2026-03-23T08:46:01.142Z</time></trkpt><trkpt lat="44.1686848" lon="10.3510926"><ele>501.0</ele><time>2026-03-23T08:46:03.15Z</time></trkpt><trkpt lat="44.1687048" lon="10.3509676"><ele>501.0</ele><time>2026-03-23T08:46:05.145Z</time></trkpt><trkpt lat="44.1687175" lon="10.3508381"><ele>501.0</ele><time>2026-03-23T08:46:07.138Z</time></trkpt><trkpt lat="44.168717" lon="10.3507349"><ele>501.0</ele><time>2026-03-23T08:46:09.142Z</time></trkpt><trkpt lat="44.1686955" lon="10.3506502"><ele>501.0</ele><time>2026-03-23T08:46:11.151Z</time></trkpt><trkpt lat="44.1686456" lon="10.3505391"><ele>501.0</ele><time>2026-03-23T08:46:14.157Z</time></trkpt><trkpt lat="44.1685892" lon="10.3504344"><ele>502.1666666666667</ele><time>2026-03-23T08:46:17.151Z</time></trkpt><trkpt lat="44.1685439" lon="10.3503232"><ele>503.33333333333337</ele><time>2026-03-23T08:46:20.142Z</time></trkpt><trkpt lat="44.1685241" lon="10.350236"><ele>504.5</ele><time>2026-03-23T08:46:22.154Z</time></trkpt><trkpt lat="44.1685008" lon="10.3501086"><ele>505.6666666666667</ele><time>2026-03-23T08:46:25.143Z</time></trkpt><trkpt lat="44.1684907" lon="10.350012"><ele>506.83333333333337</ele><time>2026-03-23T08:46:27.149Z</time></trkpt><trkpt lat="44.1684911" lon="10.3499181"><ele>508.0</ele><time>2026-03-23T08:46:29.14Z</time></trkpt><trkpt lat="44.1684985" lon="10.349818"><ele>508.00000000000006</ele><time>2026-03-23T08:46:31.155Z</time></trkpt><trkpt lat="44.1685159" lon="10.3497299"><ele>508.0</ele><time>2026-03-23T08:46:33.143Z</time></trkpt><trkpt lat="44.1685413" lon="10.3496494"><ele>508.0</ele><time>2026-03-23T08:46:35.149Z</time></trkpt><trkpt lat="44.1685785" lon="10.3495399"><ele>508.0</ele><time>2026-03-23T08:46:38.135Z</time></trkpt><trkpt lat="44.1686158" lon="10.3494275"><ele>508.00000000000006</ele><time>2026-03-23T08:46:41.149Z</time></trkpt><trkpt lat="44.1686263" lon="10.3493209"><ele>508.0</ele><time>2026-03-23T08:46:44.148Z</time></trkpt><trkpt lat="44.168593" lon="10.3492214"><ele>508.1666666666667</ele><time>2026-03-23T08:46:47.146Z</time></trkpt><trkpt lat="44.1685699" lon="10.3491283"><ele>508.33333333333337</ele><time>2026-03-23T08:46:49.148Z</time></trkpt><trkpt lat="44.1685308" lon="10.349003"><ele>508.5</ele><time>2026-03-23T08:46:51.145Z</time></trkpt><trkpt lat="44.168486" lon="10.3488553"><ele>508.66666666666663</ele><time>2026-03-23T08:46:53.145Z</time></trkpt><trkpt lat="44.1684578" lon="10.3487756"><ele>508.8333333333333</ele><time>2026-03-23T08:46:54.149Z</time></trkpt><trkpt lat="44.1684288" lon="10.3486883"><ele>509.0</ele><time>2026-03-23T08:46:55.149Z</time></trkpt><trkpt lat="44.1683974" lon="10.3485971"><ele>509.49999999999994</ele><time>2026-03-23T08:46:56.148Z</time></trkpt><trkpt lat="44.1683667" lon="10.3485007"><ele>510.0</ele><time>2026-03-23T08:46:57.146Z</time></trkpt><trkpt lat="44.1683383" lon="10.3483944"><ele>510.5</ele><time>2026-03-23T08:46:58.144Z</time></trkpt><trkpt lat="44.1683022" lon="10.3482896"><ele>511.0</ele><time>2026-03-23T08:46:59.15Z</time></trkpt><trkpt lat="44.1682556" lon="10.3481874"><ele>511.49999999999994</ele><time>2026-03-23T08:47:00.149Z</time></trkpt><trkpt lat="44.1681842" lon="10.3481067"><ele>512.0</ele><time>2026-03-23T08:47:01.148Z</time></trkpt><trkpt lat="44.1680964" lon="10.3480493"><ele>511.20000000000005</ele><time>2026-03-23T08:47:02.169Z</time></trkpt><trkpt lat="44.1680024" lon="10.348026"><ele>510.40000000000003</ele><time>2026-03-23T08:47:03.14Z</time></trkpt><trkpt lat="44.1679115" lon="10.348025"><ele>509.59999999999997</ele><time>2026-03-23T08:47:04.148Z</time></trkpt><trkpt lat="44.1678103" lon="10.3480385"><ele>508.79999999999995</ele><time>2026-03-23T08:47:05.147Z</time></trkpt><trkpt lat="44.1677074" lon="10.3480448"><ele>508.0</ele><time>2026-03-23T08:47:06.15Z</time></trkpt><trkpt lat="44.1675997" lon="10.3480472"><ele>508.0</ele><time>2026-03-23T08:47:07.15Z</time></trkpt><trkpt lat="44.1674918" lon="10.3480498"><ele>507.99999999999994</ele><time>2026-03-23T08:47:08.157Z</time></trkpt><trkpt lat="44.1673844" lon="10.3480392"><ele>507.99999999999994</ele><time>2026-03-23T08:47:09.145Z</time></trkpt><trkpt lat="44.1672868" lon="10.3479781"><ele>508.0</ele><time>2026-03-23T08:47:10.149Z</time></trkpt><trkpt lat="44.1672135" lon="10.3478947"><ele>508.0</ele><time>2026-03-23T08:47:11.132Z</time></trkpt><trkpt lat="44.1671674" lon="10.3477826"><ele>505.4</ele><time>2026-03-23T08:47:12.153Z</time></trkpt><trkpt lat="44.1671533" lon="10.3476495"><ele>502.79999999999995</ele><time>2026-03-23T08:47:13.148Z</time></trkpt><trkpt lat="44.1671649" lon="10.3475095"><ele>500.2</ele><time>2026-03-23T08:47:14.153Z</time></trkpt><trkpt lat="44.1672034" lon="10.3473686"><ele>497.6</ele><time>2026-03-23T08:47:15.148Z</time></trkpt><trkpt lat="44.1672381" lon="10.3472352"><ele>495.0</ele><time>2026-03-23T08:47:16.156Z</time></trkpt><trkpt lat="44.1672355" lon="10.3471113"><ele>495.0</ele><time>2026-03-23T08:47:17.155Z</time></trkpt><trkpt lat="44.1671952" lon="10.3470072"><ele>495.0</ele><time>2026-03-23T08:47:18.153Z</time></trkpt><trkpt lat="44.167129" lon="10.3469392"><ele>495.0</ele><time>2026-03-23T08:47:19.142Z</time></trkpt><trkpt lat="44.1670458" lon="10.3469198"><ele>495.0</ele><time>2026-03-23T08:47:20.151Z</time></trkpt><trkpt lat="44.1669626" lon="10.3469301"><ele>495.0</ele><time>2026-03-23T08:47:21.149Z</time></trkpt><trkpt lat="44.166874" lon="10.3469458"><ele>495.0</ele><time>2026-03-23T08:47:22.143Z</time></trkpt><trkpt lat="44.1667861" lon="10.3469651"><ele>495.0</ele><time>2026-03-23T08:47:23.139Z</time></trkpt><trkpt lat="44.1666998" lon="10.3469819"><ele>495.0</ele><time>2026-03-23T08:47:24.152Z</time></trkpt><trkpt lat="44.1666185" lon="10.3469983"><ele>495.0</ele><time>2026-03-23T08:47:25.146Z</time></trkpt><trkpt lat="44.1665352" lon="10.3470141"><ele>495.0</ele><time>2026-03-23T08:47:26.154Z</time></trkpt><trkpt lat="44.1664561" lon="10.3470272"><ele>495.0</ele><time>2026-03-23T08:47:27.152Z</time></trkpt><trkpt lat="44.1663733" lon="10.3470439"><ele>495.0</ele><time>2026-03-23T08:47:28.138Z</time></trkpt><trkpt lat="44.166287" lon="10.3470606"><ele>493.99999999999994</ele><time>2026-03-23T08:47:29.149Z</time></trkpt><trkpt lat="44.1662084" lon="10.3470625"><ele>493.0</ele><time>2026-03-23T08:47:30.148Z</time></trkpt><trkpt lat="44.1661298" lon="10.3470554"><ele>491.99999999999994</ele><time>2026-03-23T08:47:31.145Z</time></trkpt><trkpt lat="44.1660539" lon="10.3470402"><ele>490.99999999999994</ele><time>2026-03-23T08:47:32.144Z</time></trkpt><trkpt lat="44.1659821" lon="10.3470173"><ele>490.0</ele><time>2026-03-23T08:47:33.146Z</time></trkpt><trkpt lat="44.1659165" lon="10.3469888"><ele>488.99999999999994</ele><time>2026-03-23T08:47:34.145Z</time></trkpt><trkpt lat="44.1658539" lon="10.3469572"><ele>487.99999999999994</ele><time>2026-03-23T08:47:35.148Z</time></trkpt><trkpt lat="44.1657574" lon="10.3468935"><ele>485.79999999999995</ele><time>2026-03-23T08:47:37.136Z</time></trkpt><trkpt lat="44.165668" lon="10.3468413"><ele>483.59999999999997</ele><time>2026-03-23T08:47:39.138Z</time></trkpt><trkpt lat="44.1655913" lon="10.3467765"><ele>481.40000000000003</ele><time>2026-03-23T08:47:41.15Z</time></trkpt><trkpt lat="44.1655162" lon="10.3466985"><ele>479.20000000000005</ele><time>2026-03-23T08:47:43.139Z</time></trkpt><trkpt lat="44.1654529" lon="10.3466079"><ele>477.0</ele><time>2026-03-23T08:47:45.136Z</time></trkpt><trkpt lat="44.1653902" lon="10.3465111"><ele>477.0</ele><time>2026-03-23T08:47:47.15Z</time></trkpt><trkpt lat="44.1653248" lon="10.3464197"><ele>477.00000000000006</ele><time>2026-03-23T08:47:49.144Z</time></trkpt><trkpt lat="44.1652606" lon="10.3463245"><ele>477.00000000000006</ele><time>2026-03-23T08:47:51.15Z</time></trkpt><trkpt lat="44.1652037" lon="10.3462239"><ele>477.0</ele><time>2026-03-23T08:47:53.15Z</time></trkpt><trkpt lat="44.1651428" lon="10.346128"><ele>477.0</ele><time>2026-03-23T08:47:55.144Z</time></trkpt><trkpt lat="44.165087" lon="10.3460325"><ele>478.20000000000005</ele><time>2026-03-23T08:47:57.144Z</time></trkpt><trkpt lat="44.1650443" lon="10.3459253"><ele>479.40000000000003</ele><time>2026-03-23T08:47:59.143Z</time></trkpt><trkpt lat="44.1650303" lon="10.3458029"><ele>480.59999999999997</ele><time>2026-03-23T08:48:01.148Z</time></trkpt><trkpt lat="44.1650542" lon="10.3456715"><ele>481.79999999999995</ele><time>2026-03-23T08:48:03.147Z</time></trkpt><trkpt lat="44.1651056" lon="10.3455434"><ele>483.0</ele><time>2026-03-23T08:48:05.147Z</time></trkpt><trkpt lat="44.1651617" lon="10.345416"><ele>483.0</ele><time>2026-03-23T08:48:07.138Z</time></trkpt><trkpt lat="44.1652215" lon="10.3452718"><ele>482.99999999999994</ele><time>2026-03-23T08:48:09.134Z</time></trkpt><trkpt lat="44.1652833" lon="10.3451149"><ele>482.99999999999994</ele><time>2026-03-23T08:48:11.148Z</time></trkpt><trkpt lat="44.1653126" lon="10.3450254"><ele>483.0</ele><time>2026-03-23T08:48:12.148Z</time></trkpt><trkpt lat="44.1653336" lon="10.3449285"><ele>483.0</ele><time>2026-03-23T08:48:13.131Z</time></trkpt><trkpt lat="44.1653487" lon="10.344826"><ele>483.0</ele><time>2026-03-23T08:48:14.135Z</time></trkpt><trkpt lat="44.1653634" lon="10.3447244"><ele>483.0</ele><time>2026-03-23T08:48:15.148Z</time></trkpt><trkpt lat="44.1653746" lon="10.3446166"><ele>483.0</ele><time>2026-03-23T08:48:16.148Z</time></trkpt><trkpt lat="44.1653744" lon="10.3445118"><ele>483.0</ele><time>2026-03-23T08:48:17.149Z</time></trkpt><trkpt lat="44.1653628" lon="10.3444072"><ele>483.0</ele><time>2026-03-23T08:48:18.155Z</time></trkpt><trkpt lat="44.1653417" lon="10.3443033"><ele>483.0</ele><time>2026-03-23T08:48:19.153Z</time></trkpt><trkpt lat="44.165316" lon="10.3442026"><ele>482.3333333333333</ele><time>2026-03-23T08:48:20.151Z</time></trkpt><trkpt lat="44.1652815" lon="10.3441008"><ele>481.66666666666663</ele><time>2026-03-23T08:48:21.149Z</time></trkpt><trkpt lat="44.1652369" lon="10.344007"><ele>481.0</ele><time>2026-03-23T08:48:22.151Z</time></trkpt><trkpt lat="44.1651791" lon="10.3439183"><ele>480.3333333333333</ele><time>2026-03-23T08:48:23.151Z</time></trkpt><trkpt lat="44.1651117" lon="10.3438346"><ele>479.66666666666663</ele><time>2026-03-23T08:48:24.153Z</time></trkpt><trkpt lat="44.1650372" lon="10.3437565"><ele>479.0</ele><time>2026-03-23T08:48:25.156Z</time></trkpt><trkpt lat="44.1649584" lon="10.3436849"><ele>478.6</ele><time>2026-03-23T08:48:26.151Z</time></trkpt><trkpt lat="44.1648852" lon="10.3435974"><ele>478.2</ele><time>2026-03-23T08:48:27.157Z</time></trkpt><trkpt lat="44.1648275" lon="10.3434938"><ele>477.80000000000007</ele><time>2026-03-23T08:48:28.151Z</time></trkpt><trkpt lat="44.1647965" lon="10.3433655"><ele>477.40000000000003</ele><time>2026-03-23T08:48:29.146Z</time></trkpt><trkpt lat="44.1647907" lon="10.343234"><ele>477.0</ele><time>2026-03-23T08:48:30.144Z</time></trkpt><trkpt lat="44.1648029" lon="10.3430989"><ele>474.6</ele><time>2026-03-23T08:48:31.144Z</time></trkpt><trkpt lat="44.1648683" lon="10.3429886"><ele>472.20000000000005</ele><time>2026-03-23T08:48:32.143Z</time></trkpt><trkpt lat="44.1649517" lon="10.3429014"><ele>469.8</ele><time>2026-03-23T08:48:33.142Z</time></trkpt><trkpt lat="44.1650447" lon="10.342842"><ele>467.4</ele><time>2026-03-23T08:48:34.136Z</time></trkpt><trkpt lat="44.1651441" lon="10.3428018"><ele>465.0</ele><time>2026-03-23T08:48:35.137Z</time></trkpt><trkpt lat="44.165255" lon="10.3427635"><ele>465.0</ele><time>2026-03-23T08:48:36.138Z</time></trkpt><trkpt lat="44.1653703" lon="10.3427329"><ele>465.0</ele><time>2026-03-23T08:48:37.147Z</time></trkpt><trkpt lat="44.1654893" lon="10.3427001"><ele>465.0</ele><time>2026-03-23T08:48:38.143Z</time></trkpt><trkpt lat="44.1656068" lon="10.3426604"><ele>465.0</ele><time>2026-03-23T08:48:39.138Z</time></trkpt><trkpt lat="44.1657283" lon="10.3426145"><ele>464.75</ele><time>2026-03-23T08:48:40.146Z</time></trkpt><trkpt lat="44.1658456" lon="10.3425591"><ele>464.5</ele><time>2026-03-23T08:48:41.151Z</time></trkpt><trkpt lat="44.1659674" lon="10.3424851"><ele>464.25</ele><time>2026-03-23T08:48:42.146Z</time></trkpt><trkpt lat="44.1660824" lon="10.3423888"><ele>464.0</ele><time>2026-03-23T08:48:43.155Z</time></trkpt><trkpt lat="44.1661889" lon="10.3422846"><ele>460.5</ele><time>2026-03-23T08:48:44.143Z</time></trkpt><trkpt lat="44.1662868" lon="10.3421864"><ele>457.0</ele><time>2026-03-23T08:48:45.149Z</time></trkpt><trkpt lat="44.1663719" lon="10.3420568"><ele>453.5</ele><time>2026-03-23T08:48:46.149Z</time></trkpt><trkpt lat="44.1664427" lon="10.3419086"><ele>450.0</ele><time>2026-03-23T08:48:47.151Z</time></trkpt><trkpt lat="44.1664977" lon="10.3417432"><ele>449.75</ele><time>2026-03-23T08:48:48.147Z</time></trkpt><trkpt lat="44.1665438" lon="10.3415652"><ele>449.5</ele><time>2026-03-23T08:48:49.136Z</time></trkpt><trkpt lat="44.1665892" lon="10.341386"><ele>449.25</ele><time>2026-03-23T08:48:50.134Z</time></trkpt><trkpt lat="44.1666252" lon="10.3411996"><ele>449.0</ele><time>2026-03-23T08:48:51.14Z</time></trkpt><trkpt lat="44.1666389" lon="10.3410126"><ele>449.0</ele><time>2026-03-23T08:48:52.152Z</time></trkpt><trkpt lat="44.1666282" lon="10.3408252"><ele>449.0</ele><time>2026-03-23T08:48:53.138Z</time></trkpt><trkpt lat="44.1666015" lon="10.3406363"><ele>449.0</ele><time>2026-03-23T08:48:54.135Z</time></trkpt><trkpt lat="44.1665557" lon="10.3404585"><ele>449.0</ele><time>2026-03-23T08:48:55.139Z</time></trkpt><trkpt lat="44.1664909" lon="10.3402951"><ele>444.5</ele><time>2026-03-23T08:48:56.141Z</time></trkpt><trkpt lat="44.1664067" lon="10.3401519"><ele>440.0</ele><time>2026-03-23T08:48:57.142Z</time></trkpt><trkpt lat="44.1663163" lon="10.3400156"><ele>435.5</ele><time>2026-03-23T08:48:58.138Z</time></trkpt><trkpt lat="44.1662249" lon="10.3398874"><ele>431.0</ele><time>2026-03-23T08:48:59.143Z</time></trkpt><trkpt lat="44.1661465" lon="10.3397638"><ele>429.6</ele><time>2026-03-23T08:49:00.161Z</time></trkpt><trkpt lat="44.1660777" lon="10.3396442"><ele>428.20000000000005</ele><time>2026-03-23T08:49:01.146Z</time></trkpt><trkpt lat="44.1660249" lon="10.3395258"><ele>426.79999999999995</ele><time>2026-03-23T08:49:02.141Z</time></trkpt><trkpt lat="44.1659919" lon="10.3393928"><ele>425.4</ele><time>2026-03-23T08:49:03.147Z</time></trkpt><trkpt lat="44.1659805" lon="10.3392519"><ele>424.0</ele><time>2026-03-23T08:49:04.146Z</time></trkpt><trkpt lat="44.1659952" lon="10.339118"><ele>424.00000000000006</ele><time>2026-03-23T08:49:05.138Z</time></trkpt><trkpt lat="44.1660248" lon="10.3390049"><ele>424.0</ele><time>2026-03-23T08:49:06.147Z</time></trkpt><trkpt lat="44.1660673" lon="10.3389332"><ele>424.0</ele><time>2026-03-23T08:49:07.154Z</time></trkpt><trkpt lat="44.1661942" lon="10.338919"><ele>424.0</ele><time>2026-03-23T08:49:09.144Z</time></trkpt><trkpt lat="44.1662553" lon="10.3389791"><ele>424.00000000000006</ele><time>2026-03-23T08:49:10.149Z</time></trkpt><trkpt lat="44.1663035" lon="10.339058"><ele>424.0</ele><time>2026-03-23T08:49:11.144Z</time></trkpt><trkpt lat="44.1663448" lon="10.3391533"><ele>424.00000000000006</ele><time>2026-03-23T08:49:12.146Z</time></trkpt><trkpt lat="44.1663888" lon="10.339249"><ele>424.0</ele><time>2026-03-23T08:49:13.142Z</time></trkpt><trkpt lat="44.1664375" lon="10.3393463"><ele>424.0</ele><time>2026-03-23T08:49:14.149Z</time></trkpt><trkpt lat="44.1664919" lon="10.339445"><ele>424.0</ele><time>2026-03-23T08:49:15.15Z</time></trkpt><trkpt lat="44.1665618" lon="10.3395109"><ele>424.00000000000006</ele><time>2026-03-23T08:49:16.159Z</time></trkpt><trkpt lat="44.1666354" lon="10.339549"><ele>424.0</ele><time>2026-03-23T08:49:17.179Z</time></trkpt><trkpt lat="44.1667155" lon="10.3395023"><ele>424.33333333333337</ele><time>2026-03-23T08:49:18.149Z</time></trkpt><trkpt lat="44.1667742" lon="10.3394348"><ele>424.6666666666667</ele><time>2026-03-23T08:49:19.149Z</time></trkpt><trkpt lat="44.1668097" lon="10.3393293"><ele>425.0</ele><time>2026-03-23T08:49:20.164Z</time></trkpt><trkpt lat="44.1668032" lon="10.3392139"><ele>425.33333333333337</ele><time>2026-03-23T08:49:21.159Z</time></trkpt><trkpt lat="44.1667635" lon="10.339106"><ele>425.6666666666667</ele><time>2026-03-23T08:49:22.151Z</time></trkpt><trkpt lat="44.1667052" lon="10.3390079"><ele>426.0</ele><time>2026-03-23T08:49:23.137Z</time></trkpt><trkpt lat="44.1666406" lon="10.3389068"><ele>424.0</ele><time>2026-03-23T08:49:24.151Z</time></trkpt><trkpt lat="44.1665754" lon="10.3388038"><ele>422.0</ele><time>2026-03-23T08:49:25.143Z</time></trkpt><trkpt lat="44.1665095" lon="10.3386933"><ele>420.0</ele><time>2026-03-23T08:49:26.147Z</time></trkpt><trkpt lat="44.1664457" lon="10.3385809"><ele>418.0</ele><time>2026-03-23T08:49:27.146Z</time></trkpt><trkpt lat="44.1663827" lon="10.3384614"><ele>416.0</ele><time>2026-03-23T08:49:28.149Z</time></trkpt><trkpt lat="44.1663172" lon="10.3383438"><ele>416.0</ele><time>2026-03-23T08:49:29.143Z</time></trkpt><trkpt lat="44.1662509" lon="10.3382239"><ele>416.0</ele><time>2026-03-23T08:49:30.149Z</time></trkpt><trkpt lat="44.1661815" lon="10.3381012"><ele>416.0</ele><time>2026-03-23T08:49:31.147Z</time></trkpt><trkpt lat="44.1661093" lon="10.3379824"><ele>416.0</ele><time>2026-03-23T08:49:32.135Z</time></trkpt><trkpt lat="44.166021" lon="10.3379"><ele>416.0</ele><time>2026-03-23T08:49:33.144Z</time></trkpt><trkpt lat="44.1659263" lon="10.3378617"><ele>413.0</ele><time>2026-03-23T08:49:34.144Z</time></trkpt><trkpt lat="44.1658337" lon="10.3378434"><ele>410.0</ele><time>2026-03-23T08:49:35.142Z</time></trkpt><trkpt lat="44.1657348" lon="10.3379208"><ele>407.0</ele><time>2026-03-23T08:49:36.15Z</time></trkpt><trkpt lat="44.1656456" lon="10.3379972"><ele>404.0</ele><time>2026-03-23T08:49:37.142Z</time></trkpt><trkpt lat="44.1655668" lon="10.3380961"><ele>401.0</ele><time>2026-03-23T08:49:38.144Z</time></trkpt><trkpt lat="44.1654998" lon="10.3382075"><ele>400.8</ele><time>2026-03-23T08:49:39.153Z</time></trkpt><trkpt lat="44.1654401" lon="10.3383354"><ele>400.6</ele><time>2026-03-23T08:49:40.151Z</time></trkpt><trkpt lat="44.1653856" lon="10.338471"><ele>400.4</ele><time>2026-03-23T08:49:41.141Z</time></trkpt><trkpt lat="44.1653345" lon="10.3386051"><ele>400.2</ele><time>2026-03-23T08:49:42.144Z</time></trkpt><trkpt lat="44.1652713" lon="10.3387223"><ele>400.0</ele><time>2026-03-23T08:49:43.139Z</time></trkpt><trkpt lat="44.1651902" lon="10.3388161"><ele>400.0</ele><time>2026-03-23T08:49:44.158Z</time></trkpt><trkpt lat="44.1651092" lon="10.3388944"><ele>400.0</ele><time>2026-03-23T08:49:45.148Z</time></trkpt><trkpt lat="44.1650052" lon="10.3388815"><ele>400.0</ele><time>2026-03-23T08:49:46.148Z</time></trkpt><trkpt lat="44.1649132" lon="10.3388581"><ele>400.0</ele><time>2026-03-23T08:49:47.148Z</time></trkpt><trkpt lat="44.1648207" lon="10.3388065"><ele>400.0</ele><time>2026-03-23T08:49:48.147Z</time></trkpt><trkpt lat="44.1647266" lon="10.3387567"><ele>397.0</ele><time>2026-03-23T08:49:49.144Z</time></trkpt><trkpt lat="44.1646184" lon="10.3387198"><ele>394.0</ele><time>2026-03-23T08:49:50.152Z</time></trkpt><trkpt lat="44.1645124" lon="10.3386795"><ele>391.0</ele><time>2026-03-23T08:49:51.132Z</time></trkpt><trkpt lat="44.1643911" lon="10.3386722"><ele>388.0</ele><time>2026-03-23T08:49:52.133Z</time></trkpt><trkpt lat="44.1642718" lon="10.3386793"><ele>388.0</ele><time>2026-03-23T08:49:53.136Z</time></trkpt><trkpt lat="44.1641505" lon="10.3387094"><ele>388.0</ele><time>2026-03-23T08:49:54.131Z</time></trkpt><trkpt lat="44.1640344" lon="10.33876"><ele>388.0</ele><time>2026-03-23T08:49:55.138Z</time></trkpt><trkpt lat="44.1639186" lon="10.3388266"><ele>388.0</ele><time>2026-03-23T08:49:56.139Z</time></trkpt><trkpt lat="44.1638044" lon="10.3388891"><ele>387.75</ele><time>2026-03-23T08:49:57.146Z</time></trkpt><trkpt lat="44.1636855" lon="10.3389319"><ele>387.5</ele><time>2026-03-23T08:49:58.149Z</time></trkpt><trkpt lat="44.1635595" lon="10.3389533"><ele>387.25</ele><time>2026-03-23T08:49:59.163Z</time></trkpt><trkpt lat="44.1634318" lon="10.338943"><ele>387.0</ele><time>2026-03-23T08:50:00.14Z</time></trkpt><trkpt lat="44.1633043" lon="10.3389011"><ele>389.25</ele><time>2026-03-23T08:50:01.159Z</time></trkpt><trkpt lat="44.163183" lon="10.3388294"><ele>391.5</ele><time>2026-03-23T08:50:02.14Z</time></trkpt><trkpt lat="44.1630769" lon="10.3387365"><ele>393.75</ele><time>2026-03-23T08:50:03.152Z</time></trkpt><trkpt lat="44.1629817" lon="10.3386379"><ele>396.0</ele><time>2026-03-23T08:50:04.153Z</time></trkpt><trkpt lat="44.1629005" lon="10.3385307"><ele>396.0</ele><time>2026-03-23T08:50:05.158Z</time></trkpt><trkpt lat="44.1628265" lon="10.3384084"><ele>396.0</ele><time>2026-03-23T08:50:06.148Z</time></trkpt><trkpt lat="44.1627688" lon="10.3382736"><ele>396.0</ele><time>2026-03-23T08:50:07.146Z</time></trkpt><trkpt lat="44.1627457" lon="10.33815"><ele>396.0</ele><time>2026-03-23T08:50:08.146Z</time></trkpt><trkpt lat="44.1627481" lon="10.3380164"><ele>396.0</ele><time>2026-03-23T08:50:09.163Z</time></trkpt><trkpt lat="44.1627896" lon="10.3379255"><ele>397.5</ele><time>2026-03-23T08:50:10.156Z</time></trkpt><trkpt lat="44.1628266" lon="10.3378486"><ele>399.0</ele><time>2026-03-23T08:50:11.138Z</time></trkpt><trkpt lat="44.162861" lon="10.3377728"><ele>400.5</ele><time>2026-03-23T08:50:12.147Z</time></trkpt><trkpt lat="44.1629121" lon="10.3376594"><ele>402.0</ele><time>2026-03-23T08:50:14.147Z</time></trkpt><trkpt lat="44.1629462" lon="10.3375735"><ele>403.5</ele><time>2026-03-23T08:50:16.145Z</time></trkpt><trkpt lat="44.162997" lon="10.3374765"><ele>405.0</ele><time>2026-03-23T08:50:19.137Z</time></trkpt><trkpt lat="44.1630283" lon="10.337385"><ele>405.0</ele><time>2026-03-23T08:50:22.132Z</time></trkpt><trkpt lat="44.1630621" lon="10.3372903"><ele>405.0</ele><time>2026-03-23T08:50:25.151Z</time></trkpt><trkpt lat="44.1630951" lon="10.3371921"><ele>405.0</ele><time>2026-03-23T08:50:28.147Z</time></trkpt><trkpt lat="44.1631231" lon="10.3370956"><ele>405.0</ele><time>2026-03-23T08:50:31.148Z</time></trkpt><trkpt lat="44.1631522" lon="10.3369977"><ele>405.0</ele><time>2026-03-23T08:50:34.136Z</time></trkpt><trkpt lat="44.1631581" lon="10.3368944"><ele>405.0</ele><time>2026-03-23T08:50:37.139Z</time></trkpt><trkpt lat="44.1631315" lon="10.3367936"><ele>405.8333333333333</ele><time>2026-03-23T08:50:40.144Z</time></trkpt><trkpt lat="44.1630758" lon="10.3367229"><ele>406.66666666666663</ele><time>2026-03-23T08:50:43.147Z</time></trkpt><trkpt lat="44.1630065" lon="10.3366827"><ele>407.5</ele><time>2026-03-23T08:50:46.146Z</time></trkpt><trkpt lat="44.1629373" lon="10.3366693"><ele>408.3333333333333</ele><time>2026-03-23T08:50:49.147Z</time></trkpt><trkpt lat="44.1628636" lon="10.3366697"><ele>409.16666666666663</ele><time>2026-03-23T08:50:52.142Z</time></trkpt><trkpt lat="44.1627928" lon="10.3367182"><ele>410.0</ele><time>2026-03-23T08:50:55.138Z</time></trkpt><trkpt lat="44.1627243" lon="10.336776"><ele>410.0</ele><time>2026-03-23T08:50:58.155Z</time></trkpt><trkpt lat="44.1626627" lon="10.3368431"><ele>410.0</ele><time>2026-03-23T08:51:01.143Z</time></trkpt><trkpt lat="44.162607" lon="10.336912"><ele>410.0</ele><time>2026-03-23T08:51:04.146Z</time></trkpt><trkpt lat="44.1625567" lon="10.336984"><ele>410.0</ele><time>2026-03-23T08:51:07.143Z</time></trkpt><trkpt lat="44.1625156" lon="10.3370724"><ele>410.0</ele><time>2026-03-23T08:51:10.145Z</time></trkpt><trkpt lat="44.1624758" lon="10.3371583"><ele>410.0</ele><time>2026-03-23T08:51:13.141Z</time></trkpt><trkpt lat="44.1624389" lon="10.3372501"><ele>410.0</ele><time>2026-03-23T08:51:16.136Z</time></trkpt><trkpt lat="44.1623997" lon="10.3373322"><ele>411.0</ele><time>2026-03-23T08:51:19.14Z</time></trkpt><trkpt lat="44.1623464" lon="10.3374202"><ele>412.0</ele><time>2026-03-23T08:51:23.136Z</time></trkpt><trkpt lat="44.1622907" lon="10.3375009"><ele>413.0</ele><time>2026-03-23T08:51:27.144Z</time></trkpt><trkpt lat="44.1622251" lon="10.3375692"><ele>414.0</ele><time>2026-03-23T08:51:31.14Z</time></trkpt><trkpt lat="44.1621698" lon="10.3376201"><ele>415.0</ele><time>2026-03-23T08:51:34.155Z</time></trkpt><trkpt lat="44.1621148" lon="10.3376706"><ele>416.0</ele><time>2026-03-23T08:51:37.129Z</time></trkpt><trkpt lat="44.1620594" lon="10.3377127"><ele>417.0</ele><time>2026-03-23T08:51:40.139Z</time></trkpt><trkpt lat="44.1620007" lon="10.3377557"><ele>417.0</ele><time>2026-03-23T08:51:43.147Z</time></trkpt><trkpt lat="44.1619427" lon="10.337798"><ele>417.0</ele><time>2026-03-23T08:51:46.134Z</time></trkpt><trkpt lat="44.1618841" lon="10.3378323"><ele>417.0</ele><time>2026-03-23T08:51:49.132Z</time></trkpt><trkpt lat="44.1618188" lon="10.3378606"><ele>417.0</ele><time>2026-03-23T08:51:52.14Z</time></trkpt><trkpt lat="44.1617506" lon="10.3378717"><ele>417.0</ele><time>2026-03-23T08:51:55.134Z</time></trkpt><trkpt lat="44.1616827" lon="10.3378639"><ele>417.0</ele><time>2026-03-23T08:51:58.136Z</time></trkpt><trkpt lat="44.161615" lon="10.337848"><ele>417.0</ele><time>2026-03-23T08:52:01.139Z</time></trkpt><trkpt lat="44.1615489" lon="10.3378168"><ele>417.2857142857143</ele><time>2026-03-23T08:52:04.14Z</time></trkpt><trkpt lat="44.1614846" lon="10.3377895"><ele>417.57142857142856</ele><time>2026-03-23T08:52:07.131Z</time></trkpt><trkpt lat="44.1614204" lon="10.3377677"><ele>417.85714285714283</ele><time>2026-03-23T08:52:10.132Z</time></trkpt><trkpt lat="44.1613573" lon="10.3377361"><ele>418.1428571428571</ele><time>2026-03-23T08:52:13.146Z</time></trkpt><trkpt lat="44.1612931" lon="10.3377114"><ele>418.42857142857144</ele><time>2026-03-23T08:52:16.149Z</time></trkpt><trkpt lat="44.1612281" lon="10.3376755"><ele>418.71428571428567</ele><time>2026-03-23T08:52:19.143Z</time></trkpt><trkpt lat="44.1611672" lon="10.3376192"><ele>419.0</ele><time>2026-03-23T08:52:22.147Z</time></trkpt><trkpt lat="44.1611072" lon="10.3375756"><ele>418.99999999999994</ele><time>2026-03-23T08:52:25.133Z</time></trkpt><trkpt lat="44.1610499" lon="10.3375309"><ele>419.0</ele><time>2026-03-23T08:52:28.133Z</time></trkpt><trkpt lat="44.1609916" lon="10.3374854"><ele>419.0</ele><time>2026-03-23T08:52:31.149Z</time></trkpt><trkpt lat="44.1609224" lon="10.3374411"><ele>419.0</ele><time>2026-03-23T08:52:34.131Z</time></trkpt><trkpt lat="44.1608496" lon="10.3373834"><ele>419.0</ele><time>2026-03-23T08:52:38.14Z</time></trkpt><trkpt lat="44.1607887" lon="10.3373413"><ele>418.99999999999994</ele><time>2026-03-23T08:52:41.147Z</time></trkpt><trkpt lat="44.1607217" lon="10.337306"><ele>419.0</ele><time>2026-03-23T08:52:44.146Z</time></trkpt><trkpt lat="44.1606595" lon="10.3372664"><ele>420.2857142857143</ele><time>2026-03-23T08:52:47.142Z</time></trkpt><trkpt lat="44.1605961" lon="10.3372249"><ele>421.57142857142856</ele><time>2026-03-23T08:52:50.145Z</time></trkpt><trkpt lat="44.1605352" lon="10.3371884"><ele>422.8571428571429</ele><time>2026-03-23T08:52:53.149Z</time></trkpt><trkpt lat="44.1604717" lon="10.3371485"><ele>424.1428571428571</ele><time>2026-03-23T08:52:56.145Z</time></trkpt><trkpt lat="44.1604024" lon="10.3371307"><ele>425.42857142857144</ele><time>2026-03-23T08:52:59.145Z</time></trkpt><trkpt lat="44.1603261" lon="10.3371156"><ele>426.7142857142857</ele><time>2026-03-23T08:53:02.139Z</time></trkpt><trkpt lat="44.1602512" lon="10.3371145"><ele>428.0</ele><time>2026-03-23T08:53:05.141Z</time></trkpt><trkpt lat="44.1601756" lon="10.3371503"><ele>427.99999999999994</ele><time>2026-03-23T08:53:08.145Z</time></trkpt><trkpt lat="44.1601028" lon="10.3371965"><ele>428.0</ele><time>2026-03-23T08:53:11.149Z</time></trkpt><trkpt lat="44.1600363" lon="10.3372563"><ele>428.0</ele><time>2026-03-23T08:53:14.142Z</time></trkpt><trkpt lat="44.1599687" lon="10.3373116"><ele>428.0</ele><time>2026-03-23T08:53:17.146Z</time></trkpt><trkpt lat="44.1598953" lon="10.3373585"><ele>427.99999999999994</ele><time>2026-03-23T08:53:20.146Z</time></trkpt><trkpt lat="44.1598273" lon="10.3374138"><ele>428.0</ele><time>2026-03-23T08:53:23.147Z</time></trkpt><trkpt lat="44.1597697" lon="10.3374731"><ele>430.28571428571433</ele><time>2026-03-23T08:53:26.15Z</time></trkpt><trkpt lat="44.1597136" lon="10.3375167"><ele>432.57142857142856</ele><time>2026-03-23T08:53:29.147Z</time></trkpt><trkpt lat="44.1596585" lon="10.3375738"><ele>434.8571428571429</ele><time>2026-03-23T08:53:32.141Z</time></trkpt><trkpt lat="44.1596091" lon="10.3376302"><ele>437.14285714285717</ele><time>2026-03-23T08:53:35.148Z</time></trkpt><trkpt lat="44.1595557" lon="10.3376867"><ele>439.42857142857144</ele><time>2026-03-23T08:53:38.136Z</time></trkpt><trkpt lat="44.1594943" lon="10.3377175"><ele>441.7142857142857</ele><time>2026-03-23T08:53:41.143Z</time></trkpt><trkpt lat="44.1594294" lon="10.337712"><ele>444.0</ele><time>2026-03-23T08:53:44.144Z</time></trkpt><trkpt lat="44.1593794" lon="10.3376581"><ele>444.0</ele><time>2026-03-23T08:53:47.139Z</time></trkpt><trkpt lat="44.1593637" lon="10.3375722"><ele>444.0</ele><time>2026-03-23T08:53:50.136Z</time></trkpt><trkpt lat="44.159391" lon="10.3374856"><ele>444.0</ele><time>2026-03-23T08:53:53.145Z</time></trkpt><trkpt lat="44.1594222" lon="10.3374082"><ele>444.0</ele><time>2026-03-23T08:53:56.138Z</time></trkpt><trkpt lat="44.1594566" lon="10.337331"><ele>444.0</ele><time>2026-03-23T08:53:59.142Z</time></trkpt><trkpt lat="44.1595042" lon="10.3372362"><ele>444.0</ele><time>2026-03-23T08:54:03.142Z</time></trkpt><trkpt lat="44.1595424" lon="10.3371638"><ele>444.0</ele><time>2026-03-23T08:54:06.147Z</time></trkpt><trkpt lat="44.1595847" lon="10.3370978"><ele>444.0</ele><time>2026-03-23T08:54:09.144Z</time></trkpt><trkpt lat="44.159632" lon="10.3370343"><ele>444.0</ele><time>2026-03-23T08:54:12.146Z</time></trkpt><trkpt lat="44.1596906" lon="10.3369728"><ele>444.0</ele><time>2026-03-23T08:54:16.148Z</time></trkpt><trkpt lat="44.1597378" lon="10.3369122"><ele>444.0</ele><time>2026-03-23T08:54:19.148Z</time></trkpt><trkpt lat="44.1597914" lon="10.3368432"><ele>444.0</ele><time>2026-03-23T08:54:22.156Z</time></trkpt><trkpt lat="44.1598454" lon="10.3367808"><ele>444.0</ele><time>2026-03-23T08:54:25.152Z</time></trkpt><trkpt lat="44.1598915" lon="10.3367139"><ele>444.0</ele><time>2026-03-23T08:54:28.143Z</time></trkpt><trkpt lat="44.1599469" lon="10.3366288"><ele>444.0</ele><time>2026-03-23T08:54:32.153Z</time></trkpt><trkpt lat="44.1599795" lon="10.3365507"><ele>444.0</ele><time>2026-03-23T08:54:35.15Z</time></trkpt><trkpt lat="44.1600066" lon="10.3364713"><ele>444.0</ele><time>2026-03-23T08:54:38.145Z</time></trkpt><trkpt lat="44.1600346" lon="10.3363854"><ele>444.0</ele><time>2026-03-23T08:54:41.139Z</time></trkpt><trkpt lat="44.1600648" lon="10.3362978"><ele>444.0</ele><time>2026-03-23T08:54:44.14Z</time></trkpt><trkpt lat="44.1600888" lon="10.3362161"><ele>444.0</ele><time>2026-03-23T08:54:47.147Z</time></trkpt><trkpt lat="44.1600996" lon="10.3361231"><ele>444.0</ele><time>2026-03-23T08:54:50.156Z</time></trkpt><trkpt lat="44.1600936" lon="10.3360228"><ele>445.42857142857144</ele><time>2026-03-23T08:54:53.147Z</time></trkpt><trkpt lat="44.160087" lon="10.3359308"><ele>446.8571428571429</ele><time>2026-03-23T08:54:56.143Z</time></trkpt><trkpt lat="44.1600667" lon="10.3358217"><ele>448.28571428571433</ele><time>2026-03-23T08:55:00.143Z</time></trkpt><trkpt lat="44.1600485" lon="10.3357302"><ele>449.7142857142857</ele><time>2026-03-23T08:55:03.132Z</time></trkpt><trkpt lat="44.1600256" lon="10.3356431"><ele>451.1428571428572</ele><time>2026-03-23T08:55:06.153Z</time></trkpt><trkpt lat="44.1600016" lon="10.3355582"><ele>452.5714285714286</ele><time>2026-03-23T08:55:09.148Z</time></trkpt><trkpt lat="44.1599731" lon="10.3354792"><ele>454.0</ele><time>2026-03-23T08:55:13.143Z</time></trkpt><trkpt lat="44.1598978" lon="10.33548"><ele>454.0</ele><time>2026-03-23T08:55:17.153Z</time></trkpt><trkpt lat="44.1598611" lon="10.3355535"><ele>454.00000000000006</ele><time>2026-03-23T08:55:20.145Z</time></trkpt><trkpt lat="44.1598708" lon="10.3356472"><ele>454.0</ele><time>2026-03-23T08:55:23.15Z</time></trkpt><trkpt lat="44.1598815" lon="10.3357399"><ele>454.0</ele><time>2026-03-23T08:55:26.147Z</time></trkpt><trkpt lat="44.1598919" lon="10.3358295"><ele>454.00000000000006</ele><time>2026-03-23T08:55:29.145Z</time></trkpt><trkpt lat="44.159889" lon="10.3359319"><ele>454.0</ele><time>2026-03-23T08:55:33.146Z</time></trkpt><trkpt lat="44.1598653" lon="10.3360194"><ele>454.0</ele><time>2026-03-23T08:55:36.15Z</time></trkpt><trkpt lat="44.159829" lon="10.3361024"><ele>456.8571428571429</ele><time>2026-03-23T08:55:39.145Z</time></trkpt><trkpt lat="44.1597764" lon="10.3361701"><ele>459.7142857142858</ele><time>2026-03-23T08:55:42.146Z</time></trkpt><trkpt lat="44.1597159" lon="10.3362056"><ele>462.57142857142856</ele><time>2026-03-23T08:55:45.159Z</time></trkpt><trkpt lat="44.1596787" lon="10.3361165"><ele>465.42857142857144</ele><time>2026-03-23T08:55:49.137Z</time></trkpt><trkpt lat="44.1597073" lon="10.3360119"><ele>468.2857142857143</ele><time>2026-03-23T08:55:52.139Z</time></trkpt><trkpt lat="44.1597532" lon="10.3359282"><ele>471.1428571428571</ele><time>2026-03-23T08:55:55.144Z</time></trkpt><trkpt lat="44.1597948" lon="10.3358458"><ele>473.99999999999994</ele><time>2026-03-23T08:55:58.15Z</time></trkpt><trkpt lat="44.1598176" lon="10.3357603"><ele>473.99999999999994</ele><time>2026-03-23T08:56:01.134Z</time></trkpt><trkpt lat="44.1598213" lon="10.3356612"><ele>474.0</ele><time>2026-03-23T08:56:04.14Z</time></trkpt><trkpt lat="44.159802" lon="10.3355694"><ele>473.99999999999994</ele><time>2026-03-23T08:56:07.137Z</time></trkpt><trkpt lat="44.1597674" lon="10.3354886"><ele>473.99999999999994</ele><time>2026-03-23T08:56:10.137Z</time></trkpt><trkpt lat="44.1597217" lon="10.3354159"><ele>474.0</ele><time>2026-03-23T08:56:13.139Z</time></trkpt><trkpt lat="44.1596706" lon="10.3353454"><ele>473.99999999999994</ele><time>2026-03-23T08:56:16.134Z</time></trkpt><trkpt lat="44.1596175" lon="10.3352746"><ele>473.99999999999994</ele><time>2026-03-23T08:56:19.146Z</time></trkpt><trkpt lat="44.1595737" lon="10.3351986"><ele>474.2857142857142</ele><time>2026-03-23T08:56:22.152Z</time></trkpt><trkpt lat="44.1595256" lon="10.3351225"><ele>474.57142857142856</ele><time>2026-03-23T08:56:25.151Z</time></trkpt><trkpt lat="44.1594778" lon="10.3350538"><ele>474.85714285714283</ele><time>2026-03-23T08:56:28.144Z</time></trkpt><trkpt lat="44.1594328" lon="10.334975"><ele>475.1428571428571</ele><time>2026-03-23T08:56:31.148Z</time></trkpt><trkpt lat="44.159399" lon="10.3348856"><ele>475.42857142857144</ele><time>2026-03-23T08:56:34.147Z</time></trkpt><trkpt lat="44.1593767" lon="10.3347953"><ele>475.7142857142857</ele><time>2026-03-23T08:56:37.147Z</time></trkpt><trkpt lat="44.1593634" lon="10.334694"><ele>476.0</ele><time>2026-03-23T08:56:40.143Z</time></trkpt><trkpt lat="44.1593671" lon="10.3345965"><ele>476.1428571428571</ele><time>2026-03-23T08:56:43.14Z</time></trkpt><trkpt lat="44.1593759" lon="10.3344968"><ele>476.2857142857143</ele><time>2026-03-23T08:56:46.147Z</time></trkpt><trkpt lat="44.1593831" lon="10.3343968"><ele>476.42857142857144</ele><time>2026-03-23T08:56:49.147Z</time></trkpt><trkpt lat="44.159388" lon="10.3342971"><ele>476.57142857142856</ele><time>2026-03-23T08:56:52.138Z</time></trkpt><trkpt lat="44.1593961" lon="10.3342075"><ele>476.71428571428567</ele><time>2026-03-23T08:56:55.145Z</time></trkpt><trkpt lat="44.1594054" lon="10.3341076"><ele>476.85714285714283</ele><time>2026-03-23T08:56:58.151Z</time></trkpt><trkpt lat="44.1594159" lon="10.3340076"><ele>477.0</ele><time>2026-03-23T08:57:01.137Z</time></trkpt><trkpt lat="44.1594317" lon="10.3339084"><ele>477.4285714285714</ele><time>2026-03-23T08:57:04.137Z</time></trkpt><trkpt lat="44.1594393" lon="10.3338162"><ele>477.8571428571428</ele><time>2026-03-23T08:57:07.147Z</time></trkpt><trkpt lat="44.1594337" lon="10.3337217"><ele>478.2857142857143</ele><time>2026-03-23T08:57:10.15Z</time></trkpt><trkpt lat="44.1594127" lon="10.3336292"><ele>478.71428571428567</ele><time>2026-03-23T08:57:13.148Z</time></trkpt><trkpt lat="44.1593777" lon="10.3335403"><ele>479.1428571428571</ele><time>2026-03-23T08:57:17.153Z</time></trkpt><trkpt lat="44.1593358" lon="10.3334649"><ele>479.57142857142856</ele><time>2026-03-23T08:57:22.141Z</time></trkpt><trkpt lat="44.1592808" lon="10.3333944"><ele>480.0</ele><time>2026-03-23T08:57:26.145Z</time></trkpt><trkpt lat="44.1592253" lon="10.3333316"><ele>480.0</ele><time>2026-03-23T08:57:30.152Z</time></trkpt><trkpt lat="44.1591462" lon="10.3333114"><ele>480.0</ele><time>2026-03-23T08:57:34.147Z</time></trkpt><trkpt lat="44.159087" lon="10.3332752"><ele>480.0</ele><time>2026-03-23T08:57:37.134Z</time></trkpt><trkpt lat="44.1590355" lon="10.3332199"><ele>480.0</ele><time>2026-03-23T08:57:40.15Z</time></trkpt><trkpt lat="44.1589906" lon="10.3331467"><ele>480.0</ele><time>2026-03-23T08:57:43.152Z</time></trkpt><trkpt lat="44.15896" lon="10.3330675"><ele>480.0</ele><time>2026-03-23T08:57:46.137Z</time></trkpt><trkpt lat="44.1589408" lon="10.332979"><ele>480.0</ele><time>2026-03-23T08:57:49.147Z</time></trkpt><trkpt lat="44.1589254" lon="10.3328838"><ele>481.8571428571429</ele><time>2026-03-23T08:57:52.147Z</time></trkpt><trkpt lat="44.1589079" lon="10.3327934"><ele>483.71428571428567</ele><time>2026-03-23T08:57:55.156Z</time></trkpt><trkpt lat="44.1588912" lon="10.3326974"><ele>485.57142857142856</ele><time>2026-03-23T08:57:58.152Z</time></trkpt><trkpt lat="44.1588786" lon="10.332601"><ele>487.42857142857144</ele><time>2026-03-23T08:58:01.141Z</time></trkpt><trkpt lat="44.1588697" lon="10.3325074"><ele>489.28571428571433</ele><time>2026-03-23T08:58:04.148Z</time></trkpt><trkpt lat="44.1588671" lon="10.3324167"><ele>491.1428571428571</ele><time>2026-03-23T08:58:07.142Z</time></trkpt><trkpt lat="44.1588679" lon="10.3323178"><ele>493.0</ele><time>2026-03-23T08:58:10.143Z</time></trkpt><trkpt lat="44.1588668" lon="10.3322014"><ele>494.1428571428571</ele><time>2026-03-23T08:58:14.134Z</time></trkpt><trkpt lat="44.1588666" lon="10.3321098"><ele>495.28571428571433</ele><time>2026-03-23T08:58:17.143Z</time></trkpt><trkpt lat="44.1588735" lon="10.3320153"><ele>496.42857142857144</ele><time>2026-03-23T08:58:20.146Z</time></trkpt><trkpt lat="44.1588806" lon="10.3319197"><ele>497.57142857142856</ele><time>2026-03-23T08:58:23.153Z</time></trkpt><trkpt lat="44.1588907" lon="10.3318276"><ele>498.71428571428567</ele><time>2026-03-23T08:58:26.153Z</time></trkpt><trkpt lat="44.1589163" lon="10.3317151"><ele>499.8571428571429</ele><time>2026-03-23T08:58:30.143Z</time></trkpt><trkpt lat="44.1589315" lon="10.3316211"><ele>501.0</ele><time>2026-03-23T08:58:33.14Z</time></trkpt><trkpt lat="44.1589541" lon="10.3315368"><ele>501.0</ele><time>2026-03-23T08:58:36.14Z</time></trkpt><trkpt lat="44.1589678" lon="10.3314467"><ele>501.0</ele><time>2026-03-23T08:58:39.144Z</time></trkpt><trkpt lat="44.1589819" lon="10.3313504"><ele>501.0</ele><time>2026-03-23T08:58:42.146Z</time></trkpt><trkpt lat="44.1589902" lon="10.3312518"><ele>501.0</ele><time>2026-03-23T08:58:45.135Z</time></trkpt><trkpt lat="44.1589981" lon="10.3311639"><ele>501.0</ele><time>2026-03-23T08:58:48.136Z</time></trkpt><trkpt lat="44.1590229" lon="10.3310629"><ele>501.0</ele><time>2026-03-23T08:58:52.149Z</time></trkpt><trkpt lat="44.1590487" lon="10.3309819"><ele>501.0</ele><time>2026-03-23T08:58:55.148Z</time></trkpt><trkpt lat="44.1590689" lon="10.3308948"><ele>500.42857142857144</ele><time>2026-03-23T08:58:58.143Z</time></trkpt><trkpt lat="44.1590978" lon="10.3307853"><ele>499.85714285714283</ele><time>2026-03-23T08:59:02.147Z</time></trkpt><trkpt lat="44.1591311" lon="10.3307104"><ele>499.2857142857143</ele><time>2026-03-23T08:59:05.153Z</time></trkpt><trkpt lat="44.1591643" lon="10.3306335"><ele>498.7142857142857</ele><time>2026-03-23T08:59:08.151Z</time></trkpt><trkpt lat="44.159198" lon="10.3305549"><ele>498.1428571428571</ele><time>2026-03-23T08:59:11.149Z</time></trkpt><trkpt lat="44.1592248" lon="10.3304732"><ele>497.57142857142856</ele><time>2026-03-23T08:59:14.144Z</time></trkpt><trkpt lat="44.1592599" lon="10.3303958"><ele>497.0</ele><time>2026-03-23T08:59:17.143Z</time></trkpt><trkpt lat="44.1592807" lon="10.3303095"><ele>498.1428571428571</ele><time>2026-03-23T08:59:20.146Z</time></trkpt><trkpt lat="44.1592756" lon="10.3302218"><ele>499.2857142857143</ele><time>2026-03-23T08:59:23.143Z</time></trkpt><trkpt lat="44.1592528" lon="10.3301358"><ele>500.42857142857144</ele><time>2026-03-23T08:59:26.143Z</time></trkpt><trkpt lat="44.1592179" lon="10.330061"><ele>501.57142857142856</ele><time>2026-03-23T08:59:29.147Z</time></trkpt><trkpt lat="44.1591586" lon="10.3299854"><ele>502.71428571428567</ele><time>2026-03-23T08:59:33.144Z</time></trkpt><trkpt lat="44.1590834" lon="10.3299412"><ele>503.85714285714283</ele><time>2026-03-23T08:59:37.143Z</time></trkpt><trkpt lat="44.1590017" lon="10.3299337"><ele>505.0</ele><time>2026-03-23T08:59:41.145Z</time></trkpt><trkpt lat="44.1589383" lon="10.329938"><ele>506.1428571428571</ele><time>2026-03-23T08:59:44.144Z</time></trkpt><trkpt lat="44.1588737" lon="10.3299418"><ele>507.2857142857142</ele><time>2026-03-23T08:59:47.146Z</time></trkpt><trkpt lat="44.1588076" lon="10.3299481"><ele>508.42857142857144</ele><time>2026-03-23T08:59:50.142Z</time></trkpt><trkpt lat="44.1587431" lon="10.3299575"><ele>509.57142857142856</ele><time>2026-03-23T08:59:53.161Z</time></trkpt><trkpt lat="44.1586796" lon="10.3299687"><ele>510.7142857142857</ele><time>2026-03-23T08:59:56.142Z</time></trkpt><trkpt lat="44.158599" lon="10.3299939"><ele>511.8571428571429</ele><time>2026-03-23T09:00:00.145Z</time></trkpt><trkpt lat="44.1585375" lon="10.330016"><ele>513.0</ele><time>2026-03-23T09:00:03.151Z</time></trkpt><trkpt lat="44.158475" lon="10.3300552"><ele>513.0000000000001</ele><time>2026-03-23T09:00:06.146Z</time></trkpt><trkpt lat="44.1584157" lon="10.330105"><ele>513.0</ele><time>2026-03-23T09:00:09.137Z</time></trkpt><trkpt lat="44.1583602" lon="10.3301582"><ele>513.0</ele><time>2026-03-23T09:00:12.147Z</time></trkpt><trkpt lat="44.1583072" lon="10.330219"><ele>513.0</ele><time>2026-03-23T09:00:15.148Z</time></trkpt><trkpt lat="44.1582516" lon="10.3302713"><ele>513.0</ele><time>2026-03-23T09:00:18.143Z</time></trkpt><trkpt lat="44.158198" lon="10.3303241"><ele>513.0000000000001</ele><time>2026-03-23T09:00:21.139Z</time></trkpt><trkpt lat="44.1581316" lon="10.330394"><ele>513.0</ele><time>2026-03-23T09:00:25.144Z</time></trkpt><trkpt lat="44.1580639" lon="10.3304561"><ele>513.2857142857143</ele><time>2026-03-23T09:00:29.154Z</time></trkpt><trkpt lat="44.1580137" lon="10.3305111"><ele>513.5714285714286</ele><time>2026-03-23T09:00:32.159Z</time></trkpt><trkpt lat="44.1579592" lon="10.3305669"><ele>513.8571428571429</ele><time>2026-03-23T09:00:35.135Z</time></trkpt><trkpt lat="44.1579056" lon="10.330617"><ele>514.1428571428571</ele><time>2026-03-23T09:00:38.145Z</time></trkpt><trkpt lat="44.1578541" lon="10.3306696"><ele>514.4285714285714</ele><time>2026-03-23T09:00:41.145Z</time></trkpt><trkpt lat="44.1577974" lon="10.3307263"><ele>514.7142857142858</ele><time>2026-03-23T09:00:44.15Z</time></trkpt><trkpt lat="44.157743" lon="10.3307809"><ele>515.0</ele><time>2026-03-23T09:00:47.142Z</time></trkpt><trkpt lat="44.1576888" lon="10.3308381"><ele>515.0</ele><time>2026-03-23T09:00:50.138Z</time></trkpt><trkpt lat="44.1576291" lon="10.3308907"><ele>515.0</ele><time>2026-03-23T09:00:53.142Z</time></trkpt><trkpt lat="44.1575745" lon="10.3309479"><ele>515.0</ele><time>2026-03-23T09:00:56.152Z</time></trkpt><trkpt lat="44.1575179" lon="10.3310027"><ele>515.0</ele><time>2026-03-23T09:00:59.152Z</time></trkpt><trkpt lat="44.1574588" lon="10.3310531"><ele>515.0</ele><time>2026-03-23T09:01:02.151Z</time></trkpt><trkpt lat="44.1573961" lon="10.3311016"><ele>515.0</ele><time>2026-03-23T09:01:05.144Z</time></trkpt><trkpt lat="44.1573289" lon="10.3311326"><ele>515.0</ele><time>2026-03-23T09:01:08.155Z</time></trkpt><trkpt lat="44.1572591" lon="10.3311428"><ele>516.4285714285714</ele><time>2026-03-23T09:01:11.147Z</time></trkpt><trkpt lat="44.1571899" lon="10.3311213"><ele>517.8571428571429</ele><time>2026-03-23T09:01:14.15Z</time></trkpt><trkpt lat="44.1571288" lon="10.3310791"><ele>519.2857142857142</ele><time>2026-03-23T09:01:17.152Z</time></trkpt><trkpt lat="44.1570797" lon="10.3310191"><ele>520.7142857142858</ele><time>2026-03-23T09:01:20.151Z</time></trkpt><trkpt lat="44.1570416" lon="10.3309461"><ele>522.1428571428571</ele><time>2026-03-23T09:01:23.146Z</time></trkpt><trkpt lat="44.1570299" lon="10.3308595"><ele>523.5714285714286</ele><time>2026-03-23T09:01:26.142Z</time></trkpt><trkpt lat="44.1570348" lon="10.3307631"><ele>525.0</ele><time>2026-03-23T09:01:29.146Z</time></trkpt><trkpt lat="44.1570438" lon="10.3306654"><ele>525.0</ele><time>2026-03-23T09:01:32.144Z</time></trkpt><trkpt lat="44.1570331" lon="10.3305784"><ele>525.0</ele><time>2026-03-23T09:01:35.167Z</time></trkpt><trkpt lat="44.1569698" lon="10.3305482"><ele>525.0</ele><time>2026-03-23T09:01:38.153Z</time></trkpt><trkpt lat="44.1569088" lon="10.3305983"><ele>525.0</ele><time>2026-03-23T09:01:41.144Z</time></trkpt><trkpt lat="44.1568376" lon="10.3306486"><ele>525.0</ele><time>2026-03-23T09:01:45.141Z</time></trkpt><trkpt lat="44.1567798" lon="10.3306872"><ele>525.0</ele><time>2026-03-23T09:01:48.137Z</time></trkpt><trkpt lat="44.1567229" lon="10.330739"><ele>525.0</ele><time>2026-03-23T09:01:51.133Z</time></trkpt><trkpt lat="44.1566665" lon="10.3307785"><ele>525.0</ele><time>2026-03-23T09:01:54.147Z</time></trkpt><trkpt lat="44.1566321" lon="10.3308736"><ele>525.0</ele><time>2026-03-23T09:01:58.138Z</time></trkpt><trkpt lat="44.1565925" lon="10.330956"><ele>525.0</ele><time>2026-03-23T09:02:01.139Z</time></trkpt><trkpt lat="44.1565522" lon="10.3310324"><ele>525.0</ele><time>2026-03-23T09:02:04.138Z</time></trkpt><trkpt lat="44.1565117" lon="10.3311116"><ele>525.0</ele><time>2026-03-23T09:02:07.15Z</time></trkpt><trkpt lat="44.1564748" lon="10.3311973"><ele>525.0</ele><time>2026-03-23T09:02:10.139Z</time></trkpt><trkpt lat="44.156426" lon="10.3312686"><ele>525.0</ele><time>2026-03-23T09:02:13.145Z</time></trkpt><trkpt lat="44.1563795" lon="10.3313391"><ele>526.0</ele><time>2026-03-23T09:02:16.143Z</time></trkpt><trkpt lat="44.1563353" lon="10.3314149"><ele>527.0</ele><time>2026-03-23T09:02:19.149Z</time></trkpt><trkpt lat="44.1562945" lon="10.3315013"><ele>528.0</ele><time>2026-03-23T09:02:22.141Z</time></trkpt><trkpt lat="44.1562456" lon="10.3315777"><ele>529.0</ele><time>2026-03-23T09:02:25.137Z</time></trkpt><trkpt lat="44.1561946" lon="10.3316498"><ele>530.0</ele><time>2026-03-23T09:02:28.146Z</time></trkpt><trkpt lat="44.1561486" lon="10.331726"><ele>531.0</ele><time>2026-03-23T09:02:31.132Z</time></trkpt><trkpt lat="44.1561039" lon="10.3318097"><ele>532.0</ele><time>2026-03-23T09:02:34.141Z</time></trkpt><trkpt lat="44.1560471" lon="10.3318931"><ele>532.0</ele><time>2026-03-23T09:02:37.144Z</time></trkpt><trkpt lat="44.1560124" lon="10.3319683"><ele>532.0</ele><time>2026-03-23T09:02:39.144Z</time></trkpt><trkpt lat="44.1559694" lon="10.3320396"><ele>532.0</ele><time>2026-03-23T09:02:41.142Z</time></trkpt><trkpt lat="44.1559194" lon="10.3321069"><ele>532.0</ele><time>2026-03-23T09:02:43.151Z</time></trkpt><trkpt lat="44.1558519" lon="10.3321798"><ele>532.0</ele><time>2026-03-23T09:02:45.16Z</time></trkpt><trkpt lat="44.1557571" lon="10.3322634"><ele>532.0</ele><time>2026-03-23T09:02:47.153Z</time></trkpt><trkpt lat="44.1557011" lon="10.3323172"><ele>530.5</ele><time>2026-03-23T09:02:48.145Z</time></trkpt><trkpt lat="44.1556391" lon="10.3323814"><ele>529.0</ele><time>2026-03-23T09:02:49.149Z</time></trkpt><trkpt lat="44.1555696" lon="10.3324414"><ele>527.5</ele><time>2026-03-23T09:02:50.135Z</time></trkpt><trkpt lat="44.1555023" lon="10.3324914"><ele>526.0</ele><time>2026-03-23T09:02:51.146Z</time></trkpt><trkpt lat="44.1554267" lon="10.3325245"><ele>524.5</ele><time>2026-03-23T09:02:52.154Z</time></trkpt><trkpt lat="44.1553498" lon="10.3325296"><ele>523.0</ele><time>2026-03-23T09:02:53.138Z</time></trkpt><trkpt lat="44.1552798" lon="10.3325259"><ele>523.0</ele><time>2026-03-23T09:02:54.143Z</time></trkpt><trkpt lat="44.1552144" lon="10.3325039"><ele>523.0</ele><time>2026-03-23T09:02:55.154Z</time></trkpt><trkpt lat="44.1550961" lon="10.3324728"><ele>523.0</ele><time>2026-03-23T09:02:57.138Z</time></trkpt><trkpt lat="44.1550031" lon="10.3324495"><ele>523.0</ele><time>2026-03-23T09:02:59.15Z</time></trkpt><trkpt lat="44.1549295" lon="10.3324346"><ele>523.0</ele><time>2026-03-23T09:03:01.139Z</time></trkpt><trkpt lat="44.1548584" lon="10.3324186"><ele>523.0</ele><time>2026-03-23T09:03:04.166Z</time></trkpt><trkpt lat="44.1547966" lon="10.3323899"><ele>524.9999999999999</ele><time>2026-03-23T09:03:07.144Z</time></trkpt><trkpt lat="44.1547166" lon="10.3323528"><ele>527.0</ele><time>2026-03-23T09:03:11.154Z</time></trkpt><trkpt lat="44.1546465" lon="10.332336"><ele>529.0</ele><time>2026-03-23T09:03:14.15Z</time></trkpt><trkpt lat="44.1545802" lon="10.332318"><ele>531.0</ele><time>2026-03-23T09:03:17.157Z</time></trkpt><trkpt lat="44.1545114" lon="10.3323025"><ele>533.0</ele><time>2026-03-23T09:03:20.151Z</time></trkpt><trkpt lat="44.1544464" lon="10.3322817"><ele>534.9999999999999</ele><time>2026-03-23T09:03:23.144Z</time></trkpt><trkpt lat="44.1543813" lon="10.3322814"><ele>537.0</ele><time>2026-03-23T09:03:26.145Z</time></trkpt><trkpt lat="44.1543181" lon="10.3323463"><ele>536.9999999999999</ele><time>2026-03-23T09:03:30.144Z</time></trkpt><trkpt lat="44.1542927" lon="10.3324305"><ele>537.0</ele><time>2026-03-23T09:03:33.137Z</time></trkpt><trkpt lat="44.1542909" lon="10.3325308"><ele>537.0</ele><time>2026-03-23T09:03:36.153Z</time></trkpt><trkpt lat="44.1543054" lon="10.3326498"><ele>537.0</ele><time>2026-03-23T09:03:40.139Z</time></trkpt><trkpt lat="44.1543083" lon="10.33275"><ele>537.0</ele><time>2026-03-23T09:03:43.15Z</time></trkpt><trkpt lat="44.1542893" lon="10.3328395"><ele>536.9999999999999</ele><time>2026-03-23T09:03:46.136Z</time></trkpt><trkpt lat="44.154247" lon="10.332909"><ele>537.0</ele><time>2026-03-23T09:03:49.168Z</time></trkpt><trkpt lat="44.1541888" lon="10.3329672"><ele>536.9999999999999</ele><time>2026-03-23T09:03:52.138Z</time></trkpt><trkpt lat="44.1541319" lon="10.3330095"><ele>537.0</ele><time>2026-03-23T09:03:55.142Z</time></trkpt><trkpt lat="44.1540776" lon="10.3330665"><ele>537.0</ele><time>2026-03-23T09:03:58.144Z</time></trkpt><trkpt lat="44.1540277" lon="10.3331271"><ele>537.0</ele><time>2026-03-23T09:04:01.14Z</time></trkpt><trkpt lat="44.1539731" lon="10.333187"><ele>537.0</ele><time>2026-03-23T09:04:04.154Z</time></trkpt><trkpt lat="44.1539167" lon="10.3332463"><ele>536.9999999999999</ele><time>2026-03-23T09:04:07.156Z</time></trkpt><trkpt lat="44.1538596" lon="10.3333068"><ele>537.0</ele><time>2026-03-23T09:04:10.144Z</time></trkpt><trkpt lat="44.1538031" lon="10.3333667"><ele>538.1428571428571</ele><time>2026-03-23T09:04:13.148Z</time></trkpt><trkpt lat="44.1537498" lon="10.3334252"><ele>539.2857142857142</ele><time>2026-03-23T09:04:16.142Z</time></trkpt><trkpt lat="44.1536931" lon="10.3334824"><ele>540.4285714285714</ele><time>2026-03-23T09:04:19.147Z</time></trkpt><trkpt lat="44.1536357" lon="10.333546"><ele>541.5714285714286</ele><time>2026-03-23T09:04:22.136Z</time></trkpt><trkpt lat="44.1535822" lon="10.3336054"><ele>542.7142857142858</ele><time>2026-03-23T09:04:25.083Z</time></trkpt><trkpt lat="44.1535261" lon="10.3336644"><ele>543.8571428571429</ele><time>2026-03-23T09:04:28.156Z</time></trkpt><trkpt lat="44.1534739" lon="10.3337235"><ele>545.0</ele><time>2026-03-23T09:04:31.152Z</time></trkpt><trkpt lat="44.153415" lon="10.3337928"><ele>545.0</ele><time>2026-03-23T09:04:35.143Z</time></trkpt><trkpt lat="44.153364" lon="10.3338547"><ele>545.0</ele><time>2026-03-23T09:04:39.14Z</time></trkpt><trkpt lat="44.1533242" lon="10.3339402"><ele>545.0</ele><time>2026-03-23T09:04:43.145Z</time></trkpt><trkpt lat="44.1532802" lon="10.3340326"><ele>545.0</ele><time>2026-03-23T09:04:47.165Z</time></trkpt><trkpt lat="44.1532684" lon="10.3341361"><ele>545.0</ele><time>2026-03-23T09:04:52.151Z</time></trkpt><trkpt lat="44.1532539" lon="10.3342226"><ele>545.0</ele><time>2026-03-23T09:04:56.147Z</time></trkpt><trkpt lat="44.1532374" lon="10.334325"><ele>545.0</ele><time>2026-03-23T09:05:00.157Z</time></trkpt><trkpt lat="44.1532203" lon="10.3344218"><ele>544.3333333333333</ele><time>2026-03-23T09:05:04.144Z</time></trkpt><trkpt lat="44.1532078" lon="10.3345167"><ele>543.6666666666666</ele><time>2026-03-23T09:05:08.148Z</time></trkpt><trkpt lat="44.1531867" lon="10.3346285"><ele>543.0</ele><time>2026-03-23T09:05:12.149Z</time></trkpt><trkpt lat="44.1531695" lon="10.3347264"><ele>542.3333333333334</ele><time>2026-03-23T09:05:16.147Z</time></trkpt><trkpt lat="44.1531359" lon="10.3348282"><ele>541.6666666666667</ele><time>2026-03-23T09:05:20.144Z</time></trkpt><trkpt lat="44.1530946" lon="10.334916"><ele>541.0</ele><time>2026-03-23T09:05:24.145Z</time></trkpt><trkpt lat="44.1530427" lon="10.3349862"><ele>542.8571428571429</ele><time>2026-03-23T09:05:28.153Z</time></trkpt><trkpt lat="44.1529824" lon="10.3350448"><ele>544.7142857142858</ele><time>2026-03-23T09:05:32.15Z</time></trkpt><trkpt lat="44.1529127" lon="10.3351044"><ele>546.5714285714286</ele><time>2026-03-23T09:05:36.167Z</time></trkpt><trkpt lat="44.1528393" lon="10.3351356"><ele>548.4285714285714</ele><time>2026-03-23T09:05:40.151Z</time></trkpt><trkpt lat="44.1527741" lon="10.3351676"><ele>550.2857142857142</ele><time>2026-03-23T09:05:44.146Z</time></trkpt><trkpt lat="44.1527129" lon="10.3352081"><ele>552.1428571428571</ele><time>2026-03-23T09:05:48.143Z</time></trkpt><trkpt lat="44.1526524" lon="10.3352373"><ele>554.0</ele><time>2026-03-23T09:05:51.138Z</time></trkpt><trkpt lat="44.1525798" lon="10.335278"><ele>554.0</ele><time>2026-03-23T09:05:55.136Z</time></trkpt><trkpt lat="44.1525122" lon="10.3353041"><ele>554.0</ele><time>2026-03-23T09:05:59.137Z</time></trkpt><trkpt lat="44.1524433" lon="10.3353235"><ele>554.0</ele><time>2026-03-23T09:06:03.144Z</time></trkpt><trkpt lat="44.1523767" lon="10.3353188"><ele>554.0</ele><time>2026-03-23T09:06:07.143Z</time></trkpt><trkpt lat="44.1523101" lon="10.335298"><ele>554.0</ele><time>2026-03-23T09:06:11.159Z</time></trkpt><trkpt lat="44.1522437" lon="10.3352774"><ele>554.0</ele><time>2026-03-23T09:06:15.152Z</time></trkpt><trkpt lat="44.152174" lon="10.335246"><ele>554.0</ele><time>2026-03-23T09:06:19.147Z</time></trkpt><trkpt lat="44.152109" lon="10.335206"><ele>555.5</ele><time>2026-03-23T09:06:23.144Z</time></trkpt><trkpt lat="44.1520477" lon="10.335167"><ele>557.0</ele><time>2026-03-23T09:06:26.151Z</time></trkpt><trkpt lat="44.1519813" lon="10.3351018"><ele>558.5</ele><time>2026-03-23T09:06:30.138Z</time></trkpt><trkpt lat="44.1519317" lon="10.3350204"><ele>560.0</ele><time>2026-03-23T09:06:34.152Z</time></trkpt><trkpt lat="44.1518791" lon="10.3349405"><ele>561.5</ele><time>2026-03-23T09:06:38.147Z</time></trkpt><trkpt lat="44.1518334" lon="10.3348579"><ele>563.0</ele><time>2026-03-23T09:06:42.136Z</time></trkpt><trkpt lat="44.1517999" lon="10.3347681"><ele>563.0</ele><time>2026-03-23T09:06:46.137Z</time></trkpt><trkpt lat="44.1517605" lon="10.3346803"><ele>563.0</ele><time>2026-03-23T09:06:50.154Z</time></trkpt><trkpt lat="44.151723" lon="10.3346039"><ele>563.0</ele><time>2026-03-23T09:06:54.147Z</time></trkpt><trkpt lat="44.1516761" lon="10.3345242"><ele>563.0</ele><time>2026-03-23T09:06:58.147Z</time></trkpt><trkpt lat="44.1516316" lon="10.3344441"><ele>563.0</ele><time>2026-03-23T09:07:02.161Z</time></trkpt><trkpt lat="44.1515855" lon="10.3343609"><ele>563.0</ele><time>2026-03-23T09:07:06.14Z</time></trkpt><trkpt lat="44.1515248" lon="10.3343139"><ele>563.0</ele><time>2026-03-23T09:07:10.144Z</time></trkpt><trkpt lat="44.1514637" lon="10.3342741"><ele>563.0</ele><time>2026-03-23T09:07:14.142Z</time></trkpt><trkpt lat="44.1514271" lon="10.3341958"><ele>563.0</ele><time>2026-03-23T09:07:18.147Z</time></trkpt><trkpt lat="44.1514053" lon="10.3341099"><ele>563.0</ele><time>2026-03-23T09:07:22.144Z</time></trkpt><trkpt lat="44.1513911" lon="10.3340157"><ele>563.0</ele><time>2026-03-23T09:07:26.157Z</time></trkpt><trkpt lat="44.1513729" lon="10.3339212"><ele>563.0</ele><time>2026-03-23T09:07:30.164Z</time></trkpt><trkpt lat="44.1513606" lon="10.3338227"><ele>563.0</ele><time>2026-03-23T09:07:34.152Z</time></trkpt><trkpt lat="44.1513462" lon="10.3337219"><ele>563.0</ele><time>2026-03-23T09:07:38.151Z</time></trkpt><trkpt lat="44.1513448" lon="10.3336269"><ele>565.1428571428571</ele><time>2026-03-23T09:07:42.149Z</time></trkpt><trkpt lat="44.1513508" lon="10.3335319"><ele>567.2857142857143</ele><time>2026-03-23T09:07:46.157Z</time></trkpt><trkpt lat="44.1513548" lon="10.3334333"><ele>569.4285714285714</ele><time>2026-03-23T09:07:50.157Z</time></trkpt><trkpt lat="44.1513411" lon="10.3333295"><ele>571.5714285714286</ele><time>2026-03-23T09:07:54.146Z</time></trkpt><trkpt lat="44.1513221" lon="10.3332338"><ele>573.7142857142857</ele><time>2026-03-23T09:07:58.148Z</time></trkpt><trkpt lat="44.1513064" lon="10.3331347"><ele>575.8571428571429</ele><time>2026-03-23T09:08:02.146Z</time></trkpt><trkpt lat="44.1512793" lon="10.3330494"><ele>578.0</ele><time>2026-03-23T09:08:06.156Z</time></trkpt><trkpt lat="44.1512263" lon="10.3329987"><ele>579.1999999999999</ele><time>2026-03-23T09:08:11.144Z</time></trkpt><trkpt lat="44.1511435" lon="10.333024"><ele>580.4</ele><time>2026-03-23T09:08:14.146Z</time></trkpt><trkpt lat="44.1510381" lon="10.3330414"><ele>581.5999999999999</ele><time>2026-03-23T09:08:16.157Z</time></trkpt><trkpt lat="44.1509739" lon="10.3330432"><ele>582.8</ele><time>2026-03-23T09:08:17.149Z</time></trkpt><trkpt lat="44.1508804" lon="10.332983"><ele>584.0</ele><time>2026-03-23T09:08:19.142Z</time></trkpt><trkpt lat="44.1508176" lon="10.3328763"><ele>584.0</ele><time>2026-03-23T09:08:21.161Z</time></trkpt><trkpt lat="44.1507647" lon="10.3327821"><ele>584.0</ele><time>2026-03-23T09:08:23.153Z</time></trkpt><trkpt lat="44.1506992" lon="10.3327086"><ele>584.0</ele><time>2026-03-23T09:08:25.141Z</time></trkpt><trkpt lat="44.1506333" lon="10.3326649"><ele>584.0</ele><time>2026-03-23T09:08:27.15Z</time></trkpt><trkpt lat="44.1505568" lon="10.3326275"><ele>584.0</ele><time>2026-03-23T09:08:30.141Z</time></trkpt><trkpt lat="44.1505022" lon="10.3325526"><ele>584.0</ele><time>2026-03-23T09:08:34.156Z</time></trkpt><trkpt lat="44.1504745" lon="10.332456"><ele>584.0</ele><time>2026-03-23T09:08:38.143Z</time></trkpt><trkpt lat="44.1504638" lon="10.3323508"><ele>584.0</ele><time>2026-03-23T09:08:42.144Z</time></trkpt><trkpt lat="44.1504494" lon="10.3322518"><ele>584.0</ele><time>2026-03-23T09:08:46.141Z</time></trkpt><trkpt lat="44.1504282" lon="10.3321597"><ele>584.0</ele><time>2026-03-23T09:08:50.142Z</time></trkpt><trkpt lat="44.1503983" lon="10.3320662"><ele>584.0</ele><time>2026-03-23T09:08:54.159Z</time></trkpt><trkpt lat="44.150365" lon="10.3319709"><ele>584.0</ele><time>2026-03-23T09:08:58.141Z</time></trkpt><trkpt lat="44.1503312" lon="10.331876"><ele>584.0</ele><time>2026-03-23T09:09:02.151Z</time></trkpt><trkpt lat="44.1502987" lon="10.3317931"><ele>584.0</ele><time>2026-03-23T09:09:06.135Z</time></trkpt><trkpt lat="44.1502542" lon="10.3317101"><ele>584.0</ele><time>2026-03-23T09:09:10.135Z</time></trkpt><trkpt lat="44.1502044" lon="10.3316503"><ele>584.0</ele><time>2026-03-23T09:09:14.145Z</time></trkpt><trkpt lat="44.1501574" lon="10.3315615"><ele>584.0</ele><time>2026-03-23T09:09:18.139Z</time></trkpt><trkpt lat="44.1501146" lon="10.3314797"><ele>584.0</ele><time>2026-03-23T09:09:22.155Z</time></trkpt><trkpt lat="44.1500727" lon="10.3313893"><ele>584.0</ele><time>2026-03-23T09:09:27.147Z</time></trkpt><trkpt lat="44.1500168" lon="10.3313242"><ele>584.0</ele><time>2026-03-23T09:09:32.145Z</time></trkpt><trkpt lat="44.1499731" lon="10.3312539"><ele>584.8333333333333</ele><time>2026-03-23T09:09:36.162Z</time></trkpt><trkpt lat="44.1499048" lon="10.3311895"><ele>585.6666666666666</ele><time>2026-03-23T09:09:39.152Z</time></trkpt><trkpt lat="44.1498688" lon="10.3311139"><ele>586.5</ele><time>2026-03-23T09:09:41.151Z</time></trkpt><trkpt lat="44.1498403" lon="10.3309923"><ele>587.3333333333334</ele><time>2026-03-23T09:09:44.134Z</time></trkpt><trkpt lat="44.1498228" lon="10.3308961"><ele>588.1666666666667</ele><time>2026-03-23T09:09:48.14Z</time></trkpt><trkpt lat="44.1497981" lon="10.3307871"><ele>589.0</ele><time>2026-03-23T09:09:53.139Z</time></trkpt><trkpt lat="44.1497793" lon="10.3306919"><ele>588.0</ele><time>2026-03-23T09:09:57.149Z</time></trkpt><trkpt lat="44.1497624" lon="10.3305785"><ele>587.0</ele><time>2026-03-23T09:10:01.147Z</time></trkpt><trkpt lat="44.149758" lon="10.3304815"><ele>586.0</ele><time>2026-03-23T09:10:04.155Z</time></trkpt><trkpt lat="44.1497489" lon="10.3303719"><ele>585.0</ele><time>2026-03-23T09:10:08.15Z</time></trkpt><trkpt lat="44.1497616" lon="10.3302839"><ele>584.0</ele><time>2026-03-23T09:10:12.135Z</time></trkpt><trkpt lat="44.1497786" lon="10.3301916"><ele>583.0</ele><time>2026-03-23T09:10:16.152Z</time></trkpt><trkpt lat="44.1497825" lon="10.3300898"><ele>582.0</ele><time>2026-03-23T09:10:20.144Z</time></trkpt><trkpt lat="44.1497767" lon="10.329993"><ele>582.0</ele><time>2026-03-23T09:10:24.156Z</time></trkpt><trkpt lat="44.1497719" lon="10.3298822"><ele>582.0</ele><time>2026-03-23T09:10:28.145Z</time></trkpt><trkpt lat="44.1497629" lon="10.3297744"><ele>582.0</ele><time>2026-03-23T09:10:32.145Z</time></trkpt><trkpt lat="44.1497445" lon="10.3296684"><ele>582.0</ele><time>2026-03-23T09:10:36.146Z</time></trkpt><trkpt lat="44.1497424" lon="10.3295756"><ele>582.0</ele><time>2026-03-23T09:10:40.145Z</time></trkpt><trkpt lat="44.1497328" lon="10.3294812"><ele>582.0</ele><time>2026-03-23T09:10:44.162Z</time></trkpt><trkpt lat="44.1497209" lon="10.3293737"><ele>582.0</ele><time>2026-03-23T09:10:48.147Z</time></trkpt><trkpt lat="44.1497247" lon="10.3292696"><ele>584.0</ele><time>2026-03-23T09:10:52.143Z</time></trkpt><trkpt lat="44.1497281" lon="10.3291758"><ele>586.0</ele><time>2026-03-23T09:10:55.142Z</time></trkpt><trkpt lat="44.1497245" lon="10.3290869"><ele>588.0</ele><time>2026-03-23T09:10:58.138Z</time></trkpt><trkpt lat="44.1497382" lon="10.3289792"><ele>590.0</ele><time>2026-03-23T09:11:02.147Z</time></trkpt><trkpt lat="44.1497577" lon="10.3288726"><ele>592.0</ele><time>2026-03-23T09:11:06.147Z</time></trkpt><trkpt lat="44.1497788" lon="10.328763"><ele>594.0</ele><time>2026-03-23T09:11:10.139Z</time></trkpt><trkpt lat="44.149805" lon="10.3286638"><ele>596.0</ele><time>2026-03-23T09:11:14.153Z</time></trkpt><trkpt lat="44.1498165" lon="10.328572"><ele>597.8333333333333</ele><time>2026-03-23T09:11:18.143Z</time></trkpt><trkpt lat="44.1498389" lon="10.3284696"><ele>599.6666666666666</ele><time>2026-03-23T09:11:22.154Z</time></trkpt><trkpt lat="44.1498447" lon="10.3283779"><ele>601.5</ele><time>2026-03-23T09:11:25.16Z</time></trkpt><trkpt lat="44.1497812" lon="10.3283792"><ele>603.3333333333334</ele><time>2026-03-23T09:11:28.152Z</time></trkpt><trkpt lat="44.1496939" lon="10.3284577"><ele>605.1666666666667</ele><time>2026-03-23T09:11:30.137Z</time></trkpt><trkpt lat="44.1496021" lon="10.3285652"><ele>607.0</ele><time>2026-03-23T09:11:32.151Z</time></trkpt><trkpt lat="44.1495116" lon="10.3286755"><ele>607.0</ele><time>2026-03-23T09:11:34.151Z</time></trkpt><trkpt lat="44.1494093" lon="10.3287974"><ele>607.0</ele><time>2026-03-23T09:11:36.153Z</time></trkpt><trkpt lat="44.1493628" lon="10.3288585"><ele>607.0</ele><time>2026-03-23T09:11:37.153Z</time></trkpt><trkpt lat="44.1493272" lon="10.3289683"><ele>607.0</ele><time>2026-03-23T09:11:38.155Z</time></trkpt><trkpt lat="44.1492913" lon="10.3290702"><ele>607.0</ele><time>2026-03-23T09:11:39.166Z</time></trkpt><trkpt lat="44.1492435" lon="10.3291789"><ele>605.1666666666667</ele><time>2026-03-23T09:11:40.141Z</time></trkpt><trkpt lat="44.1492118" lon="10.3292845"><ele>603.3333333333334</ele><time>2026-03-23T09:11:41.145Z</time></trkpt><trkpt lat="44.1491797" lon="10.3293773"><ele>601.5</ele><time>2026-03-23T09:11:42.14Z</time></trkpt><trkpt lat="44.1491163" lon="10.3295093"><ele>599.6666666666666</ele><time>2026-03-23T09:11:44.15Z</time></trkpt><trkpt lat="44.1490766" lon="10.329607"><ele>597.8333333333333</ele><time>2026-03-23T09:11:46.139Z</time></trkpt><trkpt lat="44.1490324" lon="10.3296851"><ele>596.0</ele><time>2026-03-23T09:11:48.143Z</time></trkpt><trkpt lat="44.1489731" lon="10.329751"><ele>593.8333333333333</ele><time>2026-03-23T09:11:50.15Z</time></trkpt><trkpt lat="44.1488743" lon="10.3298609"><ele>591.6666666666666</ele><time>2026-03-23T09:11:52.162Z</time></trkpt><trkpt lat="44.1488306" lon="10.329938"><ele>589.5</ele><time>2026-03-23T09:11:53.151Z</time></trkpt><trkpt lat="44.1488045" lon="10.330037"><ele>587.3333333333334</ele><time>2026-03-23T09:11:54.147Z</time></trkpt><trkpt lat="44.1487847" lon="10.3301303"><ele>585.1666666666667</ele><time>2026-03-23T09:11:55.14Z</time></trkpt><trkpt lat="44.1487606" lon="10.3302284"><ele>583.0</ele><time>2026-03-23T09:11:56.147Z</time></trkpt><trkpt lat="44.1487325" lon="10.330325"><ele>583.0</ele><time>2026-03-23T09:11:57.152Z</time></trkpt><trkpt lat="44.1486958" lon="10.330428"><ele>583.0</ele><time>2026-03-23T09:11:58.144Z</time></trkpt><trkpt lat="44.1486531" lon="10.3305899"><ele>583.0</ele><time>2026-03-23T09:12:00.139Z</time></trkpt><trkpt lat="44.1486312" lon="10.3307486"><ele>583.0</ele><time>2026-03-23T09:12:02.154Z</time></trkpt><trkpt lat="44.1486504" lon="10.330898"><ele>583.0</ele><time>2026-03-23T09:12:04.152Z</time></trkpt><trkpt lat="44.1486536" lon="10.3310235"><ele>581.1666666666667</ele><time>2026-03-23T09:12:06.137Z</time></trkpt><trkpt lat="44.1485985" lon="10.3310985"><ele>579.3333333333334</ele><time>2026-03-23T09:12:09.149Z</time></trkpt><trkpt lat="44.1485334" lon="10.3311213"><ele>577.5</ele><time>2026-03-23T09:12:11.141Z</time></trkpt><trkpt lat="44.1484352" lon="10.3311266"><ele>575.6666666666666</ele><time>2026-03-23T09:12:13.144Z</time></trkpt><trkpt lat="44.1483504" lon="10.331174"><ele>573.8333333333333</ele><time>2026-03-23T09:12:15.149Z</time></trkpt><trkpt lat="44.1482501" lon="10.3312349"><ele>572.0</ele><time>2026-03-23T09:12:17.149Z</time></trkpt><trkpt lat="44.1481416" lon="10.3312985"><ele>571.2</ele><time>2026-03-23T09:12:19.138Z</time></trkpt><trkpt lat="44.1480453" lon="10.3313711"><ele>570.4000000000001</ele><time>2026-03-23T09:12:21.155Z</time></trkpt><trkpt lat="44.1479688" lon="10.3314288"><ele>569.5999999999999</ele><time>2026-03-23T09:12:23.142Z</time></trkpt><trkpt lat="44.1478984" lon="10.3314944"><ele>568.8</ele><time>2026-03-23T09:12:25.147Z</time></trkpt><trkpt lat="44.1478249" lon="10.3315627"><ele>568.0</ele><time>2026-03-23T09:12:27.136Z</time></trkpt><trkpt lat="44.1477445" lon="10.3316375"><ele>566.8333333333334</ele><time>2026-03-23T09:12:29.155Z</time></trkpt><trkpt lat="44.1476706" lon="10.3317058"><ele>565.6666666666667</ele><time>2026-03-23T09:12:31.151Z</time></trkpt><trkpt lat="44.14761" lon="10.331774"><ele>564.5</ele><time>2026-03-23T09:12:33.136Z</time></trkpt><trkpt lat="44.1475565" lon="10.331838"><ele>563.3333333333334</ele><time>2026-03-23T09:12:35.151Z</time></trkpt><trkpt lat="44.1475085" lon="10.3318994"><ele>562.1666666666666</ele><time>2026-03-23T09:12:37.137Z</time></trkpt><trkpt lat="44.1474397" lon="10.3319798"><ele>561.0</ele><time>2026-03-23T09:12:40.139Z</time></trkpt><trkpt lat="44.1473694" lon="10.3320514"><ele>560.1666666666666</ele><time>2026-03-23T09:12:43.139Z</time></trkpt><trkpt lat="44.1473124" lon="10.332116"><ele>559.3333333333334</ele><time>2026-03-23T09:12:46.144Z</time></trkpt><trkpt lat="44.1472565" lon="10.3321922"><ele>558.5</ele><time>2026-03-23T09:12:49.16Z</time></trkpt><trkpt lat="44.1471858" lon="10.3322707"><ele>557.6666666666667</ele><time>2026-03-23T09:12:52.162Z</time></trkpt><trkpt lat="44.1471313" lon="10.3323285"><ele>556.8333333333334</ele><time>2026-03-23T09:12:54.143Z</time></trkpt><trkpt lat="44.1470786" lon="10.3324075"><ele>556.0</ele><time>2026-03-23T09:12:56.148Z</time></trkpt><trkpt lat="44.1470231" lon="10.3325158"><ele>555.0</ele><time>2026-03-23T09:12:58.145Z</time></trkpt><trkpt lat="44.1469659" lon="10.3326346"><ele>554.0</ele><time>2026-03-23T09:13:00.14Z</time></trkpt><trkpt lat="44.1469087" lon="10.3327545"><ele>553.0</ele><time>2026-03-23T09:13:02.147Z</time></trkpt><trkpt lat="44.1468423" lon="10.3328699"><ele>552.0</ele><time>2026-03-23T09:13:04.15Z</time></trkpt><trkpt lat="44.1467801" lon="10.332971"><ele>551.0</ele><time>2026-03-23T09:13:06.144Z</time></trkpt><trkpt lat="44.1467416" lon="10.3330823"><ele>549.75</ele><time>2026-03-23T09:13:08.161Z</time></trkpt><trkpt lat="44.1466949" lon="10.333201"><ele>548.5</ele><time>2026-03-23T09:13:10.144Z</time></trkpt><trkpt lat="44.1466445" lon="10.3333333"><ele>547.25</ele><time>2026-03-23T09:13:12.165Z</time></trkpt><trkpt lat="44.1465739" lon="10.3334664"><ele>546.0</ele><time>2026-03-23T09:13:14.149Z</time></trkpt><trkpt lat="44.146503" lon="10.3336173"><ele>544.5</ele><time>2026-03-23T09:13:16.153Z</time></trkpt><trkpt lat="44.1464303" lon="10.3337278"><ele>543.0</ele><time>2026-03-23T09:13:18.145Z</time></trkpt><trkpt lat="44.1463782" lon="10.3337963"><ele>541.5</ele><time>2026-03-23T09:13:20.141Z</time></trkpt><trkpt lat="44.1463177" lon="10.3337369"><ele>540.0</ele><time>2026-03-23T09:13:23.15Z</time></trkpt><trkpt lat="44.1462887" lon="10.3336037"><ele>538.5</ele><time>2026-03-23T09:13:26.143Z</time></trkpt><trkpt lat="44.1462472" lon="10.3335244"><ele>537.0</ele><time>2026-03-23T09:13:28.137Z</time></trkpt><trkpt lat="44.1461812" lon="10.3335478"><ele>537.0</ele><time>2026-03-23T09:13:30.144Z</time></trkpt><trkpt lat="44.1461387" lon="10.3336918"><ele>537.0</ele><time>2026-03-23T09:13:32.153Z</time></trkpt><trkpt lat="44.1460982" lon="10.3338259"><ele>537.0</ele><time>2026-03-23T09:13:34.136Z</time></trkpt><trkpt lat="44.1460615" lon="10.3339512"><ele>537.0</ele><time>2026-03-23T09:13:36.156Z</time></trkpt><trkpt lat="44.146005" lon="10.3340168"><ele>537.0</ele><time>2026-03-23T09:13:38.155Z</time></trkpt><trkpt lat="44.1459675" lon="10.3341313"><ele>536.1666666666666</ele><time>2026-03-23T09:13:40.147Z</time></trkpt><trkpt lat="44.1459576" lon="10.3342526"><ele>535.3333333333334</ele><time>2026-03-23T09:13:42.149Z</time></trkpt><trkpt lat="44.1460133" lon="10.3343404"><ele>534.5</ele><time>2026-03-23T09:13:44.147Z</time></trkpt><trkpt lat="44.1460602" lon="10.3344005"><ele>533.6666666666667</ele><time>2026-03-23T09:13:46.138Z</time></trkpt><trkpt lat="44.1461198" lon="10.334485"><ele>532.8333333333334</ele><time>2026-03-23T09:13:49.144Z</time></trkpt><trkpt lat="44.1461656" lon="10.3345598"><ele>532.0</ele><time>2026-03-23T09:13:52.143Z</time></trkpt><trkpt lat="44.1462193" lon="10.3346377"><ele>530.6666666666667</ele><time>2026-03-23T09:13:55.172Z</time></trkpt><trkpt lat="44.1462859" lon="10.3347337"><ele>529.3333333333334</ele><time>2026-03-23T09:13:58.168Z</time></trkpt><trkpt lat="44.1463493" lon="10.3348135"><ele>528.0</ele><time>2026-03-23T09:14:00.147Z</time></trkpt><trkpt lat="44.1464161" lon="10.3348848"><ele>526.6666666666666</ele><time>2026-03-23T09:14:02.154Z</time></trkpt><trkpt lat="44.1464753" lon="10.33494"><ele>525.3333333333333</ele><time>2026-03-23T09:14:04.144Z</time></trkpt><trkpt lat="44.146535" lon="10.3349885"><ele>524.0</ele><time>2026-03-23T09:14:07.152Z</time></trkpt><trkpt lat="44.1465995" lon="10.3350411"><ele>524.0</ele><time>2026-03-23T09:14:10.138Z</time></trkpt><trkpt lat="44.1466754" lon="10.3351008"><ele>524.0</ele><time>2026-03-23T09:14:12.142Z</time></trkpt><trkpt lat="44.1467456" lon="10.3351491"><ele>524.0</ele><time>2026-03-23T09:14:14.147Z</time></trkpt><trkpt lat="44.1467811" lon="10.3352241"><ele>524.0</ele><time>2026-03-23T09:14:16.147Z</time></trkpt><trkpt lat="44.1467514" lon="10.3353192"><ele>524.0</ele><time>2026-03-23T09:14:18.145Z</time></trkpt><trkpt lat="44.1467049" lon="10.3354372"><ele>524.0</ele><time>2026-03-23T09:14:20.146Z</time></trkpt><trkpt lat="44.1466657" lon="10.3355777"><ele>522.6</ele><time>2026-03-23T09:14:22.141Z</time></trkpt><trkpt lat="44.1466397" lon="10.3357215"><ele>521.2</ele><time>2026-03-23T09:14:24.145Z</time></trkpt><trkpt lat="44.1465866" lon="10.3358445"><ele>519.8000000000001</ele><time>2026-03-23T09:14:26.152Z</time></trkpt><trkpt lat="44.1465042" lon="10.3359539"><ele>518.4</ele><time>2026-03-23T09:14:28.144Z</time></trkpt><trkpt lat="44.1463996" lon="10.3360477"><ele>517.0</ele><time>2026-03-23T09:14:30.151Z</time></trkpt><trkpt lat="44.1463414" lon="10.3360854"><ele>516.7142857142858</ele><time>2026-03-23T09:14:31.151Z</time></trkpt><trkpt lat="44.1462809" lon="10.3361274"><ele>516.4285714285714</ele><time>2026-03-23T09:14:32.153Z</time></trkpt><trkpt lat="44.1462175" lon="10.3361699"><ele>516.1428571428571</ele><time>2026-03-23T09:14:33.143Z</time></trkpt><trkpt lat="44.1461543" lon="10.3362132"><ele>515.8571428571429</ele><time>2026-03-23T09:14:34.148Z</time></trkpt><trkpt lat="44.1460944" lon="10.336247"><ele>515.5714285714286</ele><time>2026-03-23T09:14:35.154Z</time></trkpt><trkpt lat="44.1460256" lon="10.3362947"><ele>515.2857142857143</ele><time>2026-03-23T09:14:36.139Z</time></trkpt><trkpt lat="44.1459628" lon="10.3363394"><ele>515.0</ele><time>2026-03-23T09:14:37.156Z</time></trkpt><trkpt lat="44.1458969" lon="10.3363715"><ele>514.5714285714286</ele><time>2026-03-23T09:14:38.156Z</time></trkpt><trkpt lat="44.145828" lon="10.3363987"><ele>514.1428571428571</ele><time>2026-03-23T09:14:39.149Z</time></trkpt><trkpt lat="44.1457611" lon="10.336433"><ele>513.7142857142857</ele><time>2026-03-23T09:14:40.165Z</time></trkpt><trkpt lat="44.1456928" lon="10.3364686"><ele>513.2857142857142</ele><time>2026-03-23T09:14:41.159Z</time></trkpt><trkpt lat="44.1456265" lon="10.3364996"><ele>512.8571428571428</ele><time>2026-03-23T09:14:42.14Z</time></trkpt><trkpt lat="44.1455615" lon="10.3365306"><ele>512.4285714285714</ele><time>2026-03-23T09:14:43.144Z</time></trkpt><trkpt lat="44.1455005" lon="10.3365669"><ele>512.0</ele><time>2026-03-23T09:14:44.149Z</time></trkpt><trkpt lat="44.1454314" lon="10.3366081"><ele>511.85714285714283</ele><time>2026-03-23T09:14:45.143Z</time></trkpt><trkpt lat="44.1453654" lon="10.336646"><ele>511.71428571428567</ele><time>2026-03-23T09:14:46.153Z</time></trkpt><trkpt lat="44.1453004" lon="10.3366729"><ele>511.57142857142856</ele><time>2026-03-23T09:14:47.146Z</time></trkpt><trkpt lat="44.1452247" lon="10.3367072"><ele>511.42857142857144</ele><time>2026-03-23T09:14:48.153Z</time></trkpt><trkpt lat="44.1451615" lon="10.3367524"><ele>511.2857142857143</ele><time>2026-03-23T09:14:49.149Z</time></trkpt><trkpt lat="44.1450986" lon="10.3367957"><ele>511.1428571428571</ele><time>2026-03-23T09:14:50.149Z</time></trkpt><trkpt lat="44.1450379" lon="10.3368342"><ele>511.0</ele><time>2026-03-23T09:14:51.162Z</time></trkpt><trkpt lat="44.1449578" lon="10.3369099"><ele>511.0</ele><time>2026-03-23T09:14:53.163Z</time></trkpt><trkpt lat="44.1448829" lon="10.3369589"><ele>511.0</ele><time>2026-03-23T09:14:55.154Z</time></trkpt><trkpt lat="44.1448192" lon="10.336997"><ele>511.0</ele><time>2026-03-23T09:14:57.151Z</time></trkpt><trkpt lat="44.1447612" lon="10.3370565"><ele>511.0</ele><time>2026-03-23T09:15:00.145Z</time></trkpt><trkpt lat="44.1447061" lon="10.3371004"><ele>511.0</ele><time>2026-03-23T09:15:04.146Z</time></trkpt><trkpt lat="44.1446497" lon="10.3371579"><ele>511.0</ele><time>2026-03-23T09:15:09.138Z</time></trkpt><trkpt lat="44.1446013" lon="10.3372141"><ele>511.0</ele><time>2026-03-23T09:15:13.149Z</time></trkpt><trkpt lat="44.1445432" lon="10.3372628"><ele>512.5714285714286</ele><time>2026-03-23T09:15:17.146Z</time></trkpt><trkpt lat="44.1444768" lon="10.3373122"><ele>514.1428571428571</ele><time>2026-03-23T09:15:22.144Z</time></trkpt><trkpt lat="44.1444168" lon="10.3373605"><ele>515.7142857142858</ele><time>2026-03-23T09:15:27.136Z</time></trkpt><trkpt lat="44.1443516" lon="10.3374153"><ele>517.2857142857142</ele><time>2026-03-23T09:15:32.145Z</time></trkpt><trkpt lat="44.1443351" lon="10.3375082"><ele>518.8571428571429</ele><time>2026-03-23T09:15:37.173Z</time></trkpt><trkpt lat="44.1443242" lon="10.3376161"><ele>520.4285714285714</ele><time>2026-03-23T09:15:42.154Z</time></trkpt><trkpt lat="44.1442992" lon="10.3377203"><ele>522.0</ele><time>2026-03-23T09:15:47.175Z</time></trkpt><trkpt lat="44.1442821" lon="10.3378123"><ele>522.0</ele><time>2026-03-23T09:15:51.156Z</time></trkpt><trkpt lat="44.144245" lon="10.3378918"><ele>522.0</ele><time>2026-03-23T09:15:55.157Z</time></trkpt><trkpt lat="44.1441932" lon="10.3379634"><ele>522.0</ele><time>2026-03-23T09:15:58.155Z</time></trkpt><trkpt lat="44.1441483" lon="10.3380388"><ele>522.0</ele><time>2026-03-23T09:16:00.141Z</time></trkpt><trkpt lat="44.1441035" lon="10.3381319"><ele>522.0</ele><time>2026-03-23T09:16:02.142Z</time></trkpt><trkpt lat="44.1440716" lon="10.3382247"><ele>522.0</ele><time>2026-03-23T09:16:04.151Z</time></trkpt><trkpt lat="44.1440509" lon="10.3383227"><ele>522.0</ele><time>2026-03-23T09:16:06.156Z</time></trkpt><trkpt lat="44.1439943" lon="10.3384154"><ele>519.8333333333334</ele><time>2026-03-23T09:16:09.138Z</time></trkpt><trkpt lat="44.1439294" lon="10.3383639"><ele>517.6666666666666</ele><time>2026-03-23T09:16:11.154Z</time></trkpt><trkpt lat="44.1438671" lon="10.3382104"><ele>515.5</ele><time>2026-03-23T09:16:13.151Z</time></trkpt><trkpt lat="44.1438173" lon="10.3381295"><ele>513.3333333333333</ele><time>2026-03-23T09:16:14.157Z</time></trkpt><trkpt lat="44.1437764" lon="10.3380584"><ele>511.16666666666663</ele><time>2026-03-23T09:16:15.148Z</time></trkpt><trkpt lat="44.1437116" lon="10.3379741"><ele>509.0</ele><time>2026-03-23T09:16:17.159Z</time></trkpt><trkpt lat="44.1436598" lon="10.3380544"><ele>508.3333333333333</ele><time>2026-03-23T09:16:20.148Z</time></trkpt><trkpt lat="44.1437213" lon="10.3381798"><ele>507.66666666666663</ele><time>2026-03-23T09:16:22.157Z</time></trkpt><trkpt lat="44.1437355" lon="10.338268"><ele>507.0</ele><time>2026-03-23T09:16:23.145Z</time></trkpt><trkpt lat="44.1437434" lon="10.3383689"><ele>506.33333333333337</ele><time>2026-03-23T09:16:24.143Z</time></trkpt><trkpt lat="44.1437442" lon="10.3384885"><ele>505.6666666666667</ele><time>2026-03-23T09:16:25.153Z</time></trkpt><trkpt lat="44.1437508" lon="10.3386199"><ele>505.0</ele><time>2026-03-23T09:16:26.144Z</time></trkpt><trkpt lat="44.1437574" lon="10.3387505"><ele>501.4</ele><time>2026-03-23T09:16:27.148Z</time></trkpt><trkpt lat="44.1437752" lon="10.3388899"><ele>497.8</ele><time>2026-03-23T09:16:28.14Z</time></trkpt><trkpt lat="44.1437938" lon="10.3390286"><ele>494.20000000000005</ele><time>2026-03-23T09:16:29.149Z</time></trkpt><trkpt lat="44.1438166" lon="10.3391714"><ele>490.6</ele><time>2026-03-23T09:16:30.148Z</time></trkpt><trkpt lat="44.1438434" lon="10.3393036"><ele>487.0</ele><time>2026-03-23T09:16:31.14Z</time></trkpt><trkpt lat="44.1438777" lon="10.3394354"><ele>487.0</ele><time>2026-03-23T09:16:32.16Z</time></trkpt><trkpt lat="44.1439065" lon="10.3395662"><ele>487.00000000000006</ele><time>2026-03-23T09:16:33.142Z</time></trkpt><trkpt lat="44.1439319" lon="10.3397029"><ele>487.00000000000006</ele><time>2026-03-23T09:16:34.143Z</time></trkpt><trkpt lat="44.1439516" lon="10.3398258"><ele>487.0</ele><time>2026-03-23T09:16:35.149Z</time></trkpt><trkpt lat="44.1439615" lon="10.3399529"><ele>487.0</ele><time>2026-03-23T09:16:36.145Z</time></trkpt><trkpt lat="44.1439631" lon="10.3400928"><ele>488.1666666666667</ele><time>2026-03-23T09:16:37.142Z</time></trkpt><trkpt lat="44.1439608" lon="10.3402199"><ele>489.33333333333337</ele><time>2026-03-23T09:16:38.142Z</time></trkpt><trkpt lat="44.143964" lon="10.3403316"><ele>490.5</ele><time>2026-03-23T09:16:39.14Z</time></trkpt><trkpt lat="44.1439779" lon="10.340447"><ele>491.66666666666663</ele><time>2026-03-23T09:16:40.144Z</time></trkpt><trkpt lat="44.1440067" lon="10.3405675"><ele>492.8333333333333</ele><time>2026-03-23T09:16:41.151Z</time></trkpt><trkpt lat="44.1440318" lon="10.3406701"><ele>494.0</ele><time>2026-03-23T09:16:42.145Z</time></trkpt><trkpt lat="44.1440592" lon="10.3407552"><ele>494.0</ele><time>2026-03-23T09:16:43.159Z</time></trkpt><trkpt lat="44.1440935" lon="10.3409013"><ele>494.0</ele><time>2026-03-23T09:16:45.144Z</time></trkpt><trkpt lat="44.1440662" lon="10.341042"><ele>494.0</ele><time>2026-03-23T09:16:47.142Z</time></trkpt><trkpt lat="44.1439923" lon="10.3410894"><ele>494.0</ele><time>2026-03-23T09:16:49.139Z</time></trkpt><trkpt lat="44.1438948" lon="10.3410538"><ele>494.0</ele><time>2026-03-23T09:16:51.156Z</time></trkpt><trkpt lat="44.1438131" lon="10.3410729"><ele>489.66666666666663</ele><time>2026-03-23T09:16:53.15Z</time></trkpt><trkpt lat="44.1437399" lon="10.3410508"><ele>485.3333333333333</ele><time>2026-03-23T09:16:55.146Z</time></trkpt><trkpt lat="44.1436676" lon="10.340993"><ele>481.0</ele><time>2026-03-23T09:16:58.149Z</time></trkpt><trkpt lat="44.1435873" lon="10.3409665"><ele>476.66666666666663</ele><time>2026-03-23T09:17:02.144Z</time></trkpt><trkpt lat="44.1435187" lon="10.3408996"><ele>472.3333333333333</ele><time>2026-03-23T09:17:06.144Z</time></trkpt><trkpt lat="44.1434999" lon="10.3407987"><ele>468.0</ele><time>2026-03-23T09:17:09.136Z</time></trkpt><trkpt lat="44.143408" lon="10.3408272"><ele>468.0</ele><time>2026-03-23T09:17:13.147Z</time></trkpt><trkpt lat="44.1433661" lon="10.3409022"><ele>468.0</ele><time>2026-03-23T09:17:15.139Z</time></trkpt><trkpt lat="44.143339" lon="10.3409814"><ele>468.0</ele><time>2026-03-23T09:17:18.145Z</time></trkpt><trkpt lat="44.1432964" lon="10.3409059"><ele>468.0</ele><time>2026-03-23T09:17:21.149Z</time></trkpt><trkpt lat="44.1432729" lon="10.3407763"><ele>468.0</ele><time>2026-03-23T09:17:23.143Z</time></trkpt><trkpt lat="44.143264" lon="10.3405993"><ele>468.0</ele><time>2026-03-23T09:17:25.153Z</time></trkpt><trkpt lat="44.1432516" lon="10.3405015"><ele>469.5</ele><time>2026-03-23T09:17:26.148Z</time></trkpt><trkpt lat="44.143224" lon="10.3404021"><ele>471.0</ele><time>2026-03-23T09:17:27.14Z</time></trkpt><trkpt lat="44.1432064" lon="10.3403136"><ele>472.5</ele><time>2026-03-23T09:17:28.138Z</time></trkpt><trkpt lat="44.1431696" lon="10.3402087"><ele>474.0</ele><time>2026-03-23T09:17:29.148Z</time></trkpt><trkpt lat="44.1431331" lon="10.3401002"><ele>475.5</ele><time>2026-03-23T09:17:30.149Z</time></trkpt><trkpt lat="44.1430941" lon="10.3399947"><ele>477.0</ele><time>2026-03-23T09:17:31.136Z</time></trkpt><trkpt lat="44.1430634" lon="10.3399012"><ele>473.6666666666667</ele><time>2026-03-23T09:17:32.145Z</time></trkpt><trkpt lat="44.1430139" lon="10.339814"><ele>470.33333333333337</ele><time>2026-03-23T09:17:33.144Z</time></trkpt><trkpt lat="44.1429614" lon="10.3397294"><ele>467.0</ele><time>2026-03-23T09:17:34.139Z</time></trkpt><trkpt lat="44.1429049" lon="10.339643"><ele>463.6666666666667</ele><time>2026-03-23T09:17:35.139Z</time></trkpt><trkpt lat="44.1428617" lon="10.3395724"><ele>460.33333333333337</ele><time>2026-03-23T09:17:36.14Z</time></trkpt><trkpt lat="44.1427865" lon="10.3394612"><ele>457.0</ele><time>2026-03-23T09:17:38.156Z</time></trkpt><trkpt lat="44.1427212" lon="10.3393889"><ele>457.00000000000006</ele><time>2026-03-23T09:17:40.135Z</time></trkpt><trkpt lat="44.1425917" lon="10.3393311"><ele>457.0</ele><time>2026-03-23T09:17:42.15Z</time></trkpt><trkpt lat="44.1425235" lon="10.3392985"><ele>457.0</ele><time>2026-03-23T09:17:43.146Z</time></trkpt><trkpt lat="44.14245" lon="10.3392561"><ele>457.0</ele><time>2026-03-23T09:17:44.144Z</time></trkpt><trkpt lat="44.1423631" lon="10.3392276"><ele>457.00000000000006</ele><time>2026-03-23T09:17:45.155Z</time></trkpt><trkpt lat="44.1423001" lon="10.3391891"><ele>457.0</ele><time>2026-03-23T09:17:46.142Z</time></trkpt><trkpt lat="44.1422287" lon="10.3391593"><ele>454.50000000000006</ele><time>2026-03-23T09:17:47.147Z</time></trkpt><trkpt lat="44.1421589" lon="10.3391166"><ele>452.0</ele><time>2026-03-23T09:17:48.141Z</time></trkpt><trkpt lat="44.1420917" lon="10.3390709"><ele>449.5</ele><time>2026-03-23T09:17:49.138Z</time></trkpt><trkpt lat="44.142021" lon="10.3390238"><ele>447.0</ele><time>2026-03-23T09:17:50.141Z</time></trkpt><trkpt lat="44.1419306" lon="10.3388927"><ele>444.50000000000006</ele><time>2026-03-23T09:17:52.138Z</time></trkpt><trkpt lat="44.1419029" lon="10.3388118"><ele>442.0</ele><time>2026-03-23T09:17:53.159Z</time></trkpt><trkpt lat="44.1418609" lon="10.3387328"><ele>442.00000000000006</ele><time>2026-03-23T09:17:54.148Z</time></trkpt><trkpt lat="44.1417893" lon="10.3385794"><ele>442.0</ele><time>2026-03-23T09:17:56.159Z</time></trkpt><trkpt lat="44.1417567" lon="10.3384805"><ele>442.0</ele><time>2026-03-23T09:17:57.145Z</time></trkpt><trkpt lat="44.1417298" lon="10.3383874"><ele>442.0</ele><time>2026-03-23T09:17:58.141Z</time></trkpt><trkpt lat="44.1417039" lon="10.338294"><ele>442.00000000000006</ele><time>2026-03-23T09:17:59.139Z</time></trkpt><trkpt lat="44.1416793" lon="10.3382016"><ele>442.0</ele><time>2026-03-23T09:18:00.141Z</time></trkpt><trkpt lat="44.1416547" lon="10.3381077"><ele>441.1666666666667</ele><time>2026-03-23T09:18:01.136Z</time></trkpt><trkpt lat="44.1416217" lon="10.3380087"><ele>440.33333333333337</ele><time>2026-03-23T09:18:02.138Z</time></trkpt><trkpt lat="44.1415933" lon="10.3379172"><ele>439.5</ele><time>2026-03-23T09:18:03.15Z</time></trkpt><trkpt lat="44.1415809" lon="10.3378263"><ele>438.66666666666663</ele><time>2026-03-23T09:18:04.146Z</time></trkpt><trkpt lat="44.1415745" lon="10.3377302"><ele>437.8333333333333</ele><time>2026-03-23T09:18:05.143Z</time></trkpt><trkpt lat="44.1416145" lon="10.3376527"><ele>437.0</ele><time>2026-03-23T09:18:06.16Z</time></trkpt><trkpt lat="44.1416578" lon="10.3375046"><ele>436.99999999999994</ele><time>2026-03-23T09:18:08.14Z</time></trkpt><trkpt lat="44.1416823" lon="10.3373765"><ele>437.0</ele><time>2026-03-23T09:18:10.141Z</time></trkpt><trkpt lat="44.1416348" lon="10.3372607"><ele>437.0</ele><time>2026-03-23T09:18:12.144Z</time></trkpt><trkpt lat="44.141557" lon="10.3372023"><ele>437.0</ele><time>2026-03-23T09:18:14.146Z</time></trkpt><trkpt lat="44.1414921" lon="10.337175"><ele>436.99999999999994</ele><time>2026-03-23T09:18:16.151Z</time></trkpt><trkpt lat="44.1414251" lon="10.3371761"><ele>437.0</ele><time>2026-03-23T09:18:19.146Z</time></trkpt><trkpt lat="44.1413651" lon="10.3371468"><ele>434.99999999999994</ele><time>2026-03-23T09:18:22.143Z</time></trkpt><trkpt lat="44.1412852" lon="10.3371373"><ele>433.0</ele><time>2026-03-23T09:18:26.147Z</time></trkpt><trkpt lat="44.141205" lon="10.3371222"><ele>431.0</ele><time>2026-03-23T09:18:30.139Z</time></trkpt><trkpt lat="44.1411252" lon="10.3370874"><ele>429.0</ele><time>2026-03-23T09:18:34.143Z</time></trkpt><trkpt lat="44.141097" lon="10.3370006"><ele>426.99999999999994</ele><time>2026-03-23T09:18:37.148Z</time></trkpt><trkpt lat="44.1410892" lon="10.3368941"><ele>425.0</ele><time>2026-03-23T09:18:40.137Z</time></trkpt><trkpt lat="44.1410782" lon="10.3367794"><ele>424.99999999999994</ele><time>2026-03-23T09:18:43.136Z</time></trkpt><trkpt lat="44.141067" lon="10.3366484"><ele>425.0</ele><time>2026-03-23T09:18:46.143Z</time></trkpt><trkpt lat="44.1410598" lon="10.3365338"><ele>425.0</ele><time>2026-03-23T09:18:48.934Z</time></trkpt><trkpt lat="44.1410524" lon="10.3364459"><ele>425.0</ele><time>2026-03-23T09:18:51.089Z</time></trkpt><trkpt lat="44.141045" lon="10.3363174"><ele>424.99999999999994</ele><time>2026-03-23T09:18:54.139Z</time></trkpt><trkpt lat="44.1410403" lon="10.3362288"><ele>425.0</ele><time>2026-03-23T09:18:56.093Z</time></trkpt><trkpt lat="44.141034" lon="10.3360946"><ele>425.66666666666663</ele><time>2026-03-23T09:18:59.137Z</time></trkpt><trkpt lat="44.1410154" lon="10.336007"><ele>426.3333333333333</ele><time>2026-03-23T09:19:01.141Z</time></trkpt><trkpt lat="44.1409736" lon="10.3358933"><ele>427.0</ele><time>2026-03-23T09:19:04.154Z</time></trkpt><trkpt lat="44.1409137" lon="10.3358049"><ele>427.66666666666663</ele><time>2026-03-23T09:19:07.151Z</time></trkpt><trkpt lat="44.1408588" lon="10.3357094"><ele>428.3333333333333</ele><time>2026-03-23T09:19:10.153Z</time></trkpt><trkpt lat="44.1408067" lon="10.3356096"><ele>429.0</ele><time>2026-03-23T09:19:13.142Z</time></trkpt><trkpt lat="44.1407674" lon="10.3355239"><ele>428.42857142857144</ele><time>2026-03-23T09:19:16.148Z</time></trkpt><trkpt lat="44.1407249" lon="10.335453"><ele>427.8571428571429</ele><time>2026-03-23T09:19:20.149Z</time></trkpt><trkpt lat="44.1406825" lon="10.3353519"><ele>427.2857142857143</ele><time>2026-03-23T09:19:24.164Z</time></trkpt><trkpt lat="44.1406475" lon="10.3352582"><ele>426.7142857142857</ele><time>2026-03-23T09:19:26.147Z</time></trkpt><trkpt lat="44.1406283" lon="10.3351426"><ele>426.1428571428571</ele><time>2026-03-23T09:19:29.138Z</time></trkpt><trkpt lat="44.1406059" lon="10.3350507"><ele>425.57142857142856</ele><time>2026-03-23T09:19:32.149Z</time></trkpt><trkpt lat="44.1406124" lon="10.3349634"><ele>425.0</ele><time>2026-03-23T09:19:35.151Z</time></trkpt><trkpt lat="44.1406255" lon="10.3348606"><ele>425.0</ele><time>2026-03-23T09:19:38.142Z</time></trkpt><trkpt lat="44.1406195" lon="10.3347562"><ele>425.0</ele><time>2026-03-23T09:19:41.145Z</time></trkpt><trkpt lat="44.1406198" lon="10.3346604"><ele>425.0</ele><time>2026-03-23T09:19:44.146Z</time></trkpt><trkpt lat="44.1406189" lon="10.3345638"><ele>425.0</ele><time>2026-03-23T09:19:47.146Z</time></trkpt><trkpt lat="44.1406155" lon="10.334469"><ele>425.0</ele><time>2026-03-23T09:19:50.144Z</time></trkpt><trkpt lat="44.1406116" lon="10.33436"><ele>425.0</ele><time>2026-03-23T09:19:53.145Z</time></trkpt><trkpt lat="44.1405943" lon="10.3342432"><ele>425.0</ele><time>2026-03-23T09:19:56.148Z</time></trkpt><trkpt lat="44.1405901" lon="10.3341547"><ele>425.1428571428571</ele><time>2026-03-23T09:19:58.147Z</time></trkpt><trkpt lat="44.1405875" lon="10.3340609"><ele>425.2857142857143</ele><time>2026-03-23T09:20:00.142Z</time></trkpt><trkpt lat="44.1405699" lon="10.3339645"><ele>425.42857142857144</ele><time>2026-03-23T09:20:02.146Z</time></trkpt><trkpt lat="44.1405492" lon="10.3338655"><ele>425.57142857142856</ele><time>2026-03-23T09:20:04.14Z</time></trkpt><trkpt lat="44.1405267" lon="10.3337653"><ele>425.7142857142857</ele><time>2026-03-23T09:20:06.15Z</time></trkpt><trkpt lat="44.1404957" lon="10.333664"><ele>425.85714285714283</ele><time>2026-03-23T09:20:08.156Z</time></trkpt><trkpt lat="44.1404638" lon="10.3335643"><ele>426.0</ele><time>2026-03-23T09:20:10.145Z</time></trkpt><trkpt lat="44.1404328" lon="10.3334703"><ele>426.5</ele><time>2026-03-23T09:20:12.138Z</time></trkpt><trkpt lat="44.1404038" lon="10.3333862"><ele>427.0</ele><time>2026-03-23T09:20:14.146Z</time></trkpt><trkpt lat="44.1403775" lon="10.3333058"><ele>427.5</ele><time>2026-03-23T09:20:16.149Z</time></trkpt><trkpt lat="44.1403384" lon="10.3331894"><ele>428.0</ele><time>2026-03-23T09:20:19.143Z</time></trkpt><trkpt lat="44.1403057" lon="10.3330792"><ele>428.5</ele><time>2026-03-23T09:20:22.143Z</time></trkpt><trkpt lat="44.1402614" lon="10.3329689"><ele>429.0</ele><time>2026-03-23T09:20:25.149Z</time></trkpt><trkpt lat="44.1402387" lon="10.3328857"><ele>430.8333333333333</ele><time>2026-03-23T09:20:27.142Z</time></trkpt><trkpt lat="44.1402073" lon="10.3328046"><ele>432.66666666666663</ele><time>2026-03-23T09:20:29.148Z</time></trkpt><trkpt lat="44.1401629" lon="10.3326915"><ele>434.5</ele><time>2026-03-23T09:20:32.142Z</time></trkpt><trkpt lat="44.1401171" lon="10.3325749"><ele>436.3333333333333</ele><time>2026-03-23T09:20:35.144Z</time></trkpt><trkpt lat="44.1400832" lon="10.3324877"><ele>438.16666666666663</ele><time>2026-03-23T09:20:37.155Z</time></trkpt><trkpt lat="44.1400543" lon="10.332399"><ele>440.0</ele><time>2026-03-23T09:20:39.138Z</time></trkpt><trkpt lat="44.1400287" lon="10.3323144"><ele>439.99999999999994</ele><time>2026-03-23T09:20:41.155Z</time></trkpt><trkpt lat="44.1400023" lon="10.3322318"><ele>440.0</ele><time>2026-03-23T09:20:43.138Z</time></trkpt><trkpt lat="44.1399747" lon="10.3321495"><ele>440.0</ele><time>2026-03-23T09:20:45.141Z</time></trkpt><trkpt lat="44.1399415" lon="10.3320741"><ele>440.0</ele><time>2026-03-23T09:20:47.139Z</time></trkpt><trkpt lat="44.1399052" lon="10.3319921"><ele>440.0</ele><time>2026-03-23T09:20:49.146Z</time></trkpt><trkpt lat="44.1398818" lon="10.3319045"><ele>439.99999999999994</ele><time>2026-03-23T09:20:51.156Z</time></trkpt><trkpt lat="44.1398545" lon="10.3318203"><ele>440.0</ele><time>2026-03-23T09:20:53.152Z</time></trkpt><trkpt lat="44.1398212" lon="10.3317385"><ele>439.66666666666663</ele><time>2026-03-23T09:20:55.139Z</time></trkpt><trkpt lat="44.1397729" lon="10.3316233"><ele>439.3333333333333</ele><time>2026-03-23T09:20:58.147Z</time></trkpt><trkpt lat="44.1397418" lon="10.3315334"><ele>439.0</ele><time>2026-03-23T09:21:00.146Z</time></trkpt><trkpt lat="44.1397012" lon="10.3314444"><ele>438.66666666666663</ele><time>2026-03-23T09:21:02.141Z</time></trkpt><trkpt lat="44.1396617" lon="10.3313616"><ele>438.3333333333333</ele><time>2026-03-23T09:21:04.151Z</time></trkpt><trkpt lat="44.1396172" lon="10.3312823"><ele>438.0</ele><time>2026-03-23T09:21:06.141Z</time></trkpt><trkpt lat="44.1395691" lon="10.3312172"><ele>438.0</ele><time>2026-03-23T09:21:08.15Z</time></trkpt><trkpt lat="44.1395198" lon="10.3311515"><ele>438.0</ele><time>2026-03-23T09:21:10.153Z</time></trkpt><trkpt lat="44.1394694" lon="10.331078"><ele>438.0</ele><time>2026-03-23T09:21:12.14Z</time></trkpt><trkpt lat="44.1394121" lon="10.3310202"><ele>438.0</ele><time>2026-03-23T09:21:14.141Z</time></trkpt><trkpt lat="44.139349" lon="10.3309645"><ele>438.0</ele><time>2026-03-23T09:21:16.146Z</time></trkpt><trkpt lat="44.1392886" lon="10.3309125"><ele>438.0</ele><time>2026-03-23T09:21:18.138Z</time></trkpt><trkpt lat="44.1392315" lon="10.3308553"><ele>438.0</ele><time>2026-03-23T09:21:20.139Z</time></trkpt><trkpt lat="44.1391714" lon="10.3308167"><ele>438.0</ele><time>2026-03-23T09:21:22.153Z</time></trkpt><trkpt lat="44.1390765" lon="10.3308115"><ele>437.99999999999994</ele><time>2026-03-23T09:21:25.142Z</time></trkpt><trkpt lat="44.1390048" lon="10.330827"><ele>437.99999999999994</ele><time>2026-03-23T09:21:27.141Z</time></trkpt><trkpt lat="44.1389229" lon="10.3308647"><ele>438.0</ele><time>2026-03-23T09:21:29.145Z</time></trkpt><trkpt lat="44.1388237" lon="10.3309119"><ele>438.0</ele><time>2026-03-23T09:21:31.141Z</time></trkpt><trkpt lat="44.1387226" lon="10.3309797"><ele>436.59999999999997</ele><time>2026-03-23T09:21:33.142Z</time></trkpt><trkpt lat="44.1386105" lon="10.3310391"><ele>435.19999999999993</ele><time>2026-03-23T09:21:35.142Z</time></trkpt><trkpt lat="44.1385065" lon="10.3310913"><ele>433.8</ele><time>2026-03-23T09:21:37.144Z</time></trkpt><trkpt lat="44.1384085" lon="10.331143"><ele>432.4</ele><time>2026-03-23T09:21:39.151Z</time></trkpt><trkpt lat="44.1383171" lon="10.3312048"><ele>431.0</ele><time>2026-03-23T09:21:41.153Z</time></trkpt><trkpt lat="44.1382285" lon="10.3312557"><ele>434.49999999999994</ele><time>2026-03-23T09:21:43.144Z</time></trkpt><trkpt lat="44.1381536" lon="10.3313023"><ele>438.0</ele><time>2026-03-23T09:21:45.141Z</time></trkpt><trkpt lat="44.1380774" lon="10.3313544"><ele>441.5</ele><time>2026-03-23T09:21:47.149Z</time></trkpt><trkpt lat="44.138008" lon="10.3313993"><ele>445.0</ele><time>2026-03-23T09:21:49.149Z</time></trkpt><trkpt lat="44.1379403" lon="10.3314426"><ele>448.49999999999994</ele><time>2026-03-23T09:21:51.143Z</time></trkpt><trkpt lat="44.1378651" lon="10.3314942"><ele>452.0</ele><time>2026-03-23T09:21:54.153Z</time></trkpt><trkpt lat="44.1377909" lon="10.3315224"><ele>452.0</ele><time>2026-03-23T09:21:58.138Z</time></trkpt><trkpt lat="44.1377093" lon="10.3315306"><ele>452.0</ele><time>2026-03-23T09:22:02.145Z</time></trkpt><trkpt lat="44.1376487" lon="10.3314981"><ele>452.0</ele><time>2026-03-23T09:22:05.141Z</time></trkpt><trkpt lat="44.1376103" lon="10.3314257"><ele>452.0</ele><time>2026-03-23T09:22:08.141Z</time></trkpt><trkpt lat="44.137591" lon="10.3313379"><ele>452.0</ele><time>2026-03-23T09:22:12.135Z</time></trkpt><trkpt lat="44.1375911" lon="10.331222"><ele>452.0</ele><time>2026-03-23T09:22:16.147Z</time></trkpt><trkpt lat="44.1376082" lon="10.3311258"><ele>452.0</ele><time>2026-03-23T09:22:20.144Z</time></trkpt><trkpt lat="44.1376173" lon="10.3310369"><ele>452.0</ele><time>2026-03-23T09:22:24.142Z</time></trkpt><trkpt lat="44.137628" lon="10.330946"><ele>452.0</ele><time>2026-03-23T09:22:27.148Z</time></trkpt><trkpt lat="44.1376345" lon="10.3308444"><ele>452.0</ele><time>2026-03-23T09:22:30.149Z</time></trkpt><trkpt lat="44.1376382" lon="10.3307515"><ele>452.0</ele><time>2026-03-23T09:22:33.139Z</time></trkpt><trkpt lat="44.1376414" lon="10.3306289"><ele>452.0</ele><time>2026-03-23T09:22:37.158Z</time></trkpt><trkpt lat="44.1376421" lon="10.3305269"><ele>452.0</ele><time>2026-03-23T09:22:40.143Z</time></trkpt><trkpt lat="44.1376416" lon="10.3304242"><ele>452.0</ele><time>2026-03-23T09:22:43.136Z</time></trkpt><trkpt lat="44.1376204" lon="10.3303396"><ele>451.2857142857143</ele><time>2026-03-23T09:22:46.145Z</time></trkpt><trkpt lat="44.1375863" lon="10.3302574"><ele>450.57142857142856</ele><time>2026-03-23T09:22:49.14Z</time></trkpt><trkpt lat="44.137546" lon="10.3301829"><ele>449.85714285714283</ele><time>2026-03-23T09:22:52.149Z</time></trkpt><trkpt lat="44.1375065" lon="10.3301074"><ele>449.1428571428571</ele><time>2026-03-23T09:22:55.141Z</time></trkpt><trkpt lat="44.1374576" lon="10.3300132"><ele>448.42857142857144</ele><time>2026-03-23T09:22:59.137Z</time></trkpt><trkpt lat="44.1374232" lon="10.3299221"><ele>447.71428571428567</ele><time>2026-03-23T09:23:03.147Z</time></trkpt><trkpt lat="44.1373951" lon="10.3298142"><ele>447.0</ele><time>2026-03-23T09:23:07.141Z</time></trkpt><trkpt lat="44.1373872" lon="10.3297167"><ele>446.71428571428567</ele><time>2026-03-23T09:23:10.154Z</time></trkpt><trkpt lat="44.1373882" lon="10.3296255"><ele>446.42857142857144</ele><time>2026-03-23T09:23:13.138Z</time></trkpt><trkpt lat="44.1373805" lon="10.3295351"><ele>446.1428571428571</ele><time>2026-03-23T09:23:16.139Z</time></trkpt><trkpt lat="44.1373845" lon="10.3294379"><ele>445.85714285714283</ele><time>2026-03-23T09:23:19.143Z</time></trkpt><trkpt lat="44.13737" lon="10.3293222"><ele>445.57142857142856</ele><time>2026-03-23T09:23:23.145Z</time></trkpt><trkpt lat="44.1373445" lon="10.32923"><ele>445.2857142857143</ele><time>2026-03-23T09:23:26.151Z</time></trkpt><trkpt lat="44.1373067" lon="10.3291461"><ele>445.0</ele><time>2026-03-23T09:23:29.146Z</time></trkpt><trkpt lat="44.137251" lon="10.3290848"><ele>448.0</ele><time>2026-03-23T09:23:32.139Z</time></trkpt><trkpt lat="44.1371862" lon="10.3290738"><ele>451.0</ele><time>2026-03-23T09:23:35.142Z</time></trkpt><trkpt lat="44.137135" lon="10.3291573"><ele>454.0</ele><time>2026-03-23T09:23:39.143Z</time></trkpt><trkpt lat="44.1371415" lon="10.3292702"><ele>457.0</ele><time>2026-03-23T09:23:43.137Z</time></trkpt><trkpt lat="44.1371374" lon="10.3293578"><ele>460.0</ele><time>2026-03-23T09:23:46.141Z</time></trkpt><trkpt lat="44.1371273" lon="10.3294558"><ele>463.0</ele><time>2026-03-23T09:23:49.154Z</time></trkpt><trkpt lat="44.1370935" lon="10.3295603"><ele>466.0</ele><time>2026-03-23T09:23:53.149Z</time></trkpt><trkpt lat="44.1370279" lon="10.3295977"><ele>466.0</ele><time>2026-03-23T09:23:56.148Z</time></trkpt><trkpt lat="44.1369645" lon="10.3295763"><ele>466.0</ele><time>2026-03-23T09:23:59.145Z</time></trkpt><trkpt lat="44.1369074" lon="10.3295168"><ele>466.0</ele><time>2026-03-23T09:24:02.138Z</time></trkpt><trkpt lat="44.136861" lon="10.329447"><ele>466.0</ele><time>2026-03-23T09:24:05.137Z</time></trkpt><trkpt lat="44.1368155" lon="10.3293761"><ele>466.0</ele><time>2026-03-23T09:24:08.144Z</time></trkpt><trkpt lat="44.1367524" lon="10.3293074"><ele>466.0</ele><time>2026-03-23T09:24:12.136Z</time></trkpt><trkpt lat="44.1366793" lon="10.3292634"><ele>466.0</ele><time>2026-03-23T09:24:16.142Z</time></trkpt><trkpt lat="44.1366102" lon="10.329321"><ele>466.0</ele><time>2026-03-23T09:24:20.143Z</time></trkpt><trkpt lat="44.1366299" lon="10.32941"><ele>466.0</ele><time>2026-03-23T09:24:23.141Z</time></trkpt><trkpt lat="44.1366864" lon="10.3294925"><ele>466.0</ele><time>2026-03-23T09:24:26.139Z</time></trkpt><trkpt lat="44.1367334" lon="10.3295523"><ele>466.0</ele><time>2026-03-23T09:24:28.145Z</time></trkpt><trkpt lat="44.1367811" lon="10.3296182"><ele>466.0</ele><time>2026-03-23T09:24:30.153Z</time></trkpt><trkpt lat="44.1368214" lon="10.3296902"><ele>466.0</ele><time>2026-03-23T09:24:32.147Z</time></trkpt><trkpt lat="44.1368572" lon="10.3297692"><ele>466.0</ele><time>2026-03-23T09:24:34.15Z</time></trkpt><trkpt lat="44.1368906" lon="10.3298626"><ele>467.50000000000006</ele><time>2026-03-23T09:24:36.149Z</time></trkpt><trkpt lat="44.1369182" lon="10.3299556"><ele>469.0</ele><time>2026-03-23T09:24:38.14Z</time></trkpt><trkpt lat="44.1369465" lon="10.3300469"><ele>470.5</ele><time>2026-03-23T09:24:40.148Z</time></trkpt><trkpt lat="44.1369691" lon="10.3301405"><ele>472.0</ele><time>2026-03-23T09:24:42.152Z</time></trkpt><trkpt lat="44.1369916" lon="10.3302381"><ele>473.50000000000006</ele><time>2026-03-23T09:24:44.149Z</time></trkpt><trkpt lat="44.1370193" lon="10.3303443"><ele>475.0</ele><time>2026-03-23T09:24:46.139Z</time></trkpt><trkpt lat="44.1370414" lon="10.3304566"><ele>477.1666666666667</ele><time>2026-03-23T09:24:48.145Z</time></trkpt><trkpt lat="44.1370554" lon="10.3305674"><ele>479.33333333333337</ele><time>2026-03-23T09:24:50.144Z</time></trkpt><trkpt lat="44.1370621" lon="10.3306822"><ele>481.5</ele><time>2026-03-23T09:24:52.144Z</time></trkpt><trkpt lat="44.1370664" lon="10.330798"><ele>483.66666666666663</ele><time>2026-03-23T09:24:54.152Z</time></trkpt><trkpt lat="44.1370603" lon="10.3309162"><ele>485.8333333333333</ele><time>2026-03-23T09:24:56.138Z</time></trkpt><trkpt lat="44.1370548" lon="10.3310376"><ele>488.0</ele><time>2026-03-23T09:24:58.156Z</time></trkpt><trkpt lat="44.1370508" lon="10.3311588"><ele>488.0</ele><time>2026-03-23T09:25:00.143Z</time></trkpt><trkpt lat="44.137052" lon="10.3312813"><ele>487.99999999999994</ele><time>2026-03-23T09:25:02.135Z</time></trkpt><trkpt lat="44.1370514" lon="10.3314076"><ele>487.99999999999994</ele><time>2026-03-23T09:25:04.134Z</time></trkpt><trkpt lat="44.1370633" lon="10.3315414"><ele>488.0</ele><time>2026-03-23T09:25:06.139Z</time></trkpt><trkpt lat="44.137086" lon="10.3316677"><ele>488.0</ele><time>2026-03-23T09:25:08.139Z</time></trkpt><trkpt lat="44.1371155" lon="10.3317882"><ele>491.2</ele><time>2026-03-23T09:25:10.131Z</time></trkpt><trkpt lat="44.1371536" lon="10.3319061"><ele>494.4</ele><time>2026-03-23T09:25:12.136Z</time></trkpt><trkpt lat="44.1371994" lon="10.3320232"><ele>497.59999999999997</ele><time>2026-03-23T09:25:14.138Z</time></trkpt><trkpt lat="44.137253" lon="10.3321281"><ele>500.79999999999995</ele><time>2026-03-23T09:25:16.139Z</time></trkpt><trkpt lat="44.1373023" lon="10.3322415"><ele>504.0</ele><time>2026-03-23T09:25:18.145Z</time></trkpt><trkpt lat="44.1373511" lon="10.3323583"><ele>497.6</ele><time>2026-03-23T09:25:20.138Z</time></trkpt><trkpt lat="44.1374076" lon="10.3324699"><ele>491.2</ele><time>2026-03-23T09:25:22.15Z</time></trkpt><trkpt lat="44.1374652" lon="10.332584"><ele>484.80000000000007</ele><time>2026-03-23T09:25:24.14Z</time></trkpt><trkpt lat="44.1375186" lon="10.332697"><ele>478.40000000000003</ele><time>2026-03-23T09:25:26.142Z</time></trkpt><trkpt lat="44.1375696" lon="10.332814"><ele>472.0</ele><time>2026-03-23T09:25:28.143Z</time></trkpt><trkpt lat="44.1376242" lon="10.3329336"><ele>472.0</ele><time>2026-03-23T09:25:30.14Z</time></trkpt><trkpt lat="44.1376788" lon="10.3330477"><ele>472.00000000000006</ele><time>2026-03-23T09:25:32.142Z</time></trkpt><trkpt lat="44.1377356" lon="10.3331634"><ele>472.00000000000006</ele><time>2026-03-23T09:25:34.145Z</time></trkpt><trkpt lat="44.1377894" lon="10.3332853"><ele>472.0</ele><time>2026-03-23T09:25:36.139Z</time></trkpt><trkpt lat="44.1378427" lon="10.3334081"><ele>472.0</ele><time>2026-03-23T09:25:38.147Z</time></trkpt><trkpt lat="44.1378942" lon="10.3335296"><ele>476.40000000000003</ele><time>2026-03-23T09:25:40.144Z</time></trkpt><trkpt lat="44.1379482" lon="10.333655"><ele>480.80000000000007</ele><time>2026-03-23T09:25:42.14Z</time></trkpt><trkpt lat="44.1379955" lon="10.3337833"><ele>485.2</ele><time>2026-03-23T09:25:44.14Z</time></trkpt><trkpt lat="44.1380364" lon="10.3339223"><ele>489.6</ele><time>2026-03-23T09:25:46.142Z</time></trkpt><trkpt lat="44.1380641" lon="10.3340628"><ele>494.0</ele><time>2026-03-23T09:25:48.142Z</time></trkpt><trkpt lat="44.1380786" lon="10.3342113"><ele>497.2</ele><time>2026-03-23T09:25:50.141Z</time></trkpt><trkpt lat="44.138094" lon="10.3343565"><ele>500.4</ele><time>2026-03-23T09:25:52.146Z</time></trkpt><trkpt lat="44.1381273" lon="10.3345006"><ele>503.6</ele><time>2026-03-23T09:25:54.143Z</time></trkpt><trkpt lat="44.1381778" lon="10.3346344"><ele>506.8</ele><time>2026-03-23T09:25:56.152Z</time></trkpt><trkpt lat="44.1382397" lon="10.3347604"><ele>510.0</ele><time>2026-03-23T09:25:58.149Z</time></trkpt><trkpt lat="44.1383109" lon="10.3348784"><ele>503.2</ele><time>2026-03-23T09:26:00.14Z</time></trkpt><trkpt lat="44.1383829" lon="10.3349828"><ele>496.4</ele><time>2026-03-23T09:26:02.137Z</time></trkpt><trkpt lat="44.1384489" lon="10.335095"><ele>489.6</ele><time>2026-03-23T09:26:04.15Z</time></trkpt><trkpt lat="44.1385112" lon="10.3352151"><ele>482.8</ele><time>2026-03-23T09:26:06.138Z</time></trkpt><trkpt lat="44.1385588" lon="10.3353419"><ele>476.0</ele><time>2026-03-23T09:26:08.139Z</time></trkpt><trkpt lat="44.1386189" lon="10.3354731"><ele>480.6</ele><time>2026-03-23T09:26:10.143Z</time></trkpt><trkpt lat="44.1386662" lon="10.3356059"><ele>485.20000000000005</ele><time>2026-03-23T09:26:12.16Z</time></trkpt><trkpt lat="44.1387005" lon="10.3357457"><ele>489.79999999999995</ele><time>2026-03-23T09:26:14.157Z</time></trkpt><trkpt lat="44.1387327" lon="10.3358873"><ele>494.4</ele><time>2026-03-23T09:26:16.168Z</time></trkpt><trkpt lat="44.1387614" lon="10.336037"><ele>499.0</ele><time>2026-03-23T09:26:18.152Z</time></trkpt><trkpt lat="44.1387854" lon="10.3361791"><ele>499.0</ele><time>2026-03-23T09:26:20.145Z</time></trkpt><trkpt lat="44.1387972" lon="10.3363268"><ele>499.0</ele><time>2026-03-23T09:26:22.143Z</time></trkpt><trkpt lat="44.1388026" lon="10.3364777"><ele>499.0</ele><time>2026-03-23T09:26:24.159Z</time></trkpt><trkpt lat="44.1388038" lon="10.336621"><ele>499.0</ele><time>2026-03-23T09:26:26.148Z</time></trkpt><trkpt lat="44.1388061" lon="10.3367792"><ele>499.0</ele><time>2026-03-23T09:26:28.162Z</time></trkpt><trkpt lat="44.1387956" lon="10.336932"><ele>500.4</ele><time>2026-03-23T09:26:30.145Z</time></trkpt><trkpt lat="44.1387895" lon="10.3370822"><ele>501.79999999999995</ele><time>2026-03-23T09:26:32.14Z</time></trkpt><trkpt lat="44.1387899" lon="10.337234"><ele>503.20000000000005</ele><time>2026-03-23T09:26:34.145Z</time></trkpt><trkpt lat="44.1387785" lon="10.3373809"><ele>504.6</ele><time>2026-03-23T09:26:36.145Z</time></trkpt><trkpt lat="44.1387659" lon="10.3375277"><ele>506.0</ele><time>2026-03-23T09:26:38.155Z</time></trkpt><trkpt lat="44.1387529" lon="10.3376773"><ele>506.0</ele><time>2026-03-23T09:26:40.175Z</time></trkpt><trkpt lat="44.1387303" lon="10.3378232"><ele>506.0</ele><time>2026-03-23T09:26:42.163Z</time></trkpt><trkpt lat="44.1387042" lon="10.3379653"><ele>506.0</ele><time>2026-03-23T09:26:44.141Z</time></trkpt><trkpt lat="44.138662" lon="10.3381132"><ele>506.0</ele><time>2026-03-23T09:26:46.147Z</time></trkpt><trkpt lat="44.1386498" lon="10.3382551"><ele>506.0</ele><time>2026-03-23T09:26:48.15Z</time></trkpt><trkpt lat="44.1386591" lon="10.3384073"><ele>504.6</ele><time>2026-03-23T09:26:50.142Z</time></trkpt><trkpt lat="44.1386949" lon="10.3385486"><ele>503.20000000000005</ele><time>2026-03-23T09:26:52.16Z</time></trkpt><trkpt lat="44.1387438" lon="10.338684"><ele>501.79999999999995</ele><time>2026-03-23T09:26:54.155Z</time></trkpt><trkpt lat="44.1387982" lon="10.3388078"><ele>500.4</ele><time>2026-03-23T09:26:56.156Z</time></trkpt><trkpt lat="44.1388517" lon="10.3389306"><ele>499.0</ele><time>2026-03-23T09:26:58.17Z</time></trkpt><trkpt lat="44.1388888" lon="10.3390672"><ele>501.79999999999995</ele><time>2026-03-23T09:27:00.144Z</time></trkpt><trkpt lat="44.1389201" lon="10.3392063"><ele>504.59999999999997</ele><time>2026-03-23T09:27:02.151Z</time></trkpt><trkpt lat="44.1389534" lon="10.3393444"><ele>507.4</ele><time>2026-03-23T09:27:04.141Z</time></trkpt><trkpt lat="44.1389909" lon="10.3394785"><ele>510.2</ele><time>2026-03-23T09:27:06.155Z</time></trkpt><trkpt lat="44.1390164" lon="10.3396239"><ele>513.0</ele><time>2026-03-23T09:27:08.149Z</time></trkpt><trkpt lat="44.1390075" lon="10.3397679"><ele>513.0</ele><time>2026-03-23T09:27:10.146Z</time></trkpt><trkpt lat="44.1389934" lon="10.3399166"><ele>513.0</ele><time>2026-03-23T09:27:12.14Z</time></trkpt><trkpt lat="44.1389665" lon="10.3400421"><ele>513.0</ele><time>2026-03-23T09:27:14.144Z</time></trkpt><trkpt lat="44.1389197" lon="10.3401745"><ele>513.0</ele><time>2026-03-23T09:27:16.139Z</time></trkpt><trkpt lat="44.1388451" lon="10.3402876"><ele>513.0</ele><time>2026-03-23T09:27:18.151Z</time></trkpt><trkpt lat="44.1387719" lon="10.3403969"><ele>513.0</ele><time>2026-03-23T09:27:20.154Z</time></trkpt><trkpt lat="44.138704" lon="10.3405003"><ele>513.0</ele><time>2026-03-23T09:27:22.143Z</time></trkpt><trkpt lat="44.1386387" lon="10.3406124"><ele>513.0</ele><time>2026-03-23T09:27:24.158Z</time></trkpt><trkpt lat="44.13858" lon="10.3407377"><ele>513.0</ele><time>2026-03-23T09:27:26.148Z</time></trkpt><trkpt lat="44.1385628" lon="10.3408853"><ele>513.0</ele><time>2026-03-23T09:27:28.14Z</time></trkpt><trkpt lat="44.1385872" lon="10.3410399"><ele>509.0</ele><time>2026-03-23T09:27:30.146Z</time></trkpt><trkpt lat="44.1386305" lon="10.3411616"><ele>504.99999999999994</ele><time>2026-03-23T09:27:32.147Z</time></trkpt><trkpt lat="44.1386924" lon="10.3412782"><ele>500.99999999999994</ele><time>2026-03-23T09:27:34.145Z</time></trkpt><trkpt lat="44.1387558" lon="10.3414014"><ele>497.0</ele><time>2026-03-23T09:27:36.147Z</time></trkpt><trkpt lat="44.1388222" lon="10.3415204"><ele>493.0</ele><time>2026-03-23T09:27:38.144Z</time></trkpt><trkpt lat="44.1388957" lon="10.3416426"><ele>491.79999999999995</ele><time>2026-03-23T09:27:40.144Z</time></trkpt><trkpt lat="44.138969" lon="10.3417663"><ele>490.59999999999997</ele><time>2026-03-23T09:27:42.143Z</time></trkpt><trkpt lat="44.1390396" lon="10.341882"><ele>489.40000000000003</ele><time>2026-03-23T09:27:44.148Z</time></trkpt><trkpt lat="44.1391089" lon="10.3420019"><ele>488.20000000000005</ele><time>2026-03-23T09:27:46.138Z</time></trkpt><trkpt lat="44.1391645" lon="10.3421093"><ele>487.0</ele><time>2026-03-23T09:27:48.152Z</time></trkpt><trkpt lat="44.1392103" lon="10.3422307"><ele>484.20000000000005</ele><time>2026-03-23T09:27:50.148Z</time></trkpt><trkpt lat="44.1392537" lon="10.3423753"><ele>481.40000000000003</ele><time>2026-03-23T09:27:52.153Z</time></trkpt><trkpt lat="44.1392737" lon="10.3425135"><ele>478.59999999999997</ele><time>2026-03-23T09:27:54.144Z</time></trkpt><trkpt lat="44.1392815" lon="10.3426539"><ele>475.79999999999995</ele><time>2026-03-23T09:27:56.147Z</time></trkpt><trkpt lat="44.1392772" lon="10.3427986"><ele>473.0</ele><time>2026-03-23T09:27:58.159Z</time></trkpt><trkpt lat="44.1392656" lon="10.3429245"><ele>473.0</ele><time>2026-03-23T09:28:00.151Z</time></trkpt><trkpt lat="44.1392377" lon="10.3430579"><ele>472.99999999999994</ele><time>2026-03-23T09:28:02.139Z</time></trkpt><trkpt lat="44.1392014" lon="10.3431854"><ele>472.99999999999994</ele><time>2026-03-23T09:28:04.148Z</time></trkpt><trkpt lat="44.1391738" lon="10.343304"><ele>473.0</ele><time>2026-03-23T09:28:06.146Z</time></trkpt><trkpt lat="44.1391367" lon="10.3434145"><ele>473.0</ele><time>2026-03-23T09:28:08.141Z</time></trkpt><trkpt lat="44.1391033" lon="10.3435323"><ele>472.99999999999994</ele><time>2026-03-23T09:28:10.148Z</time></trkpt><trkpt lat="44.1390691" lon="10.3436419"><ele>473.0</ele><time>2026-03-23T09:28:12.138Z</time></trkpt><trkpt lat="44.1390392" lon="10.3437598"><ele>473.0</ele><time>2026-03-23T09:28:14.145Z</time></trkpt><trkpt lat="44.1390021" lon="10.3438844"><ele>473.0</ele><time>2026-03-23T09:28:16.14Z</time></trkpt><trkpt lat="44.1389794" lon="10.3439938"><ele>472.99999999999994</ele><time>2026-03-23T09:28:18.145Z</time></trkpt><trkpt lat="44.1389569" lon="10.3441171"><ele>473.0</ele><time>2026-03-23T09:28:20.143Z</time></trkpt><trkpt lat="44.1389616" lon="10.3442488"><ele>473.0</ele><time>2026-03-23T09:28:22.153Z</time></trkpt><trkpt lat="44.13899" lon="10.3443777"><ele>472.99999999999994</ele><time>2026-03-23T09:28:24.158Z</time></trkpt><trkpt lat="44.1390375" lon="10.3444951"><ele>472.99999999999994</ele><time>2026-03-23T09:28:26.141Z</time></trkpt><trkpt lat="44.1390897" lon="10.3445968"><ele>473.0</ele><time>2026-03-23T09:28:28.139Z</time></trkpt><trkpt lat="44.1391422" lon="10.344688"><ele>473.0</ele><time>2026-03-23T09:28:30.15Z</time></trkpt><trkpt lat="44.1392038" lon="10.3447974"><ele>473.79999999999995</ele><time>2026-03-23T09:28:32.147Z</time></trkpt><trkpt lat="44.139263" lon="10.3449064"><ele>474.59999999999997</ele><time>2026-03-23T09:28:34.143Z</time></trkpt><trkpt lat="44.1393182" lon="10.3450079"><ele>475.40000000000003</ele><time>2026-03-23T09:28:36.148Z</time></trkpt><trkpt lat="44.1393765" lon="10.345107"><ele>476.20000000000005</ele><time>2026-03-23T09:28:38.147Z</time></trkpt><trkpt lat="44.1394421" lon="10.3452037"><ele>477.0</ele><time>2026-03-23T09:28:40.154Z</time></trkpt><trkpt lat="44.1394948" lon="10.3453043"><ele>477.0</ele><time>2026-03-23T09:28:42.155Z</time></trkpt><trkpt lat="44.1395506" lon="10.3454005"><ele>477.00000000000006</ele><time>2026-03-23T09:28:44.146Z</time></trkpt><trkpt lat="44.1396118" lon="10.3455078"><ele>477.00000000000006</ele><time>2026-03-23T09:28:46.159Z</time></trkpt><trkpt lat="44.1396856" lon="10.3455981"><ele>477.0</ele><time>2026-03-23T09:28:48.138Z</time></trkpt><trkpt lat="44.1397622" lon="10.345668"><ele>477.0</ele><time>2026-03-23T09:28:50.142Z</time></trkpt><trkpt lat="44.1398548" lon="10.3457251"><ele>477.8</ele><time>2026-03-23T09:28:52.173Z</time></trkpt><trkpt lat="44.1399475" lon="10.3457817"><ele>478.6</ele><time>2026-03-23T09:28:54.143Z</time></trkpt><trkpt lat="44.1400395" lon="10.3458284"><ele>479.40000000000003</ele><time>2026-03-23T09:28:56.154Z</time></trkpt><trkpt lat="44.1401348" lon="10.3459006"><ele>480.20000000000005</ele><time>2026-03-23T09:28:58.154Z</time></trkpt><trkpt lat="44.1402388" lon="10.3459626"><ele>481.0</ele><time>2026-03-23T09:29:00.151Z</time></trkpt><trkpt lat="44.140338" lon="10.3460148"><ele>481.0</ele><time>2026-03-23T09:29:02.163Z</time></trkpt><trkpt lat="44.1404417" lon="10.3460698"><ele>481.0</ele><time>2026-03-23T09:29:04.154Z</time></trkpt><trkpt lat="44.140531" lon="10.3461532"><ele>481.0</ele><time>2026-03-23T09:29:06.138Z</time></trkpt><trkpt lat="44.1406163" lon="10.3462547"><ele>481.0</ele><time>2026-03-23T09:29:08.151Z</time></trkpt><trkpt lat="44.1406967" lon="10.346367"><ele>481.0</ele><time>2026-03-23T09:29:10.159Z</time></trkpt><trkpt lat="44.1407632" lon="10.3464858"><ele>479.4</ele><time>2026-03-23T09:29:12.144Z</time></trkpt><trkpt lat="44.1408167" lon="10.3466138"><ele>477.8</ele><time>2026-03-23T09:29:14.15Z</time></trkpt><trkpt lat="44.1408655" lon="10.3467575"><ele>476.19999999999993</ele><time>2026-03-23T09:29:16.139Z</time></trkpt><trkpt lat="44.1409113" lon="10.3468982"><ele>474.59999999999997</ele><time>2026-03-23T09:29:18.152Z</time></trkpt><trkpt lat="44.1409634" lon="10.3470357"><ele>473.0</ele><time>2026-03-23T09:29:20.149Z</time></trkpt><trkpt lat="44.1410193" lon="10.3471828"><ele>477.0</ele><time>2026-03-23T09:29:22.149Z</time></trkpt><trkpt lat="44.1410764" lon="10.347324"><ele>480.99999999999994</ele><time>2026-03-23T09:29:24.146Z</time></trkpt><trkpt lat="44.1411263" lon="10.3474587"><ele>484.99999999999994</ele><time>2026-03-23T09:29:26.155Z</time></trkpt><trkpt lat="44.141178" lon="10.3475922"><ele>489.0</ele><time>2026-03-23T09:29:28.138Z</time></trkpt><trkpt lat="44.1412331" lon="10.3477255"><ele>493.0</ele><time>2026-03-23T09:29:30.155Z</time></trkpt><trkpt lat="44.1412929" lon="10.3478589"><ele>493.0</ele><time>2026-03-23T09:29:32.139Z</time></trkpt><trkpt lat="44.141368" lon="10.3479788"><ele>493.0</ele><time>2026-03-23T09:29:34.144Z</time></trkpt><trkpt lat="44.1414479" lon="10.3480868"><ele>493.0</ele><time>2026-03-23T09:29:36.15Z</time></trkpt><trkpt lat="44.141528" lon="10.3481921"><ele>493.0</ele><time>2026-03-23T09:29:38.159Z</time></trkpt><trkpt lat="44.1416149" lon="10.3483012"><ele>490.0</ele><time>2026-03-23T09:29:40.145Z</time></trkpt><trkpt lat="44.1416901" lon="10.34842"><ele>487.0</ele><time>2026-03-23T09:29:42.151Z</time></trkpt><trkpt lat="44.1417721" lon="10.3485373"><ele>484.0</ele><time>2026-03-23T09:29:44.152Z</time></trkpt><trkpt lat="44.1418505" lon="10.3486598"><ele>481.0</ele><time>2026-03-23T09:29:46.146Z</time></trkpt><trkpt lat="44.1419377" lon="10.3487667"><ele>486.0</ele><time>2026-03-23T09:29:48.142Z</time></trkpt><trkpt lat="44.1420168" lon="10.3488851"><ele>491.0</ele><time>2026-03-23T09:29:50.147Z</time></trkpt><trkpt lat="44.1420926" lon="10.3489958"><ele>496.0</ele><time>2026-03-23T09:29:52.147Z</time></trkpt><trkpt lat="44.1421723" lon="10.3490932"><ele>501.0</ele><time>2026-03-23T09:29:54.142Z</time></trkpt><trkpt lat="44.1422557" lon="10.3491967"><ele>506.0</ele><time>2026-03-23T09:29:56.15Z</time></trkpt><trkpt lat="44.1423126" lon="10.3492456"><ele>499.20000000000005</ele><time>2026-03-23T09:29:57.148Z</time></trkpt><trkpt lat="44.1424048" lon="10.3493136"><ele>492.40000000000003</ele><time>2026-03-23T09:29:59.154Z</time></trkpt><trkpt lat="44.1425126" lon="10.3493805"><ele>485.6</ele><time>2026-03-23T09:30:01.15Z</time></trkpt><trkpt lat="44.1426096" lon="10.3494264"><ele>478.8</ele><time>2026-03-23T09:30:03.156Z</time></trkpt><trkpt lat="44.1427038" lon="10.3494745"><ele>472.0</ele><time>2026-03-23T09:30:05.152Z</time></trkpt><trkpt lat="44.1428086" lon="10.3495307"><ele>472.0</ele><time>2026-03-23T09:30:07.141Z</time></trkpt><trkpt lat="44.142911" lon="10.3495968"><ele>472.0</ele><time>2026-03-23T09:30:09.149Z</time></trkpt><trkpt lat="44.143005" lon="10.349662"><ele>472.0</ele><time>2026-03-23T09:30:11.141Z</time></trkpt><trkpt lat="44.1431055" lon="10.3497522"><ele>472.0</ele><time>2026-03-23T09:30:13.142Z</time></trkpt><trkpt lat="44.1432055" lon="10.3498502"><ele>471.8</ele><time>2026-03-23T09:30:15.15Z</time></trkpt><trkpt lat="44.1432953" lon="10.3499345"><ele>471.6</ele><time>2026-03-23T09:30:17.151Z</time></trkpt><trkpt lat="44.1433878" lon="10.3500127"><ele>471.40000000000003</ele><time>2026-03-23T09:30:19.144Z</time></trkpt><trkpt lat="44.1434805" lon="10.3500947"><ele>471.20000000000005</ele><time>2026-03-23T09:30:21.156Z</time></trkpt><trkpt lat="44.1435727" lon="10.3501835"><ele>471.0</ele><time>2026-03-23T09:30:23.151Z</time></trkpt><trkpt lat="44.1436615" lon="10.3503012"><ele>471.0</ele><time>2026-03-23T09:30:25.159Z</time></trkpt><trkpt lat="44.1437316" lon="10.3504248"><ele>471.0</ele><time>2026-03-23T09:30:27.151Z</time></trkpt><trkpt lat="44.1437915" lon="10.3505519"><ele>471.0</ele><time>2026-03-23T09:30:29.148Z</time></trkpt><trkpt lat="44.1438531" lon="10.3506836"><ele>471.0</ele><time>2026-03-23T09:30:31.146Z</time></trkpt><trkpt lat="44.1439242" lon="10.3508107"><ele>473.20000000000005</ele><time>2026-03-23T09:30:33.151Z</time></trkpt><trkpt lat="44.1439788" lon="10.3509496"><ele>475.40000000000003</ele><time>2026-03-23T09:30:35.149Z</time></trkpt><trkpt lat="44.1440321" lon="10.3510729"><ele>477.6</ele><time>2026-03-23T09:30:37.145Z</time></trkpt><trkpt lat="44.1440908" lon="10.3512053"><ele>479.8</ele><time>2026-03-23T09:30:39.15Z</time></trkpt><trkpt lat="44.1441553" lon="10.3513318"><ele>482.0</ele><time>2026-03-23T09:30:41.153Z</time></trkpt><trkpt lat="44.1442477" lon="10.3514387"><ele>482.0</ele><time>2026-03-23T09:30:43.146Z</time></trkpt><trkpt lat="44.1443333" lon="10.351537"><ele>482.00000000000006</ele><time>2026-03-23T09:30:45.14Z</time></trkpt><trkpt lat="44.1444141" lon="10.3516416"><ele>482.00000000000006</ele><time>2026-03-23T09:30:47.154Z</time></trkpt><trkpt lat="44.1445051" lon="10.3517478"><ele>482.0</ele><time>2026-03-23T09:30:49.138Z</time></trkpt><trkpt lat="44.1445803" lon="10.3518528"><ele>482.0</ele><time>2026-03-23T09:30:51.145Z</time></trkpt><trkpt lat="44.1446599" lon="10.3519756"><ele>482.0</ele><time>2026-03-23T09:30:53.145Z</time></trkpt><trkpt lat="44.1447403" lon="10.3521196"><ele>482.00000000000006</ele><time>2026-03-23T09:30:55.157Z</time></trkpt><trkpt lat="44.1447738" lon="10.3521939"><ele>482.00000000000006</ele><time>2026-03-23T09:30:56.15Z</time></trkpt><trkpt lat="44.144837" lon="10.3523299"><ele>482.0</ele><time>2026-03-23T09:30:58.145Z</time></trkpt><trkpt lat="44.144912" lon="10.3524597"><ele>482.0</ele><time>2026-03-23T09:31:00.15Z</time></trkpt><trkpt lat="44.1449985" lon="10.3525516"><ele>477.8</ele><time>2026-03-23T09:31:02.155Z</time></trkpt><trkpt lat="44.1450935" lon="10.3526217"><ele>473.6</ele><time>2026-03-23T09:31:04.147Z</time></trkpt><trkpt lat="44.1451937" lon="10.3526875"><ele>469.40000000000003</ele><time>2026-03-23T09:31:06.151Z</time></trkpt><trkpt lat="44.1452901" lon="10.3527609"><ele>465.20000000000005</ele><time>2026-03-23T09:31:08.148Z</time></trkpt><trkpt lat="44.1453928" lon="10.3528299"><ele>461.0</ele><time>2026-03-23T09:31:10.151Z</time></trkpt><trkpt lat="44.1454951" lon="10.3529009"><ele>461.0</ele><time>2026-03-23T09:31:12.15Z</time></trkpt><trkpt lat="44.1455865" lon="10.3529629"><ele>461.0</ele><time>2026-03-23T09:31:14.143Z</time></trkpt><trkpt lat="44.1456757" lon="10.3530245"><ele>461.0</ele><time>2026-03-23T09:31:16.139Z</time></trkpt><trkpt lat="44.1457693" lon="10.3530822"><ele>461.0</ele><time>2026-03-23T09:31:18.153Z</time></trkpt><trkpt lat="44.1458695" lon="10.3531234"><ele>461.0</ele><time>2026-03-23T09:31:20.169Z</time></trkpt><trkpt lat="44.1459672" lon="10.3531547"><ele>461.4</ele><time>2026-03-23T09:31:22.155Z</time></trkpt><trkpt lat="44.1460639" lon="10.3531713"><ele>461.8</ele><time>2026-03-23T09:31:24.148Z</time></trkpt><trkpt lat="44.1461551" lon="10.3531975"><ele>462.19999999999993</ele><time>2026-03-23T09:31:26.158Z</time></trkpt><trkpt lat="44.1462432" lon="10.3532278"><ele>462.59999999999997</ele><time>2026-03-23T09:31:28.143Z</time></trkpt><trkpt lat="44.1463314" lon="10.3532372"><ele>463.0</ele><time>2026-03-23T09:31:30.158Z</time></trkpt><trkpt lat="44.1464277" lon="10.3532367"><ele>463.0</ele><time>2026-03-23T09:31:32.153Z</time></trkpt><trkpt lat="44.1465301" lon="10.3532373"><ele>462.99999999999994</ele><time>2026-03-23T09:31:34.163Z</time></trkpt><trkpt lat="44.1466377" lon="10.3532795"><ele>462.99999999999994</ele><time>2026-03-23T09:31:36.154Z</time></trkpt><trkpt lat="44.1467378" lon="10.3533609"><ele>463.0</ele><time>2026-03-23T09:31:38.156Z</time></trkpt><trkpt lat="44.1468114" lon="10.3534625"><ele>463.0</ele><time>2026-03-23T09:31:40.15Z</time></trkpt><trkpt lat="44.146882" lon="10.3535352"><ele>461.6666666666667</ele><time>2026-03-23T09:31:42.159Z</time></trkpt><trkpt lat="44.1469525" lon="10.3535486"><ele>460.33333333333337</ele><time>2026-03-23T09:31:44.148Z</time></trkpt><trkpt lat="44.1470354" lon="10.3535605"><ele>459.0</ele><time>2026-03-23T09:31:46.146Z</time></trkpt><trkpt lat="44.147119" lon="10.3535368"><ele>457.66666666666663</ele><time>2026-03-23T09:31:48.143Z</time></trkpt><trkpt lat="44.1471966" lon="10.3535107"><ele>456.3333333333333</ele><time>2026-03-23T09:31:50.147Z</time></trkpt><trkpt lat="44.1472643" lon="10.353481"><ele>455.0</ele><time>2026-03-23T09:31:52.138Z</time></trkpt><trkpt lat="44.1473445" lon="10.3534581"><ele>454.99999999999994</ele><time>2026-03-23T09:31:54.141Z</time></trkpt><trkpt lat="44.1474202" lon="10.353441"><ele>455.0</ele><time>2026-03-23T09:31:56.17Z</time></trkpt><trkpt lat="44.1474913" lon="10.3534344"><ele>455.0</ele><time>2026-03-23T09:31:58.138Z</time></trkpt><trkpt lat="44.1475632" lon="10.353434"><ele>455.0</ele><time>2026-03-23T09:32:00.147Z</time></trkpt><trkpt lat="44.1476638" lon="10.3534611"><ele>454.99999999999994</ele><time>2026-03-23T09:32:03.149Z</time></trkpt><trkpt lat="44.147738" lon="10.3534864"><ele>455.0</ele><time>2026-03-23T09:32:05.147Z</time></trkpt><trkpt lat="44.1478103" lon="10.3535177"><ele>454.99999999999994</ele><time>2026-03-23T09:32:07.155Z</time></trkpt><trkpt lat="44.1478951" lon="10.3535589"><ele>455.0</ele><time>2026-03-23T09:32:10.142Z</time></trkpt><trkpt lat="44.1479614" lon="10.3535942"><ele>455.0</ele><time>2026-03-23T09:32:13.156Z</time></trkpt><trkpt lat="44.1480129" lon="10.353658"><ele>455.0</ele><time>2026-03-23T09:32:16.151Z</time></trkpt><trkpt lat="44.1480526" lon="10.3537313"><ele>454.99999999999994</ele><time>2026-03-23T09:32:19.145Z</time></trkpt><trkpt lat="44.1480391" lon="10.3538574"><ele>455.0</ele><time>2026-03-23T09:32:22.154Z</time></trkpt><trkpt lat="44.1479725" lon="10.3539394"><ele>454.16666666666663</ele><time>2026-03-23T09:32:24.141Z</time></trkpt><trkpt lat="44.1478543" lon="10.3539584"><ele>453.3333333333333</ele><time>2026-03-23T09:32:26.147Z</time></trkpt><trkpt lat="44.1477859" lon="10.353942"><ele>452.5</ele><time>2026-03-23T09:32:27.151Z</time></trkpt><trkpt lat="44.1477155" lon="10.3539353"><ele>451.66666666666663</ele><time>2026-03-23T09:32:28.165Z</time></trkpt><trkpt lat="44.1476393" lon="10.3539268"><ele>450.8333333333333</ele><time>2026-03-23T09:32:29.147Z</time></trkpt><trkpt lat="44.1475646" lon="10.3539219"><ele>450.0</ele><time>2026-03-23T09:32:30.148Z</time></trkpt><trkpt lat="44.1474786" lon="10.3539435"><ele>450.0</ele><time>2026-03-23T09:32:31.15Z</time></trkpt><trkpt lat="44.1473969" lon="10.353977"><ele>450.0</ele><time>2026-03-23T09:32:32.142Z</time></trkpt><trkpt lat="44.14732" lon="10.3540149"><ele>450.0</ele><time>2026-03-23T09:32:33.138Z</time></trkpt><trkpt lat="44.1472387" lon="10.3540645"><ele>450.0</ele><time>2026-03-23T09:32:34.139Z</time></trkpt><trkpt lat="44.1471574" lon="10.3541167"><ele>450.0</ele><time>2026-03-23T09:32:35.142Z</time></trkpt><trkpt lat="44.1470923" lon="10.3541566"><ele>450.0</ele><time>2026-03-23T09:32:36.142Z</time></trkpt><trkpt lat="44.1470001" lon="10.3542337"><ele>450.2</ele><time>2026-03-23T09:32:37.153Z</time></trkpt><trkpt lat="44.1469249" lon="10.3543024"><ele>450.4</ele><time>2026-03-23T09:32:38.146Z</time></trkpt><trkpt lat="44.1468474" lon="10.354369"><ele>450.6</ele><time>2026-03-23T09:32:39.152Z</time></trkpt><trkpt lat="44.146763" lon="10.354442"><ele>450.8</ele><time>2026-03-23T09:32:40.154Z</time></trkpt><trkpt lat="44.146677" lon="10.3545182"><ele>451.0</ele><time>2026-03-23T09:32:41.142Z</time></trkpt><trkpt lat="44.1465942" lon="10.3546091"><ele>451.4</ele><time>2026-03-23T09:32:42.152Z</time></trkpt><trkpt lat="44.1465271" lon="10.3547218"><ele>451.8</ele><time>2026-03-23T09:32:43.156Z</time></trkpt><trkpt lat="44.1464777" lon="10.3548454"><ele>452.19999999999993</ele><time>2026-03-23T09:32:44.149Z</time></trkpt><trkpt lat="44.1464337" lon="10.3549828"><ele>452.59999999999997</ele><time>2026-03-23T09:32:45.144Z</time></trkpt><trkpt lat="44.1463887" lon="10.3551152"><ele>453.0</ele><time>2026-03-23T09:32:46.144Z</time></trkpt><trkpt lat="44.1463377" lon="10.3552518"><ele>453.0</ele><time>2026-03-23T09:32:47.145Z</time></trkpt><trkpt lat="44.1462809" lon="10.3553891"><ele>452.99999999999994</ele><time>2026-03-23T09:32:48.143Z</time></trkpt><trkpt lat="44.1462203" lon="10.3555191"><ele>452.99999999999994</ele><time>2026-03-23T09:32:49.149Z</time></trkpt><trkpt lat="44.146159" lon="10.3556448"><ele>453.0</ele><time>2026-03-23T09:32:50.139Z</time></trkpt><trkpt lat="44.1460897" lon="10.3557717"><ele>453.0</ele><time>2026-03-23T09:32:51.166Z</time></trkpt><trkpt lat="44.1460222" lon="10.3558964"><ele>450.0</ele><time>2026-03-23T09:32:52.141Z</time></trkpt><trkpt lat="44.1459533" lon="10.3560306"><ele>447.0</ele><time>2026-03-23T09:32:53.144Z</time></trkpt><trkpt lat="44.1458877" lon="10.3561626"><ele>444.0</ele><time>2026-03-23T09:32:54.144Z</time></trkpt><trkpt lat="44.145823" lon="10.356294"><ele>441.0</ele><time>2026-03-23T09:32:55.138Z</time></trkpt><trkpt lat="44.1457542" lon="10.3564185"><ele>441.8</ele><time>2026-03-23T09:32:56.149Z</time></trkpt><trkpt lat="44.1456783" lon="10.3565303"><ele>442.6</ele><time>2026-03-23T09:32:57.142Z</time></trkpt><trkpt lat="44.1455895" lon="10.3566105"><ele>443.4</ele><time>2026-03-23T09:32:58.151Z</time></trkpt><trkpt lat="44.145487" lon="10.3566605"><ele>444.2</ele><time>2026-03-23T09:32:59.146Z</time></trkpt><trkpt lat="44.145381" lon="10.3566739"><ele>445.0</ele><time>2026-03-23T09:33:00.15Z</time></trkpt><trkpt lat="44.1452777" lon="10.356666"><ele>445.0</ele><time>2026-03-23T09:33:01.143Z</time></trkpt><trkpt lat="44.1451739" lon="10.3567045"><ele>445.0</ele><time>2026-03-23T09:33:02.148Z</time></trkpt><trkpt lat="44.1450901" lon="10.3567696"><ele>445.0</ele><time>2026-03-23T09:33:03.153Z</time></trkpt><trkpt lat="44.1450229" lon="10.3568698"><ele>445.0</ele><time>2026-03-23T09:33:04.146Z</time></trkpt><trkpt lat="44.1449717" lon="10.356994"><ele>445.0</ele><time>2026-03-23T09:33:05.143Z</time></trkpt><trkpt lat="44.1449193" lon="10.3571245"><ele>444.8</ele><time>2026-03-23T09:33:06.149Z</time></trkpt><trkpt lat="44.1448647" lon="10.3572593"><ele>444.6</ele><time>2026-03-23T09:33:07.155Z</time></trkpt><trkpt lat="44.1448113" lon="10.3573899"><ele>444.4</ele><time>2026-03-23T09:33:08.142Z</time></trkpt><trkpt lat="44.1447562" lon="10.3575282"><ele>444.2</ele><time>2026-03-23T09:33:09.15Z</time></trkpt><trkpt lat="44.1446997" lon="10.357655"><ele>444.0</ele><time>2026-03-23T09:33:10.154Z</time></trkpt><trkpt lat="44.1446452" lon="10.3577746"><ele>444.0</ele><time>2026-03-23T09:33:11.148Z</time></trkpt><trkpt lat="44.1445721" lon="10.3578992"><ele>444.0</ele><time>2026-03-23T09:33:12.149Z</time></trkpt><trkpt lat="44.1444901" lon="10.3580162"><ele>444.0</ele><time>2026-03-23T09:33:13.151Z</time></trkpt><trkpt lat="44.1444002" lon="10.3581281"><ele>444.0</ele><time>2026-03-23T09:33:14.152Z</time></trkpt><trkpt lat="44.144299" lon="10.3582202"><ele>442.75</ele><time>2026-03-23T09:33:15.154Z</time></trkpt><trkpt lat="44.1441921" lon="10.3583112"><ele>441.5</ele><time>2026-03-23T09:33:16.15Z</time></trkpt><trkpt lat="44.1440922" lon="10.3584043"><ele>440.25</ele><time>2026-03-23T09:33:17.148Z</time></trkpt><trkpt lat="44.1440048" lon="10.3585186"><ele>439.0</ele><time>2026-03-23T09:33:18.151Z</time></trkpt><trkpt lat="44.1439402" lon="10.3586605"><ele>439.0</ele><time>2026-03-23T09:33:19.145Z</time></trkpt><trkpt lat="44.1438863" lon="10.3588164"><ele>439.0</ele><time>2026-03-23T09:33:20.144Z</time></trkpt><trkpt lat="44.1438393" lon="10.3589816"><ele>439.0</ele><time>2026-03-23T09:33:21.143Z</time></trkpt><trkpt lat="44.1437974" lon="10.3591478"><ele>439.0</ele><time>2026-03-23T09:33:22.149Z</time></trkpt><trkpt lat="44.1437534" lon="10.3593152"><ele>435.5</ele><time>2026-03-23T09:33:23.153Z</time></trkpt><trkpt lat="44.1437096" lon="10.3594888"><ele>432.0</ele><time>2026-03-23T09:33:24.15Z</time></trkpt><trkpt lat="44.1436674" lon="10.3596596"><ele>428.5</ele><time>2026-03-23T09:33:25.143Z</time></trkpt><trkpt lat="44.1436191" lon="10.3598155"><ele>425.0</ele><time>2026-03-23T09:33:26.162Z</time></trkpt><trkpt lat="44.1435559" lon="10.3599512"><ele>426.6</ele><time>2026-03-23T09:33:27.168Z</time></trkpt><trkpt lat="44.1434934" lon="10.3600608"><ele>428.2</ele><time>2026-03-23T09:33:28.159Z</time></trkpt><trkpt lat="44.1434174" lon="10.3601338"><ele>429.79999999999995</ele><time>2026-03-23T09:33:29.159Z</time></trkpt><trkpt lat="44.1433086" lon="10.3601214"><ele>431.4</ele><time>2026-03-23T09:33:30.143Z</time></trkpt><trkpt lat="44.1432239" lon="10.3601177"><ele>433.0</ele><time>2026-03-23T09:33:31.15Z</time></trkpt><trkpt lat="44.1431498" lon="10.360122"><ele>433.00000000000006</ele><time>2026-03-23T09:33:32.142Z</time></trkpt><trkpt lat="44.1430863" lon="10.3601756"><ele>433.0</ele><time>2026-03-23T09:33:33.146Z</time></trkpt><trkpt lat="44.1430467" lon="10.3602506"><ele>433.0</ele><time>2026-03-23T09:33:34.141Z</time></trkpt><trkpt lat="44.1430144" lon="10.3603467"><ele>433.0</ele><time>2026-03-23T09:33:35.15Z</time></trkpt><trkpt lat="44.1430415" lon="10.3604421"><ele>433.00000000000006</ele><time>2026-03-23T09:33:36.153Z</time></trkpt><trkpt lat="44.1430854" lon="10.3605487"><ele>433.0</ele><time>2026-03-23T09:33:37.147Z</time></trkpt><trkpt lat="44.143089" lon="10.3606688"><ele>430.79999999999995</ele><time>2026-03-23T09:33:38.145Z</time></trkpt><trkpt lat="44.1430825" lon="10.3607852"><ele>428.59999999999997</ele><time>2026-03-23T09:33:39.15Z</time></trkpt><trkpt lat="44.1430243" lon="10.3609003"><ele>426.4</ele><time>2026-03-23T09:33:40.145Z</time></trkpt><trkpt lat="44.1429669" lon="10.3610071"><ele>424.20000000000005</ele><time>2026-03-23T09:33:41.148Z</time></trkpt><trkpt lat="44.142907" lon="10.361118"><ele>422.0</ele><time>2026-03-23T09:33:42.15Z</time></trkpt><trkpt lat="44.1428425" lon="10.3612341"><ele>422.0</ele><time>2026-03-23T09:33:43.145Z</time></trkpt><trkpt lat="44.1427779" lon="10.3613567"><ele>422.0</ele><time>2026-03-23T09:33:44.151Z</time></trkpt><trkpt lat="44.1427089" lon="10.3614796"><ele>422.0</ele><time>2026-03-23T09:33:45.147Z</time></trkpt><trkpt lat="44.1426381" lon="10.3616068"><ele>422.0</ele><time>2026-03-23T09:33:46.149Z</time></trkpt><trkpt lat="44.1425589" lon="10.3617243"><ele>420.75</ele><time>2026-03-23T09:33:47.15Z</time></trkpt><trkpt lat="44.1424786" lon="10.3618134"><ele>419.5</ele><time>2026-03-23T09:33:48.15Z</time></trkpt><trkpt lat="44.1423791" lon="10.3618882"><ele>418.25</ele><time>2026-03-23T09:33:49.155Z</time></trkpt><trkpt lat="44.1422601" lon="10.3618777"><ele>417.0</ele><time>2026-03-23T09:33:50.143Z</time></trkpt><trkpt lat="44.1421446" lon="10.3618856"><ele>417.0</ele><time>2026-03-23T09:33:51.153Z</time></trkpt><trkpt lat="44.1420278" lon="10.3619126"><ele>417.0</ele><time>2026-03-23T09:33:52.141Z</time></trkpt><trkpt lat="44.141934" lon="10.3620241"><ele>417.0</ele><time>2026-03-23T09:33:53.153Z</time></trkpt><trkpt lat="44.1418563" lon="10.3621347"><ele>417.0</ele><time>2026-03-23T09:33:54.152Z</time></trkpt><trkpt lat="44.1417921" lon="10.3622643"><ele>412.20000000000005</ele><time>2026-03-23T09:33:55.143Z</time></trkpt><trkpt lat="44.1417547" lon="10.3624089"><ele>407.4</ele><time>2026-03-23T09:33:56.158Z</time></trkpt><trkpt lat="44.1417405" lon="10.3625678"><ele>402.6</ele><time>2026-03-23T09:33:57.154Z</time></trkpt><trkpt lat="44.1417514" lon="10.3627148"><ele>397.79999999999995</ele><time>2026-03-23T09:33:58.145Z</time></trkpt><trkpt lat="44.1417579" lon="10.3628633"><ele>393.0</ele><time>2026-03-23T09:33:59.15Z</time></trkpt><trkpt lat="44.1417424" lon="10.3629977"><ele>390.79999999999995</ele><time>2026-03-23T09:34:00.171Z</time></trkpt><trkpt lat="44.1417247" lon="10.3631346"><ele>388.6</ele><time>2026-03-23T09:34:01.14Z</time></trkpt><trkpt lat="44.1416863" lon="10.3632587"><ele>386.4</ele><time>2026-03-23T09:34:02.147Z</time></trkpt><trkpt lat="44.1416275" lon="10.3633726"><ele>384.20000000000005</ele><time>2026-03-23T09:34:03.142Z</time></trkpt><trkpt lat="44.1415539" lon="10.3634755"><ele>382.0</ele><time>2026-03-23T09:34:04.149Z</time></trkpt><trkpt lat="44.1414725" lon="10.3635595"><ele>381.20000000000005</ele><time>2026-03-23T09:34:05.148Z</time></trkpt><trkpt lat="44.1413881" lon="10.3636461"><ele>380.4</ele><time>2026-03-23T09:34:06.14Z</time></trkpt><trkpt lat="44.1413008" lon="10.3637354"><ele>379.6</ele><time>2026-03-23T09:34:07.141Z</time></trkpt><trkpt lat="44.1412158" lon="10.3638285"><ele>378.79999999999995</ele><time>2026-03-23T09:34:08.15Z</time></trkpt><trkpt lat="44.1411294" lon="10.3639218"><ele>378.0</ele><time>2026-03-23T09:34:09.147Z</time></trkpt><trkpt lat="44.1410464" lon="10.3640151"><ele>378.0</ele><time>2026-03-23T09:34:10.142Z</time></trkpt><trkpt lat="44.1409646" lon="10.3641146"><ele>378.0</ele><time>2026-03-23T09:34:11.15Z</time></trkpt><trkpt lat="44.1408858" lon="10.3642114"><ele>378.0</ele><time>2026-03-23T09:34:12.148Z</time></trkpt><trkpt lat="44.140805" lon="10.3643061"><ele>378.0</ele><time>2026-03-23T09:34:13.141Z</time></trkpt><trkpt lat="44.1407257" lon="10.3644016"><ele>378.0</ele><time>2026-03-23T09:34:14.141Z</time></trkpt><trkpt lat="44.1406406" lon="10.3644978"><ele>377.2</ele><time>2026-03-23T09:34:15.151Z</time></trkpt><trkpt lat="44.1405563" lon="10.3645942"><ele>376.4</ele><time>2026-03-23T09:34:16.153Z</time></trkpt><trkpt lat="44.140474" lon="10.3646964"><ele>375.59999999999997</ele><time>2026-03-23T09:34:17.156Z</time></trkpt><trkpt lat="44.1403974" lon="10.3648015"><ele>374.79999999999995</ele><time>2026-03-23T09:34:18.14Z</time></trkpt><trkpt lat="44.1403194" lon="10.364899"><ele>374.0</ele><time>2026-03-23T09:34:19.142Z</time></trkpt><trkpt lat="44.1402417" lon="10.3649965"><ele>374.0</ele><time>2026-03-23T09:34:20.138Z</time></trkpt><trkpt lat="44.1401625" lon="10.3650948"><ele>374.0</ele><time>2026-03-23T09:34:21.159Z</time></trkpt><trkpt lat="44.1400819" lon="10.3651879"><ele>374.0</ele><time>2026-03-23T09:34:22.147Z</time></trkpt><trkpt lat="44.1400055" lon="10.3652857"><ele>374.0</ele><time>2026-03-23T09:34:23.149Z</time></trkpt><trkpt lat="44.139927" lon="10.3653772"><ele>374.0</ele><time>2026-03-23T09:34:24.153Z</time></trkpt><trkpt lat="44.1398472" lon="10.3654524"><ele>373.6666666666667</ele><time>2026-03-23T09:34:25.153Z</time></trkpt><trkpt lat="44.1397653" lon="10.3655201"><ele>373.33333333333337</ele><time>2026-03-23T09:34:26.148Z</time></trkpt><trkpt lat="44.1396895" lon="10.3655632"><ele>373.0</ele><time>2026-03-23T09:34:27.163Z</time></trkpt><trkpt lat="44.1396126" lon="10.365607"><ele>372.6666666666667</ele><time>2026-03-23T09:34:28.142Z</time></trkpt><trkpt lat="44.1395448" lon="10.365627"><ele>372.3333333333333</ele><time>2026-03-23T09:34:29.17Z</time></trkpt><trkpt lat="44.1394811" lon="10.3656446"><ele>372.0</ele><time>2026-03-23T09:34:30.171Z</time></trkpt><trkpt lat="44.1393746" lon="10.3656767"><ele>372.0</ele><time>2026-03-23T09:34:32.147Z</time></trkpt><trkpt lat="44.1392782" lon="10.365745"><ele>372.0</ele><time>2026-03-23T09:34:34.139Z</time></trkpt><trkpt lat="44.1392028" lon="10.3658376"><ele>372.0</ele><time>2026-03-23T09:34:36.153Z</time></trkpt><trkpt lat="44.1391331" lon="10.365937"><ele>372.0</ele><time>2026-03-23T09:34:38.137Z</time></trkpt><trkpt lat="44.1390657" lon="10.3660473"><ele>372.0</ele><time>2026-03-23T09:34:40.145Z</time></trkpt><trkpt lat="44.1390075" lon="10.3661454"><ele>372.0</ele><time>2026-03-23T09:34:42.151Z</time></trkpt><trkpt lat="44.1389484" lon="10.366243"><ele>372.0</ele><time>2026-03-23T09:34:44.144Z</time></trkpt><trkpt lat="44.138886" lon="10.3663256"><ele>372.0</ele><time>2026-03-23T09:34:46.159Z</time></trkpt><trkpt lat="44.1388153" lon="10.3664149"><ele>372.0</ele><time>2026-03-23T09:34:48.144Z</time></trkpt><trkpt lat="44.1387465" lon="10.3665034"><ele>372.0</ele><time>2026-03-23T09:34:50.156Z</time></trkpt><trkpt lat="44.1386776" lon="10.3665898"><ele>372.0</ele><time>2026-03-23T09:34:52.143Z</time></trkpt><trkpt lat="44.1386091" lon="10.3666771"><ele>372.0</ele><time>2026-03-23T09:34:54.158Z</time></trkpt><trkpt lat="44.1385398" lon="10.3667621"><ele>372.0</ele><time>2026-03-23T09:34:56.144Z</time></trkpt><trkpt lat="44.1384642" lon="10.3668443"><ele>372.0</ele><time>2026-03-23T09:34:58.146Z</time></trkpt><trkpt lat="44.1383748" lon="10.3669053"><ele>372.0</ele><time>2026-03-23T09:35:00.168Z</time></trkpt><trkpt lat="44.138271" lon="10.3669374"><ele>373.3333333333333</ele><time>2026-03-23T09:35:02.15Z</time></trkpt><trkpt lat="44.1381605" lon="10.366944"><ele>374.6666666666667</ele><time>2026-03-23T09:35:04.146Z</time></trkpt><trkpt lat="44.1380389" lon="10.3669464"><ele>376.0</ele><time>2026-03-23T09:35:06.143Z</time></trkpt><trkpt lat="44.1379728" lon="10.366963"><ele>377.33333333333337</ele><time>2026-03-23T09:35:07.142Z</time></trkpt><trkpt lat="44.1379035" lon="10.3669887"><ele>378.6666666666667</ele><time>2026-03-23T09:35:08.144Z</time></trkpt><trkpt lat="44.1378349" lon="10.367035"><ele>380.0</ele><time>2026-03-23T09:35:09.147Z</time></trkpt><trkpt lat="44.1377682" lon="10.3670967"><ele>380.0</ele><time>2026-03-23T09:35:10.149Z</time></trkpt><trkpt lat="44.1377052" lon="10.3671695"><ele>380.0</ele><time>2026-03-23T09:35:11.158Z</time></trkpt><trkpt lat="44.1376461" lon="10.3672473"><ele>380.0</ele><time>2026-03-23T09:35:12.143Z</time></trkpt><trkpt lat="44.1375849" lon="10.3673248"><ele>380.0</ele><time>2026-03-23T09:35:13.16Z</time></trkpt><trkpt lat="44.1375233" lon="10.3674032"><ele>380.0</ele><time>2026-03-23T09:35:14.151Z</time></trkpt><trkpt lat="44.1374606" lon="10.3674838"><ele>380.0</ele><time>2026-03-23T09:35:15.14Z</time></trkpt><trkpt lat="44.1373972" lon="10.3675602"><ele>379.0</ele><time>2026-03-23T09:35:16.139Z</time></trkpt><trkpt lat="44.1373222" lon="10.3676492"><ele>378.0</ele><time>2026-03-23T09:35:17.144Z</time></trkpt><trkpt lat="44.1372511" lon="10.3677325"><ele>377.0</ele><time>2026-03-23T09:35:18.141Z</time></trkpt><trkpt lat="44.1371757" lon="10.3678187"><ele>376.0</ele><time>2026-03-23T09:35:19.15Z</time></trkpt><trkpt lat="44.1370981" lon="10.3679022"><ele>375.0</ele><time>2026-03-23T09:35:20.156Z</time></trkpt><trkpt lat="44.1370234" lon="10.3679825"><ele>372.6</ele><time>2026-03-23T09:35:21.138Z</time></trkpt><trkpt lat="44.1369469" lon="10.3680605"><ele>370.2</ele><time>2026-03-23T09:35:22.157Z</time></trkpt><trkpt lat="44.1368701" lon="10.3681444"><ele>367.79999999999995</ele><time>2026-03-23T09:35:23.141Z</time></trkpt><trkpt lat="44.1368019" lon="10.3682432"><ele>365.4</ele><time>2026-03-23T09:35:24.15Z</time></trkpt><trkpt lat="44.1367459" lon="10.3683529"><ele>363.0</ele><time>2026-03-23T09:35:25.157Z</time></trkpt><trkpt lat="44.1367019" lon="10.3684898"><ele>363.0</ele><time>2026-03-23T09:35:26.158Z</time></trkpt><trkpt lat="44.1366609" lon="10.3686225"><ele>363.0</ele><time>2026-03-23T09:35:27.155Z</time></trkpt><trkpt lat="44.136621" lon="10.3687441"><ele>363.0</ele><time>2026-03-23T09:35:28.152Z</time></trkpt><trkpt lat="44.1365808" lon="10.3688674"><ele>363.0</ele><time>2026-03-23T09:35:29.142Z</time></trkpt><trkpt lat="44.1365423" lon="10.3689888"><ele>363.0</ele><time>2026-03-23T09:35:30.15Z</time></trkpt><trkpt lat="44.1364953" lon="10.3691037"><ele>362.4</ele><time>2026-03-23T09:35:31.154Z</time></trkpt><trkpt lat="44.136442" lon="10.369198"><ele>361.79999999999995</ele><time>2026-03-23T09:35:32.142Z</time></trkpt><trkpt lat="44.1363567" lon="10.3692621"><ele>361.2</ele><time>2026-03-23T09:35:33.152Z</time></trkpt><trkpt lat="44.1362671" lon="10.3692864"><ele>360.6</ele><time>2026-03-23T09:35:34.145Z</time></trkpt><trkpt lat="44.1361737" lon="10.3693027"><ele>360.0</ele><time>2026-03-23T09:35:35.153Z</time></trkpt><trkpt lat="44.1360832" lon="10.3693014"><ele>360.0</ele><time>2026-03-23T09:35:36.156Z</time></trkpt><trkpt lat="44.1360011" lon="10.369312"><ele>360.0</ele><time>2026-03-23T09:35:37.141Z</time></trkpt><trkpt lat="44.135932" lon="10.3693412"><ele>360.0</ele><time>2026-03-23T09:35:38.159Z</time></trkpt><trkpt lat="44.1358597" lon="10.3693806"><ele>360.0</ele><time>2026-03-23T09:35:39.15Z</time></trkpt><trkpt lat="44.1358033" lon="10.3694387"><ele>360.0</ele><time>2026-03-23T09:35:40.15Z</time></trkpt><trkpt lat="44.1357458" lon="10.3694972"><ele>360.0</ele><time>2026-03-23T09:35:41.152Z</time></trkpt><trkpt lat="44.1356432" lon="10.3695954"><ele>360.0</ele><time>2026-03-23T09:35:43.149Z</time></trkpt><trkpt lat="44.1355478" lon="10.369689"><ele>360.0</ele><time>2026-03-23T09:35:45.142Z</time></trkpt><trkpt lat="44.1354595" lon="10.3697852"><ele>360.0</ele><time>2026-03-23T09:35:47.146Z</time></trkpt><trkpt lat="44.1354063" lon="10.3698381"><ele>360.0</ele><time>2026-03-23T09:35:48.157Z</time></trkpt><trkpt lat="44.1353118" lon="10.3699316"><ele>360.0</ele><time>2026-03-23T09:35:50.148Z</time></trkpt><trkpt lat="44.1352182" lon="10.3700187"><ele>360.0</ele><time>2026-03-23T09:35:52.151Z</time></trkpt><trkpt lat="44.1351304" lon="10.3701012"><ele>360.0</ele><time>2026-03-23T09:35:54.145Z</time></trkpt><trkpt lat="44.1350444" lon="10.3701852"><ele>360.0</ele><time>2026-03-23T09:35:56.153Z</time></trkpt><trkpt lat="44.1349553" lon="10.3702674"><ele>360.0</ele><time>2026-03-23T09:35:58.161Z</time></trkpt><trkpt lat="44.1348655" lon="10.3703604"><ele>360.0</ele><time>2026-03-23T09:36:00.151Z</time></trkpt><trkpt lat="44.1347753" lon="10.3704485"><ele>360.2</ele><time>2026-03-23T09:36:02.149Z</time></trkpt><trkpt lat="44.134684" lon="10.3705267"><ele>360.4</ele><time>2026-03-23T09:36:04.141Z</time></trkpt><trkpt lat="44.1345988" lon="10.3706029"><ele>360.6</ele><time>2026-03-23T09:36:06.158Z</time></trkpt><trkpt lat="44.1345136" lon="10.3706864"><ele>360.8</ele><time>2026-03-23T09:36:08.164Z</time></trkpt><trkpt lat="44.134447" lon="10.3707651"><ele>361.0</ele><time>2026-03-23T09:36:10.155Z</time></trkpt><trkpt lat="44.1343857" lon="10.3708622"><ele>361.0</ele><time>2026-03-23T09:36:12.164Z</time></trkpt><trkpt lat="44.1343314" lon="10.3709741"><ele>361.0</ele><time>2026-03-23T09:36:14.167Z</time></trkpt><trkpt lat="44.1342818" lon="10.3710771"><ele>361.0</ele><time>2026-03-23T09:36:16.148Z</time></trkpt><trkpt lat="44.1342351" lon="10.3711828"><ele>361.0</ele><time>2026-03-23T09:36:18.152Z</time></trkpt><trkpt lat="44.1341878" lon="10.3712732"><ele>361.0</ele><time>2026-03-23T09:36:20.146Z</time></trkpt><trkpt lat="44.1341457" lon="10.3713697"><ele>361.0</ele><time>2026-03-23T09:36:22.151Z</time></trkpt><trkpt lat="44.134097" lon="10.3714596"><ele>362.66666666666663</ele><time>2026-03-23T09:36:24.142Z</time></trkpt><trkpt lat="44.1340526" lon="10.3715479"><ele>364.3333333333333</ele><time>2026-03-23T09:36:26.141Z</time></trkpt><trkpt lat="44.1340013" lon="10.3716429"><ele>366.0</ele><time>2026-03-23T09:36:28.159Z</time></trkpt><trkpt lat="44.1339526" lon="10.3717371"><ele>367.6666666666667</ele><time>2026-03-23T09:36:30.166Z</time></trkpt><trkpt lat="44.1339061" lon="10.3718269"><ele>369.33333333333337</ele><time>2026-03-23T09:36:32.161Z</time></trkpt><trkpt lat="44.1338618" lon="10.3719189"><ele>371.0</ele><time>2026-03-23T09:36:34.149Z</time></trkpt><trkpt lat="44.1338171" lon="10.3720178"><ele>371.0</ele><time>2026-03-23T09:36:36.149Z</time></trkpt><trkpt lat="44.1337712" lon="10.3721121"><ele>371.0</ele><time>2026-03-23T09:36:38.165Z</time></trkpt><trkpt lat="44.1337278" lon="10.3722053"><ele>371.0</ele><time>2026-03-23T09:36:40.142Z</time></trkpt><trkpt lat="44.1336817" lon="10.3722942"><ele>371.0</ele><time>2026-03-23T09:36:42.147Z</time></trkpt><trkpt lat="44.1336333" lon="10.3723786"><ele>371.0</ele><time>2026-03-23T09:36:44.142Z</time></trkpt><trkpt lat="44.1335767" lon="10.3724546"><ele>371.0</ele><time>2026-03-23T09:36:46.151Z</time></trkpt><trkpt lat="44.1335157" lon="10.3725292"><ele>371.33333333333337</ele><time>2026-03-23T09:36:48.145Z</time></trkpt><trkpt lat="44.1334499" lon="10.3726037"><ele>371.6666666666667</ele><time>2026-03-23T09:36:50.149Z</time></trkpt><trkpt lat="44.1333772" lon="10.3726805"><ele>372.0</ele><time>2026-03-23T09:36:52.151Z</time></trkpt><trkpt lat="44.133311" lon="10.3727618"><ele>372.3333333333333</ele><time>2026-03-23T09:36:54.14Z</time></trkpt><trkpt lat="44.1332549" lon="10.3728479"><ele>372.66666666666663</ele><time>2026-03-23T09:36:56.139Z</time></trkpt><trkpt lat="44.133208" lon="10.3729532"><ele>373.0</ele><time>2026-03-23T09:36:58.147Z</time></trkpt><trkpt lat="44.1331694" lon="10.3730629"><ele>373.0</ele><time>2026-03-23T09:37:00.158Z</time></trkpt><trkpt lat="44.1331378" lon="10.3731755"><ele>373.0</ele><time>2026-03-23T09:37:02.14Z</time></trkpt><trkpt lat="44.1331055" lon="10.3732896"><ele>373.0</ele><time>2026-03-23T09:37:04.144Z</time></trkpt><trkpt lat="44.1330758" lon="10.3734007"><ele>373.0</ele><time>2026-03-23T09:37:06.149Z</time></trkpt><trkpt lat="44.1330473" lon="10.3735192"><ele>373.0</ele><time>2026-03-23T09:37:08.157Z</time></trkpt><trkpt lat="44.1330152" lon="10.3736377"><ele>373.0</ele><time>2026-03-23T09:37:10.139Z</time></trkpt><trkpt lat="44.1329744" lon="10.3737489"><ele>373.0</ele><time>2026-03-23T09:37:12.149Z</time></trkpt><trkpt lat="44.1329186" lon="10.3738463"><ele>373.0</ele><time>2026-03-23T09:37:14.148Z</time></trkpt><trkpt lat="44.1328398" lon="10.3739296"><ele>373.0</ele><time>2026-03-23T09:37:16.14Z</time></trkpt><trkpt lat="44.1327553" lon="10.3739921"><ele>373.0</ele><time>2026-03-23T09:37:18.149Z</time></trkpt><trkpt lat="44.1326767" lon="10.3740379"><ele>373.0</ele><time>2026-03-23T09:37:20.138Z</time></trkpt><trkpt lat="44.1325981" lon="10.3740685"><ele>373.8333333333333</ele><time>2026-03-23T09:37:22.137Z</time></trkpt><trkpt lat="44.1325269" lon="10.3740932"><ele>374.66666666666663</ele><time>2026-03-23T09:37:24.146Z</time></trkpt><trkpt lat="44.132452" lon="10.3741123"><ele>375.5</ele><time>2026-03-23T09:37:26.147Z</time></trkpt><trkpt lat="44.1323788" lon="10.3741379"><ele>376.3333333333333</ele><time>2026-03-23T09:37:28.145Z</time></trkpt><trkpt lat="44.1323012" lon="10.3741645"><ele>377.1666666666667</ele><time>2026-03-23T09:37:30.156Z</time></trkpt><trkpt lat="44.1322178" lon="10.3741898"><ele>378.0</ele><time>2026-03-23T09:37:32.141Z</time></trkpt><trkpt lat="44.1321299" lon="10.3742213"><ele>378.0</ele><time>2026-03-23T09:37:34.149Z</time></trkpt><trkpt lat="44.1320482" lon="10.374262"><ele>378.0</ele><time>2026-03-23T09:37:36.143Z</time></trkpt><trkpt lat="44.1319715" lon="10.3743104"><ele>378.0</ele><time>2026-03-23T09:37:38.144Z</time></trkpt><trkpt lat="44.1318959" lon="10.3743717"><ele>378.0</ele><time>2026-03-23T09:37:40.156Z</time></trkpt><trkpt lat="44.1318231" lon="10.3744396"><ele>378.0</ele><time>2026-03-23T09:37:42.167Z</time></trkpt><trkpt lat="44.131764" lon="10.3745276"><ele>378.0</ele><time>2026-03-23T09:37:44.158Z</time></trkpt><trkpt lat="44.1316969" lon="10.3746193"><ele>378.4</ele><time>2026-03-23T09:37:46.143Z</time></trkpt><trkpt lat="44.131632" lon="10.374706"><ele>378.79999999999995</ele><time>2026-03-23T09:37:48.143Z</time></trkpt><trkpt lat="44.131571" lon="10.3747963"><ele>379.2</ele><time>2026-03-23T09:37:50.147Z</time></trkpt><trkpt lat="44.1315064" lon="10.3748868"><ele>379.6</ele><time>2026-03-23T09:37:52.144Z</time></trkpt><trkpt lat="44.1314471" lon="10.3749772"><ele>380.0</ele><time>2026-03-23T09:37:54.145Z</time></trkpt><trkpt lat="44.1313885" lon="10.3750852"><ele>380.0</ele><time>2026-03-23T09:37:56.151Z</time></trkpt><trkpt lat="44.1313271" lon="10.3751856"><ele>380.0</ele><time>2026-03-23T09:37:58.142Z</time></trkpt><trkpt lat="44.1312639" lon="10.3752737"><ele>380.0</ele><time>2026-03-23T09:38:00.14Z</time></trkpt><trkpt lat="44.1311999" lon="10.3753604"><ele>380.0</ele><time>2026-03-23T09:38:02.149Z</time></trkpt><trkpt lat="44.131138" lon="10.3754493"><ele>380.0</ele><time>2026-03-23T09:38:04.15Z</time></trkpt><trkpt lat="44.1310791" lon="10.3755402"><ele>377.6</ele><time>2026-03-23T09:38:06.142Z</time></trkpt><trkpt lat="44.1310211" lon="10.3756253"><ele>375.2</ele><time>2026-03-23T09:38:08.147Z</time></trkpt><trkpt lat="44.1309565" lon="10.3757152"><ele>372.79999999999995</ele><time>2026-03-23T09:38:10.141Z</time></trkpt><trkpt lat="44.130891" lon="10.3757996"><ele>370.4</ele><time>2026-03-23T09:38:12.149Z</time></trkpt><trkpt lat="44.1308186" lon="10.3758794"><ele>368.0</ele><time>2026-03-23T09:38:14.152Z</time></trkpt><trkpt lat="44.130745" lon="10.37596"><ele>371.79999999999995</ele><time>2026-03-23T09:38:16.143Z</time></trkpt><trkpt lat="44.1306655" lon="10.3760422"><ele>375.6</ele><time>2026-03-23T09:38:18.144Z</time></trkpt><trkpt lat="44.1305934" lon="10.3761075"><ele>379.4</ele><time>2026-03-23T09:38:20.151Z</time></trkpt><trkpt lat="44.1305162" lon="10.3761863"><ele>383.20000000000005</ele><time>2026-03-23T09:38:22.144Z</time></trkpt><trkpt lat="44.1304366" lon="10.3762555"><ele>387.0</ele><time>2026-03-23T09:38:24.151Z</time></trkpt><trkpt lat="44.1303455" lon="10.3763163"><ele>385.3333333333333</ele><time>2026-03-23T09:38:26.146Z</time></trkpt><trkpt lat="44.1302734" lon="10.3763669"><ele>383.6666666666667</ele><time>2026-03-23T09:38:28.139Z</time></trkpt><trkpt lat="44.130211" lon="10.3764274"><ele>382.0</ele><time>2026-03-23T09:38:30.145Z</time></trkpt><trkpt lat="44.1301658" lon="10.3765089"><ele>380.33333333333337</ele><time>2026-03-23T09:38:32.149Z</time></trkpt><trkpt lat="44.130126" lon="10.3765982"><ele>378.6666666666667</ele><time>2026-03-23T09:38:34.152Z</time></trkpt><trkpt lat="44.1300909" lon="10.3766916"><ele>377.0</ele><time>2026-03-23T09:38:36.154Z</time></trkpt><trkpt lat="44.1300478" lon="10.3767779"><ele>377.0</ele><time>2026-03-23T09:38:38.147Z</time></trkpt><trkpt lat="44.1300042" lon="10.3768747"><ele>377.0</ele><time>2026-03-23T09:38:40.156Z</time></trkpt><trkpt lat="44.1299507" lon="10.3769803"><ele>377.0</ele><time>2026-03-23T09:38:42.16Z</time></trkpt><trkpt lat="44.1298994" lon="10.3770989"><ele>377.0</ele><time>2026-03-23T09:38:44.166Z</time></trkpt><trkpt lat="44.1298341" lon="10.3772239"><ele>377.0</ele><time>2026-03-23T09:38:46.14Z</time></trkpt><trkpt lat="44.1297518" lon="10.3773348"><ele>376.1428571428571</ele><time>2026-03-23T09:38:48.146Z</time></trkpt><trkpt lat="44.1296425" lon="10.3773993"><ele>375.2857142857143</ele><time>2026-03-23T09:38:50.148Z</time></trkpt><trkpt lat="44.1295772" lon="10.3774125"><ele>374.42857142857144</ele><time>2026-03-23T09:38:51.149Z</time></trkpt><trkpt lat="44.1295122" lon="10.3774215"><ele>373.57142857142856</ele><time>2026-03-23T09:38:52.152Z</time></trkpt><trkpt lat="44.1294452" lon="10.3774271"><ele>372.7142857142857</ele><time>2026-03-23T09:38:53.151Z</time></trkpt><trkpt lat="44.1293802" lon="10.3774297"><ele>371.85714285714283</ele><time>2026-03-23T09:38:54.155Z</time></trkpt><trkpt lat="44.1293162" lon="10.3774356"><ele>371.0</ele><time>2026-03-23T09:38:55.157Z</time></trkpt><trkpt lat="44.1292523" lon="10.3774399"><ele>371.0</ele><time>2026-03-23T09:38:56.152Z</time></trkpt><trkpt lat="44.1291323" lon="10.377448"><ele>371.0</ele><time>2026-03-23T09:38:58.155Z</time></trkpt><trkpt lat="44.1290386" lon="10.3775052"><ele>371.0</ele><time>2026-03-23T09:39:00.147Z</time></trkpt><trkpt lat="44.128974" lon="10.3776083"><ele>371.0</ele><time>2026-03-23T09:39:02.153Z</time></trkpt><trkpt lat="44.1289562" lon="10.3777582"><ele>371.0</ele><time>2026-03-23T09:39:04.152Z</time></trkpt><trkpt lat="44.1289784" lon="10.3778977"><ele>370.6</ele><time>2026-03-23T09:39:06.15Z</time></trkpt><trkpt lat="44.1290165" lon="10.3780265"><ele>370.20000000000005</ele><time>2026-03-23T09:39:08.158Z</time></trkpt><trkpt lat="44.1290915" lon="10.3781409"><ele>369.79999999999995</ele><time>2026-03-23T09:39:10.167Z</time></trkpt><trkpt lat="44.1291374" lon="10.378203"><ele>369.4</ele><time>2026-03-23T09:39:11.159Z</time></trkpt><trkpt lat="44.1292109" lon="10.3783537"><ele>369.0</ele><time>2026-03-23T09:39:13.156Z</time></trkpt><trkpt lat="44.1292463" lon="10.3784396"><ele>369.0</ele><time>2026-03-23T09:39:14.161Z</time></trkpt><trkpt lat="44.1292691" lon="10.3785292"><ele>369.0</ele><time>2026-03-23T09:39:15.147Z</time></trkpt><trkpt lat="44.1292806" lon="10.3786274"><ele>369.0</ele><time>2026-03-23T09:39:16.156Z</time></trkpt><trkpt lat="44.1292867" lon="10.3787184"><ele>369.0</ele><time>2026-03-23T09:39:17.146Z</time></trkpt><trkpt lat="44.1292918" lon="10.3788114"><ele>369.0</ele><time>2026-03-23T09:39:18.141Z</time></trkpt><trkpt lat="44.1292944" lon="10.378903"><ele>369.0</ele><time>2026-03-23T09:39:19.155Z</time></trkpt><trkpt lat="44.1292914" lon="10.3789922"><ele>369.0</ele><time>2026-03-23T09:39:20.151Z</time></trkpt><trkpt lat="44.1292898" lon="10.3790853"><ele>370.0</ele><time>2026-03-23T09:39:21.152Z</time></trkpt><trkpt lat="44.129295" lon="10.3792454"><ele>371.0</ele><time>2026-03-23T09:39:23.149Z</time></trkpt><trkpt lat="44.1293184" lon="10.3793732"><ele>372.0</ele><time>2026-03-23T09:39:25.16Z</time></trkpt><trkpt lat="44.1293493" lon="10.3795069"><ele>373.0</ele><time>2026-03-23T09:39:27.16Z</time></trkpt><trkpt lat="44.1293787" lon="10.3796371"><ele>374.0</ele><time>2026-03-23T09:39:29.154Z</time></trkpt><trkpt lat="44.1294122" lon="10.3797775"><ele>374.75</ele><time>2026-03-23T09:39:31.148Z</time></trkpt><trkpt lat="44.129451" lon="10.3799135"><ele>375.5</ele><time>2026-03-23T09:39:33.154Z</time></trkpt><trkpt lat="44.1294815" lon="10.380057"><ele>376.25</ele><time>2026-03-23T09:39:35.142Z</time></trkpt><trkpt lat="44.1295435" lon="10.3801963"><ele>377.0</ele><time>2026-03-23T09:39:37.167Z</time></trkpt><trkpt lat="44.1296239" lon="10.3803244"><ele>377.0</ele><time>2026-03-23T09:39:39.147Z</time></trkpt><trkpt lat="44.1297095" lon="10.380447"><ele>377.0</ele><time>2026-03-23T09:39:41.155Z</time></trkpt><trkpt lat="44.1297494" lon="10.3805183"><ele>377.0</ele><time>2026-03-23T09:39:42.154Z</time></trkpt><trkpt lat="44.129803" lon="10.3806745"><ele>377.0</ele><time>2026-03-23T09:39:44.154Z</time></trkpt><trkpt lat="44.1298158" lon="10.3808504"><ele>377.0</ele><time>2026-03-23T09:39:46.154Z</time></trkpt><trkpt lat="44.1297871" lon="10.3810193"><ele>376.1666666666667</ele><time>2026-03-23T09:39:48.159Z</time></trkpt><trkpt lat="44.1297692" lon="10.3811077"><ele>375.33333333333337</ele><time>2026-03-23T09:39:49.152Z</time></trkpt><trkpt lat="44.1297295" lon="10.3812712"><ele>374.5</ele><time>2026-03-23T09:39:51.141Z</time></trkpt><trkpt lat="44.1297073" lon="10.3813562"><ele>373.6666666666667</ele><time>2026-03-23T09:39:52.158Z</time></trkpt><trkpt lat="44.1296865" lon="10.3814448"><ele>372.8333333333333</ele><time>2026-03-23T09:39:53.147Z</time></trkpt><trkpt lat="44.129665" lon="10.3815351"><ele>372.0</ele><time>2026-03-23T09:39:54.144Z</time></trkpt><trkpt lat="44.1296475" lon="10.3816272"><ele>371.00000000000006</ele><time>2026-03-23T09:39:55.147Z</time></trkpt><trkpt lat="44.1296304" lon="10.3817179"><ele>370.0</ele><time>2026-03-23T09:39:56.15Z</time></trkpt><trkpt lat="44.1296129" lon="10.3818127"><ele>369.0</ele><time>2026-03-23T09:39:57.153Z</time></trkpt><trkpt lat="44.1295922" lon="10.3819008"><ele>368.0</ele><time>2026-03-23T09:39:58.153Z</time></trkpt><trkpt lat="44.1295684" lon="10.3819903"><ele>367.0</ele><time>2026-03-23T09:39:59.153Z</time></trkpt><trkpt lat="44.1295405" lon="10.3820799"><ele>366.00000000000006</ele><time>2026-03-23T09:40:00.156Z</time></trkpt><trkpt lat="44.1295082" lon="10.3821681"><ele>365.0</ele><time>2026-03-23T09:40:01.148Z</time></trkpt><trkpt lat="44.1294709" lon="10.38225"><ele>363.83333333333337</ele><time>2026-03-23T09:40:02.153Z</time></trkpt><trkpt lat="44.1294307" lon="10.3823255"><ele>362.6666666666667</ele><time>2026-03-23T09:40:03.143Z</time></trkpt><trkpt lat="44.1293842" lon="10.3823928"><ele>361.5</ele><time>2026-03-23T09:40:04.14Z</time></trkpt><trkpt lat="44.1293344" lon="10.382455"><ele>360.3333333333333</ele><time>2026-03-23T09:40:05.14Z</time></trkpt><trkpt lat="44.1292844" lon="10.3825143"><ele>359.16666666666663</ele><time>2026-03-23T09:40:06.143Z</time></trkpt><trkpt lat="44.1292318" lon="10.3825708"><ele>358.0</ele><time>2026-03-23T09:40:07.153Z</time></trkpt><trkpt lat="44.129133" lon="10.3826796"><ele>358.0</ele><time>2026-03-23T09:40:09.142Z</time></trkpt><trkpt lat="44.1290831" lon="10.3827351"><ele>358.0</ele><time>2026-03-23T09:40:10.147Z</time></trkpt><trkpt lat="44.1290308" lon="10.3827874"><ele>358.0</ele><time>2026-03-23T09:40:11.143Z</time></trkpt><trkpt lat="44.128938" lon="10.3828955"><ele>358.0</ele><time>2026-03-23T09:40:13.149Z</time></trkpt><trkpt lat="44.1288478" lon="10.3830007"><ele>358.0</ele><time>2026-03-23T09:40:15.145Z</time></trkpt><trkpt lat="44.1287671" lon="10.3830898"><ele>358.3333333333333</ele><time>2026-03-23T09:40:17.151Z</time></trkpt><trkpt lat="44.1286896" lon="10.3831801"><ele>358.66666666666663</ele><time>2026-03-23T09:40:19.141Z</time></trkpt><trkpt lat="44.1286277" lon="10.3832682"><ele>359.0</ele><time>2026-03-23T09:40:21.142Z</time></trkpt><trkpt lat="44.1285636" lon="10.3833453"><ele>359.3333333333333</ele><time>2026-03-23T09:40:23.139Z</time></trkpt><trkpt lat="44.1285108" lon="10.3834215"><ele>359.6666666666667</ele><time>2026-03-23T09:40:25.142Z</time></trkpt><trkpt lat="44.128458" lon="10.3835064"><ele>360.0</ele><time>2026-03-23T09:40:27.148Z</time></trkpt><trkpt lat="44.1284048" lon="10.3835976"><ele>360.0</ele><time>2026-03-23T09:40:29.139Z</time></trkpt><trkpt lat="44.1283522" lon="10.3836914"><ele>360.0</ele><time>2026-03-23T09:40:31.149Z</time></trkpt><trkpt lat="44.1282929" lon="10.3838015"><ele>360.0</ele><time>2026-03-23T09:40:33.136Z</time></trkpt><trkpt lat="44.1282425" lon="10.3839199"><ele>360.0</ele><time>2026-03-23T09:40:35.138Z</time></trkpt><trkpt lat="44.128189" lon="10.384032"><ele>360.0</ele><time>2026-03-23T09:40:37.143Z</time></trkpt><trkpt lat="44.1281265" lon="10.3841374"><ele>359.6</ele><time>2026-03-23T09:40:39.139Z</time></trkpt><trkpt lat="44.12804" lon="10.3842297"><ele>359.2</ele><time>2026-03-23T09:40:41.147Z</time></trkpt><trkpt lat="44.1279401" lon="10.3843174"><ele>358.79999999999995</ele><time>2026-03-23T09:40:43.147Z</time></trkpt><trkpt lat="44.1278195" lon="10.3843778"><ele>358.4</ele><time>2026-03-23T09:40:45.141Z</time></trkpt><trkpt lat="44.1277491" lon="10.3843984"><ele>358.0</ele><time>2026-03-23T09:40:46.141Z</time></trkpt><trkpt lat="44.1276727" lon="10.3844157"><ele>358.0</ele><time>2026-03-23T09:40:47.167Z</time></trkpt><trkpt lat="44.1275997" lon="10.3844495"><ele>358.0</ele><time>2026-03-23T09:40:48.147Z</time></trkpt><trkpt lat="44.127524" lon="10.3845032"><ele>358.0</ele><time>2026-03-23T09:40:49.147Z</time></trkpt><trkpt lat="44.1274524" lon="10.384564"><ele>358.0</ele><time>2026-03-23T09:40:50.152Z</time></trkpt><trkpt lat="44.1273837" lon="10.3846307"><ele>358.0</ele><time>2026-03-23T09:40:51.142Z</time></trkpt><trkpt lat="44.1273127" lon="10.3847028"><ele>358.0</ele><time>2026-03-23T09:40:52.15Z</time></trkpt><trkpt lat="44.1272534" lon="10.3847815"><ele>358.59999999999997</ele><time>2026-03-23T09:40:53.148Z</time></trkpt><trkpt lat="44.1271955" lon="10.3848633"><ele>359.2</ele><time>2026-03-23T09:40:54.139Z</time></trkpt><trkpt lat="44.1271422" lon="10.3849376"><ele>359.8</ele><time>2026-03-23T09:40:55.145Z</time></trkpt><trkpt lat="44.1270882" lon="10.385003"><ele>360.4</ele><time>2026-03-23T09:40:56.151Z</time></trkpt><trkpt lat="44.1270111" lon="10.3851242"><ele>361.0</ele><time>2026-03-23T09:40:58.149Z</time></trkpt><trkpt lat="44.1269463" lon="10.3852533"><ele>361.0</ele><time>2026-03-23T09:41:00.143Z</time></trkpt><trkpt lat="44.1268859" lon="10.3854104"><ele>361.0</ele><time>2026-03-23T09:41:02.143Z</time></trkpt><trkpt lat="44.1268525" lon="10.3854953"><ele>361.0</ele><time>2026-03-23T09:41:03.14Z</time></trkpt><trkpt lat="44.1268183" lon="10.3855862"><ele>361.0</ele><time>2026-03-23T09:41:04.143Z</time></trkpt><trkpt lat="44.1267777" lon="10.3856862"><ele>361.0</ele><time>2026-03-23T09:41:05.15Z</time></trkpt><trkpt lat="44.1267397" lon="10.3857914"><ele>361.0</ele><time>2026-03-23T09:41:06.155Z</time></trkpt><trkpt lat="44.126696" lon="10.3858948"><ele>360.4</ele><time>2026-03-23T09:41:07.145Z</time></trkpt><trkpt lat="44.1266482" lon="10.3860086"><ele>359.8</ele><time>2026-03-23T09:41:08.141Z</time></trkpt><trkpt lat="44.126592" lon="10.3861249"><ele>359.2</ele><time>2026-03-23T09:41:09.141Z</time></trkpt><trkpt lat="44.1265359" lon="10.3862303"><ele>358.59999999999997</ele><time>2026-03-23T09:41:10.154Z</time></trkpt><trkpt lat="44.1264664" lon="10.3863323"><ele>358.0</ele><time>2026-03-23T09:41:11.147Z</time></trkpt><trkpt lat="44.1263897" lon="10.3864303"><ele>355.79999999999995</ele><time>2026-03-23T09:41:12.145Z</time></trkpt><trkpt lat="44.1263107" lon="10.3865179"><ele>353.6</ele><time>2026-03-23T09:41:13.143Z</time></trkpt><trkpt lat="44.126224" lon="10.3865955"><ele>351.4</ele><time>2026-03-23T09:41:14.159Z</time></trkpt><trkpt lat="44.1261257" lon="10.3866707"><ele>349.20000000000005</ele><time>2026-03-23T09:41:15.145Z</time></trkpt><trkpt lat="44.1260327" lon="10.3867399"><ele>347.0</ele><time>2026-03-23T09:41:16.141Z</time></trkpt><trkpt lat="44.1259305" lon="10.3868017"><ele>347.0</ele><time>2026-03-23T09:41:17.157Z</time></trkpt><trkpt lat="44.1258272" lon="10.3868622"><ele>347.0</ele><time>2026-03-23T09:41:18.143Z</time></trkpt><trkpt lat="44.1257319" lon="10.3869327"><ele>347.0</ele><time>2026-03-23T09:41:19.139Z</time></trkpt><trkpt lat="44.1256337" lon="10.3870034"><ele>347.0</ele><time>2026-03-23T09:41:20.149Z</time></trkpt><trkpt lat="44.1255303" lon="10.3870664"><ele>347.0</ele><time>2026-03-23T09:41:21.15Z</time></trkpt><trkpt lat="44.1254224" lon="10.3871103"><ele>346.0</ele><time>2026-03-23T09:41:22.137Z</time></trkpt><trkpt lat="44.1253075" lon="10.3871739"><ele>345.0</ele><time>2026-03-23T09:41:23.138Z</time></trkpt><trkpt lat="44.1252" lon="10.3872395"><ele>344.0</ele><time>2026-03-23T09:41:24.151Z</time></trkpt><trkpt lat="44.1250993" lon="10.3873191"><ele>343.0</ele><time>2026-03-23T09:41:25.14Z</time></trkpt><trkpt lat="44.1250041" lon="10.3874016"><ele>343.0</ele><time>2026-03-23T09:41:26.15Z</time></trkpt><trkpt lat="44.1249132" lon="10.387488"><ele>343.0</ele><time>2026-03-23T09:41:27.15Z</time></trkpt><trkpt lat="44.1248276" lon="10.387572"><ele>343.0</ele><time>2026-03-23T09:41:28.144Z</time></trkpt><trkpt lat="44.12475" lon="10.3876678"><ele>343.0</ele><time>2026-03-23T09:41:29.141Z</time></trkpt><trkpt lat="44.1246902" lon="10.387779"><ele>343.0</ele><time>2026-03-23T09:41:30.144Z</time></trkpt><trkpt lat="44.1246472" lon="10.387899"><ele>345.8333333333333</ele><time>2026-03-23T09:41:31.153Z</time></trkpt><trkpt lat="44.124618" lon="10.388021"><ele>348.66666666666663</ele><time>2026-03-23T09:41:32.145Z</time></trkpt><trkpt lat="44.1245923" lon="10.3881351"><ele>351.5</ele><time>2026-03-23T09:41:33.147Z</time></trkpt><trkpt lat="44.1245717" lon="10.388235"><ele>354.3333333333333</ele><time>2026-03-23T09:41:34.141Z</time></trkpt><trkpt lat="44.1245492" lon="10.388332"><ele>357.1666666666667</ele><time>2026-03-23T09:41:35.149Z</time></trkpt><trkpt lat="44.124532" lon="10.3884237"><ele>360.0</ele><time>2026-03-23T09:41:36.146Z</time></trkpt><trkpt lat="44.1244931" lon="10.3885765"><ele>360.0</ele><time>2026-03-23T09:41:38.15Z</time></trkpt><trkpt lat="44.1244669" lon="10.3887055"><ele>360.0</ele><time>2026-03-23T09:41:40.147Z</time></trkpt><trkpt lat="44.1244441" lon="10.3888104"><ele>360.0</ele><time>2026-03-23T09:41:42.145Z</time></trkpt><trkpt lat="44.1244124" lon="10.3889335"><ele>360.0</ele><time>2026-03-23T09:41:45.155Z</time></trkpt><trkpt lat="44.1244087" lon="10.389052"><ele>360.0</ele><time>2026-03-23T09:41:48.153Z</time></trkpt><trkpt lat="44.1243865" lon="10.3891717"><ele>360.0</ele><time>2026-03-23T09:41:51.149Z</time></trkpt><trkpt lat="44.1243771" lon="10.3892591"><ele>359.3333333333333</ele><time>2026-03-23T09:41:53.154Z</time></trkpt><trkpt lat="44.1243693" lon="10.3893559"><ele>358.6666666666667</ele><time>2026-03-23T09:41:55.157Z</time></trkpt><trkpt lat="44.1243539" lon="10.3894869"><ele>358.0</ele><time>2026-03-23T09:41:58.152Z</time></trkpt><trkpt lat="44.1243305" lon="10.3896109"><ele>357.33333333333337</ele><time>2026-03-23T09:42:01.151Z</time></trkpt><trkpt lat="44.1242976" lon="10.3896995"><ele>356.6666666666667</ele><time>2026-03-23T09:42:03.142Z</time></trkpt><trkpt lat="44.1242537" lon="10.3897775"><ele>356.0</ele><time>2026-03-23T09:42:05.152Z</time></trkpt><trkpt lat="44.124203" lon="10.3898412"><ele>354.99999999999994</ele><time>2026-03-23T09:42:07.142Z</time></trkpt><trkpt lat="44.1241512" lon="10.3899026"><ele>354.0</ele><time>2026-03-23T09:42:09.155Z</time></trkpt><trkpt lat="44.1241007" lon="10.3899668"><ele>353.0</ele><time>2026-03-23T09:42:11.163Z</time></trkpt><trkpt lat="44.1240514" lon="10.3900218"><ele>352.0</ele><time>2026-03-23T09:42:13.159Z</time></trkpt><trkpt lat="44.1240029" lon="10.3900814"><ele>351.0</ele><time>2026-03-23T09:42:15.148Z</time></trkpt><trkpt lat="44.1239538" lon="10.3901456"><ele>349.99999999999994</ele><time>2026-03-23T09:42:17.15Z</time></trkpt><trkpt lat="44.1239135" lon="10.3902184"><ele>349.0</ele><time>2026-03-23T09:42:19.141Z</time></trkpt><trkpt lat="44.1238698" lon="10.3902917"><ele>350.2857142857143</ele><time>2026-03-23T09:42:21.145Z</time></trkpt><trkpt lat="44.1238373" lon="10.3903776"><ele>351.57142857142856</ele><time>2026-03-23T09:42:23.154Z</time></trkpt><trkpt lat="44.1238322" lon="10.3904691"><ele>352.8571428571429</ele><time>2026-03-23T09:42:25.148Z</time></trkpt><trkpt lat="44.1238387" lon="10.390558"><ele>354.1428571428571</ele><time>2026-03-23T09:42:27.153Z</time></trkpt><trkpt lat="44.1238492" lon="10.3906468"><ele>355.42857142857144</ele><time>2026-03-23T09:42:29.144Z</time></trkpt><trkpt lat="44.1238834" lon="10.3907699"><ele>356.7142857142857</ele><time>2026-03-23T09:42:32.152Z</time></trkpt><trkpt lat="44.1239106" lon="10.3908537"><ele>358.0</ele><time>2026-03-23T09:42:34.145Z</time></trkpt><trkpt lat="44.1239364" lon="10.3909416"><ele>358.00000000000006</ele><time>2026-03-23T09:42:36.151Z</time></trkpt><trkpt lat="44.1239669" lon="10.3910236"><ele>358.0</ele><time>2026-03-23T09:42:38.155Z</time></trkpt><trkpt lat="44.1239974" lon="10.3911009"><ele>358.0</ele><time>2026-03-23T09:42:40.141Z</time></trkpt><trkpt lat="44.1240267" lon="10.3911808"><ele>358.0</ele><time>2026-03-23T09:42:42.156Z</time></trkpt><trkpt lat="44.1240566" lon="10.3912605"><ele>358.0</ele><time>2026-03-23T09:42:44.145Z</time></trkpt><trkpt lat="44.1240932" lon="10.3913336"><ele>358.00000000000006</ele><time>2026-03-23T09:42:46.149Z</time></trkpt><trkpt lat="44.124133" lon="10.3914042"><ele>358.0</ele><time>2026-03-23T09:42:48.148Z</time></trkpt><trkpt lat="44.1241736" lon="10.3914728"><ele>357.7142857142857</ele><time>2026-03-23T09:42:50.151Z</time></trkpt><trkpt lat="44.1242181" lon="10.3915403"><ele>357.42857142857144</ele><time>2026-03-23T09:42:52.147Z</time></trkpt><trkpt lat="44.1242623" lon="10.3916058"><ele>357.1428571428571</ele><time>2026-03-23T09:42:54.151Z</time></trkpt><trkpt lat="44.1243254" lon="10.3916901"><ele>356.8571428571429</ele><time>2026-03-23T09:42:57.149Z</time></trkpt><trkpt lat="44.1243835" lon="10.3917695"><ele>356.57142857142856</ele><time>2026-03-23T09:43:00.142Z</time></trkpt><trkpt lat="44.1244334" lon="10.3918589"><ele>356.2857142857143</ele><time>2026-03-23T09:43:03.146Z</time></trkpt><trkpt lat="44.1244737" lon="10.391937"><ele>356.0</ele><time>2026-03-23T09:43:05.154Z</time></trkpt><trkpt lat="44.1244974" lon="10.3920548"><ele>354.0</ele><time>2026-03-23T09:43:07.149Z</time></trkpt><trkpt lat="44.1244636" lon="10.3921886"><ele>352.0</ele><time>2026-03-23T09:43:09.152Z</time></trkpt><trkpt lat="44.1243648" lon="10.3922825"><ele>350.0</ele><time>2026-03-23T09:43:11.156Z</time></trkpt><trkpt lat="44.1243019" lon="10.3922889"><ele>348.0</ele><time>2026-03-23T09:43:12.148Z</time></trkpt><trkpt lat="44.1242369" lon="10.392283"><ele>346.0</ele><time>2026-03-23T09:43:13.149Z</time></trkpt><trkpt lat="44.1241704" lon="10.3922724"><ele>344.0</ele><time>2026-03-23T09:43:14.153Z</time></trkpt><trkpt lat="44.1241021" lon="10.3922662"><ele>343.1666666666667</ele><time>2026-03-23T09:43:15.157Z</time></trkpt><trkpt lat="44.1240289" lon="10.3922601"><ele>342.33333333333337</ele><time>2026-03-23T09:43:16.155Z</time></trkpt><trkpt lat="44.1239551" lon="10.3922459"><ele>341.5</ele><time>2026-03-23T09:43:17.154Z</time></trkpt><trkpt lat="44.1238765" lon="10.3922331"><ele>340.6666666666667</ele><time>2026-03-23T09:43:18.148Z</time></trkpt><trkpt lat="44.1238004" lon="10.3922212"><ele>339.8333333333333</ele><time>2026-03-23T09:43:19.156Z</time></trkpt><trkpt lat="44.1237196" lon="10.3922119"><ele>339.0</ele><time>2026-03-23T09:43:20.153Z</time></trkpt><trkpt lat="44.123634" lon="10.3922042"><ele>339.0</ele><time>2026-03-23T09:43:21.147Z</time></trkpt><trkpt lat="44.1235538" lon="10.3921935"><ele>339.0</ele><time>2026-03-23T09:43:22.152Z</time></trkpt><trkpt lat="44.1234652" lon="10.3921804"><ele>339.0</ele><time>2026-03-23T09:43:23.148Z</time></trkpt><trkpt lat="44.1233758" lon="10.3921498"><ele>339.0</ele><time>2026-03-23T09:43:24.156Z</time></trkpt><trkpt lat="44.1232951" lon="10.3920938"><ele>339.0</ele><time>2026-03-23T09:43:25.149Z</time></trkpt><trkpt lat="44.1232215" lon="10.3920245"><ele>339.0</ele><time>2026-03-23T09:43:26.15Z</time></trkpt><trkpt lat="44.1231464" lon="10.3919654"><ele>341.0</ele><time>2026-03-23T09:43:27.156Z</time></trkpt><trkpt lat="44.1230673" lon="10.3919247"><ele>343.0</ele><time>2026-03-23T09:43:28.15Z</time></trkpt><trkpt lat="44.1229834" lon="10.3919177"><ele>345.0</ele><time>2026-03-23T09:43:29.152Z</time></trkpt><trkpt lat="44.1228999" lon="10.391924"><ele>347.0</ele><time>2026-03-23T09:43:30.149Z</time></trkpt><trkpt lat="44.1228211" lon="10.3919447"><ele>349.0</ele><time>2026-03-23T09:43:31.153Z</time></trkpt><trkpt lat="44.1227438" lon="10.3919798"><ele>351.0</ele><time>2026-03-23T09:43:32.153Z</time></trkpt><trkpt lat="44.1226684" lon="10.3920266"><ele>351.0</ele><time>2026-03-23T09:43:33.16Z</time></trkpt><trkpt lat="44.1225942" lon="10.3920744"><ele>351.0</ele><time>2026-03-23T09:43:34.142Z</time></trkpt><trkpt lat="44.1225157" lon="10.3921496"><ele>351.0</ele><time>2026-03-23T09:43:35.149Z</time></trkpt><trkpt lat="44.1224467" lon="10.3922392"><ele>351.0</ele><time>2026-03-23T09:43:36.154Z</time></trkpt><trkpt lat="44.1223769" lon="10.3923451"><ele>351.0</ele><time>2026-03-23T09:43:37.157Z</time></trkpt><trkpt lat="44.1223104" lon="10.3924525"><ele>350.4</ele><time>2026-03-23T09:43:38.154Z</time></trkpt><trkpt lat="44.1222421" lon="10.3925662"><ele>349.8</ele><time>2026-03-23T09:43:39.151Z</time></trkpt><trkpt lat="44.12218" lon="10.3926637"><ele>349.2</ele><time>2026-03-23T09:43:40.147Z</time></trkpt><trkpt lat="44.1221192" lon="10.3927584"><ele>348.59999999999997</ele><time>2026-03-23T09:43:41.159Z</time></trkpt><trkpt lat="44.1220599" lon="10.3928578"><ele>348.0</ele><time>2026-03-23T09:43:42.166Z</time></trkpt><trkpt lat="44.1220064" lon="10.3929556"><ele>346.0</ele><time>2026-03-23T09:43:43.155Z</time></trkpt><trkpt lat="44.1219468" lon="10.393045"><ele>344.0</ele><time>2026-03-23T09:43:44.156Z</time></trkpt><trkpt lat="44.1218851" lon="10.3931401"><ele>342.0</ele><time>2026-03-23T09:43:45.16Z</time></trkpt><trkpt lat="44.1218155" lon="10.3932226"><ele>340.0</ele><time>2026-03-23T09:43:46.164Z</time></trkpt><trkpt lat="44.1217355" lon="10.3932884"><ele>338.0</ele><time>2026-03-23T09:43:47.158Z</time></trkpt><trkpt lat="44.1216544" lon="10.3933621"><ele>339.25</ele><time>2026-03-23T09:43:48.151Z</time></trkpt><trkpt lat="44.1215641" lon="10.3934425"><ele>340.5</ele><time>2026-03-23T09:43:49.155Z</time></trkpt><trkpt lat="44.121466" lon="10.3935345"><ele>341.75</ele><time>2026-03-23T09:43:50.155Z</time></trkpt><trkpt lat="44.1213709" lon="10.3936223"><ele>343.0</ele><time>2026-03-23T09:43:51.167Z</time></trkpt><trkpt lat="44.1212594" lon="10.3937003"><ele>343.0</ele><time>2026-03-23T09:43:52.152Z</time></trkpt><trkpt lat="44.1211506" lon="10.3937734"><ele>343.0</ele><time>2026-03-23T09:43:53.153Z</time></trkpt><trkpt lat="44.1210381" lon="10.3938287"><ele>343.0</ele><time>2026-03-23T09:43:54.158Z</time></trkpt><trkpt lat="44.1209207" lon="10.3938684"><ele>343.0</ele><time>2026-03-23T09:43:55.155Z</time></trkpt><trkpt lat="44.1208051" lon="10.3938806"><ele>341.75</ele><time>2026-03-23T09:43:56.164Z</time></trkpt><trkpt lat="44.1206877" lon="10.3938674"><ele>340.5</ele><time>2026-03-23T09:43:57.158Z</time></trkpt><trkpt lat="44.1205753" lon="10.3938377"><ele>339.25</ele><time>2026-03-23T09:43:58.148Z</time></trkpt><trkpt lat="44.1204656" lon="10.3937937"><ele>338.0</ele><time>2026-03-23T09:43:59.158Z</time></trkpt><trkpt lat="44.1203579" lon="10.3937514"><ele>338.0</ele><time>2026-03-23T09:44:00.156Z</time></trkpt><trkpt lat="44.1202518" lon="10.39371"><ele>338.0</ele><time>2026-03-23T09:44:01.148Z</time></trkpt><trkpt lat="44.1201486" lon="10.3936652"><ele>338.0</ele><time>2026-03-23T09:44:02.161Z</time></trkpt><trkpt lat="44.1200489" lon="10.3936182"><ele>338.0</ele><time>2026-03-23T09:44:03.158Z</time></trkpt><trkpt lat="44.1199496" lon="10.3935762"><ele>338.0</ele><time>2026-03-23T09:44:04.15Z</time></trkpt><trkpt lat="44.119855" lon="10.3935332"><ele>337.5</ele><time>2026-03-23T09:44:05.154Z</time></trkpt><trkpt lat="44.1197642" lon="10.3935079"><ele>337.0</ele><time>2026-03-23T09:44:06.152Z</time></trkpt><trkpt lat="44.1196811" lon="10.3935105"><ele>336.5</ele><time>2026-03-23T09:44:07.155Z</time></trkpt><trkpt lat="44.1196022" lon="10.393542"><ele>336.0</ele><time>2026-03-23T09:44:08.151Z</time></trkpt><trkpt lat="44.1195293" lon="10.3935913"><ele>335.5</ele><time>2026-03-23T09:44:09.152Z</time></trkpt><trkpt lat="44.1194558" lon="10.3936408"><ele>335.0</ele><time>2026-03-23T09:44:10.154Z</time></trkpt><trkpt lat="44.1193859" lon="10.3936884"><ele>335.0</ele><time>2026-03-23T09:44:11.153Z</time></trkpt><trkpt lat="44.1193109" lon="10.3937371"><ele>335.0</ele><time>2026-03-23T09:44:12.156Z</time></trkpt><trkpt lat="44.1192411" lon="10.393789"><ele>335.0</ele><time>2026-03-23T09:44:13.146Z</time></trkpt><trkpt lat="44.1191658" lon="10.3938402"><ele>335.0</ele><time>2026-03-23T09:44:14.153Z</time></trkpt><trkpt lat="44.1190965" lon="10.3938972"><ele>335.0</ele><time>2026-03-23T09:44:15.151Z</time></trkpt><trkpt lat="44.1190316" lon="10.3939632"><ele>335.0</ele><time>2026-03-23T09:44:16.156Z</time></trkpt><trkpt lat="44.1189726" lon="10.3940496"><ele>332.1666666666667</ele><time>2026-03-23T09:44:17.152Z</time></trkpt><trkpt lat="44.1189225" lon="10.3941438"><ele>329.33333333333337</ele><time>2026-03-23T09:44:18.154Z</time></trkpt><trkpt lat="44.1188756" lon="10.3942435"><ele>326.5</ele><time>2026-03-23T09:44:19.147Z</time></trkpt><trkpt lat="44.1188312" lon="10.3943422"><ele>323.6666666666667</ele><time>2026-03-23T09:44:20.18Z</time></trkpt><trkpt lat="44.1187912" lon="10.3944373"><ele>320.8333333333333</ele><time>2026-03-23T09:44:21.153Z</time></trkpt><trkpt lat="44.1187502" lon="10.3945333"><ele>318.0</ele><time>2026-03-23T09:44:22.147Z</time></trkpt><trkpt lat="44.1187103" lon="10.3946333"><ele>317.5</ele><time>2026-03-23T09:44:23.156Z</time></trkpt><trkpt lat="44.1186609" lon="10.394727"><ele>317.0</ele><time>2026-03-23T09:44:24.154Z</time></trkpt><trkpt lat="44.1186026" lon="10.3948088"><ele>316.5</ele><time>2026-03-23T09:44:25.153Z</time></trkpt><trkpt lat="44.118532" lon="10.3948757"><ele>316.0</ele><time>2026-03-23T09:44:26.155Z</time></trkpt><trkpt lat="44.1184454" lon="10.3949101"><ele>315.5</ele><time>2026-03-23T09:44:27.16Z</time></trkpt><trkpt lat="44.1183509" lon="10.3949244"><ele>315.0</ele><time>2026-03-23T09:44:28.156Z</time></trkpt><trkpt lat="44.1182583" lon="10.3949009"><ele>316.4</ele><time>2026-03-23T09:44:29.148Z</time></trkpt><trkpt lat="44.1181673" lon="10.3948407"><ele>317.8</ele><time>2026-03-23T09:44:30.153Z</time></trkpt><trkpt lat="44.1180864" lon="10.3947587"><ele>319.20000000000005</ele><time>2026-03-23T09:44:31.158Z</time></trkpt><trkpt lat="44.1180067" lon="10.3946741"><ele>320.6</ele><time>2026-03-23T09:44:32.146Z</time></trkpt><trkpt lat="44.1179145" lon="10.394613"><ele>322.0</ele><time>2026-03-23T09:44:33.151Z</time></trkpt><trkpt lat="44.1178138" lon="10.3945743"><ele>322.0</ele><time>2026-03-23T09:44:34.142Z</time></trkpt><trkpt lat="44.1177189" lon="10.3946141"><ele>322.0</ele><time>2026-03-23T09:44:35.149Z</time></trkpt><trkpt lat="44.1176341" lon="10.3946629"><ele>322.0</ele><time>2026-03-23T09:44:36.153Z</time></trkpt><trkpt lat="44.1175667" lon="10.3947417"><ele>322.0</ele><time>2026-03-23T09:44:37.154Z</time></trkpt><trkpt lat="44.1175255" lon="10.3948385"><ele>322.0</ele><time>2026-03-23T09:44:38.152Z</time></trkpt><trkpt lat="44.1175004" lon="10.3949376"><ele>322.0</ele><time>2026-03-23T09:44:39.151Z</time></trkpt><trkpt lat="44.1174918" lon="10.3950345"><ele>322.0</ele><time>2026-03-23T09:44:40.159Z</time></trkpt><trkpt lat="44.117485" lon="10.3951276"><ele>322.0</ele><time>2026-03-23T09:44:41.155Z</time></trkpt><trkpt lat="44.1174777" lon="10.3952156"><ele>322.0</ele><time>2026-03-23T09:44:42.156Z</time></trkpt><trkpt lat="44.1174647" lon="10.3953741"><ele>322.0</ele><time>2026-03-23T09:44:44.154Z</time></trkpt><trkpt lat="44.117453" lon="10.3955066"><ele>322.0</ele><time>2026-03-23T09:44:46.162Z</time></trkpt><trkpt lat="44.1174398" lon="10.3956129"><ele>322.0</ele><time>2026-03-23T09:44:48.149Z</time></trkpt><trkpt lat="44.1174269" lon="10.3957059"><ele>321.3333333333333</ele><time>2026-03-23T09:44:50.155Z</time></trkpt><trkpt lat="44.1174199" lon="10.3957955"><ele>320.66666666666663</ele><time>2026-03-23T09:44:52.152Z</time></trkpt><trkpt lat="44.1174086" lon="10.3959222"><ele>320.0</ele><time>2026-03-23T09:44:55.151Z</time></trkpt><trkpt lat="44.1174046" lon="10.3960138"><ele>319.3333333333333</ele><time>2026-03-23T09:44:57.143Z</time></trkpt><trkpt lat="44.1173954" lon="10.3961033"><ele>318.6666666666667</ele><time>2026-03-23T09:44:59.146Z</time></trkpt><trkpt lat="44.1173847" lon="10.3962262"><ele>318.0</ele><time>2026-03-23T09:45:02.172Z</time></trkpt><trkpt lat="44.1173565" lon="10.3963499"><ele>319.1428571428571</ele><time>2026-03-23T09:45:05.147Z</time></trkpt><trkpt lat="44.1173208" lon="10.3964333"><ele>320.28571428571433</ele><time>2026-03-23T09:45:07.152Z</time></trkpt><trkpt lat="44.1172503" lon="10.3965167"><ele>321.42857142857144</ele><time>2026-03-23T09:45:10.153Z</time></trkpt><trkpt lat="44.1171918" lon="10.3965509"><ele>322.57142857142856</ele><time>2026-03-23T09:45:12.145Z</time></trkpt><trkpt lat="44.1171286" lon="10.3965755"><ele>323.71428571428567</ele><time>2026-03-23T09:45:14.148Z</time></trkpt><trkpt lat="44.1170642" lon="10.3966099"><ele>324.8571428571429</ele><time>2026-03-23T09:45:16.146Z</time></trkpt><trkpt lat="44.117001" lon="10.3966434"><ele>326.0</ele><time>2026-03-23T09:45:18.153Z</time></trkpt><trkpt lat="44.1169372" lon="10.3966745"><ele>326.0</ele><time>2026-03-23T09:45:20.148Z</time></trkpt><trkpt lat="44.1168765" lon="10.3967109"><ele>326.0</ele><time>2026-03-23T09:45:22.152Z</time></trkpt><trkpt lat="44.1168186" lon="10.3967567"><ele>326.0</ele><time>2026-03-23T09:45:24.154Z</time></trkpt><trkpt lat="44.1167634" lon="10.3968157"><ele>326.0</ele><time>2026-03-23T09:45:26.153Z</time></trkpt><trkpt lat="44.1167092" lon="10.3968747"><ele>326.0</ele><time>2026-03-23T09:45:28.148Z</time></trkpt><trkpt lat="44.116651" lon="10.3969289"><ele>326.0</ele><time>2026-03-23T09:45:30.158Z</time></trkpt><trkpt lat="44.1165974" lon="10.3969867"><ele>326.0</ele><time>2026-03-23T09:45:32.151Z</time></trkpt><trkpt lat="44.1165441" lon="10.3970442"><ele>325.0</ele><time>2026-03-23T09:45:34.14Z</time></trkpt><trkpt lat="44.1164871" lon="10.3971051"><ele>324.0</ele><time>2026-03-23T09:45:36.142Z</time></trkpt><trkpt lat="44.1164282" lon="10.397168"><ele>323.0</ele><time>2026-03-23T09:45:38.156Z</time></trkpt><trkpt lat="44.1163613" lon="10.3972241"><ele>322.0</ele><time>2026-03-23T09:45:40.161Z</time></trkpt><trkpt lat="44.116278" lon="10.3972529"><ele>321.0</ele><time>2026-03-23T09:45:42.16Z</time></trkpt><trkpt lat="44.1161875" lon="10.3972412"><ele>320.0</ele><time>2026-03-23T09:45:44.163Z</time></trkpt><trkpt lat="44.1160959" lon="10.3972169"><ele>320.0</ele><time>2026-03-23T09:45:46.158Z</time></trkpt><trkpt lat="44.1160024" lon="10.3971881"><ele>320.0</ele><time>2026-03-23T09:45:48.156Z</time></trkpt><trkpt lat="44.1159094" lon="10.3971719"><ele>320.0</ele><time>2026-03-23T09:45:50.156Z</time></trkpt><trkpt lat="44.115818" lon="10.3972131"><ele>320.0</ele><time>2026-03-23T09:45:52.152Z</time></trkpt><trkpt lat="44.1157266" lon="10.3972827"><ele>320.0</ele><time>2026-03-23T09:45:54.166Z</time></trkpt><trkpt lat="44.1156317" lon="10.3973847"><ele>324.6</ele><time>2026-03-23T09:45:56.16Z</time></trkpt><trkpt lat="44.1155442" lon="10.3975036"><ele>329.2</ele><time>2026-03-23T09:45:58.153Z</time></trkpt><trkpt lat="44.1154548" lon="10.3976284"><ele>333.79999999999995</ele><time>2026-03-23T09:46:00.155Z</time></trkpt><trkpt lat="44.1154088" lon="10.3976974"><ele>338.4</ele><time>2026-03-23T09:46:01.155Z</time></trkpt><trkpt lat="44.115362" lon="10.3977684"><ele>343.0</ele><time>2026-03-23T09:46:02.16Z</time></trkpt><trkpt lat="44.1153156" lon="10.3978367"><ele>343.0</ele><time>2026-03-23T09:46:03.153Z</time></trkpt><trkpt lat="44.1152673" lon="10.397912"><ele>343.0</ele><time>2026-03-23T09:46:04.153Z</time></trkpt><trkpt lat="44.1152208" lon="10.3979801"><ele>343.0</ele><time>2026-03-23T09:46:05.15Z</time></trkpt><trkpt lat="44.1151735" lon="10.3980448"><ele>343.0</ele><time>2026-03-23T09:46:06.148Z</time></trkpt><trkpt lat="44.1151246" lon="10.3981141"><ele>343.0</ele><time>2026-03-23T09:46:07.158Z</time></trkpt><trkpt lat="44.1150753" lon="10.3981819"><ele>343.0</ele><time>2026-03-23T09:46:08.151Z</time></trkpt><trkpt lat="44.1150262" lon="10.3982513"><ele>343.0</ele><time>2026-03-23T09:46:09.151Z</time></trkpt><trkpt lat="44.1149776" lon="10.3983186"><ele>341.85714285714283</ele><time>2026-03-23T09:46:10.168Z</time></trkpt><trkpt lat="44.114929" lon="10.3983889"><ele>340.7142857142857</ele><time>2026-03-23T09:46:11.15Z</time></trkpt><trkpt lat="44.1148742" lon="10.3984667"><ele>339.57142857142856</ele><time>2026-03-23T09:46:12.165Z</time></trkpt><trkpt lat="44.1148224" lon="10.3985413"><ele>338.42857142857144</ele><time>2026-03-23T09:46:13.155Z</time></trkpt><trkpt lat="44.1147743" lon="10.3986195"><ele>337.2857142857143</ele><time>2026-03-23T09:46:14.162Z</time></trkpt><trkpt lat="44.1147274" lon="10.3987006"><ele>336.1428571428571</ele><time>2026-03-23T09:46:15.164Z</time></trkpt><trkpt lat="44.1146853" lon="10.3987834"><ele>335.0</ele><time>2026-03-23T09:46:16.148Z</time></trkpt><trkpt lat="44.1146419" lon="10.3988647"><ele>332.5</ele><time>2026-03-23T09:46:17.149Z</time></trkpt><trkpt lat="44.1145963" lon="10.3989452"><ele>330.0</ele><time>2026-03-23T09:46:18.151Z</time></trkpt><trkpt lat="44.1145529" lon="10.3990276"><ele>327.5</ele><time>2026-03-23T09:46:19.155Z</time></trkpt><trkpt lat="44.1145084" lon="10.3991115"><ele>325.0</ele><time>2026-03-23T09:46:20.153Z</time></trkpt><trkpt lat="44.114464" lon="10.3991959"><ele>322.5</ele><time>2026-03-23T09:46:21.145Z</time></trkpt><trkpt lat="44.1144099" lon="10.3992742"><ele>320.0</ele><time>2026-03-23T09:46:22.151Z</time></trkpt><trkpt lat="44.1143488" lon="10.3993415"><ele>320.0</ele><time>2026-03-23T09:46:23.148Z</time></trkpt><trkpt lat="44.1142793" lon="10.3993841"><ele>320.0</ele><time>2026-03-23T09:46:24.148Z</time></trkpt><trkpt lat="44.1142117" lon="10.3994182"><ele>320.0</ele><time>2026-03-23T09:46:25.152Z</time></trkpt><trkpt lat="44.1141385" lon="10.3994507"><ele>320.0</ele><time>2026-03-23T09:46:26.142Z</time></trkpt><trkpt lat="44.1140712" lon="10.3994741"><ele>320.0</ele><time>2026-03-23T09:46:27.15Z</time></trkpt><trkpt lat="44.1140015" lon="10.3995119"><ele>320.0</ele><time>2026-03-23T09:46:28.158Z</time></trkpt><trkpt lat="44.1139325" lon="10.3995496"><ele>320.0</ele><time>2026-03-23T09:46:29.159Z</time></trkpt><trkpt lat="44.1138707" lon="10.3995985"><ele>320.0</ele><time>2026-03-23T09:46:30.15Z</time></trkpt><trkpt lat="44.1138198" lon="10.3996545"><ele>320.0</ele><time>2026-03-23T09:46:31.159Z</time></trkpt><trkpt lat="44.1137746" lon="10.3997233"><ele>320.0</ele><time>2026-03-23T09:46:32.158Z</time></trkpt><trkpt lat="44.1137357" lon="10.3998057"><ele>320.0</ele><time>2026-03-23T09:46:33.151Z</time></trkpt><trkpt lat="44.1137008" lon="10.3998876"><ele>320.0</ele><time>2026-03-23T09:46:34.15Z</time></trkpt><trkpt lat="44.1136669" lon="10.3999722"><ele>320.0</ele><time>2026-03-23T09:46:35.151Z</time></trkpt><trkpt lat="44.1136304" lon="10.4000584"><ele>320.0</ele><time>2026-03-23T09:46:36.149Z</time></trkpt><trkpt lat="44.1135928" lon="10.4001412"><ele>320.0</ele><time>2026-03-23T09:46:37.153Z</time></trkpt><trkpt lat="44.1135555" lon="10.4002241"><ele>320.0</ele><time>2026-03-23T09:46:38.157Z</time></trkpt><trkpt lat="44.113521" lon="10.400309"><ele>320.0</ele><time>2026-03-23T09:46:39.154Z</time></trkpt><trkpt lat="44.1134872" lon="10.4003949"><ele>320.0</ele><time>2026-03-23T09:46:40.151Z</time></trkpt><trkpt lat="44.1134534" lon="10.4004783"><ele>320.0</ele><time>2026-03-23T09:46:41.155Z</time></trkpt><trkpt lat="44.1134158" lon="10.4005594"><ele>320.0</ele><time>2026-03-23T09:46:42.155Z</time></trkpt><trkpt lat="44.1133815" lon="10.4006423"><ele>320.0</ele><time>2026-03-23T09:46:43.157Z</time></trkpt><trkpt lat="44.1133442" lon="10.4007253"><ele>320.85714285714283</ele><time>2026-03-23T09:46:44.149Z</time></trkpt><trkpt lat="44.1133011" lon="10.4008085"><ele>321.7142857142857</ele><time>2026-03-23T09:46:45.159Z</time></trkpt><trkpt lat="44.1132637" lon="10.4008855"><ele>322.57142857142856</ele><time>2026-03-23T09:46:46.156Z</time></trkpt><trkpt lat="44.1132254" lon="10.4009722"><ele>323.42857142857144</ele><time>2026-03-23T09:46:47.16Z</time></trkpt><trkpt lat="44.1131868" lon="10.4010568"><ele>324.2857142857143</ele><time>2026-03-23T09:46:48.162Z</time></trkpt><trkpt lat="44.113146" lon="10.4011408"><ele>325.14285714285717</ele><time>2026-03-23T09:46:49.155Z</time></trkpt><trkpt lat="44.1131066" lon="10.4012317"><ele>326.0</ele><time>2026-03-23T09:46:50.153Z</time></trkpt><trkpt lat="44.1130698" lon="10.4013121"><ele>324.0</ele><time>2026-03-23T09:46:51.154Z</time></trkpt><trkpt lat="44.1130355" lon="10.4013967"><ele>322.0</ele><time>2026-03-23T09:46:52.153Z</time></trkpt><trkpt lat="44.1130012" lon="10.4014828"><ele>320.0</ele><time>2026-03-23T09:46:53.152Z</time></trkpt><trkpt lat="44.1129668" lon="10.4015601"><ele>318.0</ele><time>2026-03-23T09:46:54.141Z</time></trkpt><trkpt lat="44.1129272" lon="10.4016388"><ele>316.0</ele><time>2026-03-23T09:46:55.164Z</time></trkpt><trkpt lat="44.1128866" lon="10.4017273"><ele>314.0</ele><time>2026-03-23T09:46:56.152Z</time></trkpt><trkpt lat="44.112848" lon="10.4018142"><ele>312.0</ele><time>2026-03-23T09:46:57.155Z</time></trkpt><trkpt lat="44.1128124" lon="10.4018956"><ele>312.0</ele><time>2026-03-23T09:46:58.15Z</time></trkpt><trkpt lat="44.1127774" lon="10.4019742"><ele>312.0</ele><time>2026-03-23T09:46:59.15Z</time></trkpt><trkpt lat="44.1127456" lon="10.4020499"><ele>312.0</ele><time>2026-03-23T09:47:00.156Z</time></trkpt><trkpt lat="44.1127081" lon="10.4021238"><ele>312.0</ele><time>2026-03-23T09:47:01.152Z</time></trkpt><trkpt lat="44.1126689" lon="10.4022039"><ele>312.0</ele><time>2026-03-23T09:47:02.144Z</time></trkpt><trkpt lat="44.1126302" lon="10.4022754"><ele>312.0</ele><time>2026-03-23T09:47:03.147Z</time></trkpt><trkpt lat="44.1125864" lon="10.4023409"><ele>312.0</ele><time>2026-03-23T09:47:04.148Z</time></trkpt><trkpt lat="44.112538" lon="10.4023978"><ele>311.0</ele><time>2026-03-23T09:47:05.151Z</time></trkpt><trkpt lat="44.1124815" lon="10.4024545"><ele>310.0</ele><time>2026-03-23T09:47:06.153Z</time></trkpt><trkpt lat="44.1124239" lon="10.402511"><ele>309.0</ele><time>2026-03-23T09:47:07.143Z</time></trkpt><trkpt lat="44.112368" lon="10.402568"><ele>308.0</ele><time>2026-03-23T09:47:08.151Z</time></trkpt><trkpt lat="44.1123127" lon="10.4026228"><ele>307.0</ele><time>2026-03-23T09:47:09.158Z</time></trkpt><trkpt lat="44.1122551" lon="10.4026767"><ele>306.0</ele><time>2026-03-23T09:47:10.154Z</time></trkpt><trkpt lat="44.1121967" lon="10.40273"><ele>305.0</ele><time>2026-03-23T09:47:11.151Z</time></trkpt><trkpt lat="44.112138" lon="10.402785"><ele>305.14285714285717</ele><time>2026-03-23T09:47:12.159Z</time></trkpt><trkpt lat="44.1120844" lon="10.4028407"><ele>305.2857142857143</ele><time>2026-03-23T09:47:13.151Z</time></trkpt><trkpt lat="44.1120332" lon="10.4028966"><ele>305.42857142857144</ele><time>2026-03-23T09:47:14.157Z</time></trkpt><trkpt lat="44.1119771" lon="10.402953"><ele>305.57142857142856</ele><time>2026-03-23T09:47:15.153Z</time></trkpt><trkpt lat="44.1119226" lon="10.4030104"><ele>305.7142857142857</ele><time>2026-03-23T09:47:16.143Z</time></trkpt><trkpt lat="44.1118763" lon="10.4030739"><ele>305.85714285714283</ele><time>2026-03-23T09:47:17.147Z</time></trkpt><trkpt lat="44.1118369" lon="10.4031456"><ele>306.0</ele><time>2026-03-23T09:47:18.147Z</time></trkpt><trkpt lat="44.1118083" lon="10.4032365"><ele>306.0</ele><time>2026-03-23T09:47:19.146Z</time></trkpt><trkpt lat="44.1117815" lon="10.4033276"><ele>306.0</ele><time>2026-03-23T09:47:20.144Z</time></trkpt><trkpt lat="44.111756" lon="10.4034152"><ele>306.0</ele><time>2026-03-23T09:47:21.149Z</time></trkpt><trkpt lat="44.1117275" lon="10.4035058"><ele>306.0</ele><time>2026-03-23T09:47:22.14Z</time></trkpt><trkpt lat="44.1116971" lon="10.4036039"><ele>306.0</ele><time>2026-03-23T09:47:23.147Z</time></trkpt><trkpt lat="44.1116679" lon="10.4036955"><ele>306.0</ele><time>2026-03-23T09:47:24.167Z</time></trkpt><trkpt lat="44.1116437" lon="10.403783"><ele>306.0</ele><time>2026-03-23T09:47:25.147Z</time></trkpt><trkpt lat="44.1116148" lon="10.4038745"><ele>306.7142857142857</ele><time>2026-03-23T09:47:26.147Z</time></trkpt><trkpt lat="44.1115865" lon="10.4039665"><ele>307.42857142857144</ele><time>2026-03-23T09:47:27.164Z</time></trkpt><trkpt lat="44.1115599" lon="10.4040599"><ele>308.1428571428571</ele><time>2026-03-23T09:47:28.152Z</time></trkpt><trkpt lat="44.1115323" lon="10.404153"><ele>308.8571428571429</ele><time>2026-03-23T09:47:29.16Z</time></trkpt><trkpt lat="44.1115039" lon="10.4042421"><ele>309.5714285714286</ele><time>2026-03-23T09:47:30.166Z</time></trkpt><trkpt lat="44.1114695" lon="10.4043251"><ele>310.2857142857143</ele><time>2026-03-23T09:47:31.146Z</time></trkpt><trkpt lat="44.1114403" lon="10.4044074"><ele>311.0</ele><time>2026-03-23T09:47:32.156Z</time></trkpt><trkpt lat="44.1114029" lon="10.4044818"><ele>311.0</ele><time>2026-03-23T09:47:33.154Z</time></trkpt><trkpt lat="44.1113223" lon="10.404612"><ele>311.0</ele><time>2026-03-23T09:47:35.149Z</time></trkpt><trkpt lat="44.1112562" lon="10.404738"><ele>311.0</ele><time>2026-03-23T09:47:37.152Z</time></trkpt><trkpt lat="44.1112646" lon="10.4048984"><ele>311.0</ele><time>2026-03-23T09:47:39.156Z</time></trkpt><trkpt lat="44.1113513" lon="10.4050233"><ele>310.0</ele><time>2026-03-23T09:47:41.151Z</time></trkpt><trkpt lat="44.111475" lon="10.4049935"><ele>309.0</ele><time>2026-03-23T09:47:43.15Z</time></trkpt><trkpt lat="44.1115354" lon="10.4049448"><ele>308.0</ele><time>2026-03-23T09:47:44.156Z</time></trkpt><trkpt lat="44.1115803" lon="10.4048606"><ele>307.0</ele><time>2026-03-23T09:47:45.157Z</time></trkpt><trkpt lat="44.1116298" lon="10.4047863"><ele>306.0</ele><time>2026-03-23T09:47:46.154Z</time></trkpt><trkpt lat="44.1116836" lon="10.4047162"><ele>305.0</ele><time>2026-03-23T09:47:47.155Z</time></trkpt><trkpt lat="44.1117339" lon="10.4046434"><ele>303.8571428571429</ele><time>2026-03-23T09:47:48.152Z</time></trkpt><trkpt lat="44.1117888" lon="10.4045775"><ele>302.71428571428567</ele><time>2026-03-23T09:47:49.156Z</time></trkpt><trkpt lat="44.111839" lon="10.4045088"><ele>301.57142857142856</ele><time>2026-03-23T09:47:50.151Z</time></trkpt><trkpt lat="44.1118953" lon="10.4044421"><ele>300.42857142857144</ele><time>2026-03-23T09:47:51.151Z</time></trkpt><trkpt lat="44.1119529" lon="10.4043715"><ele>299.28571428571433</ele><time>2026-03-23T09:47:52.155Z</time></trkpt><trkpt lat="44.1120094" lon="10.4043059"><ele>298.14285714285717</ele><time>2026-03-23T09:47:53.148Z</time></trkpt><trkpt lat="44.1120688" lon="10.4042393"><ele>297.0</ele><time>2026-03-23T09:47:54.153Z</time></trkpt><trkpt lat="44.1121325" lon="10.404171"><ele>297.0</ele><time>2026-03-23T09:47:55.155Z</time></trkpt><trkpt lat="44.1121953" lon="10.4041038"><ele>297.0</ele><time>2026-03-23T09:47:56.158Z</time></trkpt><trkpt lat="44.1122606" lon="10.4040288"><ele>297.0</ele><time>2026-03-23T09:47:57.15Z</time></trkpt><trkpt lat="44.1123222" lon="10.4039531"><ele>297.0</ele><time>2026-03-23T09:47:58.156Z</time></trkpt><trkpt lat="44.1123794" lon="10.4038665"><ele>297.0</ele><time>2026-03-23T09:47:59.161Z</time></trkpt><trkpt lat="44.1124404" lon="10.4037792"><ele>297.0</ele><time>2026-03-23T09:48:00.15Z</time></trkpt><trkpt lat="44.112499" lon="10.4036869"><ele>296.6</ele><time>2026-03-23T09:48:01.153Z</time></trkpt><trkpt lat="44.1125591" lon="10.4035908"><ele>296.2</ele><time>2026-03-23T09:48:02.153Z</time></trkpt><trkpt lat="44.1126196" lon="10.4035002"><ele>295.8</ele><time>2026-03-23T09:48:03.162Z</time></trkpt><trkpt lat="44.1126849" lon="10.4034061"><ele>295.4</ele><time>2026-03-23T09:48:04.147Z</time></trkpt><trkpt lat="44.1127635" lon="10.4033061"><ele>295.0</ele><time>2026-03-23T09:48:05.149Z</time></trkpt><trkpt lat="44.1128433" lon="10.4032145"><ele>295.0</ele><time>2026-03-23T09:48:06.156Z</time></trkpt><trkpt lat="44.1129339" lon="10.4031277"><ele>295.0</ele><time>2026-03-23T09:48:07.153Z</time></trkpt><trkpt lat="44.113029" lon="10.4030556"><ele>295.0</ele><time>2026-03-23T09:48:08.155Z</time></trkpt><trkpt lat="44.1131308" lon="10.4029901"><ele>295.0</ele><time>2026-03-23T09:48:09.147Z</time></trkpt><trkpt lat="44.1132321" lon="10.4029272"><ele>295.0</ele><time>2026-03-23T09:48:10.153Z</time></trkpt><trkpt lat="44.1133382" lon="10.4028604"><ele>292.5</ele><time>2026-03-23T09:48:11.16Z</time></trkpt><trkpt lat="44.1134447" lon="10.4028017"><ele>290.0</ele><time>2026-03-23T09:48:12.161Z</time></trkpt><trkpt lat="44.1135484" lon="10.4027356"><ele>287.5</ele><time>2026-03-23T09:48:13.143Z</time></trkpt><trkpt lat="44.1136496" lon="10.4026623"><ele>285.0</ele><time>2026-03-23T09:48:14.147Z</time></trkpt><trkpt lat="44.113746" lon="10.4025855"><ele>285.0</ele><time>2026-03-23T09:48:15.152Z</time></trkpt><trkpt lat="44.1138331" lon="10.4025244"><ele>285.0</ele><time>2026-03-23T09:48:16.153Z</time></trkpt><trkpt lat="44.1139233" lon="10.4024792"><ele>285.0</ele><time>2026-03-23T09:48:17.154Z</time></trkpt><trkpt lat="44.114011" lon="10.4024861"><ele>285.0</ele><time>2026-03-23T09:48:18.154Z</time></trkpt><trkpt lat="44.1140936" lon="10.4025162"><ele>285.0</ele><time>2026-03-23T09:48:19.148Z</time></trkpt><trkpt lat="44.114157" lon="10.4025959"><ele>283.3333333333333</ele><time>2026-03-23T09:48:20.151Z</time></trkpt><trkpt lat="44.1142071" lon="10.4026779"><ele>281.6666666666667</ele><time>2026-03-23T09:48:21.152Z</time></trkpt><trkpt lat="44.1142546" lon="10.4027678"><ele>280.0</ele><time>2026-03-23T09:48:22.152Z</time></trkpt><trkpt lat="44.1143033" lon="10.4028461"><ele>278.33333333333337</ele><time>2026-03-23T09:48:23.155Z</time></trkpt><trkpt lat="44.1144029" lon="10.4028826"><ele>276.6666666666667</ele><time>2026-03-23T09:48:25.153Z</time></trkpt><trkpt lat="44.1144809" lon="10.4028135"><ele>275.0</ele><time>2026-03-23T09:48:27.153Z</time></trkpt><trkpt lat="44.1145422" lon="10.4027392"><ele>275.0</ele><time>2026-03-23T09:48:29.153Z</time></trkpt><trkpt lat="44.1146078" lon="10.4026528"><ele>275.0</ele><time>2026-03-23T09:48:31.147Z</time></trkpt><trkpt lat="44.1146694" lon="10.40258"><ele>275.0</ele><time>2026-03-23T09:48:33.143Z</time></trkpt><trkpt lat="44.1147379" lon="10.4025294"><ele>275.0</ele><time>2026-03-23T09:48:35.15Z</time></trkpt><trkpt lat="44.1148016" lon="10.402473"><ele>275.0</ele><time>2026-03-23T09:48:37.156Z</time></trkpt><trkpt lat="44.1148548" lon="10.402412"><ele>275.0</ele><time>2026-03-23T09:48:39.154Z</time></trkpt><trkpt lat="44.1149125" lon="10.4023561"><ele>274.8571428571429</ele><time>2026-03-23T09:48:41.149Z</time></trkpt><trkpt lat="44.1149674" lon="10.4023052"><ele>274.7142857142857</ele><time>2026-03-23T09:48:43.154Z</time></trkpt><trkpt lat="44.1150195" lon="10.4022536"><ele>274.57142857142856</ele><time>2026-03-23T09:48:45.155Z</time></trkpt><trkpt lat="44.1150732" lon="10.402201"><ele>274.42857142857144</ele><time>2026-03-23T09:48:47.155Z</time></trkpt><trkpt lat="44.115125" lon="10.4021365"><ele>274.2857142857143</ele><time>2026-03-23T09:48:49.157Z</time></trkpt><trkpt lat="44.1151846" lon="10.402075"><ele>274.14285714285717</ele><time>2026-03-23T09:48:51.148Z</time></trkpt><trkpt lat="44.1152536" lon="10.4020178"><ele>274.0</ele><time>2026-03-23T09:48:53.156Z</time></trkpt><trkpt lat="44.1153222" lon="10.4019451"><ele>274.66666666666663</ele><time>2026-03-23T09:48:55.154Z</time></trkpt><trkpt lat="44.1153903" lon="10.4018661"><ele>275.3333333333333</ele><time>2026-03-23T09:48:57.148Z</time></trkpt><trkpt lat="44.115472" lon="10.4017863"><ele>276.0</ele><time>2026-03-23T09:48:59.152Z</time></trkpt><trkpt lat="44.1155379" lon="10.401712"><ele>276.6666666666667</ele><time>2026-03-23T09:49:01.155Z</time></trkpt><trkpt lat="44.1156087" lon="10.401642"><ele>277.33333333333337</ele><time>2026-03-23T09:49:03.148Z</time></trkpt><trkpt lat="44.11567" lon="10.4015789"><ele>278.0</ele><time>2026-03-23T09:49:05.158Z</time></trkpt><trkpt lat="44.1157348" lon="10.4015211"><ele>277.83333333333337</ele><time>2026-03-23T09:49:07.158Z</time></trkpt><trkpt lat="44.1158032" lon="10.4014656"><ele>277.6666666666667</ele><time>2026-03-23T09:49:09.145Z</time></trkpt><trkpt lat="44.1158765" lon="10.4014311"><ele>277.5</ele><time>2026-03-23T09:49:11.154Z</time></trkpt><trkpt lat="44.1159563" lon="10.4014349"><ele>277.3333333333333</ele><time>2026-03-23T09:49:13.156Z</time></trkpt><trkpt lat="44.1160311" lon="10.4014604"><ele>277.16666666666663</ele><time>2026-03-23T09:49:15.154Z</time></trkpt><trkpt lat="44.1160984" lon="10.4015165"><ele>277.0</ele><time>2026-03-23T09:49:17.158Z</time></trkpt><trkpt lat="44.1161492" lon="10.4016043"><ele>277.0</ele><time>2026-03-23T09:49:19.15Z</time></trkpt><trkpt lat="44.1161984" lon="10.4016916"><ele>277.0</ele><time>2026-03-23T09:49:21.142Z</time></trkpt><trkpt lat="44.1162474" lon="10.4017799"><ele>277.0</ele><time>2026-03-23T09:49:23.159Z</time></trkpt><trkpt lat="44.1162971" lon="10.40187"><ele>277.0</ele><time>2026-03-23T09:49:25.152Z</time></trkpt><trkpt lat="44.1163427" lon="10.4019603"><ele>277.0</ele><time>2026-03-23T09:49:27.147Z</time></trkpt><trkpt lat="44.1163896" lon="10.4020519"><ele>277.0</ele><time>2026-03-23T09:49:29.149Z</time></trkpt><trkpt lat="44.1164505" lon="10.4021443"><ele>277.0</ele><time>2026-03-23T09:49:31.151Z</time></trkpt><trkpt lat="44.1165038" lon="10.4022251"><ele>277.0</ele><time>2026-03-23T09:49:33.145Z</time></trkpt><trkpt lat="44.1165615" lon="10.402306"><ele>277.0</ele><time>2026-03-23T09:49:35.151Z</time></trkpt><trkpt lat="44.1166168" lon="10.4023874"><ele>277.0</ele><time>2026-03-23T09:49:37.144Z</time></trkpt><trkpt lat="44.1166678" lon="10.402471"><ele>277.0</ele><time>2026-03-23T09:49:39.147Z</time></trkpt><trkpt lat="44.1167132" lon="10.402548"><ele>277.0</ele><time>2026-03-23T09:49:41.152Z</time></trkpt><trkpt lat="44.1167611" lon="10.4026238"><ele>277.0</ele><time>2026-03-23T09:49:43.149Z</time></trkpt><trkpt lat="44.1168094" lon="10.4027012"><ele>277.0</ele><time>2026-03-23T09:49:45.147Z</time></trkpt><trkpt lat="44.1168615" lon="10.4027805"><ele>277.0</ele><time>2026-03-23T09:49:47.145Z</time></trkpt><trkpt lat="44.1169109" lon="10.4028623"><ele>277.0</ele><time>2026-03-23T09:49:49.155Z</time></trkpt><trkpt lat="44.1169625" lon="10.4029396"><ele>277.0</ele><time>2026-03-23T09:49:51.153Z</time></trkpt><trkpt lat="44.1170144" lon="10.4030205"><ele>277.0</ele><time>2026-03-23T09:49:53.152Z</time></trkpt><trkpt lat="44.1170628" lon="10.4030999"><ele>276.85714285714283</ele><time>2026-03-23T09:49:55.142Z</time></trkpt><trkpt lat="44.1171149" lon="10.4031735"><ele>276.71428571428567</ele><time>2026-03-23T09:49:57.153Z</time></trkpt><trkpt lat="44.1171626" lon="10.4032528"><ele>276.57142857142856</ele><time>2026-03-23T09:49:59.156Z</time></trkpt><trkpt lat="44.1172094" lon="10.4033323"><ele>276.42857142857144</ele><time>2026-03-23T09:50:01.161Z</time></trkpt><trkpt lat="44.1172581" lon="10.4034106"><ele>276.28571428571433</ele><time>2026-03-23T09:50:03.167Z</time></trkpt><trkpt lat="44.1173061" lon="10.403486"><ele>276.14285714285717</ele><time>2026-03-23T09:50:05.164Z</time></trkpt><trkpt lat="44.1173476" lon="10.4035564"><ele>276.0</ele><time>2026-03-23T09:50:07.148Z</time></trkpt><trkpt lat="44.1174063" lon="10.4036541"><ele>276.0</ele><time>2026-03-23T09:50:10.157Z</time></trkpt><trkpt lat="44.1174667" lon="10.4037453"><ele>276.0</ele><time>2026-03-23T09:50:13.149Z</time></trkpt><trkpt lat="44.1175196" lon="10.4038052"><ele>276.0</ele><time>2026-03-23T09:50:15.158Z</time></trkpt><trkpt lat="44.1175999" lon="10.4038232"><ele>276.0</ele><time>2026-03-23T09:50:17.154Z</time></trkpt><trkpt lat="44.1176843" lon="10.4037628"><ele>276.0</ele><time>2026-03-23T09:50:19.151Z</time></trkpt><trkpt lat="44.1177515" lon="10.4036739"><ele>276.0</ele><time>2026-03-23T09:50:21.157Z</time></trkpt><trkpt lat="44.117829" lon="10.4036017"><ele>276.0</ele><time>2026-03-23T09:50:23.157Z</time></trkpt><trkpt lat="44.1179152" lon="10.4035341"><ele>276.0</ele><time>2026-03-23T09:50:25.15Z</time></trkpt><trkpt lat="44.1179958" lon="10.4034674"><ele>276.0</ele><time>2026-03-23T09:50:27.151Z</time></trkpt><trkpt lat="44.1180723" lon="10.4034048"><ele>276.0</ele><time>2026-03-23T09:50:29.148Z</time></trkpt><trkpt lat="44.1181444" lon="10.4033415"><ele>276.0</ele><time>2026-03-23T09:50:31.169Z</time></trkpt><trkpt lat="44.1182155" lon="10.4032947"><ele>276.0</ele><time>2026-03-23T09:50:33.155Z</time></trkpt><trkpt lat="44.1182822" lon="10.403241"><ele>276.5</ele><time>2026-03-23T09:50:35.149Z</time></trkpt><trkpt lat="44.1183412" lon="10.4031921"><ele>277.0</ele><time>2026-03-23T09:50:37.14Z</time></trkpt><trkpt lat="44.1184016" lon="10.4031421"><ele>277.5</ele><time>2026-03-23T09:50:39.141Z</time></trkpt><trkpt lat="44.1184671" lon="10.4030887"><ele>278.0</ele><time>2026-03-23T09:50:41.158Z</time></trkpt><trkpt lat="44.1185393" lon="10.4030356"><ele>278.5</ele><time>2026-03-23T09:50:43.158Z</time></trkpt><trkpt lat="44.1186052" lon="10.4029715"><ele>279.0</ele><time>2026-03-23T09:50:45.154Z</time></trkpt><trkpt lat="44.118667" lon="10.4029033"><ele>279.0</ele><time>2026-03-23T09:50:47.156Z</time></trkpt><trkpt lat="44.1187296" lon="10.4028455"><ele>279.0</ele><time>2026-03-23T09:50:49.145Z</time></trkpt><trkpt lat="44.1187874" lon="10.40278"><ele>279.0</ele><time>2026-03-23T09:50:51.154Z</time></trkpt><trkpt lat="44.1188205" lon="10.4026858"><ele>279.0</ele><time>2026-03-23T09:50:53.152Z</time></trkpt><trkpt lat="44.118842" lon="10.4025827"><ele>279.0</ele><time>2026-03-23T09:50:55.157Z</time></trkpt><trkpt lat="44.11887" lon="10.4024797"><ele>279.0</ele><time>2026-03-23T09:50:57.152Z</time></trkpt><trkpt lat="44.1189176" lon="10.4023924"><ele>279.0</ele><time>2026-03-23T09:50:59.144Z</time></trkpt><trkpt lat="44.1189656" lon="10.4023109"><ele>279.0</ele><time>2026-03-23T09:51:01.149Z</time></trkpt><trkpt lat="44.1190166" lon="10.4022323"><ele>279.0</ele><time>2026-03-23T09:51:03.157Z</time></trkpt><trkpt lat="44.1190679" lon="10.402154"><ele>279.0</ele><time>2026-03-23T09:51:05.154Z</time></trkpt><trkpt lat="44.1191179" lon="10.4020722"><ele>279.0</ele><time>2026-03-23T09:51:07.152Z</time></trkpt><trkpt lat="44.119167" lon="10.4019902"><ele>279.0</ele><time>2026-03-23T09:51:09.154Z</time></trkpt><trkpt lat="44.1192124" lon="10.4019031"><ele>279.1666666666667</ele><time>2026-03-23T09:51:11.149Z</time></trkpt><trkpt lat="44.1192604" lon="10.4018265"><ele>279.3333333333333</ele><time>2026-03-23T09:51:13.148Z</time></trkpt><trkpt lat="44.1193157" lon="10.4017507"><ele>279.5</ele><time>2026-03-23T09:51:15.154Z</time></trkpt><trkpt lat="44.1193647" lon="10.4016662"><ele>279.66666666666663</ele><time>2026-03-23T09:51:17.151Z</time></trkpt><trkpt lat="44.1194097" lon="10.4015838"><ele>279.8333333333333</ele><time>2026-03-23T09:51:19.161Z</time></trkpt><trkpt lat="44.1194588" lon="10.4015037"><ele>280.0</ele><time>2026-03-23T09:51:21.149Z</time></trkpt><trkpt lat="44.119511" lon="10.4014242"><ele>280.0</ele><time>2026-03-23T09:51:23.151Z</time></trkpt><trkpt lat="44.1195615" lon="10.4013463"><ele>280.0</ele><time>2026-03-23T09:51:25.148Z</time></trkpt><trkpt lat="44.1196087" lon="10.4012682"><ele>280.0</ele><time>2026-03-23T09:51:27.149Z</time></trkpt><trkpt lat="44.1196576" lon="10.4011832"><ele>280.0</ele><time>2026-03-23T09:51:29.15Z</time></trkpt><trkpt lat="44.1197086" lon="10.4011022"><ele>280.0</ele><time>2026-03-23T09:51:31.142Z</time></trkpt><trkpt lat="44.1197553" lon="10.4010204"><ele>280.0</ele><time>2026-03-23T09:51:33.157Z</time></trkpt><trkpt lat="44.1197998" lon="10.4009389"><ele>280.0</ele><time>2026-03-23T09:51:35.157Z</time></trkpt><trkpt lat="44.1198451" lon="10.400854"><ele>280.0</ele><time>2026-03-23T09:51:37.15Z</time></trkpt><trkpt lat="44.1198891" lon="10.4007643"><ele>280.0</ele><time>2026-03-23T09:51:39.169Z</time></trkpt><trkpt lat="44.1199299" lon="10.4006752"><ele>280.0</ele><time>2026-03-23T09:51:41.154Z</time></trkpt><trkpt lat="44.1199681" lon="10.400586"><ele>280.0</ele><time>2026-03-23T09:51:43.14Z</time></trkpt><trkpt lat="44.1200061" lon="10.4004922"><ele>280.0</ele><time>2026-03-23T09:51:45.147Z</time></trkpt><trkpt lat="44.1200413" lon="10.4004003"><ele>280.5</ele><time>2026-03-23T09:51:47.151Z</time></trkpt><trkpt lat="44.1200771" lon="10.400305"><ele>281.0</ele><time>2026-03-23T09:51:49.149Z</time></trkpt><trkpt lat="44.1201135" lon="10.4002116"><ele>281.5</ele><time>2026-03-23T09:51:51.144Z</time></trkpt><trkpt lat="44.1201499" lon="10.4001173"><ele>282.0</ele><time>2026-03-23T09:51:53.151Z</time></trkpt><trkpt lat="44.1201888" lon="10.4000199"><ele>282.5</ele><time>2026-03-23T09:51:55.158Z</time></trkpt><trkpt lat="44.1202286" lon="10.3999234"><ele>283.0</ele><time>2026-03-23T09:51:57.157Z</time></trkpt><trkpt lat="44.1202635" lon="10.3998261"><ele>283.0</ele><time>2026-03-23T09:51:59.155Z</time></trkpt><trkpt lat="44.1203036" lon="10.3997343"><ele>283.0</ele><time>2026-03-23T09:52:01.167Z</time></trkpt><trkpt lat="44.1203422" lon="10.3996427"><ele>283.0</ele><time>2026-03-23T09:52:03.154Z</time></trkpt><trkpt lat="44.1203786" lon="10.3995506"><ele>283.0</ele><time>2026-03-23T09:52:05.155Z</time></trkpt><trkpt lat="44.1204137" lon="10.3994558"><ele>283.0</ele><time>2026-03-23T09:52:07.149Z</time></trkpt><trkpt lat="44.1204461" lon="10.39936"><ele>283.0</ele><time>2026-03-23T09:52:09.154Z</time></trkpt><trkpt lat="44.1204786" lon="10.3992631"><ele>282.8333333333333</ele><time>2026-03-23T09:52:11.153Z</time></trkpt><trkpt lat="44.1205149" lon="10.3991662"><ele>282.66666666666663</ele><time>2026-03-23T09:52:13.145Z</time></trkpt><trkpt lat="44.1205488" lon="10.3990667"><ele>282.5</ele><time>2026-03-23T09:52:15.147Z</time></trkpt><trkpt lat="44.1205848" lon="10.3989667"><ele>282.3333333333333</ele><time>2026-03-23T09:52:17.152Z</time></trkpt><trkpt lat="44.1206199" lon="10.3988665"><ele>282.1666666666667</ele><time>2026-03-23T09:52:19.157Z</time></trkpt><trkpt lat="44.1206575" lon="10.3987734"><ele>282.0</ele><time>2026-03-23T09:52:21.145Z</time></trkpt><trkpt lat="44.1206998" lon="10.3986861"><ele>282.1666666666667</ele><time>2026-03-23T09:52:23.15Z</time></trkpt><trkpt lat="44.1207504" lon="10.3986135"><ele>282.3333333333333</ele><time>2026-03-23T09:52:25.15Z</time></trkpt><trkpt lat="44.1208202" lon="10.398563"><ele>282.5</ele><time>2026-03-23T09:52:27.156Z</time></trkpt><trkpt lat="44.1209003" lon="10.3985453"><ele>282.66666666666663</ele><time>2026-03-23T09:52:29.144Z</time></trkpt><trkpt lat="44.120978" lon="10.3985476"><ele>282.8333333333333</ele><time>2026-03-23T09:52:31.157Z</time></trkpt><trkpt lat="44.1210612" lon="10.3985533"><ele>283.0</ele><time>2026-03-23T09:52:33.151Z</time></trkpt><trkpt lat="44.1211513" lon="10.3985537"><ele>283.0</ele><time>2026-03-23T09:52:35.144Z</time></trkpt><trkpt lat="44.121235" lon="10.3985335"><ele>283.0</ele><time>2026-03-23T09:52:37.152Z</time></trkpt><trkpt lat="44.1213132" lon="10.398491"><ele>283.0</ele><time>2026-03-23T09:52:39.146Z</time></trkpt><trkpt lat="44.1213734" lon="10.398422"><ele>283.0</ele><time>2026-03-23T09:52:41.151Z</time></trkpt><trkpt lat="44.1214186" lon="10.3983343"><ele>283.0</ele><time>2026-03-23T09:52:43.144Z</time></trkpt><trkpt lat="44.1214558" lon="10.3982354"><ele>283.0</ele><time>2026-03-23T09:52:45.146Z</time></trkpt><trkpt lat="44.1214918" lon="10.3981334"><ele>283.0</ele><time>2026-03-23T09:52:47.152Z</time></trkpt><trkpt lat="44.1215281" lon="10.3980351"><ele>283.0</ele><time>2026-03-23T09:52:49.155Z</time></trkpt><trkpt lat="44.12156" lon="10.3979381"><ele>283.0</ele><time>2026-03-23T09:52:51.152Z</time></trkpt><trkpt lat="44.1215958" lon="10.397844"><ele>283.0</ele><time>2026-03-23T09:52:53.155Z</time></trkpt><trkpt lat="44.1216344" lon="10.3977485"><ele>283.0</ele><time>2026-03-23T09:52:55.153Z</time></trkpt><trkpt lat="44.1216755" lon="10.3976531"><ele>283.0</ele><time>2026-03-23T09:52:57.149Z</time></trkpt><trkpt lat="44.1217117" lon="10.3975534"><ele>283.3333333333333</ele><time>2026-03-23T09:52:59.144Z</time></trkpt><trkpt lat="44.1217609" lon="10.3974682"><ele>283.66666666666663</ele><time>2026-03-23T09:53:01.153Z</time></trkpt><trkpt lat="44.1218168" lon="10.3973933"><ele>284.0</ele><time>2026-03-23T09:53:03.152Z</time></trkpt><trkpt lat="44.1218783" lon="10.3973304"><ele>284.3333333333333</ele><time>2026-03-23T09:53:05.152Z</time></trkpt><trkpt lat="44.1219481" lon="10.3972747"><ele>284.6666666666667</ele><time>2026-03-23T09:53:07.151Z</time></trkpt><trkpt lat="44.1220175" lon="10.3972243"><ele>285.0</ele><time>2026-03-23T09:53:09.146Z</time></trkpt><trkpt lat="44.1220775" lon="10.3971685"><ele>285.0</ele><time>2026-03-23T09:53:11.157Z</time></trkpt><trkpt lat="44.1221306" lon="10.3971137"><ele>285.0</ele><time>2026-03-23T09:53:13.145Z</time></trkpt><trkpt lat="44.1221841" lon="10.3970606"><ele>285.0</ele><time>2026-03-23T09:53:15.145Z</time></trkpt><trkpt lat="44.1222347" lon="10.3970015"><ele>285.0</ele><time>2026-03-23T09:53:17.149Z</time></trkpt><trkpt lat="44.1222843" lon="10.3969401"><ele>285.0</ele><time>2026-03-23T09:53:19.155Z</time></trkpt><trkpt lat="44.1223319" lon="10.3968766"><ele>285.0</ele><time>2026-03-23T09:53:21.15Z</time></trkpt><trkpt lat="44.1223709" lon="10.3968002"><ele>285.0</ele><time>2026-03-23T09:53:23.153Z</time></trkpt><trkpt lat="44.1223999" lon="10.3967101"><ele>285.42857142857144</ele><time>2026-03-23T09:53:25.154Z</time></trkpt><trkpt lat="44.1224243" lon="10.3966174"><ele>285.8571428571429</ele><time>2026-03-23T09:53:27.166Z</time></trkpt><trkpt lat="44.1224407" lon="10.3965219"><ele>286.28571428571433</ele><time>2026-03-23T09:53:29.167Z</time></trkpt><trkpt lat="44.1224576" lon="10.3964288"><ele>286.7142857142857</ele><time>2026-03-23T09:53:31.157Z</time></trkpt><trkpt lat="44.1224742" lon="10.3963349"><ele>287.14285714285717</ele><time>2026-03-23T09:53:33.17Z</time></trkpt><trkpt lat="44.1224919" lon="10.3962424"><ele>287.5714285714286</ele><time>2026-03-23T09:53:35.153Z</time></trkpt><trkpt lat="44.1225095" lon="10.3961491"><ele>288.0</ele><time>2026-03-23T09:53:37.145Z</time></trkpt><trkpt lat="44.1225213" lon="10.3960542"><ele>288.00000000000006</ele><time>2026-03-23T09:53:39.151Z</time></trkpt><trkpt lat="44.1225395" lon="10.3959621"><ele>288.0</ele><time>2026-03-23T09:53:41.156Z</time></trkpt><trkpt lat="44.122567" lon="10.3958734"><ele>288.0</ele><time>2026-03-23T09:53:43.152Z</time></trkpt><trkpt lat="44.1226021" lon="10.3957866"><ele>288.0</ele><time>2026-03-23T09:53:45.151Z</time></trkpt><trkpt lat="44.1226441" lon="10.3957062"><ele>288.0</ele><time>2026-03-23T09:53:47.159Z</time></trkpt><trkpt lat="44.1226973" lon="10.3956431"><ele>288.00000000000006</ele><time>2026-03-23T09:53:49.15Z</time></trkpt><trkpt lat="44.1227571" lon="10.3955955"><ele>288.0</ele><time>2026-03-23T09:53:51.149Z</time></trkpt><trkpt lat="44.1228218" lon="10.3955631"><ele>288.0</ele><time>2026-03-23T09:53:53.158Z</time></trkpt><trkpt lat="44.1228914" lon="10.3955465"><ele>288.0</ele><time>2026-03-23T09:53:55.153Z</time></trkpt><trkpt lat="44.122959" lon="10.3955379"><ele>288.0</ele><time>2026-03-23T09:53:57.148Z</time></trkpt><trkpt lat="44.1230462" lon="10.395544"><ele>288.0</ele><time>2026-03-23T09:54:00.153Z</time></trkpt><trkpt lat="44.1231265" lon="10.3955643"><ele>288.0</ele><time>2026-03-23T09:54:03.156Z</time></trkpt><trkpt lat="44.1232043" lon="10.3955771"><ele>288.0</ele><time>2026-03-23T09:54:06.147Z</time></trkpt><trkpt lat="44.1232813" lon="10.395599"><ele>289.5714285714286</ele><time>2026-03-23T09:54:09.148Z</time></trkpt><trkpt lat="44.1233541" lon="10.3956269"><ele>291.14285714285717</ele><time>2026-03-23T09:54:12.15Z</time></trkpt><trkpt lat="44.1234231" lon="10.3956601"><ele>292.7142857142857</ele><time>2026-03-23T09:54:15.155Z</time></trkpt><trkpt lat="44.1234893" lon="10.3956999"><ele>294.28571428571433</ele><time>2026-03-23T09:54:18.155Z</time></trkpt><trkpt lat="44.1235536" lon="10.3957475"><ele>295.8571428571429</ele><time>2026-03-23T09:54:21.145Z</time></trkpt><trkpt lat="44.123618" lon="10.3958027"><ele>297.42857142857144</ele><time>2026-03-23T09:54:24.151Z</time></trkpt><trkpt lat="44.1236764" lon="10.3958659"><ele>299.0</ele><time>2026-03-23T09:54:27.149Z</time></trkpt><trkpt lat="44.1237326" lon="10.3959321"><ele>299.0</ele><time>2026-03-23T09:54:30.155Z</time></trkpt><trkpt lat="44.1237868" lon="10.3960049"><ele>299.0</ele><time>2026-03-23T09:54:33.171Z</time></trkpt><trkpt lat="44.1238356" lon="10.3960846"><ele>299.0</ele><time>2026-03-23T09:54:36.138Z</time></trkpt><trkpt lat="44.1238797" lon="10.3961678"><ele>299.0</ele><time>2026-03-23T09:54:39.15Z</time></trkpt><trkpt lat="44.1239193" lon="10.3962503"><ele>299.0</ele><time>2026-03-23T09:54:42.154Z</time></trkpt><trkpt lat="44.1239582" lon="10.3963316"><ele>299.0</ele><time>2026-03-23T09:54:45.154Z</time></trkpt><trkpt lat="44.1239989" lon="10.3964115"><ele>299.0</ele><time>2026-03-23T09:54:48.156Z</time></trkpt><trkpt lat="44.1240405" lon="10.3964942"><ele>300.1666666666667</ele><time>2026-03-23T09:54:51.151Z</time></trkpt><trkpt lat="44.1240837" lon="10.3965811"><ele>301.33333333333337</ele><time>2026-03-23T09:54:54.151Z</time></trkpt><trkpt lat="44.1241226" lon="10.3966691"><ele>302.5</ele><time>2026-03-23T09:54:57.155Z</time></trkpt><trkpt lat="44.1241642" lon="10.3967509"><ele>303.6666666666667</ele><time>2026-03-23T09:55:00.147Z</time></trkpt><trkpt lat="44.1242084" lon="10.3968284"><ele>304.8333333333333</ele><time>2026-03-23T09:55:03.152Z</time></trkpt><trkpt lat="44.1242563" lon="10.3969106"><ele>306.0</ele><time>2026-03-23T09:55:06.15Z</time></trkpt><trkpt lat="44.1243022" lon="10.3970068"><ele>306.0</ele><time>2026-03-23T09:55:09.148Z</time></trkpt><trkpt lat="44.1243525" lon="10.3971067"><ele>306.0</ele><time>2026-03-23T09:55:12.15Z</time></trkpt><trkpt lat="44.124404" lon="10.3972089"><ele>306.0</ele><time>2026-03-23T09:55:15.15Z</time></trkpt><trkpt lat="44.1244398" lon="10.3972814"><ele>306.0</ele><time>2026-03-23T09:55:17.142Z</time></trkpt><trkpt lat="44.12449" lon="10.3973907"><ele>306.0</ele><time>2026-03-23T09:55:20.15Z</time></trkpt><trkpt lat="44.1245386" lon="10.397502"><ele>306.0</ele><time>2026-03-23T09:55:23.145Z</time></trkpt><trkpt lat="44.1245752" lon="10.3975764"><ele>306.7142857142857</ele><time>2026-03-23T09:55:25.165Z</time></trkpt><trkpt lat="44.1246137" lon="10.3976521"><ele>307.42857142857144</ele><time>2026-03-23T09:55:27.15Z</time></trkpt><trkpt lat="44.1246517" lon="10.3977265"><ele>308.1428571428571</ele><time>2026-03-23T09:55:29.18Z</time></trkpt><trkpt lat="44.1246878" lon="10.3977989"><ele>308.8571428571429</ele><time>2026-03-23T09:55:31.157Z</time></trkpt><trkpt lat="44.1247292" lon="10.3978715"><ele>309.5714285714286</ele><time>2026-03-23T09:55:33.147Z</time></trkpt><trkpt lat="44.124773" lon="10.3979397"><ele>310.2857142857143</ele><time>2026-03-23T09:55:35.146Z</time></trkpt><trkpt lat="44.1248161" lon="10.3980087"><ele>311.0</ele><time>2026-03-23T09:55:37.156Z</time></trkpt><trkpt lat="44.1248574" lon="10.3980807"><ele>311.0</ele><time>2026-03-23T09:55:39.14Z</time></trkpt><trkpt lat="44.1249027" lon="10.3981518"><ele>311.0</ele><time>2026-03-23T09:55:41.156Z</time></trkpt><trkpt lat="44.1249521" lon="10.3982198"><ele>311.0</ele><time>2026-03-23T09:55:43.158Z</time></trkpt><trkpt lat="44.1250017" lon="10.3982854"><ele>311.0</ele><time>2026-03-23T09:55:45.16Z</time></trkpt><trkpt lat="44.1250526" lon="10.3983504"><ele>311.0</ele><time>2026-03-23T09:55:47.139Z</time></trkpt><trkpt lat="44.1251015" lon="10.3984168"><ele>311.0</ele><time>2026-03-23T09:55:49.14Z</time></trkpt><trkpt lat="44.1251568" lon="10.3984785"><ele>311.0</ele><time>2026-03-23T09:55:51.158Z</time></trkpt><trkpt lat="44.1252149" lon="10.3985399"><ele>311.0</ele><time>2026-03-23T09:55:53.151Z</time></trkpt><trkpt lat="44.1252627" lon="10.3986012"><ele>311.0</ele><time>2026-03-23T09:55:55.147Z</time></trkpt><trkpt lat="44.1253334" lon="10.3986923"><ele>311.0</ele><time>2026-03-23T09:55:58.147Z</time></trkpt><trkpt lat="44.1253739" lon="10.3987717"><ele>311.0</ele><time>2026-03-23T09:56:00.14Z</time></trkpt><trkpt lat="44.125395" lon="10.3988592"><ele>311.0</ele><time>2026-03-23T09:56:02.144Z</time></trkpt><trkpt lat="44.125409" lon="10.3989533"><ele>311.0</ele><time>2026-03-23T09:56:04.149Z</time></trkpt><trkpt lat="44.1254183" lon="10.3990489"><ele>311.0</ele><time>2026-03-23T09:56:06.146Z</time></trkpt><trkpt lat="44.1254412" lon="10.3991403"><ele>311.7142857142857</ele><time>2026-03-23T09:56:08.143Z</time></trkpt><trkpt lat="44.1254805" lon="10.3992195"><ele>312.42857142857144</ele><time>2026-03-23T09:56:10.143Z</time></trkpt><trkpt lat="44.1255434" lon="10.3992756"><ele>313.14285714285717</ele><time>2026-03-23T09:56:12.16Z</time></trkpt><trkpt lat="44.1256114" lon="10.3992924"><ele>313.8571428571429</ele><time>2026-03-23T09:56:14.15Z</time></trkpt><trkpt lat="44.125676" lon="10.3992743"><ele>314.57142857142856</ele><time>2026-03-23T09:56:16.147Z</time></trkpt><trkpt lat="44.1257385" lon="10.3992137"><ele>315.28571428571433</ele><time>2026-03-23T09:56:18.143Z</time></trkpt><trkpt lat="44.1257877" lon="10.3991221"><ele>316.0</ele><time>2026-03-23T09:56:20.174Z</time></trkpt><trkpt lat="44.1258145" lon="10.3990173"><ele>316.00000000000006</ele><time>2026-03-23T09:56:22.146Z</time></trkpt><trkpt lat="44.1258229" lon="10.3989153"><ele>316.0</ele><time>2026-03-23T09:56:24.149Z</time></trkpt><trkpt lat="44.125835" lon="10.3988156"><ele>316.0</ele><time>2026-03-23T09:56:26.165Z</time></trkpt><trkpt lat="44.1258647" lon="10.3987174"><ele>316.0</ele><time>2026-03-23T09:56:28.149Z</time></trkpt><trkpt lat="44.1259129" lon="10.3986312"><ele>316.0</ele><time>2026-03-23T09:56:30.151Z</time></trkpt><trkpt lat="44.1259638" lon="10.398556"><ele>316.00000000000006</ele><time>2026-03-23T09:56:32.144Z</time></trkpt><trkpt lat="44.1260132" lon="10.3984809"><ele>316.0</ele><time>2026-03-23T09:56:34.155Z</time></trkpt><trkpt lat="44.1260631" lon="10.3984104"><ele>314.8571428571429</ele><time>2026-03-23T09:56:36.15Z</time></trkpt><trkpt lat="44.1261111" lon="10.3983376"><ele>313.7142857142857</ele><time>2026-03-23T09:56:38.152Z</time></trkpt><trkpt lat="44.1261583" lon="10.3982701"><ele>312.57142857142856</ele><time>2026-03-23T09:56:40.15Z</time></trkpt><trkpt lat="44.1262026" lon="10.3982025"><ele>311.42857142857144</ele><time>2026-03-23T09:56:42.162Z</time></trkpt><trkpt lat="44.1262482" lon="10.3981369"><ele>310.2857142857143</ele><time>2026-03-23T09:56:44.151Z</time></trkpt><trkpt lat="44.1262956" lon="10.3980735"><ele>309.14285714285717</ele><time>2026-03-23T09:56:46.152Z</time></trkpt><trkpt lat="44.1263422" lon="10.3980089"><ele>308.0</ele><time>2026-03-23T09:56:48.159Z</time></trkpt><trkpt lat="44.1264302" lon="10.3979643"><ele>308.0</ele><time>2026-03-23T09:56:51.144Z</time></trkpt><trkpt lat="44.1264924" lon="10.3979847"><ele>308.0</ele><time>2026-03-23T09:56:53.142Z</time></trkpt><trkpt lat="44.1265404" lon="10.3980471"><ele>308.0</ele><time>2026-03-23T09:56:55.159Z</time></trkpt><trkpt lat="44.1265841" lon="10.3981171"><ele>308.0</ele><time>2026-03-23T09:56:57.155Z</time></trkpt><trkpt lat="44.1266277" lon="10.3981948"><ele>308.0</ele><time>2026-03-23T09:56:59.151Z</time></trkpt><trkpt lat="44.1266672" lon="10.3982874"><ele>308.0</ele><time>2026-03-23T09:57:01.156Z</time></trkpt><trkpt lat="44.1267095" lon="10.3983835"><ele>308.0</ele><time>2026-03-23T09:57:03.153Z</time></trkpt><trkpt lat="44.1267511" lon="10.39849"><ele>309.2</ele><time>2026-03-23T09:57:05.152Z</time></trkpt><trkpt lat="44.1267977" lon="10.3986018"><ele>310.4</ele><time>2026-03-23T09:57:07.152Z</time></trkpt><trkpt lat="44.1268491" lon="10.3987295"><ele>311.59999999999997</ele><time>2026-03-23T09:57:09.163Z</time></trkpt><trkpt lat="44.1269031" lon="10.3988683"><ele>312.8</ele><time>2026-03-23T09:57:11.145Z</time></trkpt><trkpt lat="44.1269561" lon="10.3990165"><ele>314.0</ele><time>2026-03-23T09:57:13.145Z</time></trkpt><trkpt lat="44.1270127" lon="10.3991695"><ele>314.0</ele><time>2026-03-23T09:57:15.169Z</time></trkpt><trkpt lat="44.1270337" lon="10.3992568"><ele>314.0</ele><time>2026-03-23T09:57:16.149Z</time></trkpt><trkpt lat="44.127061" lon="10.3993463"><ele>314.0</ele><time>2026-03-23T09:57:17.153Z</time></trkpt><trkpt lat="44.1271603" lon="10.399442"><ele>314.0</ele><time>2026-03-23T09:57:19.149Z</time></trkpt><trkpt lat="44.1272648" lon="10.3994477"><ele>314.0</ele><time>2026-03-23T09:57:21.15Z</time></trkpt><trkpt lat="44.1273418" lon="10.3994466"><ele>314.0</ele><time>2026-03-23T09:57:23.157Z</time></trkpt><trkpt lat="44.127428" lon="10.3994382"><ele>316.33333333333337</ele><time>2026-03-23T09:57:26.156Z</time></trkpt><trkpt lat="44.1275081" lon="10.3994394"><ele>318.6666666666667</ele><time>2026-03-23T09:57:29.15Z</time></trkpt><trkpt lat="44.1275826" lon="10.3994474"><ele>321.0</ele><time>2026-03-23T09:57:32.145Z</time></trkpt><trkpt lat="44.1276637" lon="10.3994405"><ele>323.3333333333333</ele><time>2026-03-23T09:57:35.149Z</time></trkpt><trkpt lat="44.1277444" lon="10.399437"><ele>325.66666666666663</ele><time>2026-03-23T09:57:38.149Z</time></trkpt><trkpt lat="44.1278275" lon="10.3994422"><ele>328.0</ele><time>2026-03-23T09:57:41.143Z</time></trkpt><trkpt lat="44.1279072" lon="10.399444"><ele>328.0</ele><time>2026-03-23T09:57:44.143Z</time></trkpt><trkpt lat="44.1279905" lon="10.3994526"><ele>328.0</ele><time>2026-03-23T09:57:47.144Z</time></trkpt><trkpt lat="44.128085" lon="10.39946"><ele>328.0</ele><time>2026-03-23T09:57:50.15Z</time></trkpt><trkpt lat="44.1281743" lon="10.3994645"><ele>328.0</ele><time>2026-03-23T09:57:53.143Z</time></trkpt><trkpt lat="44.1282615" lon="10.3994677"><ele>328.0</ele><time>2026-03-23T09:57:56.161Z</time></trkpt><trkpt lat="44.1283464" lon="10.399474"><ele>328.0</ele><time>2026-03-23T09:57:59.152Z</time></trkpt><trkpt lat="44.1284277" lon="10.3994785"><ele>329.3333333333333</ele><time>2026-03-23T09:58:02.152Z</time></trkpt><trkpt lat="44.1285098" lon="10.3994806"><ele>330.66666666666663</ele><time>2026-03-23T09:58:05.145Z</time></trkpt><trkpt lat="44.1285884" lon="10.3994849"><ele>332.0</ele><time>2026-03-23T09:58:08.153Z</time></trkpt><trkpt lat="44.1286694" lon="10.3994849"><ele>333.3333333333333</ele><time>2026-03-23T09:58:11.149Z</time></trkpt><trkpt lat="44.1287552" lon="10.3994847"><ele>334.6666666666667</ele><time>2026-03-23T09:58:14.153Z</time></trkpt><trkpt lat="44.1288368" lon="10.3994824"><ele>336.0</ele><time>2026-03-23T09:58:17.159Z</time></trkpt><trkpt lat="44.1289226" lon="10.3994823"><ele>336.0</ele><time>2026-03-23T09:58:20.142Z</time></trkpt><trkpt lat="44.1290038" lon="10.3994836"><ele>336.0</ele><time>2026-03-23T09:58:23.143Z</time></trkpt><trkpt lat="44.1290877" lon="10.3994862"><ele>336.0</ele><time>2026-03-23T09:58:26.147Z</time></trkpt><trkpt lat="44.1291754" lon="10.3995025"><ele>336.0</ele><time>2026-03-23T09:58:29.146Z</time></trkpt><trkpt lat="44.1292487" lon="10.3995197"><ele>336.0</ele><time>2026-03-23T09:58:32.144Z</time></trkpt><trkpt lat="44.1293276" lon="10.3995363"><ele>336.0</ele><time>2026-03-23T09:58:35.15Z</time></trkpt><trkpt lat="44.1294182" lon="10.3995629"><ele>334.8333333333333</ele><time>2026-03-23T09:58:38.149Z</time></trkpt><trkpt lat="44.1295048" lon="10.3995929"><ele>333.6666666666667</ele><time>2026-03-23T09:58:41.147Z</time></trkpt><trkpt lat="44.1295919" lon="10.3996293"><ele>332.5</ele><time>2026-03-23T09:58:44.142Z</time></trkpt><trkpt lat="44.1296792" lon="10.3996524"><ele>331.33333333333337</ele><time>2026-03-23T09:58:47.155Z</time></trkpt><trkpt lat="44.1297549" lon="10.3996787"><ele>330.1666666666667</ele><time>2026-03-23T09:58:50.149Z</time></trkpt><trkpt lat="44.1298317" lon="10.3997067"><ele>329.0</ele><time>2026-03-23T09:58:53.157Z</time></trkpt><trkpt lat="44.1299041" lon="10.3997331"><ele>329.0</ele><time>2026-03-23T09:58:56.152Z</time></trkpt><trkpt lat="44.1299849" lon="10.3997633"><ele>329.0</ele><time>2026-03-23T09:58:59.149Z</time></trkpt><trkpt lat="44.1300644" lon="10.399791"><ele>329.0</ele><time>2026-03-23T09:59:02.158Z</time></trkpt><trkpt lat="44.1301461" lon="10.39981"><ele>329.0</ele><time>2026-03-23T09:59:05.174Z</time></trkpt><trkpt lat="44.1302318" lon="10.3998009"><ele>329.0</ele><time>2026-03-23T09:59:08.142Z</time></trkpt><trkpt lat="44.1303057" lon="10.3997627"><ele>329.0</ele><time>2026-03-23T09:59:11.149Z</time></trkpt><trkpt lat="44.1303754" lon="10.3996902"><ele>332.0</ele><time>2026-03-23T09:59:14.154Z</time></trkpt><trkpt lat="44.1304326" lon="10.3995988"><ele>335.0</ele><time>2026-03-23T09:59:17.153Z</time></trkpt><trkpt lat="44.1304947" lon="10.3995174"><ele>338.0</ele><time>2026-03-23T09:59:20.154Z</time></trkpt><trkpt lat="44.1305499" lon="10.3994359"><ele>341.0</ele><time>2026-03-23T09:59:23.15Z</time></trkpt><trkpt lat="44.1306114" lon="10.3993601"><ele>344.0</ele><time>2026-03-23T09:59:26.147Z</time></trkpt><trkpt lat="44.1306748" lon="10.3992915"><ele>347.0</ele><time>2026-03-23T09:59:29.142Z</time></trkpt><trkpt lat="44.1307247" lon="10.3992362"><ele>347.0</ele><time>2026-03-23T09:59:31.143Z</time></trkpt><trkpt lat="44.1307835" lon="10.3991662"><ele>347.0</ele><time>2026-03-23T09:59:34.15Z</time></trkpt><trkpt lat="44.1308369" lon="10.3990862"><ele>347.0</ele><time>2026-03-23T09:59:37.146Z</time></trkpt><trkpt lat="44.1308946" lon="10.3990032"><ele>347.0</ele><time>2026-03-23T09:59:40.158Z</time></trkpt><trkpt lat="44.1309523" lon="10.3989322"><ele>347.0</ele><time>2026-03-23T09:59:43.152Z</time></trkpt><trkpt lat="44.1310057" lon="10.398854"><ele>347.0</ele><time>2026-03-23T09:59:46.152Z</time></trkpt><trkpt lat="44.13107" lon="10.3987884"><ele>351.0</ele><time>2026-03-23T09:59:49.156Z</time></trkpt><trkpt lat="44.1311335" lon="10.3987256"><ele>355.0</ele><time>2026-03-23T09:59:52.139Z</time></trkpt><trkpt lat="44.13121" lon="10.3986826"><ele>359.0</ele><time>2026-03-23T09:59:55.154Z</time></trkpt><trkpt lat="44.1313003" lon="10.3986513"><ele>363.0</ele><time>2026-03-23T09:59:58.153Z</time></trkpt><trkpt lat="44.1313883" lon="10.3986481"><ele>367.0</ele><time>2026-03-23T10:00:01.148Z</time></trkpt><trkpt lat="44.1314783" lon="10.3986622"><ele>371.0</ele><time>2026-03-23T10:00:04.148Z</time></trkpt><trkpt lat="44.1315634" lon="10.3986944"><ele>371.0</ele><time>2026-03-23T10:00:07.15Z</time></trkpt><trkpt lat="44.131644" lon="10.3987467"><ele>371.0</ele><time>2026-03-23T10:00:10.157Z</time></trkpt><trkpt lat="44.1317147" lon="10.3988101"><ele>371.0</ele><time>2026-03-23T10:00:13.164Z</time></trkpt><trkpt lat="44.1317897" lon="10.3988727"><ele>371.0</ele><time>2026-03-23T10:00:16.148Z</time></trkpt><trkpt lat="44.1318718" lon="10.3988994"><ele>371.0</ele><time>2026-03-23T10:00:19.153Z</time></trkpt><trkpt lat="44.131947" lon="10.3988392"><ele>371.0</ele><time>2026-03-23T10:00:22.152Z</time></trkpt><trkpt lat="44.131965" lon="10.3987244"><ele>371.0</ele><time>2026-03-23T10:00:25.157Z</time></trkpt><trkpt lat="44.13191" lon="10.3986226"><ele>371.0</ele><time>2026-03-23T10:00:28.152Z</time></trkpt><trkpt lat="44.1318274" lon="10.3985655"><ele>371.0</ele><time>2026-03-23T10:00:31.148Z</time></trkpt><trkpt lat="44.1317487" lon="10.3985023"><ele>371.0</ele><time>2026-03-23T10:00:34.152Z</time></trkpt><trkpt lat="44.1316721" lon="10.3984406"><ele>371.0</ele><time>2026-03-23T10:00:37.166Z</time></trkpt><trkpt lat="44.1315863" lon="10.3983847"><ele>371.0</ele><time>2026-03-23T10:00:40.148Z</time></trkpt><trkpt lat="44.1315256" lon="10.398354"><ele>371.0</ele><time>2026-03-23T10:00:42.161Z</time></trkpt><trkpt lat="44.1314582" lon="10.3982677"><ele>371.0</ele><time>2026-03-23T10:00:45.149Z</time></trkpt><trkpt lat="44.1314396" lon="10.3981803"><ele>371.0</ele><time>2026-03-23T10:00:47.164Z</time></trkpt><trkpt lat="44.1315" lon="10.3980874"><ele>371.0</ele><time>2026-03-23T10:00:50.158Z</time></trkpt><trkpt lat="44.1315683" lon="10.3980993"><ele>371.0</ele><time>2026-03-23T10:00:52.153Z</time></trkpt><trkpt lat="44.1316367" lon="10.3981365"><ele>371.0</ele><time>2026-03-23T10:00:54.153Z</time></trkpt><trkpt lat="44.131714" lon="10.3981864"><ele>371.0</ele><time>2026-03-23T10:00:57.152Z</time></trkpt><trkpt lat="44.1317881" lon="10.3982345"><ele>371.0</ele><time>2026-03-23T10:01:00.153Z</time></trkpt><trkpt lat="44.1318647" lon="10.3982996"><ele>371.0</ele><time>2026-03-23T10:01:03.156Z</time></trkpt><trkpt lat="44.1319384" lon="10.3983735"><ele>371.0</ele><time>2026-03-23T10:01:06.148Z</time></trkpt><trkpt lat="44.132008" lon="10.3984291"><ele>371.0</ele><time>2026-03-23T10:01:09.153Z</time></trkpt><trkpt lat="44.1320756" lon="10.3984803"><ele>371.0</ele><time>2026-03-23T10:01:12.154Z</time></trkpt><trkpt lat="44.1321508" lon="10.3985243"><ele>371.0</ele><time>2026-03-23T10:01:15.142Z</time></trkpt><trkpt lat="44.132222" lon="10.3985712"><ele>371.0</ele><time>2026-03-23T10:01:18.158Z</time></trkpt><trkpt lat="44.1322891" lon="10.3986107"><ele>371.0</ele><time>2026-03-23T10:01:21.165Z</time></trkpt><trkpt lat="44.1323689" lon="10.3986295"><ele>371.0</ele><time>2026-03-23T10:01:24.151Z</time></trkpt><trkpt lat="44.1324602" lon="10.3986252"><ele>371.0</ele><time>2026-03-23T10:01:27.149Z</time></trkpt><trkpt lat="44.1325398" lon="10.3985991"><ele>371.5</ele><time>2026-03-23T10:01:30.157Z</time></trkpt><trkpt lat="44.1326116" lon="10.3985667"><ele>372.0</ele><time>2026-03-23T10:01:33.15Z</time></trkpt><trkpt lat="44.132685" lon="10.3985231"><ele>372.5</ele><time>2026-03-23T10:01:36.16Z</time></trkpt><trkpt lat="44.1327565" lon="10.3984728"><ele>373.0</ele><time>2026-03-23T10:01:39.16Z</time></trkpt><trkpt lat="44.1328367" lon="10.3984392"><ele>373.5</ele><time>2026-03-23T10:01:42.167Z</time></trkpt><trkpt lat="44.1329235" lon="10.39841"><ele>374.0</ele><time>2026-03-23T10:01:45.148Z</time></trkpt><trkpt lat="44.1330104" lon="10.3984035"><ele>374.0</ele><time>2026-03-23T10:01:48.17Z</time></trkpt><trkpt lat="44.1330897" lon="10.3984295"><ele>374.0</ele><time>2026-03-23T10:01:51.154Z</time></trkpt><trkpt lat="44.1331697" lon="10.3984776"><ele>374.0</ele><time>2026-03-23T10:01:54.155Z</time></trkpt><trkpt lat="44.1332443" lon="10.3985451"><ele>374.0</ele><time>2026-03-23T10:01:57.15Z</time></trkpt><trkpt lat="44.1333106" lon="10.3986212"><ele>374.0</ele><time>2026-03-23T10:02:00.156Z</time></trkpt><trkpt lat="44.133374" lon="10.3987146"><ele>374.0</ele><time>2026-03-23T10:02:03.145Z</time></trkpt><trkpt lat="44.1334323" lon="10.3988018"><ele>372.6666666666667</ele><time>2026-03-23T10:02:06.15Z</time></trkpt><trkpt lat="44.133483" lon="10.3988817"><ele>371.33333333333337</ele><time>2026-03-23T10:02:09.148Z</time></trkpt><trkpt lat="44.1335361" lon="10.398961"><ele>370.0</ele><time>2026-03-23T10:02:12.143Z</time></trkpt><trkpt lat="44.1335845" lon="10.3990315"><ele>368.6666666666667</ele><time>2026-03-23T10:02:15.178Z</time></trkpt><trkpt lat="44.1336358" lon="10.3990962"><ele>367.3333333333333</ele><time>2026-03-23T10:02:18.176Z</time></trkpt><trkpt lat="44.1336991" lon="10.3991627"><ele>366.0</ele><time>2026-03-23T10:02:21.152Z</time></trkpt><trkpt lat="44.1337712" lon="10.3992241"><ele>366.0</ele><time>2026-03-23T10:02:24.152Z</time></trkpt><trkpt lat="44.1338437" lon="10.3992883"><ele>366.0</ele><time>2026-03-23T10:02:27.166Z</time></trkpt><trkpt lat="44.1339117" lon="10.3993573"><ele>366.0</ele><time>2026-03-23T10:02:30.151Z</time></trkpt><trkpt lat="44.1339831" lon="10.3994177"><ele>366.0</ele><time>2026-03-23T10:02:33.156Z</time></trkpt><trkpt lat="44.1340588" lon="10.3994862"><ele>366.0</ele><time>2026-03-23T10:02:36.154Z</time></trkpt><trkpt lat="44.1341306" lon="10.3995622"><ele>366.0</ele><time>2026-03-23T10:02:39.153Z</time></trkpt><trkpt lat="44.1342088" lon="10.3996254"><ele>366.6666666666667</ele><time>2026-03-23T10:02:42.155Z</time></trkpt><trkpt lat="44.1342872" lon="10.3996859"><ele>367.3333333333333</ele><time>2026-03-23T10:02:45.144Z</time></trkpt><trkpt lat="44.1343738" lon="10.3997051"><ele>368.0</ele><time>2026-03-23T10:02:48.15Z</time></trkpt><trkpt lat="44.1344512" lon="10.3996367"><ele>368.66666666666663</ele><time>2026-03-23T10:02:51.155Z</time></trkpt><trkpt lat="44.1344845" lon="10.3995198"><ele>369.3333333333333</ele><time>2026-03-23T10:02:54.152Z</time></trkpt><trkpt lat="44.1344443" lon="10.3994109"><ele>370.0</ele><time>2026-03-23T10:02:57.172Z</time></trkpt><trkpt lat="44.1343714" lon="10.3993454"><ele>369.3333333333333</ele><time>2026-03-23T10:03:00.151Z</time></trkpt><trkpt lat="44.1342983" lon="10.3992818"><ele>368.66666666666663</ele><time>2026-03-23T10:03:03.152Z</time></trkpt><trkpt lat="44.1342218" lon="10.3992191"><ele>368.0</ele><time>2026-03-23T10:03:06.16Z</time></trkpt><trkpt lat="44.1341449" lon="10.3991631"><ele>367.3333333333333</ele><time>2026-03-23T10:03:09.145Z</time></trkpt><trkpt lat="44.1340684" lon="10.3991058"><ele>366.6666666666667</ele><time>2026-03-23T10:03:12.149Z</time></trkpt><trkpt lat="44.1339941" lon="10.399043"><ele>366.0</ele><time>2026-03-23T10:03:15.144Z</time></trkpt><trkpt lat="44.1339225" lon="10.3989805"><ele>366.0</ele><time>2026-03-23T10:03:18.174Z</time></trkpt><trkpt lat="44.1338495" lon="10.3989123"><ele>366.0</ele><time>2026-03-23T10:03:21.159Z</time></trkpt><trkpt lat="44.1338028" lon="10.3988041"><ele>366.0</ele><time>2026-03-23T10:03:24.144Z</time></trkpt><trkpt lat="44.1338214" lon="10.3986948"><ele>366.0</ele><time>2026-03-23T10:03:27.163Z</time></trkpt><trkpt lat="44.1338929" lon="10.3986183"><ele>366.0</ele><time>2026-03-23T10:03:30.148Z</time></trkpt><trkpt lat="44.1339836" lon="10.3986179"><ele>366.0</ele><time>2026-03-23T10:03:33.145Z</time></trkpt><trkpt lat="44.1340688" lon="10.3986224"><ele>371.1666666666667</ele><time>2026-03-23T10:03:36.152Z</time></trkpt><trkpt lat="44.1341567" lon="10.3986195"><ele>376.33333333333337</ele><time>2026-03-23T10:03:40.142Z</time></trkpt><trkpt lat="44.1342433" lon="10.3986213"><ele>381.5</ele><time>2026-03-23T10:03:43.141Z</time></trkpt><trkpt lat="44.1343138" lon="10.3986264"><ele>386.6666666666667</ele><time>2026-03-23T10:03:46.144Z</time></trkpt><trkpt lat="44.1343926" lon="10.3986257"><ele>391.83333333333337</ele><time>2026-03-23T10:03:49.143Z</time></trkpt><trkpt lat="44.1344771" lon="10.3986303"><ele>397.0</ele><time>2026-03-23T10:03:52.143Z</time></trkpt><trkpt lat="44.1345447" lon="10.3986322"><ele>397.00000000000006</ele><time>2026-03-23T10:03:54.143Z</time></trkpt><trkpt lat="44.1346092" lon="10.3986399"><ele>397.0</ele><time>2026-03-23T10:03:56.14Z</time></trkpt><trkpt lat="44.1346966" lon="10.3986396"><ele>397.0</ele><time>2026-03-23T10:03:59.144Z</time></trkpt><trkpt lat="44.1347774" lon="10.3986459"><ele>397.0</ele><time>2026-03-23T10:04:02.146Z</time></trkpt><trkpt lat="44.1348536" lon="10.398645"><ele>397.00000000000006</ele><time>2026-03-23T10:04:05.143Z</time></trkpt><trkpt lat="44.1349361" lon="10.3986446"><ele>397.0</ele><time>2026-03-23T10:04:08.158Z</time></trkpt><trkpt lat="44.1350169" lon="10.398645"><ele>398.50000000000006</ele><time>2026-03-23T10:04:11.142Z</time></trkpt><trkpt lat="44.1350935" lon="10.398637"><ele>400.0</ele><time>2026-03-23T10:04:14.154Z</time></trkpt><trkpt lat="44.1351758" lon="10.3986356"><ele>401.5</ele><time>2026-03-23T10:04:17.169Z</time></trkpt><trkpt lat="44.135255" lon="10.3986321"><ele>403.0</ele><time>2026-03-23T10:04:20.152Z</time></trkpt><trkpt lat="44.1353395" lon="10.3986399"><ele>404.50000000000006</ele><time>2026-03-23T10:04:23.16Z</time></trkpt><trkpt lat="44.1354173" lon="10.3986356"><ele>406.0</ele><time>2026-03-23T10:04:26.147Z</time></trkpt><trkpt lat="44.1355014" lon="10.3986333"><ele>406.00000000000006</ele><time>2026-03-23T10:04:29.151Z</time></trkpt><trkpt lat="44.1355747" lon="10.3986255"><ele>406.0</ele><time>2026-03-23T10:04:32.171Z</time></trkpt><trkpt lat="44.1356415" lon="10.3986208"><ele>406.0</ele><time>2026-03-23T10:04:35.142Z</time></trkpt><trkpt lat="44.1357247" lon="10.3986232"><ele>406.0</ele><time>2026-03-23T10:04:38.153Z</time></trkpt><trkpt lat="44.1358031" lon="10.3986288"><ele>406.00000000000006</ele><time>2026-03-23T10:04:41.147Z</time></trkpt><trkpt lat="44.135888" lon="10.3986293"><ele>406.0</ele><time>2026-03-23T10:04:44.165Z</time></trkpt><trkpt lat="44.1359701" lon="10.3986346"><ele>407.6666666666667</ele><time>2026-03-23T10:04:47.152Z</time></trkpt><trkpt lat="44.1360375" lon="10.3986525"><ele>409.33333333333337</ele><time>2026-03-23T10:04:50.156Z</time></trkpt><trkpt lat="44.1361131" lon="10.3986812"><ele>411.0</ele><time>2026-03-23T10:04:54.145Z</time></trkpt><trkpt lat="44.1361942" lon="10.3987255"><ele>412.66666666666663</ele><time>2026-03-23T10:04:57.175Z</time></trkpt><trkpt lat="44.1362707" lon="10.39876"><ele>414.3333333333333</ele><time>2026-03-23T10:05:00.144Z</time></trkpt><trkpt lat="44.1363516" lon="10.398796"><ele>416.0</ele><time>2026-03-23T10:05:03.156Z</time></trkpt><trkpt lat="44.1364394" lon="10.3988365"><ele>415.99999999999994</ele><time>2026-03-23T10:05:06.159Z</time></trkpt><trkpt lat="44.1365277" lon="10.3988886"><ele>416.0</ele><time>2026-03-23T10:05:09.156Z</time></trkpt><trkpt lat="44.1366174" lon="10.3989393"><ele>416.0</ele><time>2026-03-23T10:05:12.163Z</time></trkpt><trkpt lat="44.1366785" lon="10.398969"><ele>416.0</ele><time>2026-03-23T10:05:14.158Z</time></trkpt><trkpt lat="44.1367401" lon="10.3990021"><ele>415.99999999999994</ele><time>2026-03-23T10:05:16.15Z</time></trkpt><trkpt lat="44.1368035" lon="10.3990268"><ele>416.0</ele><time>2026-03-23T10:05:18.18Z</time></trkpt><trkpt lat="44.1368988" lon="10.3990548"><ele>416.66666666666663</ele><time>2026-03-23T10:05:21.163Z</time></trkpt><trkpt lat="44.1369653" lon="10.399076"><ele>417.3333333333333</ele><time>2026-03-23T10:05:23.149Z</time></trkpt><trkpt lat="44.1370393" lon="10.3990844"><ele>418.0</ele><time>2026-03-23T10:05:25.15Z</time></trkpt><trkpt lat="44.1371146" lon="10.3990879"><ele>418.66666666666663</ele><time>2026-03-23T10:05:27.149Z</time></trkpt><trkpt lat="44.1371942" lon="10.3990871"><ele>419.3333333333333</ele><time>2026-03-23T10:05:29.151Z</time></trkpt><trkpt lat="44.1372769" lon="10.3990799"><ele>420.0</ele><time>2026-03-23T10:05:31.155Z</time></trkpt><trkpt lat="44.1373534" lon="10.3990666"><ele>419.8333333333333</ele><time>2026-03-23T10:05:33.146Z</time></trkpt><trkpt lat="44.1374325" lon="10.3990453"><ele>419.66666666666663</ele><time>2026-03-23T10:05:35.189Z</time></trkpt><trkpt lat="44.1375062" lon="10.3990162"><ele>419.5</ele><time>2026-03-23T10:05:37.158Z</time></trkpt><trkpt lat="44.137577" lon="10.3989906"><ele>419.3333333333333</ele><time>2026-03-23T10:05:39.143Z</time></trkpt><trkpt lat="44.1376566" lon="10.3989573"><ele>419.16666666666663</ele><time>2026-03-23T10:05:41.141Z</time></trkpt><trkpt lat="44.1377288" lon="10.39893"><ele>419.0</ele><time>2026-03-23T10:05:43.169Z</time></trkpt><trkpt lat="44.1378078" lon="10.398904"><ele>418.99999999999994</ele><time>2026-03-23T10:05:45.149Z</time></trkpt><trkpt lat="44.1378818" lon="10.3988818"><ele>419.0</ele><time>2026-03-23T10:05:47.152Z</time></trkpt><trkpt lat="44.1379606" lon="10.3988533"><ele>419.0</ele><time>2026-03-23T10:05:49.145Z</time></trkpt><trkpt lat="44.1380296" lon="10.3988228"><ele>419.0</ele><time>2026-03-23T10:05:51.142Z</time></trkpt><trkpt lat="44.1381044" lon="10.3987908"><ele>418.99999999999994</ele><time>2026-03-23T10:05:53.143Z</time></trkpt><trkpt lat="44.1381809" lon="10.3987588"><ele>419.0</ele><time>2026-03-23T10:05:55.143Z</time></trkpt><trkpt lat="44.1382564" lon="10.3987264"><ele>419.66666666666663</ele><time>2026-03-23T10:05:57.141Z</time></trkpt><trkpt lat="44.1383333" lon="10.3986971"><ele>420.3333333333333</ele><time>2026-03-23T10:05:59.159Z</time></trkpt><trkpt lat="44.1384159" lon="10.3986745"><ele>421.0</ele><time>2026-03-23T10:06:01.17Z</time></trkpt><trkpt lat="44.1385002" lon="10.3986541"><ele>421.66666666666663</ele><time>2026-03-23T10:06:03.154Z</time></trkpt><trkpt lat="44.138588" lon="10.3986454"><ele>422.3333333333333</ele><time>2026-03-23T10:06:05.143Z</time></trkpt><trkpt lat="44.1386688" lon="10.3986541"><ele>423.0</ele><time>2026-03-23T10:06:07.153Z</time></trkpt><trkpt lat="44.1387401" lon="10.3986726"><ele>423.0</ele><time>2026-03-23T10:06:09.144Z</time></trkpt><trkpt lat="44.1388104" lon="10.3986984"><ele>423.0</ele><time>2026-03-23T10:06:11.15Z</time></trkpt><trkpt lat="44.1388853" lon="10.3987218"><ele>423.0</ele><time>2026-03-23T10:06:13.15Z</time></trkpt><trkpt lat="44.1389615" lon="10.3987501"><ele>423.0</ele><time>2026-03-23T10:06:15.142Z</time></trkpt><trkpt lat="44.1390395" lon="10.3987757"><ele>423.0</ele><time>2026-03-23T10:06:17.142Z</time></trkpt><trkpt lat="44.1391228" lon="10.3988047"><ele>423.0</ele><time>2026-03-23T10:06:19.147Z</time></trkpt><trkpt lat="44.1392061" lon="10.3988352"><ele>421.8333333333333</ele><time>2026-03-23T10:06:21.165Z</time></trkpt><trkpt lat="44.1392886" lon="10.3988624"><ele>420.66666666666663</ele><time>2026-03-23T10:06:23.144Z</time></trkpt><trkpt lat="44.1393684" lon="10.3988906"><ele>419.5</ele><time>2026-03-23T10:06:25.146Z</time></trkpt><trkpt lat="44.1394497" lon="10.3989226"><ele>418.3333333333333</ele><time>2026-03-23T10:06:27.159Z</time></trkpt><trkpt lat="44.1395299" lon="10.3989492"><ele>417.16666666666663</ele><time>2026-03-23T10:06:29.152Z</time></trkpt><trkpt lat="44.1396061" lon="10.3989773"><ele>416.0</ele><time>2026-03-23T10:06:31.148Z</time></trkpt><trkpt lat="44.1396835" lon="10.3990108"><ele>415.99999999999994</ele><time>2026-03-23T10:06:33.155Z</time></trkpt><trkpt lat="44.1397617" lon="10.3990445"><ele>416.0</ele><time>2026-03-23T10:06:35.156Z</time></trkpt><trkpt lat="44.1398389" lon="10.3990813"><ele>416.0</ele><time>2026-03-23T10:06:37.165Z</time></trkpt><trkpt lat="44.1399155" lon="10.3991091"><ele>416.0</ele><time>2026-03-23T10:06:39.155Z</time></trkpt><trkpt lat="44.1399956" lon="10.3991315"><ele>415.99999999999994</ele><time>2026-03-23T10:06:41.152Z</time></trkpt><trkpt lat="44.1400795" lon="10.3991433"><ele>416.0</ele><time>2026-03-23T10:06:43.152Z</time></trkpt><trkpt lat="44.1401652" lon="10.3991471"><ele>416.49999999999994</ele><time>2026-03-23T10:06:45.143Z</time></trkpt><trkpt lat="44.1402455" lon="10.3991348"><ele>417.0</ele><time>2026-03-23T10:06:47.161Z</time></trkpt><trkpt lat="44.1403246" lon="10.3991062"><ele>417.5</ele><time>2026-03-23T10:06:49.144Z</time></trkpt><trkpt lat="44.1404006" lon="10.3990732"><ele>418.0</ele><time>2026-03-23T10:06:51.151Z</time></trkpt><trkpt lat="44.1404765" lon="10.3990304"><ele>418.49999999999994</ele><time>2026-03-23T10:06:53.153Z</time></trkpt><trkpt lat="44.1405523" lon="10.3989897"><ele>419.0</ele><time>2026-03-23T10:06:55.146Z</time></trkpt><trkpt lat="44.1406272" lon="10.3989527"><ele>418.99999999999994</ele><time>2026-03-23T10:06:57.148Z</time></trkpt><trkpt lat="44.1407055" lon="10.3989191"><ele>419.0</ele><time>2026-03-23T10:06:59.178Z</time></trkpt><trkpt lat="44.1407836" lon="10.3988851"><ele>419.0</ele><time>2026-03-23T10:07:01.155Z</time></trkpt><trkpt lat="44.1408622" lon="10.398862"><ele>419.0</ele><time>2026-03-23T10:07:03.157Z</time></trkpt><trkpt lat="44.140941" lon="10.3988479"><ele>418.99999999999994</ele><time>2026-03-23T10:07:05.144Z</time></trkpt><trkpt lat="44.1410193" lon="10.3988472"><ele>419.0</ele><time>2026-03-23T10:07:07.163Z</time></trkpt><trkpt lat="44.1410939" lon="10.3988476"><ele>418.99999999999994</ele><time>2026-03-23T10:07:09.146Z</time></trkpt><trkpt lat="44.1411663" lon="10.3988545"><ele>419.0</ele><time>2026-03-23T10:07:11.15Z</time></trkpt><trkpt lat="44.1412418" lon="10.3988749"><ele>419.0</ele><time>2026-03-23T10:07:13.14Z</time></trkpt><trkpt lat="44.1413171" lon="10.3988984"><ele>419.0</ele><time>2026-03-23T10:07:15.144Z</time></trkpt><trkpt lat="44.1413906" lon="10.3989202"><ele>418.99999999999994</ele><time>2026-03-23T10:07:17.154Z</time></trkpt><trkpt lat="44.141469" lon="10.3989445"><ele>419.0</ele><time>2026-03-23T10:07:19.15Z</time></trkpt><trkpt lat="44.1415485" lon="10.3989657"><ele>419.16666666666663</ele><time>2026-03-23T10:07:21.155Z</time></trkpt><trkpt lat="44.1416272" lon="10.3989853"><ele>419.3333333333333</ele><time>2026-03-23T10:07:23.152Z</time></trkpt><trkpt lat="44.1417027" lon="10.3990066"><ele>419.5</ele><time>2026-03-23T10:07:25.154Z</time></trkpt><trkpt lat="44.1417796" lon="10.3990255"><ele>419.66666666666663</ele><time>2026-03-23T10:07:27.148Z</time></trkpt><trkpt lat="44.1418571" lon="10.3990343"><ele>419.8333333333333</ele><time>2026-03-23T10:07:29.147Z</time></trkpt><trkpt lat="44.1419342" lon="10.3990455"><ele>420.0</ele><time>2026-03-23T10:07:31.15Z</time></trkpt><trkpt lat="44.1420061" lon="10.399045"><ele>420.0</ele><time>2026-03-23T10:07:33.152Z</time></trkpt><trkpt lat="44.1420821" lon="10.3990512"><ele>420.0</ele><time>2026-03-23T10:07:35.157Z</time></trkpt><trkpt lat="44.1421629" lon="10.3990535"><ele>420.0</ele><time>2026-03-23T10:07:37.156Z</time></trkpt><trkpt lat="44.1422437" lon="10.3990472"><ele>420.0</ele><time>2026-03-23T10:07:39.144Z</time></trkpt><trkpt lat="44.142325" lon="10.3990423"><ele>420.0</ele><time>2026-03-23T10:07:41.146Z</time></trkpt><trkpt lat="44.1424048" lon="10.3990427"><ele>420.0</ele><time>2026-03-23T10:07:43.144Z</time></trkpt><trkpt lat="44.1424846" lon="10.3990375"><ele>420.8333333333333</ele><time>2026-03-23T10:07:45.154Z</time></trkpt><trkpt lat="44.1425635" lon="10.399024"><ele>421.66666666666663</ele><time>2026-03-23T10:07:47.154Z</time></trkpt><trkpt lat="44.1426434" lon="10.3990046"><ele>422.5</ele><time>2026-03-23T10:07:49.147Z</time></trkpt><trkpt lat="44.1427251" lon="10.3989773"><ele>423.3333333333333</ele><time>2026-03-23T10:07:51.149Z</time></trkpt><trkpt lat="44.1428042" lon="10.3989389"><ele>424.16666666666663</ele><time>2026-03-23T10:07:53.153Z</time></trkpt><trkpt lat="44.1428866" lon="10.3989085"><ele>425.0</ele><time>2026-03-23T10:07:55.153Z</time></trkpt><trkpt lat="44.1429642" lon="10.3988618"><ele>426.2</ele><time>2026-03-23T10:07:57.151Z</time></trkpt><trkpt lat="44.1430484" lon="10.3988107"><ele>427.4</ele><time>2026-03-23T10:07:59.148Z</time></trkpt><trkpt lat="44.1431299" lon="10.3987534"><ele>428.6</ele><time>2026-03-23T10:08:01.143Z</time></trkpt><trkpt lat="44.1432105" lon="10.398708"><ele>429.8</ele><time>2026-03-23T10:08:03.145Z</time></trkpt><trkpt lat="44.1433016" lon="10.3986475"><ele>431.0</ele><time>2026-03-23T10:08:05.144Z</time></trkpt><trkpt lat="44.1433809" lon="10.3985813"><ele>431.0</ele><time>2026-03-23T10:08:07.152Z</time></trkpt><trkpt lat="44.1434823" lon="10.3985118"><ele>431.0</ele><time>2026-03-23T10:08:09.147Z</time></trkpt><trkpt lat="44.1435758" lon="10.3984476"><ele>431.0</ele><time>2026-03-23T10:08:11.156Z</time></trkpt><trkpt lat="44.143658" lon="10.3983859"><ele>431.0</ele><time>2026-03-23T10:08:13.145Z</time></trkpt><trkpt lat="44.1437415" lon="10.3983157"><ele>431.0</ele><time>2026-03-23T10:08:15.146Z</time></trkpt><trkpt lat="44.1438387" lon="10.3982282"><ele>431.0</ele><time>2026-03-23T10:08:17.147Z</time></trkpt><trkpt lat="44.1439173" lon="10.3981497"><ele>431.0</ele><time>2026-03-23T10:08:19.151Z</time></trkpt><trkpt lat="44.1439977" lon="10.3980464"><ele>431.0</ele><time>2026-03-23T10:08:21.166Z</time></trkpt><trkpt lat="44.1440693" lon="10.3979523"><ele>431.0</ele><time>2026-03-23T10:08:23.152Z</time></trkpt><trkpt lat="44.1441652" lon="10.3978474"><ele>431.0</ele><time>2026-03-23T10:08:25.151Z</time></trkpt><trkpt lat="44.1442647" lon="10.397741"><ele>431.8333333333333</ele><time>2026-03-23T10:08:27.144Z</time></trkpt><trkpt lat="44.1443151" lon="10.3976831"><ele>432.66666666666663</ele><time>2026-03-23T10:08:28.15Z</time></trkpt><trkpt lat="44.1443693" lon="10.3976334"><ele>433.5</ele><time>2026-03-23T10:08:29.152Z</time></trkpt><trkpt lat="44.1444626" lon="10.397548"><ele>434.33333333333337</ele><time>2026-03-23T10:08:31.152Z</time></trkpt><trkpt lat="44.144556" lon="10.3974673"><ele>435.1666666666667</ele><time>2026-03-23T10:08:33.158Z</time></trkpt><trkpt lat="44.1446408" lon="10.3974103"><ele>436.0</ele><time>2026-03-23T10:08:35.145Z</time></trkpt><trkpt lat="44.1447229" lon="10.3973463"><ele>436.0</ele><time>2026-03-23T10:08:37.148Z</time></trkpt><trkpt lat="44.144813" lon="10.397295"><ele>436.0</ele><time>2026-03-23T10:08:39.145Z</time></trkpt><trkpt lat="44.1449129" lon="10.3972453"><ele>436.0</ele><time>2026-03-23T10:08:41.148Z</time></trkpt><trkpt lat="44.1450077" lon="10.3971952"><ele>436.0</ele><time>2026-03-23T10:08:43.147Z</time></trkpt><trkpt lat="44.1451015" lon="10.3971441"><ele>436.0</ele><time>2026-03-23T10:08:45.148Z</time></trkpt><trkpt lat="44.1451903" lon="10.3970912"><ele>435.0</ele><time>2026-03-23T10:08:47.157Z</time></trkpt><trkpt lat="44.1452907" lon="10.3970433"><ele>434.0</ele><time>2026-03-23T10:08:49.155Z</time></trkpt><trkpt lat="44.1453959" lon="10.3969956"><ele>433.0</ele><time>2026-03-23T10:08:51.146Z</time></trkpt><trkpt lat="44.1454949" lon="10.3969412"><ele>432.0</ele><time>2026-03-23T10:08:53.167Z</time></trkpt><trkpt lat="44.1455938" lon="10.3968848"><ele>431.0</ele><time>2026-03-23T10:08:55.147Z</time></trkpt><trkpt lat="44.1456957" lon="10.3968357"><ele>428.6</ele><time>2026-03-23T10:08:57.157Z</time></trkpt><trkpt lat="44.1457931" lon="10.3967822"><ele>426.20000000000005</ele><time>2026-03-23T10:08:59.145Z</time></trkpt><trkpt lat="44.1458892" lon="10.3967352"><ele>423.79999999999995</ele><time>2026-03-23T10:09:01.152Z</time></trkpt><trkpt lat="44.1459878" lon="10.3966942"><ele>421.4</ele><time>2026-03-23T10:09:03.156Z</time></trkpt><trkpt lat="44.1460844" lon="10.396636"><ele>419.0</ele><time>2026-03-23T10:09:05.15Z</time></trkpt><trkpt lat="44.1461859" lon="10.3965829"><ele>418.99999999999994</ele><time>2026-03-23T10:09:07.147Z</time></trkpt><trkpt lat="44.1462693" lon="10.3965418"><ele>419.0</ele><time>2026-03-23T10:09:09.147Z</time></trkpt><trkpt lat="44.1463507" lon="10.3964934"><ele>419.0</ele><time>2026-03-23T10:09:11.154Z</time></trkpt><trkpt lat="44.1464289" lon="10.3964545"><ele>419.0</ele><time>2026-03-23T10:09:13.148Z</time></trkpt><trkpt lat="44.1465051" lon="10.3964222"><ele>418.99999999999994</ele><time>2026-03-23T10:09:15.149Z</time></trkpt><trkpt lat="44.1465818" lon="10.3963852"><ele>419.0</ele><time>2026-03-23T10:09:17.142Z</time></trkpt><trkpt lat="44.1466577" lon="10.3963423"><ele>417.99999999999994</ele><time>2026-03-23T10:09:19.163Z</time></trkpt><trkpt lat="44.1467313" lon="10.3963033"><ele>417.0</ele><time>2026-03-23T10:09:21.163Z</time></trkpt><trkpt lat="44.1468076" lon="10.3962649"><ele>416.0</ele><time>2026-03-23T10:09:23.151Z</time></trkpt><trkpt lat="44.1468817" lon="10.3962294"><ele>415.0</ele><time>2026-03-23T10:09:25.146Z</time></trkpt><trkpt lat="44.1469527" lon="10.3961952"><ele>413.99999999999994</ele><time>2026-03-23T10:09:27.153Z</time></trkpt><trkpt lat="44.1470263" lon="10.3961584"><ele>413.0</ele><time>2026-03-23T10:09:29.145Z</time></trkpt><trkpt lat="44.1470951" lon="10.3961167"><ele>412.99999999999994</ele><time>2026-03-23T10:09:31.143Z</time></trkpt><trkpt lat="44.1471671" lon="10.3960749"><ele>413.0</ele><time>2026-03-23T10:09:33.143Z</time></trkpt><trkpt lat="44.1472411" lon="10.3960397"><ele>413.0</ele><time>2026-03-23T10:09:35.152Z</time></trkpt><trkpt lat="44.1473132" lon="10.3960035"><ele>413.0</ele><time>2026-03-23T10:09:37.148Z</time></trkpt><trkpt lat="44.1473872" lon="10.3959666"><ele>412.99999999999994</ele><time>2026-03-23T10:09:39.155Z</time></trkpt><trkpt lat="44.147463" lon="10.3959291"><ele>413.0</ele><time>2026-03-23T10:09:41.161Z</time></trkpt><trkpt lat="44.1475363" lon="10.3958951"><ele>414.16666666666663</ele><time>2026-03-23T10:09:43.145Z</time></trkpt><trkpt lat="44.1476101" lon="10.3958577"><ele>415.3333333333333</ele><time>2026-03-23T10:09:45.148Z</time></trkpt><trkpt lat="44.1476822" lon="10.3958196"><ele>416.5</ele><time>2026-03-23T10:09:47.139Z</time></trkpt><trkpt lat="44.1477554" lon="10.3957882"><ele>417.66666666666663</ele><time>2026-03-23T10:09:49.154Z</time></trkpt><trkpt lat="44.1478324" lon="10.3957603"><ele>418.8333333333333</ele><time>2026-03-23T10:09:51.148Z</time></trkpt><trkpt lat="44.1479129" lon="10.3957409"><ele>420.0</ele><time>2026-03-23T10:09:53.151Z</time></trkpt><trkpt lat="44.1479939" lon="10.3957231"><ele>420.0</ele><time>2026-03-23T10:09:55.147Z</time></trkpt><trkpt lat="44.1480745" lon="10.3957106"><ele>420.0</ele><time>2026-03-23T10:09:57.145Z</time></trkpt><trkpt lat="44.1481545" lon="10.3957052"><ele>420.0</ele><time>2026-03-23T10:09:59.148Z</time></trkpt><trkpt lat="44.1482366" lon="10.3956954"><ele>420.0</ele><time>2026-03-23T10:10:01.143Z</time></trkpt><trkpt lat="44.1483121" lon="10.3956912"><ele>420.0</ele><time>2026-03-23T10:10:03.162Z</time></trkpt><trkpt lat="44.1483773" lon="10.3956871"><ele>420.0</ele><time>2026-03-23T10:10:05.162Z</time></trkpt><trkpt lat="44.148471" lon="10.3956865"><ele>420.0</ele><time>2026-03-23T10:10:08.156Z</time></trkpt><trkpt lat="44.1485361" lon="10.3956818"><ele>420.0</ele><time>2026-03-23T10:10:10.152Z</time></trkpt><trkpt lat="44.1486" lon="10.3956713"><ele>420.0</ele><time>2026-03-23T10:10:12.151Z</time></trkpt><trkpt lat="44.1486694" lon="10.3956509"><ele>420.0</ele><time>2026-03-23T10:10:14.156Z</time></trkpt><trkpt lat="44.1487331" lon="10.3956221"><ele>420.0</ele><time>2026-03-23T10:10:16.158Z</time></trkpt><trkpt lat="44.1487941" lon="10.3955894"><ele>420.0</ele><time>2026-03-23T10:10:18.168Z</time></trkpt><trkpt lat="44.1488538" lon="10.3955509"><ele>420.0</ele><time>2026-03-23T10:10:20.166Z</time></trkpt><trkpt lat="44.1489372" lon="10.3954876"><ele>420.0</ele><time>2026-03-23T10:10:23.162Z</time></trkpt><trkpt lat="44.1489895" lon="10.3954386"><ele>420.0</ele><time>2026-03-23T10:10:25.157Z</time></trkpt><trkpt lat="44.1490605" lon="10.3953614"><ele>420.0</ele><time>2026-03-23T10:10:28.152Z</time></trkpt><trkpt lat="44.1491095" lon="10.3953038"><ele>420.0</ele><time>2026-03-23T10:10:30.166Z</time></trkpt><trkpt lat="44.1491755" lon="10.3952162"><ele>420.0</ele><time>2026-03-23T10:10:33.158Z</time></trkpt><trkpt lat="44.1492404" lon="10.3951271"><ele>420.0</ele><time>2026-03-23T10:10:36.164Z</time></trkpt><trkpt lat="44.1492836" lon="10.3950613"><ele>421.7142857142857</ele><time>2026-03-23T10:10:38.155Z</time></trkpt><trkpt lat="44.1493257" lon="10.3949957"><ele>423.42857142857144</ele><time>2026-03-23T10:10:40.161Z</time></trkpt><trkpt lat="44.1493743" lon="10.394938"><ele>425.1428571428571</ele><time>2026-03-23T10:10:42.157Z</time></trkpt><trkpt lat="44.1494343" lon="10.394849"><ele>426.8571428571429</ele><time>2026-03-23T10:10:45.15Z</time></trkpt><trkpt lat="44.1494815" lon="10.3947891"><ele>428.57142857142856</ele><time>2026-03-23T10:10:47.165Z</time></trkpt><trkpt lat="44.1495317" lon="10.3947245"><ele>430.2857142857143</ele><time>2026-03-23T10:10:49.159Z</time></trkpt><trkpt lat="44.1495763" lon="10.3946564"><ele>432.0</ele><time>2026-03-23T10:10:51.149Z</time></trkpt><trkpt lat="44.1496201" lon="10.3945882"><ele>432.0</ele><time>2026-03-23T10:10:53.152Z</time></trkpt><trkpt lat="44.1496821" lon="10.3944939"><ele>432.0</ele><time>2026-03-23T10:10:56.157Z</time></trkpt><trkpt lat="44.149749" lon="10.3944099"><ele>432.0</ele><time>2026-03-23T10:10:59.165Z</time></trkpt><trkpt lat="44.149797" lon="10.3943495"><ele>432.0</ele><time>2026-03-23T10:11:01.15Z</time></trkpt><trkpt lat="44.1498608" lon="10.3942539"><ele>432.0</ele><time>2026-03-23T10:11:04.151Z</time></trkpt><trkpt lat="44.1499247" lon="10.3941585"><ele>432.0</ele><time>2026-03-23T10:11:07.152Z</time></trkpt><trkpt lat="44.1499833" lon="10.3940633"><ele>434.6666666666667</ele><time>2026-03-23T10:11:10.145Z</time></trkpt><trkpt lat="44.1500405" lon="10.3939749"><ele>437.33333333333337</ele><time>2026-03-23T10:11:13.148Z</time></trkpt><trkpt lat="44.1501036" lon="10.3939698"><ele>440.0</ele><time>2026-03-23T10:11:15.155Z</time></trkpt><trkpt lat="44.1501331" lon="10.3940615"><ele>442.6666666666667</ele><time>2026-03-23T10:11:18.157Z</time></trkpt><trkpt lat="44.1500831" lon="10.39415"><ele>445.33333333333337</ele><time>2026-03-23T10:11:21.145Z</time></trkpt><trkpt lat="44.1500434" lon="10.3942433"><ele>448.0</ele><time>2026-03-23T10:11:24.151Z</time></trkpt><trkpt lat="44.1500041" lon="10.3943315"><ele>448.00000000000006</ele><time>2026-03-23T10:11:27.15Z</time></trkpt><trkpt lat="44.1499649" lon="10.3944238"><ele>448.0</ele><time>2026-03-23T10:11:30.159Z</time></trkpt><trkpt lat="44.1499193" lon="10.3945141"><ele>448.0</ele><time>2026-03-23T10:11:33.146Z</time></trkpt><trkpt lat="44.1498792" lon="10.3946109"><ele>448.0</ele><time>2026-03-23T10:11:36.159Z</time></trkpt><trkpt lat="44.1498351" lon="10.3947073"><ele>448.00000000000006</ele><time>2026-03-23T10:11:39.149Z</time></trkpt><trkpt lat="44.1497928" lon="10.3948088"><ele>448.0</ele><time>2026-03-23T10:11:42.154Z</time></trkpt><trkpt lat="44.1497528" lon="10.3948992"><ele>446.1666666666667</ele><time>2026-03-23T10:11:45.151Z</time></trkpt><trkpt lat="44.1497149" lon="10.394986"><ele>444.33333333333337</ele><time>2026-03-23T10:11:48.167Z</time></trkpt><trkpt lat="44.1496758" lon="10.3950766"><ele>442.5</ele><time>2026-03-23T10:11:51.161Z</time></trkpt><trkpt lat="44.1496411" lon="10.3951705"><ele>440.66666666666663</ele><time>2026-03-23T10:11:54.152Z</time></trkpt><trkpt lat="44.1496266" lon="10.3952841"><ele>438.8333333333333</ele><time>2026-03-23T10:11:57.151Z</time></trkpt><trkpt lat="44.1496443" lon="10.3954037"><ele>437.0</ele><time>2026-03-23T10:12:00.154Z</time></trkpt><trkpt lat="44.1496837" lon="10.3954979"><ele>437.3333333333333</ele><time>2026-03-23T10:12:03.154Z</time></trkpt><trkpt lat="44.149751" lon="10.3955598"><ele>437.66666666666663</ele><time>2026-03-23T10:12:06.153Z</time></trkpt><trkpt lat="44.1498391" lon="10.3955781"><ele>438.0</ele><time>2026-03-23T10:12:09.156Z</time></trkpt><trkpt lat="44.1499239" lon="10.3955532"><ele>438.33333333333337</ele><time>2026-03-23T10:12:12.152Z</time></trkpt><trkpt lat="44.1500066" lon="10.3955197"><ele>438.6666666666667</ele><time>2026-03-23T10:12:15.157Z</time></trkpt><trkpt lat="44.1500787" lon="10.3954749"><ele>439.0</ele><time>2026-03-23T10:12:18.144Z</time></trkpt><trkpt lat="44.1501523" lon="10.3954256"><ele>442.00000000000006</ele><time>2026-03-23T10:12:21.154Z</time></trkpt><trkpt lat="44.1502329" lon="10.3953847"><ele>445.0</ele><time>2026-03-23T10:12:24.163Z</time></trkpt><trkpt lat="44.1503098" lon="10.3953333"><ele>448.0</ele><time>2026-03-23T10:12:27.157Z</time></trkpt><trkpt lat="44.1503867" lon="10.3952878"><ele>451.0</ele><time>2026-03-23T10:12:30.154Z</time></trkpt><trkpt lat="44.150462" lon="10.3952424"><ele>454.00000000000006</ele><time>2026-03-23T10:12:33.162Z</time></trkpt><trkpt lat="44.1505096" lon="10.3951553"><ele>457.0</ele><time>2026-03-23T10:12:36.151Z</time></trkpt><trkpt lat="44.150463" lon="10.3950702"><ele>457.00000000000006</ele><time>2026-03-23T10:12:39.152Z</time></trkpt><trkpt lat="44.150381" lon="10.3950913"><ele>457.0</ele><time>2026-03-23T10:12:42.152Z</time></trkpt><trkpt lat="44.1503003" lon="10.3951377"><ele>457.0</ele><time>2026-03-23T10:12:45.157Z</time></trkpt><trkpt lat="44.1502232" lon="10.3951715"><ele>457.0</ele><time>2026-03-23T10:12:48.157Z</time></trkpt><trkpt lat="44.150143" lon="10.3952101"><ele>457.00000000000006</ele><time>2026-03-23T10:12:51.146Z</time></trkpt><trkpt lat="44.1500644" lon="10.3952552"><ele>457.0</ele><time>2026-03-23T10:12:54.156Z</time></trkpt><trkpt lat="44.1499819" lon="10.3952622"><ele>457.00000000000006</ele><time>2026-03-23T10:12:57.149Z</time></trkpt><trkpt lat="44.1499489" lon="10.3951537"><ele>457.0</ele><time>2026-03-23T10:13:00.151Z</time></trkpt><trkpt lat="44.1499739" lon="10.3950471"><ele>457.0</ele><time>2026-03-23T10:13:03.147Z</time></trkpt><trkpt lat="44.1500271" lon="10.394956"><ele>457.0</ele><time>2026-03-23T10:13:06.155Z</time></trkpt><trkpt lat="44.1500834" lon="10.3948791"><ele>457.00000000000006</ele><time>2026-03-23T10:13:09.149Z</time></trkpt><trkpt lat="44.1501474" lon="10.3948143"><ele>457.0</ele><time>2026-03-23T10:13:12.163Z</time></trkpt><trkpt lat="44.1502234" lon="10.3947568"><ele>457.00000000000006</ele><time>2026-03-23T10:13:15.154Z</time></trkpt><trkpt lat="44.1502995" lon="10.3946995"><ele>457.0</ele><time>2026-03-23T10:13:18.147Z</time></trkpt><trkpt lat="44.1503761" lon="10.394639"><ele>457.0</ele><time>2026-03-23T10:13:21.158Z</time></trkpt><trkpt lat="44.150447" lon="10.3945867"><ele>457.0</ele><time>2026-03-23T10:13:24.151Z</time></trkpt><trkpt lat="44.1505194" lon="10.3945306"><ele>457.00000000000006</ele><time>2026-03-23T10:13:27.156Z</time></trkpt><trkpt lat="44.1505903" lon="10.394484"><ele>457.0</ele><time>2026-03-23T10:13:30.144Z</time></trkpt><trkpt lat="44.1506629" lon="10.3944177"><ele>458.1666666666667</ele><time>2026-03-23T10:13:33.155Z</time></trkpt><trkpt lat="44.1507358" lon="10.3943497"><ele>459.33333333333337</ele><time>2026-03-23T10:13:36.156Z</time></trkpt><trkpt lat="44.150812" lon="10.3942957"><ele>460.5</ele><time>2026-03-23T10:13:39.162Z</time></trkpt><trkpt lat="44.1508844" lon="10.3942356"><ele>461.66666666666663</ele><time>2026-03-23T10:13:42.143Z</time></trkpt><trkpt lat="44.150959" lon="10.3941749"><ele>462.8333333333333</ele><time>2026-03-23T10:13:45.148Z</time></trkpt><trkpt lat="44.1510379" lon="10.394117"><ele>464.0</ele><time>2026-03-23T10:13:48.144Z</time></trkpt><trkpt lat="44.1511129" lon="10.3940557"><ele>464.00000000000006</ele><time>2026-03-23T10:13:51.147Z</time></trkpt><trkpt lat="44.1511882" lon="10.393992"><ele>464.0</ele><time>2026-03-23T10:13:54.154Z</time></trkpt><trkpt lat="44.1512692" lon="10.3939284"><ele>464.00000000000006</ele><time>2026-03-23T10:13:57.144Z</time></trkpt><trkpt lat="44.1513213" lon="10.3938777"><ele>464.00000000000006</ele><time>2026-03-23T10:13:59.15Z</time></trkpt><trkpt lat="44.151376" lon="10.3938287"><ele>464.0</ele><time>2026-03-23T10:14:01.144Z</time></trkpt><trkpt lat="44.1514332" lon="10.3937823"><ele>464.00000000000006</ele><time>2026-03-23T10:14:03.141Z</time></trkpt><trkpt lat="44.1514889" lon="10.393735"><ele>464.00000000000006</ele><time>2026-03-23T10:14:05.143Z</time></trkpt><trkpt lat="44.151545" lon="10.3936915"><ele>464.00000000000006</ele><time>2026-03-23T10:14:07.15Z</time></trkpt><trkpt lat="44.1515998" lon="10.3936461"><ele>464.0</ele><time>2026-03-23T10:14:09.144Z</time></trkpt><trkpt lat="44.1516566" lon="10.3936008"><ele>464.00000000000006</ele><time>2026-03-23T10:14:11.153Z</time></trkpt><trkpt lat="44.1517125" lon="10.393554"><ele>464.00000000000006</ele><time>2026-03-23T10:14:13.148Z</time></trkpt><trkpt lat="44.1517688" lon="10.3935071"><ele>464.0</ele><time>2026-03-23T10:14:15.141Z</time></trkpt><trkpt lat="44.1518244" lon="10.3934629"><ele>464.00000000000006</ele><time>2026-03-23T10:14:17.151Z</time></trkpt><trkpt lat="44.1518805" lon="10.3934158"><ele>464.00000000000006</ele><time>2026-03-23T10:14:19.15Z</time></trkpt><trkpt lat="44.1519371" lon="10.3933692"><ele>464.00000000000006</ele><time>2026-03-23T10:14:21.153Z</time></trkpt><trkpt lat="44.1519933" lon="10.3933199"><ele>464.0</ele><time>2026-03-23T10:14:23.153Z</time></trkpt><trkpt lat="44.1520542" lon="10.3932784"><ele>464.00000000000006</ele><time>2026-03-23T10:14:25.149Z</time></trkpt><trkpt lat="44.1521092" lon="10.3932318"><ele>464.00000000000006</ele><time>2026-03-23T10:14:27.147Z</time></trkpt><trkpt lat="44.1521665" lon="10.3931842"><ele>464.0</ele><time>2026-03-23T10:14:29.148Z</time></trkpt><trkpt lat="44.152223" lon="10.3931379"><ele>464.00000000000006</ele><time>2026-03-23T10:14:31.145Z</time></trkpt><trkpt lat="44.1522789" lon="10.3930953"><ele>464.00000000000006</ele><time>2026-03-23T10:14:33.149Z</time></trkpt><trkpt lat="44.1523376" lon="10.3930511"><ele>464.00000000000006</ele><time>2026-03-23T10:14:35.142Z</time></trkpt><trkpt lat="44.1523965" lon="10.3930065"><ele>464.0</ele><time>2026-03-23T10:14:37.156Z</time></trkpt><trkpt lat="44.1524545" lon="10.3929581"><ele>464.00000000000006</ele><time>2026-03-23T10:14:39.148Z</time></trkpt><trkpt lat="44.1525103" lon="10.39291"><ele>464.00000000000006</ele><time>2026-03-23T10:14:41.147Z</time></trkpt><trkpt lat="44.1525679" lon="10.3928638"><ele>464.0</ele><time>2026-03-23T10:14:43.144Z</time></trkpt><trkpt lat="44.1526237" lon="10.392815"><ele>464.00000000000006</ele><time>2026-03-23T10:14:45.151Z</time></trkpt><trkpt lat="44.1526795" lon="10.3927699"><ele>464.00000000000006</ele><time>2026-03-23T10:14:47.142Z</time></trkpt><trkpt lat="44.1527341" lon="10.3927235"><ele>464.00000000000006</ele><time>2026-03-23T10:14:49.147Z</time></trkpt><trkpt lat="44.1527907" lon="10.3926765"><ele>464.0</ele><time>2026-03-23T10:14:51.145Z</time></trkpt><trkpt lat="44.1528488" lon="10.3926336"><ele>464.00000000000006</ele><time>2026-03-23T10:14:53.146Z</time></trkpt><trkpt lat="44.1529051" lon="10.3925856"><ele>464.00000000000006</ele><time>2026-03-23T10:14:55.145Z</time></trkpt><trkpt lat="44.152963" lon="10.3925384"><ele>464.0</ele><time>2026-03-23T10:14:57.155Z</time></trkpt><trkpt lat="44.1530201" lon="10.3924919"><ele>464.00000000000006</ele><time>2026-03-23T10:14:59.151Z</time></trkpt><trkpt lat="44.1530775" lon="10.3924554"><ele>464.00000000000006</ele><time>2026-03-23T10:15:01.144Z</time></trkpt><trkpt lat="44.153142" lon="10.3924094"><ele>464.00000000000006</ele><time>2026-03-23T10:15:03.148Z</time></trkpt><trkpt lat="44.1531959" lon="10.3923604"><ele>464.0</ele><time>2026-03-23T10:15:05.158Z</time></trkpt><trkpt lat="44.1532512" lon="10.3923116"><ele>464.00000000000006</ele><time>2026-03-23T10:15:07.146Z</time></trkpt><trkpt lat="44.1533116" lon="10.3922716"><ele>464.00000000000006</ele><time>2026-03-23T10:15:09.145Z</time></trkpt><trkpt lat="44.1533706" lon="10.3922292"><ele>464.0</ele><time>2026-03-23T10:15:11.143Z</time></trkpt><trkpt lat="44.1534277" lon="10.3921801"><ele>464.00000000000006</ele><time>2026-03-23T10:15:13.145Z</time></trkpt><trkpt lat="44.1534911" lon="10.3921454"><ele>464.00000000000006</ele><time>2026-03-23T10:15:15.151Z</time></trkpt><trkpt lat="44.1535572" lon="10.3921121"><ele>464.8571428571429</ele><time>2026-03-23T10:15:17.147Z</time></trkpt><trkpt lat="44.1536213" lon="10.3920688"><ele>465.7142857142857</ele><time>2026-03-23T10:15:19.149Z</time></trkpt><trkpt lat="44.1536835" lon="10.3920265"><ele>466.57142857142856</ele><time>2026-03-23T10:15:21.142Z</time></trkpt><trkpt lat="44.153761" lon="10.3919667"><ele>467.42857142857144</ele><time>2026-03-23T10:15:24.149Z</time></trkpt><trkpt lat="44.1538213" lon="10.3919295"><ele>468.2857142857142</ele><time>2026-03-23T10:15:26.149Z</time></trkpt><trkpt lat="44.15388" lon="10.3918887"><ele>469.1428571428571</ele><time>2026-03-23T10:15:28.157Z</time></trkpt><trkpt lat="44.1539407" lon="10.3918486"><ele>470.0</ele><time>2026-03-23T10:15:30.143Z</time></trkpt><trkpt lat="44.1540017" lon="10.3918016"><ele>472.2857142857143</ele><time>2026-03-23T10:15:32.145Z</time></trkpt><trkpt lat="44.1540667" lon="10.3917564"><ele>474.57142857142856</ele><time>2026-03-23T10:15:34.145Z</time></trkpt><trkpt lat="44.1541306" lon="10.3917131"><ele>476.85714285714283</ele><time>2026-03-23T10:15:36.147Z</time></trkpt><trkpt lat="44.1541926" lon="10.3916726"><ele>479.1428571428571</ele><time>2026-03-23T10:15:38.144Z</time></trkpt><trkpt lat="44.1542546" lon="10.391633"><ele>481.42857142857144</ele><time>2026-03-23T10:15:40.143Z</time></trkpt><trkpt lat="44.1543187" lon="10.3915943"><ele>483.71428571428567</ele><time>2026-03-23T10:15:42.144Z</time></trkpt><trkpt lat="44.1543808" lon="10.3915601"><ele>486.0</ele><time>2026-03-23T10:15:44.147Z</time></trkpt><trkpt lat="44.154446" lon="10.3915356"><ele>486.0</ele><time>2026-03-23T10:15:46.143Z</time></trkpt><trkpt lat="44.1545106" lon="10.3915338"><ele>486.0</ele><time>2026-03-23T10:15:48.146Z</time></trkpt><trkpt lat="44.1545814" lon="10.3915373"><ele>486.0</ele><time>2026-03-23T10:15:50.153Z</time></trkpt><trkpt lat="44.1546536" lon="10.3915381"><ele>486.0</ele><time>2026-03-23T10:15:52.152Z</time></trkpt><trkpt lat="44.1547226" lon="10.3915413"><ele>486.0</ele><time>2026-03-23T10:15:54.148Z</time></trkpt><trkpt lat="44.1547885" lon="10.3915465"><ele>486.0</ele><time>2026-03-23T10:15:56.147Z</time></trkpt><trkpt lat="44.1548541" lon="10.3915517"><ele>486.0</ele><time>2026-03-23T10:15:58.144Z</time></trkpt><trkpt lat="44.1549241" lon="10.3915583"><ele>487.0</ele><time>2026-03-23T10:16:00.143Z</time></trkpt><trkpt lat="44.1549947" lon="10.3915679"><ele>488.0</ele><time>2026-03-23T10:16:02.149Z</time></trkpt><trkpt lat="44.1550663" lon="10.3915788"><ele>489.0</ele><time>2026-03-23T10:16:04.157Z</time></trkpt><trkpt lat="44.1551385" lon="10.3915832"><ele>490.0</ele><time>2026-03-23T10:16:06.148Z</time></trkpt><trkpt lat="44.1552077" lon="10.3915832"><ele>491.0</ele><time>2026-03-23T10:16:08.152Z</time></trkpt><trkpt lat="44.1553025" lon="10.3915967"><ele>492.0</ele><time>2026-03-23T10:16:11.144Z</time></trkpt><trkpt lat="44.1553966" lon="10.3915987"><ele>492.00000000000006</ele><time>2026-03-23T10:16:14.141Z</time></trkpt><trkpt lat="44.1554616" lon="10.3915962"><ele>492.0</ele><time>2026-03-23T10:16:16.147Z</time></trkpt><trkpt lat="44.1555259" lon="10.3915947"><ele>492.00000000000006</ele><time>2026-03-23T10:16:18.151Z</time></trkpt><trkpt lat="44.1555905" lon="10.3915951"><ele>492.00000000000006</ele><time>2026-03-23T10:16:20.151Z</time></trkpt><trkpt lat="44.1556566" lon="10.3915856"><ele>492.0</ele><time>2026-03-23T10:16:22.156Z</time></trkpt><trkpt lat="44.1557221" lon="10.3915719"><ele>492.00000000000006</ele><time>2026-03-23T10:16:24.147Z</time></trkpt><trkpt lat="44.1557854" lon="10.3915545"><ele>492.00000000000006</ele><time>2026-03-23T10:16:26.149Z</time></trkpt><trkpt lat="44.1558486" lon="10.3915293"><ele>492.8571428571429</ele><time>2026-03-23T10:16:28.144Z</time></trkpt><trkpt lat="44.1559069" lon="10.3914941"><ele>493.7142857142857</ele><time>2026-03-23T10:16:30.141Z</time></trkpt><trkpt lat="44.1559658" lon="10.3914564"><ele>494.57142857142856</ele><time>2026-03-23T10:16:32.145Z</time></trkpt><trkpt lat="44.1560212" lon="10.3914121"><ele>495.42857142857144</ele><time>2026-03-23T10:16:34.15Z</time></trkpt><trkpt lat="44.1560797" lon="10.3913691"><ele>496.2857142857142</ele><time>2026-03-23T10:16:36.146Z</time></trkpt><trkpt lat="44.1561367" lon="10.391325"><ele>497.1428571428571</ele><time>2026-03-23T10:16:38.147Z</time></trkpt><trkpt lat="44.1561932" lon="10.3912768"><ele>498.0</ele><time>2026-03-23T10:16:40.148Z</time></trkpt><trkpt lat="44.1562502" lon="10.3912286"><ele>498.1428571428571</ele><time>2026-03-23T10:16:42.152Z</time></trkpt><trkpt lat="44.1563077" lon="10.3911843"><ele>498.2857142857142</ele><time>2026-03-23T10:16:44.147Z</time></trkpt><trkpt lat="44.1563646" lon="10.3911368"><ele>498.42857142857144</ele><time>2026-03-23T10:16:46.142Z</time></trkpt><trkpt lat="44.1564195" lon="10.3910856"><ele>498.57142857142856</ele><time>2026-03-23T10:16:48.144Z</time></trkpt><trkpt lat="44.1564729" lon="10.3910353"><ele>498.7142857142857</ele><time>2026-03-23T10:16:50.15Z</time></trkpt><trkpt lat="44.1565281" lon="10.3909854"><ele>498.8571428571429</ele><time>2026-03-23T10:16:52.153Z</time></trkpt><trkpt lat="44.1565837" lon="10.3909337"><ele>499.00000000000006</ele><time>2026-03-23T10:16:54.144Z</time></trkpt><trkpt lat="44.1566379" lon="10.3908781"><ele>499.00000000000006</ele><time>2026-03-23T10:16:56.146Z</time></trkpt><trkpt lat="44.1566916" lon="10.3908199"><ele>499.0</ele><time>2026-03-23T10:16:58.144Z</time></trkpt><trkpt lat="44.156742" lon="10.3907628"><ele>499.00000000000006</ele><time>2026-03-23T10:17:00.144Z</time></trkpt><trkpt lat="44.1567949" lon="10.3907071"><ele>499.00000000000006</ele><time>2026-03-23T10:17:02.142Z</time></trkpt><trkpt lat="44.156847" lon="10.3906506"><ele>499.0</ele><time>2026-03-23T10:17:04.143Z</time></trkpt><trkpt lat="44.1568992" lon="10.3905917"><ele>499.00000000000006</ele><time>2026-03-23T10:17:06.144Z</time></trkpt><trkpt lat="44.1569566" lon="10.3905375"><ele>499.00000000000006</ele><time>2026-03-23T10:17:08.147Z</time></trkpt><trkpt lat="44.1570148" lon="10.3904812"><ele>500.28571428571433</ele><time>2026-03-23T10:17:10.148Z</time></trkpt><trkpt lat="44.1570649" lon="10.3904253"><ele>501.57142857142856</ele><time>2026-03-23T10:17:12.149Z</time></trkpt><trkpt lat="44.1571176" lon="10.3903675"><ele>502.8571428571429</ele><time>2026-03-23T10:17:14.15Z</time></trkpt><trkpt lat="44.1571687" lon="10.390307"><ele>504.14285714285717</ele><time>2026-03-23T10:17:16.155Z</time></trkpt><trkpt lat="44.1572195" lon="10.3902481"><ele>505.42857142857144</ele><time>2026-03-23T10:17:18.16Z</time></trkpt><trkpt lat="44.1572726" lon="10.3901895"><ele>506.7142857142857</ele><time>2026-03-23T10:17:20.147Z</time></trkpt><trkpt lat="44.1573247" lon="10.3901302"><ele>508.0</ele><time>2026-03-23T10:17:22.153Z</time></trkpt><trkpt lat="44.1573757" lon="10.3900715"><ele>508.0</ele><time>2026-03-23T10:17:24.152Z</time></trkpt><trkpt lat="44.1574246" lon="10.3900122"><ele>508.0</ele><time>2026-03-23T10:17:26.156Z</time></trkpt><trkpt lat="44.1574695" lon="10.3899456"><ele>508.0</ele><time>2026-03-23T10:17:28.158Z</time></trkpt><trkpt lat="44.1575101" lon="10.3898758"><ele>508.0</ele><time>2026-03-23T10:17:30.155Z</time></trkpt><trkpt lat="44.1575738" lon="10.389778"><ele>508.0</ele><time>2026-03-23T10:17:33.152Z</time></trkpt><trkpt lat="44.1576208" lon="10.3897063"><ele>508.0</ele><time>2026-03-23T10:17:35.141Z</time></trkpt><trkpt lat="44.1576695" lon="10.389638"><ele>508.0</ele><time>2026-03-23T10:17:37.154Z</time></trkpt><trkpt lat="44.1577161" lon="10.3895653"><ele>506.57142857142856</ele><time>2026-03-23T10:17:39.166Z</time></trkpt><trkpt lat="44.1577614" lon="10.389495"><ele>505.1428571428571</ele><time>2026-03-23T10:17:41.151Z</time></trkpt><trkpt lat="44.1578098" lon="10.3894283"><ele>503.71428571428567</ele><time>2026-03-23T10:17:43.156Z</time></trkpt><trkpt lat="44.1578552" lon="10.389354"><ele>502.2857142857143</ele><time>2026-03-23T10:17:45.143Z</time></trkpt><trkpt lat="44.1579001" lon="10.3892794"><ele>500.8571428571428</ele><time>2026-03-23T10:17:47.165Z</time></trkpt><trkpt lat="44.1579465" lon="10.3892152"><ele>499.4285714285714</ele><time>2026-03-23T10:17:49.148Z</time></trkpt><trkpt lat="44.1579909" lon="10.389149"><ele>498.0</ele><time>2026-03-23T10:17:51.144Z</time></trkpt><trkpt lat="44.1580425" lon="10.3890843"><ele>498.0</ele><time>2026-03-23T10:17:53.154Z</time></trkpt><trkpt lat="44.1580924" lon="10.3890164"><ele>497.99999999999994</ele><time>2026-03-23T10:17:55.164Z</time></trkpt><trkpt lat="44.1581377" lon="10.3889439"><ele>498.0</ele><time>2026-03-23T10:17:57.145Z</time></trkpt><trkpt lat="44.1581855" lon="10.3888758"><ele>498.0</ele><time>2026-03-23T10:17:59.152Z</time></trkpt><trkpt lat="44.1582365" lon="10.388808"><ele>497.99999999999994</ele><time>2026-03-23T10:18:01.161Z</time></trkpt><trkpt lat="44.1582954" lon="10.3887457"><ele>498.0</ele><time>2026-03-23T10:18:03.148Z</time></trkpt><trkpt lat="44.1583577" lon="10.3886933"><ele>498.0</ele><time>2026-03-23T10:18:05.153Z</time></trkpt><trkpt lat="44.158422" lon="10.3886511"><ele>499.57142857142856</ele><time>2026-03-23T10:18:07.147Z</time></trkpt><trkpt lat="44.1584882" lon="10.3886163"><ele>501.1428571428571</ele><time>2026-03-23T10:18:09.151Z</time></trkpt><trkpt lat="44.1585559" lon="10.3885894"><ele>502.71428571428567</ele><time>2026-03-23T10:18:11.154Z</time></trkpt><trkpt lat="44.1586248" lon="10.3885714"><ele>504.2857142857142</ele><time>2026-03-23T10:18:13.153Z</time></trkpt><trkpt lat="44.1586942" lon="10.3885549"><ele>505.85714285714283</ele><time>2026-03-23T10:18:15.151Z</time></trkpt><trkpt lat="44.1587637" lon="10.3885428"><ele>507.42857142857133</ele><time>2026-03-23T10:18:17.144Z</time></trkpt><trkpt lat="44.1588291" lon="10.3885224"><ele>508.99999999999994</ele><time>2026-03-23T10:18:19.152Z</time></trkpt><trkpt lat="44.1588957" lon="10.3885081"><ele>508.99999999999994</ele><time>2026-03-23T10:18:21.15Z</time></trkpt><trkpt lat="44.158966" lon="10.3884921"><ele>509.0</ele><time>2026-03-23T10:18:23.146Z</time></trkpt><trkpt lat="44.1590349" lon="10.388473"><ele>508.99999999999994</ele><time>2026-03-23T10:18:25.145Z</time></trkpt><trkpt lat="44.159104" lon="10.3884535"><ele>508.99999999999994</ele><time>2026-03-23T10:18:27.155Z</time></trkpt><trkpt lat="44.1591744" lon="10.3884365"><ele>509.0</ele><time>2026-03-23T10:18:29.163Z</time></trkpt><trkpt lat="44.159242" lon="10.38842"><ele>508.99999999999994</ele><time>2026-03-23T10:18:31.152Z</time></trkpt><trkpt lat="44.1593064" lon="10.3884064"><ele>508.99999999999994</ele><time>2026-03-23T10:18:33.142Z</time></trkpt><trkpt lat="44.1593969" lon="10.3883788"><ele>511.2857142857142</ele><time>2026-03-23T10:18:36.144Z</time></trkpt><trkpt lat="44.1594629" lon="10.3883703"><ele>513.5714285714286</ele><time>2026-03-23T10:18:38.151Z</time></trkpt><trkpt lat="44.1595269" lon="10.3883611"><ele>515.8571428571429</ele><time>2026-03-23T10:18:40.152Z</time></trkpt><trkpt lat="44.1595918" lon="10.3883699"><ele>518.1428571428571</ele><time>2026-03-23T10:18:42.147Z</time></trkpt><trkpt lat="44.1596565" lon="10.3883793"><ele>520.4285714285714</ele><time>2026-03-23T10:18:44.151Z</time></trkpt><trkpt lat="44.1597507" lon="10.3883997"><ele>522.7142857142857</ele><time>2026-03-23T10:18:47.149Z</time></trkpt><trkpt lat="44.1598142" lon="10.3884202"><ele>525.0</ele><time>2026-03-23T10:18:49.146Z</time></trkpt><trkpt lat="44.1598775" lon="10.3884413"><ele>525.2857142857143</ele><time>2026-03-23T10:18:51.152Z</time></trkpt><trkpt lat="44.1599417" lon="10.3884565"><ele>525.5714285714286</ele><time>2026-03-23T10:18:53.165Z</time></trkpt><trkpt lat="44.1600051" lon="10.3884761"><ele>525.8571428571429</ele><time>2026-03-23T10:18:55.149Z</time></trkpt><trkpt lat="44.1600711" lon="10.3884992"><ele>526.1428571428571</ele><time>2026-03-23T10:18:57.15Z</time></trkpt><trkpt lat="44.1601575" lon="10.3885543"><ele>526.4285714285714</ele><time>2026-03-23T10:19:00.143Z</time></trkpt><trkpt lat="44.1602041" lon="10.3886202"><ele>526.7142857142858</ele><time>2026-03-23T10:19:02.146Z</time></trkpt><trkpt lat="44.1602368" lon="10.3887047"><ele>527.0</ele><time>2026-03-23T10:19:04.15Z</time></trkpt><trkpt lat="44.1602582" lon="10.3887955"><ele>527.1428571428572</ele><time>2026-03-23T10:19:06.149Z</time></trkpt><trkpt lat="44.1602798" lon="10.3888909"><ele>527.2857142857143</ele><time>2026-03-23T10:19:08.165Z</time></trkpt><trkpt lat="44.1603019" lon="10.3889787"><ele>527.4285714285714</ele><time>2026-03-23T10:19:10.171Z</time></trkpt><trkpt lat="44.1603265" lon="10.3890671"><ele>527.5714285714287</ele><time>2026-03-23T10:19:12.178Z</time></trkpt><trkpt lat="44.1603562" lon="10.389175"><ele>527.7142857142858</ele><time>2026-03-23T10:19:14.167Z</time></trkpt><trkpt lat="44.1603807" lon="10.389278"><ele>527.8571428571429</ele><time>2026-03-23T10:19:16.153Z</time></trkpt><trkpt lat="44.160405" lon="10.3893815"><ele>528.0</ele><time>2026-03-23T10:19:18.152Z</time></trkpt><trkpt lat="44.1604327" lon="10.3894816"><ele>528.0</ele><time>2026-03-23T10:19:20.155Z</time></trkpt><trkpt lat="44.1604607" lon="10.38958"><ele>528.0</ele><time>2026-03-23T10:19:22.159Z</time></trkpt><trkpt lat="44.1604863" lon="10.3896757"><ele>528.0</ele><time>2026-03-23T10:19:24.171Z</time></trkpt><trkpt lat="44.1605099" lon="10.3897729"><ele>528.0</ele><time>2026-03-23T10:19:26.157Z</time></trkpt><trkpt lat="44.1605319" lon="10.389872"><ele>528.0</ele><time>2026-03-23T10:19:28.158Z</time></trkpt><trkpt lat="44.1605563" lon="10.3899703"><ele>528.0</ele><time>2026-03-23T10:19:30.152Z</time></trkpt><trkpt lat="44.1605812" lon="10.3900676"><ele>528.0</ele><time>2026-03-23T10:19:32.154Z</time></trkpt><trkpt lat="44.1606063" lon="10.3901686"><ele>527.6666666666666</ele><time>2026-03-23T10:19:34.154Z</time></trkpt><trkpt lat="44.16063" lon="10.3902678"><ele>527.3333333333334</ele><time>2026-03-23T10:19:36.153Z</time></trkpt><trkpt lat="44.1606536" lon="10.3903716"><ele>527.0</ele><time>2026-03-23T10:19:38.155Z</time></trkpt><trkpt lat="44.1606824" lon="10.3904716"><ele>526.6666666666667</ele><time>2026-03-23T10:19:40.172Z</time></trkpt><trkpt lat="44.1607099" lon="10.3905734"><ele>526.3333333333334</ele><time>2026-03-23T10:19:42.151Z</time></trkpt><trkpt lat="44.1607403" lon="10.3906751"><ele>526.0</ele><time>2026-03-23T10:19:44.151Z</time></trkpt><trkpt lat="44.1607669" lon="10.390773"><ele>526.3333333333334</ele><time>2026-03-23T10:19:46.159Z</time></trkpt><trkpt lat="44.1607953" lon="10.3908703"><ele>526.6666666666667</ele><time>2026-03-23T10:19:48.143Z</time></trkpt><trkpt lat="44.1608243" lon="10.3909718"><ele>527.0</ele><time>2026-03-23T10:19:50.156Z</time></trkpt><trkpt lat="44.160849" lon="10.3910763"><ele>527.3333333333334</ele><time>2026-03-23T10:19:52.152Z</time></trkpt><trkpt lat="44.1608696" lon="10.3911795"><ele>527.6666666666666</ele><time>2026-03-23T10:19:54.165Z</time></trkpt><trkpt lat="44.1608912" lon="10.3912701"><ele>528.0</ele><time>2026-03-23T10:19:56.158Z</time></trkpt><trkpt lat="44.1609163" lon="10.3913651"><ele>528.0</ele><time>2026-03-23T10:19:58.15Z</time></trkpt><trkpt lat="44.160945" lon="10.3914634"><ele>528.0</ele><time>2026-03-23T10:20:00.152Z</time></trkpt><trkpt lat="44.1609711" lon="10.3915679"><ele>528.0</ele><time>2026-03-23T10:20:02.157Z</time></trkpt><trkpt lat="44.1609948" lon="10.3916727"><ele>528.0</ele><time>2026-03-23T10:20:04.149Z</time></trkpt><trkpt lat="44.1610197" lon="10.3917784"><ele>528.0</ele><time>2026-03-23T10:20:06.157Z</time></trkpt><trkpt lat="44.161049" lon="10.3918854"><ele>528.0</ele><time>2026-03-23T10:20:08.166Z</time></trkpt><trkpt lat="44.1610747" lon="10.3919955"><ele>528.0</ele><time>2026-03-23T10:20:10.166Z</time></trkpt><trkpt lat="44.1610966" lon="10.3920973"><ele>528.0</ele><time>2026-03-23T10:20:12.148Z</time></trkpt><trkpt lat="44.1611207" lon="10.3921919"><ele>528.0</ele><time>2026-03-23T10:20:14.149Z</time></trkpt><trkpt lat="44.1611461" lon="10.3922932"><ele>528.0</ele><time>2026-03-23T10:20:16.153Z</time></trkpt><trkpt lat="44.1611709" lon="10.392399"><ele>528.0</ele><time>2026-03-23T10:20:18.14Z</time></trkpt><trkpt lat="44.1611947" lon="10.3925054"><ele>528.0</ele><time>2026-03-23T10:20:20.15Z</time></trkpt><trkpt lat="44.1612238" lon="10.3926077"><ele>528.1666666666666</ele><time>2026-03-23T10:20:22.158Z</time></trkpt><trkpt lat="44.1612485" lon="10.3927109"><ele>528.3333333333334</ele><time>2026-03-23T10:20:24.165Z</time></trkpt><trkpt lat="44.161274" lon="10.3928179"><ele>528.5</ele><time>2026-03-23T10:20:26.158Z</time></trkpt><trkpt lat="44.1612993" lon="10.3929241"><ele>528.6666666666667</ele><time>2026-03-23T10:20:28.16Z</time></trkpt><trkpt lat="44.1613268" lon="10.3930281"><ele>528.8333333333334</ele><time>2026-03-23T10:20:30.146Z</time></trkpt><trkpt lat="44.161357" lon="10.39314"><ele>529.0</ele><time>2026-03-23T10:20:32.152Z</time></trkpt><trkpt lat="44.1613817" lon="10.3932575"><ele>528.0</ele><time>2026-03-23T10:20:34.161Z</time></trkpt><trkpt lat="44.1614084" lon="10.3933742"><ele>527.0</ele><time>2026-03-23T10:20:36.158Z</time></trkpt><trkpt lat="44.1614368" lon="10.3934927"><ele>526.0</ele><time>2026-03-23T10:20:38.155Z</time></trkpt><trkpt lat="44.1614671" lon="10.3936135"><ele>525.0</ele><time>2026-03-23T10:20:40.161Z</time></trkpt><trkpt lat="44.1614997" lon="10.3937309"><ele>524.0</ele><time>2026-03-23T10:20:42.158Z</time></trkpt><trkpt lat="44.1615288" lon="10.3938459"><ele>523.0</ele><time>2026-03-23T10:20:44.147Z</time></trkpt><trkpt lat="44.1615623" lon="10.3939714"><ele>525.1666666666667</ele><time>2026-03-23T10:20:46.158Z</time></trkpt><trkpt lat="44.1615944" lon="10.3940891"><ele>527.3333333333334</ele><time>2026-03-23T10:20:48.156Z</time></trkpt><trkpt lat="44.1616275" lon="10.3942105"><ele>529.5</ele><time>2026-03-23T10:20:50.149Z</time></trkpt><trkpt lat="44.1616561" lon="10.3943233"><ele>531.6666666666666</ele><time>2026-03-23T10:20:52.167Z</time></trkpt><trkpt lat="44.1616784" lon="10.3944404"><ele>533.8333333333333</ele><time>2026-03-23T10:20:54.162Z</time></trkpt><trkpt lat="44.1617069" lon="10.394556"><ele>536.0</ele><time>2026-03-23T10:20:56.156Z</time></trkpt><trkpt lat="44.1617377" lon="10.3946669"><ele>535.8</ele><time>2026-03-23T10:20:58.151Z</time></trkpt><trkpt lat="44.1617685" lon="10.3947841"><ele>535.6</ele><time>2026-03-23T10:21:00.154Z</time></trkpt><trkpt lat="44.1618004" lon="10.3949068"><ele>535.4</ele><time>2026-03-23T10:21:02.151Z</time></trkpt><trkpt lat="44.1618293" lon="10.3950253"><ele>535.2</ele><time>2026-03-23T10:21:04.155Z</time></trkpt><trkpt lat="44.1618605" lon="10.3951429"><ele>535.0</ele><time>2026-03-23T10:21:06.163Z</time></trkpt><trkpt lat="44.1618864" lon="10.3952663"><ele>535.0</ele><time>2026-03-23T10:21:08.142Z</time></trkpt><trkpt lat="44.1619122" lon="10.3953913"><ele>535.0</ele><time>2026-03-23T10:21:10.15Z</time></trkpt><trkpt lat="44.1619139" lon="10.3955218"><ele>535.0</ele><time>2026-03-23T10:21:12.151Z</time></trkpt><trkpt lat="44.1618819" lon="10.3956359"><ele>535.0</ele><time>2026-03-23T10:21:14.153Z</time></trkpt><trkpt lat="44.161824" lon="10.3957279"><ele>535.0</ele><time>2026-03-23T10:21:16.146Z</time></trkpt><trkpt lat="44.1617522" lon="10.3957862"><ele>535.0</ele><time>2026-03-23T10:21:18.148Z</time></trkpt><trkpt lat="44.1616777" lon="10.3958317"><ele>534.8333333333334</ele><time>2026-03-23T10:21:20.151Z</time></trkpt><trkpt lat="44.1616007" lon="10.3958787"><ele>534.6666666666667</ele><time>2026-03-23T10:21:22.158Z</time></trkpt><trkpt lat="44.1615189" lon="10.3958977"><ele>534.5</ele><time>2026-03-23T10:21:24.147Z</time></trkpt><trkpt lat="44.1614379" lon="10.3958875"><ele>534.3333333333334</ele><time>2026-03-23T10:21:26.151Z</time></trkpt><trkpt lat="44.1613775" lon="10.3958621"><ele>534.1666666666666</ele><time>2026-03-23T10:21:28.149Z</time></trkpt><trkpt lat="44.1612998" lon="10.3958068"><ele>534.0</ele><time>2026-03-23T10:21:31.156Z</time></trkpt><trkpt lat="44.1612394" lon="10.395778"><ele>534.5714285714287</ele><time>2026-03-23T10:21:33.148Z</time></trkpt><trkpt lat="44.1611775" lon="10.3957485"><ele>535.1428571428571</ele><time>2026-03-23T10:21:35.147Z</time></trkpt><trkpt lat="44.1611222" lon="10.3957045"><ele>535.7142857142858</ele><time>2026-03-23T10:21:37.158Z</time></trkpt><trkpt lat="44.1610626" lon="10.3956676"><ele>536.2857142857143</ele><time>2026-03-23T10:21:39.15Z</time></trkpt><trkpt lat="44.1609985" lon="10.3956334"><ele>536.8571428571429</ele><time>2026-03-23T10:21:41.154Z</time></trkpt><trkpt lat="44.1609355" lon="10.395601"><ele>537.4285714285714</ele><time>2026-03-23T10:21:43.146Z</time></trkpt><trkpt lat="44.1608741" lon="10.3955656"><ele>538.0</ele><time>2026-03-23T10:21:45.144Z</time></trkpt><trkpt lat="44.1608124" lon="10.3955327"><ele>538.0</ele><time>2026-03-23T10:21:47.158Z</time></trkpt><trkpt lat="44.160749" lon="10.395504"><ele>538.0</ele><time>2026-03-23T10:21:49.163Z</time></trkpt><trkpt lat="44.1606861" lon="10.3954738"><ele>538.0</ele><time>2026-03-23T10:21:51.148Z</time></trkpt><trkpt lat="44.1606203" lon="10.3954512"><ele>538.0</ele><time>2026-03-23T10:21:53.149Z</time></trkpt><trkpt lat="44.1605522" lon="10.3954311"><ele>538.0</ele><time>2026-03-23T10:21:55.171Z</time></trkpt><trkpt lat="44.1604825" lon="10.395438"><ele>538.0</ele><time>2026-03-23T10:21:57.15Z</time></trkpt><trkpt lat="44.1604131" lon="10.3954637"><ele>538.0</ele><time>2026-03-23T10:21:59.154Z</time></trkpt><trkpt lat="44.1603453" lon="10.3954944"><ele>538.0</ele><time>2026-03-23T10:22:01.154Z</time></trkpt><trkpt lat="44.1602879" lon="10.3955483"><ele>538.0</ele><time>2026-03-23T10:22:03.147Z</time></trkpt><trkpt lat="44.1602418" lon="10.395624"><ele>538.0</ele><time>2026-03-23T10:22:05.162Z</time></trkpt><trkpt lat="44.1602041" lon="10.3957067"><ele>538.0</ele><time>2026-03-23T10:22:07.151Z</time></trkpt><trkpt lat="44.1601715" lon="10.3957942"><ele>538.0</ele><time>2026-03-23T10:22:09.149Z</time></trkpt><trkpt lat="44.1601367" lon="10.395886"><ele>538.0</ele><time>2026-03-23T10:22:11.147Z</time></trkpt><trkpt lat="44.1601004" lon="10.3959751"><ele>538.0</ele><time>2026-03-23T10:22:13.145Z</time></trkpt><trkpt lat="44.1600662" lon="10.3960649"><ele>538.0</ele><time>2026-03-23T10:22:15.146Z</time></trkpt><trkpt lat="44.1600327" lon="10.3961579"><ele>538.0</ele><time>2026-03-23T10:22:17.148Z</time></trkpt><trkpt lat="44.1600001" lon="10.3962522"><ele>538.0</ele><time>2026-03-23T10:22:19.144Z</time></trkpt><trkpt lat="44.1599658" lon="10.3963446"><ele>538.0</ele><time>2026-03-23T10:22:21.148Z</time></trkpt><trkpt lat="44.1599281" lon="10.3964444"><ele>538.0</ele><time>2026-03-23T10:22:23.15Z</time></trkpt><trkpt lat="44.1598934" lon="10.3965429"><ele>538.0</ele><time>2026-03-23T10:22:25.156Z</time></trkpt><trkpt lat="44.1598619" lon="10.3966431"><ele>538.6666666666667</ele><time>2026-03-23T10:22:27.154Z</time></trkpt><trkpt lat="44.1598289" lon="10.3967419"><ele>539.3333333333334</ele><time>2026-03-23T10:22:29.159Z</time></trkpt><trkpt lat="44.1597896" lon="10.3968389"><ele>540.0</ele><time>2026-03-23T10:22:31.152Z</time></trkpt><trkpt lat="44.1597499" lon="10.3969404"><ele>540.6666666666666</ele><time>2026-03-23T10:22:33.148Z</time></trkpt><trkpt lat="44.1597119" lon="10.397047"><ele>541.3333333333333</ele><time>2026-03-23T10:22:35.153Z</time></trkpt><trkpt lat="44.1596767" lon="10.3971549"><ele>542.0</ele><time>2026-03-23T10:22:37.153Z</time></trkpt><trkpt lat="44.1596412" lon="10.3972615"><ele>542.5</ele><time>2026-03-23T10:22:39.148Z</time></trkpt><trkpt lat="44.1596054" lon="10.3973658"><ele>543.0</ele><time>2026-03-23T10:22:41.149Z</time></trkpt><trkpt lat="44.1595689" lon="10.3974727"><ele>543.5</ele><time>2026-03-23T10:22:43.158Z</time></trkpt><trkpt lat="44.1595363" lon="10.3975812"><ele>544.0</ele><time>2026-03-23T10:22:45.147Z</time></trkpt><trkpt lat="44.1595223" lon="10.3976962"><ele>544.5</ele><time>2026-03-23T10:22:47.152Z</time></trkpt><trkpt lat="44.1595278" lon="10.3978092"><ele>545.0</ele><time>2026-03-23T10:22:49.148Z</time></trkpt><trkpt lat="44.1595358" lon="10.3979252"><ele>545.1666666666666</ele><time>2026-03-23T10:22:51.157Z</time></trkpt><trkpt lat="44.1595405" lon="10.3980399"><ele>545.3333333333333</ele><time>2026-03-23T10:22:53.145Z</time></trkpt><trkpt lat="44.1595472" lon="10.3981381"><ele>545.5</ele><time>2026-03-23T10:22:55.151Z</time></trkpt><trkpt lat="44.1595569" lon="10.3982392"><ele>545.6666666666666</ele><time>2026-03-23T10:22:57.151Z</time></trkpt><trkpt lat="44.1595708" lon="10.3983422"><ele>545.8333333333334</ele><time>2026-03-23T10:22:59.155Z</time></trkpt><trkpt lat="44.1595909" lon="10.3984464"><ele>546.0</ele><time>2026-03-23T10:23:01.153Z</time></trkpt><trkpt lat="44.1596308" lon="10.3985409"><ele>546.0</ele><time>2026-03-23T10:23:03.15Z</time></trkpt><trkpt lat="44.1596739" lon="10.398633"><ele>546.0</ele><time>2026-03-23T10:23:05.147Z</time></trkpt><trkpt lat="44.1597193" lon="10.3987273"><ele>546.0</ele><time>2026-03-23T10:23:07.155Z</time></trkpt><trkpt lat="44.1597616" lon="10.3988229"><ele>546.0</ele><time>2026-03-23T10:23:09.146Z</time></trkpt><trkpt lat="44.1598056" lon="10.398917"><ele>546.0</ele><time>2026-03-23T10:23:11.154Z</time></trkpt><trkpt lat="44.1598548" lon="10.3990068"><ele>546.0</ele><time>2026-03-23T10:23:13.156Z</time></trkpt><trkpt lat="44.1599047" lon="10.3991013"><ele>546.0</ele><time>2026-03-23T10:23:15.153Z</time></trkpt><trkpt lat="44.1599536" lon="10.3991952"><ele>546.0</ele><time>2026-03-23T10:23:17.145Z</time></trkpt><trkpt lat="44.1600012" lon="10.3992909"><ele>546.0</ele><time>2026-03-23T10:23:19.146Z</time></trkpt><trkpt lat="44.1600579" lon="10.3993825"><ele>546.0</ele><time>2026-03-23T10:23:21.159Z</time></trkpt><trkpt lat="44.1601215" lon="10.3994627"><ele>546.0</ele><time>2026-03-23T10:23:23.167Z</time></trkpt><trkpt lat="44.1601918" lon="10.3995236"><ele>546.0</ele><time>2026-03-23T10:23:25.149Z</time></trkpt><trkpt lat="44.1602689" lon="10.3995675"><ele>546.0</ele><time>2026-03-23T10:23:27.158Z</time></trkpt><trkpt lat="44.1603494" lon="10.3996013"><ele>546.0</ele><time>2026-03-23T10:23:29.158Z</time></trkpt><trkpt lat="44.1604256" lon="10.3996377"><ele>546.0</ele><time>2026-03-23T10:23:31.16Z</time></trkpt><trkpt lat="44.1605058" lon="10.399672"><ele>546.0</ele><time>2026-03-23T10:23:33.154Z</time></trkpt><trkpt lat="44.1605863" lon="10.3996899"><ele>546.0</ele><time>2026-03-23T10:23:35.148Z</time></trkpt><trkpt lat="44.1606632" lon="10.3997177"><ele>546.0</ele><time>2026-03-23T10:23:37.175Z</time></trkpt><trkpt lat="44.1607384" lon="10.3997247"><ele>546.3333333333334</ele><time>2026-03-23T10:23:39.151Z</time></trkpt><trkpt lat="44.1608128" lon="10.3997195"><ele>546.6666666666666</ele><time>2026-03-23T10:23:41.158Z</time></trkpt><trkpt lat="44.160894" lon="10.3997108"><ele>547.0</ele><time>2026-03-23T10:23:43.168Z</time></trkpt><trkpt lat="44.1609724" lon="10.3996973"><ele>547.3333333333333</ele><time>2026-03-23T10:23:45.162Z</time></trkpt><trkpt lat="44.1610522" lon="10.3996779"><ele>547.6666666666666</ele><time>2026-03-23T10:23:47.152Z</time></trkpt><trkpt lat="44.1611271" lon="10.3996656"><ele>548.0</ele><time>2026-03-23T10:23:49.146Z</time></trkpt><trkpt lat="44.1612017" lon="10.3996503"><ele>549.6666666666666</ele><time>2026-03-23T10:23:51.17Z</time></trkpt><trkpt lat="44.1612774" lon="10.3996348"><ele>551.3333333333333</ele><time>2026-03-23T10:23:53.146Z</time></trkpt><trkpt lat="44.1613496" lon="10.3996205"><ele>553.0</ele><time>2026-03-23T10:23:55.148Z</time></trkpt><trkpt lat="44.1614226" lon="10.3996006"><ele>554.6666666666666</ele><time>2026-03-23T10:23:57.151Z</time></trkpt><trkpt lat="44.1615062" lon="10.3995816"><ele>556.3333333333334</ele><time>2026-03-23T10:23:59.165Z</time></trkpt><trkpt lat="44.1615847" lon="10.3995624"><ele>558.0</ele><time>2026-03-23T10:24:01.162Z</time></trkpt><trkpt lat="44.1616674" lon="10.3995514"><ele>559.0</ele><time>2026-03-23T10:24:03.148Z</time></trkpt><trkpt lat="44.16175" lon="10.3995579"><ele>560.0</ele><time>2026-03-23T10:24:05.155Z</time></trkpt><trkpt lat="44.1618335" lon="10.399584"><ele>561.0</ele><time>2026-03-23T10:24:07.165Z</time></trkpt><trkpt lat="44.1619105" lon="10.3996317"><ele>562.0</ele><time>2026-03-23T10:24:09.145Z</time></trkpt><trkpt lat="44.1619764" lon="10.3997049"><ele>563.0</ele><time>2026-03-23T10:24:11.159Z</time></trkpt><trkpt lat="44.1620301" lon="10.3997899"><ele>564.0</ele><time>2026-03-23T10:24:13.156Z</time></trkpt><trkpt lat="44.1620833" lon="10.3998787"><ele>565.1666666666666</ele><time>2026-03-23T10:24:15.152Z</time></trkpt><trkpt lat="44.1621394" lon="10.3999584"><ele>566.3333333333334</ele><time>2026-03-23T10:24:17.158Z</time></trkpt><trkpt lat="44.1622032" lon="10.4000355"><ele>567.5</ele><time>2026-03-23T10:24:19.159Z</time></trkpt><trkpt lat="44.1622585" lon="10.4001078"><ele>568.6666666666667</ele><time>2026-03-23T10:24:21.14Z</time></trkpt><trkpt lat="44.1623185" lon="10.400194"><ele>569.8333333333334</ele><time>2026-03-23T10:24:23.154Z</time></trkpt><trkpt lat="44.1623724" lon="10.4002835"><ele>571.0</ele><time>2026-03-23T10:24:25.152Z</time></trkpt><trkpt lat="44.1624046" lon="10.40039"><ele>571.0</ele><time>2026-03-23T10:24:27.146Z</time></trkpt><trkpt lat="44.162403" lon="10.4005074"><ele>571.0</ele><time>2026-03-23T10:24:29.142Z</time></trkpt><trkpt lat="44.162374" lon="10.4006218"><ele>571.0</ele><time>2026-03-23T10:24:31.148Z</time></trkpt><trkpt lat="44.1623217" lon="10.4007184"><ele>571.0</ele><time>2026-03-23T10:24:33.141Z</time></trkpt><trkpt lat="44.1622487" lon="10.4007805"><ele>571.0</ele><time>2026-03-23T10:24:35.152Z</time></trkpt><trkpt lat="44.1621677" lon="10.4008149"><ele>571.0</ele><time>2026-03-23T10:24:37.15Z</time></trkpt><trkpt lat="44.1620889" lon="10.4008465"><ele>568.3333333333334</ele><time>2026-03-23T10:24:39.143Z</time></trkpt><trkpt lat="44.1620073" lon="10.4008851"><ele>565.6666666666667</ele><time>2026-03-23T10:24:41.14Z</time></trkpt><trkpt lat="44.1619263" lon="10.4009227"><ele>563.0</ele><time>2026-03-23T10:24:43.169Z</time></trkpt><trkpt lat="44.1618444" lon="10.4009659"><ele>560.3333333333334</ele><time>2026-03-23T10:24:45.145Z</time></trkpt><trkpt lat="44.1617738" lon="10.4010299"><ele>557.6666666666666</ele><time>2026-03-23T10:24:47.153Z</time></trkpt><trkpt lat="44.1617118" lon="10.4011079"><ele>555.0</ele><time>2026-03-23T10:24:49.147Z</time></trkpt><trkpt lat="44.1616363" lon="10.4012508"><ele>553.8333333333334</ele><time>2026-03-23T10:24:52.138Z</time></trkpt><trkpt lat="44.1615969" lon="10.4013555"><ele>552.6666666666666</ele><time>2026-03-23T10:24:54.158Z</time></trkpt><trkpt lat="44.1615626" lon="10.4014613"><ele>551.5</ele><time>2026-03-23T10:24:56.142Z</time></trkpt><trkpt lat="44.161531" lon="10.4015607"><ele>550.3333333333333</ele><time>2026-03-23T10:24:58.144Z</time></trkpt><trkpt lat="44.1615001" lon="10.4016522"><ele>549.1666666666666</ele><time>2026-03-23T10:25:00.147Z</time></trkpt><trkpt lat="44.1614638" lon="10.4017381"><ele>548.0</ele><time>2026-03-23T10:25:02.151Z</time></trkpt><trkpt lat="44.161427" lon="10.4018294"><ele>548.0000000000001</ele><time>2026-03-23T10:25:04.15Z</time></trkpt><trkpt lat="44.1613839" lon="10.4019098"><ele>548.0</ele><time>2026-03-23T10:25:06.145Z</time></trkpt><trkpt lat="44.1613389" lon="10.401988"><ele>548.0</ele><time>2026-03-23T10:25:08.149Z</time></trkpt><trkpt lat="44.1612861" lon="10.4020611"><ele>548.0</ele><time>2026-03-23T10:25:10.152Z</time></trkpt><trkpt lat="44.1612306" lon="10.402127"><ele>548.0</ele><time>2026-03-23T10:25:12.168Z</time></trkpt><trkpt lat="44.1611746" lon="10.4021915"><ele>548.0000000000001</ele><time>2026-03-23T10:25:14.145Z</time></trkpt><trkpt lat="44.1611212" lon="10.4022629"><ele>548.0</ele><time>2026-03-23T10:25:16.149Z</time></trkpt><trkpt lat="44.1610686" lon="10.4023301"><ele>547.5714285714287</ele><time>2026-03-23T10:25:18.168Z</time></trkpt><trkpt lat="44.1610177" lon="10.4023976"><ele>547.1428571428571</ele><time>2026-03-23T10:25:20.147Z</time></trkpt><trkpt lat="44.1609644" lon="10.402458"><ele>546.7142857142858</ele><time>2026-03-23T10:25:22.151Z</time></trkpt><trkpt lat="44.1609097" lon="10.402513"><ele>546.2857142857143</ele><time>2026-03-23T10:25:24.155Z</time></trkpt><trkpt lat="44.1608558" lon="10.4025764"><ele>545.8571428571429</ele><time>2026-03-23T10:25:26.158Z</time></trkpt><trkpt lat="44.160803" lon="10.4026446"><ele>545.4285714285714</ele><time>2026-03-23T10:25:28.152Z</time></trkpt><trkpt lat="44.160747" lon="10.4027043"><ele>545.0</ele><time>2026-03-23T10:25:30.156Z</time></trkpt><trkpt lat="44.1606925" lon="10.4027717"><ele>545.0</ele><time>2026-03-23T10:25:32.152Z</time></trkpt><trkpt lat="44.1606397" lon="10.4028435"><ele>545.0</ele><time>2026-03-23T10:25:34.157Z</time></trkpt><trkpt lat="44.1605924" lon="10.4029252"><ele>545.0</ele><time>2026-03-23T10:25:36.157Z</time></trkpt><trkpt lat="44.1605443" lon="10.4030109"><ele>545.0</ele><time>2026-03-23T10:25:38.149Z</time></trkpt><trkpt lat="44.1604926" lon="10.4030965"><ele>545.0</ele><time>2026-03-23T10:25:40.151Z</time></trkpt><trkpt lat="44.1604407" lon="10.4031896"><ele>545.0</ele><time>2026-03-23T10:25:42.154Z</time></trkpt><trkpt lat="44.160381" lon="10.4032717"><ele>548.3333333333333</ele><time>2026-03-23T10:25:44.153Z</time></trkpt><trkpt lat="44.1603117" lon="10.4033391"><ele>551.6666666666666</ele><time>2026-03-23T10:25:46.151Z</time></trkpt><trkpt lat="44.1602334" lon="10.4033851"><ele>555.0</ele><time>2026-03-23T10:25:48.155Z</time></trkpt><trkpt lat="44.1601523" lon="10.4034096"><ele>558.3333333333334</ele><time>2026-03-23T10:25:50.143Z</time></trkpt><trkpt lat="44.160071" lon="10.403429"><ele>561.6666666666667</ele><time>2026-03-23T10:25:52.144Z</time></trkpt><trkpt lat="44.1599891" lon="10.4034462"><ele>565.0</ele><time>2026-03-23T10:25:54.146Z</time></trkpt><trkpt lat="44.1599079" lon="10.4034696"><ele>562.5</ele><time>2026-03-23T10:25:56.147Z</time></trkpt><trkpt lat="44.1598275" lon="10.4034918"><ele>560.0</ele><time>2026-03-23T10:25:58.152Z</time></trkpt><trkpt lat="44.1597447" lon="10.4035108"><ele>557.5</ele><time>2026-03-23T10:26:00.176Z</time></trkpt><trkpt lat="44.1596628" lon="10.4035305"><ele>555.0</ele><time>2026-03-23T10:26:02.15Z</time></trkpt><trkpt lat="44.1595821" lon="10.4035591"><ele>552.5</ele><time>2026-03-23T10:26:04.153Z</time></trkpt><trkpt lat="44.1595015" lon="10.4035966"><ele>550.0</ele><time>2026-03-23T10:26:06.155Z</time></trkpt><trkpt lat="44.1594269" lon="10.4036485"><ele>550.0</ele><time>2026-03-23T10:26:08.155Z</time></trkpt><trkpt lat="44.1593561" lon="10.4037231"><ele>550.0</ele><time>2026-03-23T10:26:10.167Z</time></trkpt><trkpt lat="44.1592943" lon="10.4038094"><ele>550.0</ele><time>2026-03-23T10:26:12.155Z</time></trkpt><trkpt lat="44.159234" lon="10.4039026"><ele>550.0</ele><time>2026-03-23T10:26:14.147Z</time></trkpt><trkpt lat="44.1591828" lon="10.4039937"><ele>550.0</ele><time>2026-03-23T10:26:16.157Z</time></trkpt><trkpt lat="44.1591378" lon="10.4040813"><ele>550.0</ele><time>2026-03-23T10:26:18.165Z</time></trkpt><trkpt lat="44.1590985" lon="10.4041675"><ele>550.0</ele><time>2026-03-23T10:26:20.156Z</time></trkpt><trkpt lat="44.15905" lon="10.404252"><ele>550.0</ele><time>2026-03-23T10:26:22.159Z</time></trkpt><trkpt lat="44.1589943" lon="10.4043452"><ele>550.0</ele><time>2026-03-23T10:26:24.149Z</time></trkpt><trkpt lat="44.1589407" lon="10.4044429"><ele>550.0</ele><time>2026-03-23T10:26:26.143Z</time></trkpt><trkpt lat="44.1588887" lon="10.40454"><ele>550.0</ele><time>2026-03-23T10:26:28.151Z</time></trkpt><trkpt lat="44.1588365" lon="10.4046348"><ele>550.0</ele><time>2026-03-23T10:26:30.158Z</time></trkpt><trkpt lat="44.1587768" lon="10.4047272"><ele>550.5</ele><time>2026-03-23T10:26:32.152Z</time></trkpt><trkpt lat="44.1587187" lon="10.4048312"><ele>551.0</ele><time>2026-03-23T10:26:34.155Z</time></trkpt><trkpt lat="44.1586721" lon="10.4049314"><ele>551.5</ele><time>2026-03-23T10:26:36.143Z</time></trkpt><trkpt lat="44.1586222" lon="10.4050333"><ele>552.0</ele><time>2026-03-23T10:26:38.145Z</time></trkpt><trkpt lat="44.1585677" lon="10.4051238"><ele>552.5</ele><time>2026-03-23T10:26:40.163Z</time></trkpt><trkpt lat="44.1585153" lon="10.4052149"><ele>553.0</ele><time>2026-03-23T10:26:42.159Z</time></trkpt><trkpt lat="44.1584639" lon="10.405309"><ele>553.0</ele><time>2026-03-23T10:26:44.158Z</time></trkpt><trkpt lat="44.1584201" lon="10.4054017"><ele>553.0</ele><time>2026-03-23T10:26:46.143Z</time></trkpt><trkpt lat="44.1583852" lon="10.4055002"><ele>553.0</ele><time>2026-03-23T10:26:48.155Z</time></trkpt><trkpt lat="44.1583591" lon="10.4056024"><ele>553.0</ele><time>2026-03-23T10:26:50.143Z</time></trkpt><trkpt lat="44.1583407" lon="10.405708"><ele>553.0</ele><time>2026-03-23T10:26:52.15Z</time></trkpt><trkpt lat="44.1583307" lon="10.405821"><ele>553.0</ele><time>2026-03-23T10:26:54.145Z</time></trkpt><trkpt lat="44.1583231" lon="10.4059392"><ele>553.3333333333334</ele><time>2026-03-23T10:26:56.149Z</time></trkpt><trkpt lat="44.1583345" lon="10.4060567"><ele>553.6666666666667</ele><time>2026-03-23T10:26:58.144Z</time></trkpt><trkpt lat="44.158358" lon="10.4061732"><ele>554.0</ele><time>2026-03-23T10:27:00.141Z</time></trkpt><trkpt lat="44.1583865" lon="10.4062811"><ele>554.3333333333334</ele><time>2026-03-23T10:27:02.144Z</time></trkpt><trkpt lat="44.1584235" lon="10.4063771"><ele>554.6666666666666</ele><time>2026-03-23T10:27:04.144Z</time></trkpt><trkpt lat="44.1584637" lon="10.4064754"><ele>555.0</ele><time>2026-03-23T10:27:06.154Z</time></trkpt><trkpt lat="44.1585049" lon="10.406577"><ele>555.0</ele><time>2026-03-23T10:27:08.145Z</time></trkpt><trkpt lat="44.1585449" lon="10.4066807"><ele>555.0</ele><time>2026-03-23T10:27:10.145Z</time></trkpt><trkpt lat="44.1585875" lon="10.4067864"><ele>555.0</ele><time>2026-03-23T10:27:12.144Z</time></trkpt><trkpt lat="44.1586285" lon="10.4068879"><ele>555.0</ele><time>2026-03-23T10:27:14.142Z</time></trkpt><trkpt lat="44.1586714" lon="10.4069884"><ele>555.0</ele><time>2026-03-23T10:27:16.141Z</time></trkpt><trkpt lat="44.1587169" lon="10.4070954"><ele>555.0</ele><time>2026-03-23T10:27:18.145Z</time></trkpt><trkpt lat="44.1587577" lon="10.4071983"><ele>553.8333333333334</ele><time>2026-03-23T10:27:20.148Z</time></trkpt><trkpt lat="44.1587987" lon="10.4073022"><ele>552.6666666666666</ele><time>2026-03-23T10:27:22.142Z</time></trkpt><trkpt lat="44.1588383" lon="10.4074045"><ele>551.5</ele><time>2026-03-23T10:27:24.145Z</time></trkpt><trkpt lat="44.158879" lon="10.407503"><ele>550.3333333333333</ele><time>2026-03-23T10:27:26.147Z</time></trkpt><trkpt lat="44.1589253" lon="10.4075934"><ele>549.1666666666666</ele><time>2026-03-23T10:27:28.153Z</time></trkpt><trkpt lat="44.1589698" lon="10.4076883"><ele>548.0</ele><time>2026-03-23T10:27:30.15Z</time></trkpt><trkpt lat="44.159017" lon="10.4077793"><ele>551.3333333333333</ele><time>2026-03-23T10:27:32.142Z</time></trkpt><trkpt lat="44.159071" lon="10.4078611"><ele>554.6666666666666</ele><time>2026-03-23T10:27:34.158Z</time></trkpt><trkpt lat="44.1591235" lon="10.4079476"><ele>558.0</ele><time>2026-03-23T10:27:36.151Z</time></trkpt><trkpt lat="44.1591797" lon="10.4080286"><ele>561.3333333333334</ele><time>2026-03-23T10:27:38.152Z</time></trkpt><trkpt lat="44.1592396" lon="10.4081019"><ele>564.6666666666667</ele><time>2026-03-23T10:27:40.143Z</time></trkpt><trkpt lat="44.1593013" lon="10.4081701"><ele>568.0</ele><time>2026-03-23T10:27:42.142Z</time></trkpt><trkpt lat="44.1593583" lon="10.4082372"><ele>568.0</ele><time>2026-03-23T10:27:44.144Z</time></trkpt><trkpt lat="44.159405" lon="10.4083249"><ele>568.0</ele><time>2026-03-23T10:27:46.15Z</time></trkpt><trkpt lat="44.1594365" lon="10.4084198"><ele>568.0</ele><time>2026-03-23T10:27:48.153Z</time></trkpt><trkpt lat="44.1594449" lon="10.4085216"><ele>568.0</ele><time>2026-03-23T10:27:50.152Z</time></trkpt><trkpt lat="44.1594185" lon="10.4086149"><ele>568.0</ele><time>2026-03-23T10:27:52.163Z</time></trkpt><trkpt lat="44.1593717" lon="10.408682"><ele>568.0</ele><time>2026-03-23T10:27:54.146Z</time></trkpt><trkpt lat="44.1593143" lon="10.4087303"><ele>568.0</ele><time>2026-03-23T10:27:56.153Z</time></trkpt><trkpt lat="44.1592539" lon="10.4087636"><ele>568.0</ele><time>2026-03-23T10:27:58.144Z</time></trkpt><trkpt lat="44.1591881" lon="10.4087715"><ele>568.0</ele><time>2026-03-23T10:28:00.162Z</time></trkpt><trkpt lat="44.159121" lon="10.4087677"><ele>568.0</ele><time>2026-03-23T10:28:02.151Z</time></trkpt><trkpt lat="44.1590543" lon="10.4087567"><ele>568.0</ele><time>2026-03-23T10:28:04.16Z</time></trkpt><trkpt lat="44.1589911" lon="10.4087481"><ele>568.0</ele><time>2026-03-23T10:28:06.157Z</time></trkpt><trkpt lat="44.1589239" lon="10.4087371"><ele>568.0</ele><time>2026-03-23T10:28:08.147Z</time></trkpt><trkpt lat="44.1588585" lon="10.4087281"><ele>568.0</ele><time>2026-03-23T10:28:10.151Z</time></trkpt><trkpt lat="44.158794" lon="10.4087199"><ele>568.0</ele><time>2026-03-23T10:28:12.164Z</time></trkpt><trkpt lat="44.1587022" lon="10.4086898"><ele>568.0</ele><time>2026-03-23T10:28:15.148Z</time></trkpt><trkpt lat="44.1586119" lon="10.4086482"><ele>568.0</ele><time>2026-03-23T10:28:18.15Z</time></trkpt><trkpt lat="44.1585259" lon="10.4086029"><ele>568.0</ele><time>2026-03-23T10:28:21.147Z</time></trkpt><trkpt lat="44.1584418" lon="10.4085552"><ele>568.0</ele><time>2026-03-23T10:28:24.144Z</time></trkpt><trkpt lat="44.1583618" lon="10.4085104"><ele>568.0</ele><time>2026-03-23T10:28:27.145Z</time></trkpt><trkpt lat="44.1583038" lon="10.4084745"><ele>568.0</ele><time>2026-03-23T10:28:29.147Z</time></trkpt><trkpt lat="44.1582154" lon="10.4084367"><ele>568.0</ele><time>2026-03-23T10:28:32.148Z</time></trkpt><trkpt lat="44.1581541" lon="10.4084153"><ele>568.0</ele><time>2026-03-23T10:28:34.141Z</time></trkpt><trkpt lat="44.1580616" lon="10.4083872"><ele>568.0</ele><time>2026-03-23T10:28:37.146Z</time></trkpt><trkpt lat="44.1579949" lon="10.4083838"><ele>568.0</ele><time>2026-03-23T10:28:39.147Z</time></trkpt><trkpt lat="44.1579281" lon="10.408393"><ele>568.0</ele><time>2026-03-23T10:28:41.149Z</time></trkpt><trkpt lat="44.1578631" lon="10.408411"><ele>566.5</ele><time>2026-03-23T10:28:43.145Z</time></trkpt><trkpt lat="44.1577967" lon="10.4084323"><ele>565.0</ele><time>2026-03-23T10:28:45.145Z</time></trkpt><trkpt lat="44.1577364" lon="10.4084672"><ele>563.5</ele><time>2026-03-23T10:28:47.143Z</time></trkpt><trkpt lat="44.1576761" lon="10.4085023"><ele>562.0</ele><time>2026-03-23T10:28:49.145Z</time></trkpt><trkpt lat="44.1576034" lon="10.4085796"><ele>560.5</ele><time>2026-03-23T10:28:52.147Z</time></trkpt><trkpt lat="44.1575424" lon="10.4086693"><ele>559.0</ele><time>2026-03-23T10:28:55.151Z</time></trkpt><trkpt lat="44.1574919" lon="10.4087749"><ele>558.8333333333334</ele><time>2026-03-23T10:28:58.14Z</time></trkpt><trkpt lat="44.1574541" lon="10.4088846"><ele>558.6666666666667</ele><time>2026-03-23T10:29:01.145Z</time></trkpt><trkpt lat="44.1574248" lon="10.4090035"><ele>558.5</ele><time>2026-03-23T10:29:04.149Z</time></trkpt><trkpt lat="44.1574033" lon="10.409125"><ele>558.3333333333334</ele><time>2026-03-23T10:29:07.153Z</time></trkpt><trkpt lat="44.1573728" lon="10.4092435"><ele>558.1666666666666</ele><time>2026-03-23T10:29:10.147Z</time></trkpt><trkpt lat="44.1573521" lon="10.4093672"><ele>558.0</ele><time>2026-03-23T10:29:13.158Z</time></trkpt><trkpt lat="44.1573331" lon="10.4094509"><ele>558.0</ele><time>2026-03-23T10:29:15.157Z</time></trkpt><trkpt lat="44.1573071" lon="10.4095309"><ele>558.0</ele><time>2026-03-23T10:29:17.153Z</time></trkpt><trkpt lat="44.1572768" lon="10.4096485"><ele>558.0</ele><time>2026-03-23T10:29:20.146Z</time></trkpt><trkpt lat="44.1572491" lon="10.4097618"><ele>558.0</ele><time>2026-03-23T10:29:23.155Z</time></trkpt><trkpt lat="44.1572208" lon="10.4098742"><ele>558.0</ele><time>2026-03-23T10:29:26.15Z</time></trkpt><trkpt lat="44.1571958" lon="10.4099951"><ele>558.0</ele><time>2026-03-23T10:29:29.167Z</time></trkpt><trkpt lat="44.1571699" lon="10.4101122"><ele>560.3333333333334</ele><time>2026-03-23T10:29:32.155Z</time></trkpt><trkpt lat="44.1571404" lon="10.4102259"><ele>562.6666666666666</ele><time>2026-03-23T10:29:35.155Z</time></trkpt><trkpt lat="44.1570893" lon="10.4103184"><ele>565.0</ele><time>2026-03-23T10:29:38.173Z</time></trkpt><trkpt lat="44.1570351" lon="10.4104135"><ele>567.3333333333333</ele><time>2026-03-23T10:29:41.145Z</time></trkpt><trkpt lat="44.1569691" lon="10.4105017"><ele>569.6666666666666</ele><time>2026-03-23T10:29:44.15Z</time></trkpt><trkpt lat="44.1568994" lon="10.4105366"><ele>572.0</ele><time>2026-03-23T10:29:47.159Z</time></trkpt><trkpt lat="44.1568347" lon="10.4105732"><ele>572.4</ele><time>2026-03-23T10:29:50.157Z</time></trkpt><trkpt lat="44.15676" lon="10.4105994"><ele>572.8000000000001</ele><time>2026-03-23T10:29:53.173Z</time></trkpt><trkpt lat="44.1566943" lon="10.4106303"><ele>573.2</ele><time>2026-03-23T10:29:55.152Z</time></trkpt><trkpt lat="44.1566119" lon="10.4106622"><ele>573.6</ele><time>2026-03-23T10:29:57.155Z</time></trkpt><trkpt lat="44.1565074" lon="10.4106995"><ele>574.0</ele><time>2026-03-23T10:29:59.151Z</time></trkpt><trkpt lat="44.1563965" lon="10.4107498"><ele>574.0</ele><time>2026-03-23T10:30:01.155Z</time></trkpt><trkpt lat="44.1563371" lon="10.4107839"><ele>574.0</ele><time>2026-03-23T10:30:02.155Z</time></trkpt><trkpt lat="44.1562705" lon="10.4108173"><ele>574.0</ele><time>2026-03-23T10:30:03.157Z</time></trkpt><trkpt lat="44.1562036" lon="10.4108463"><ele>574.0</ele><time>2026-03-23T10:30:04.158Z</time></trkpt><trkpt lat="44.1561313" lon="10.4108759"><ele>574.0</ele><time>2026-03-23T10:30:05.17Z</time></trkpt><trkpt lat="44.1560532" lon="10.4109026"><ele>574.0</ele><time>2026-03-23T10:30:06.153Z</time></trkpt><trkpt lat="44.1559701" lon="10.4109269"><ele>574.0</ele><time>2026-03-23T10:30:07.157Z</time></trkpt><trkpt lat="44.155883" lon="10.4109499"><ele>574.0</ele><time>2026-03-23T10:30:08.166Z</time></trkpt><trkpt lat="44.1557924" lon="10.4109707"><ele>574.0</ele><time>2026-03-23T10:30:09.153Z</time></trkpt><trkpt lat="44.1557011" lon="10.4109953"><ele>574.0</ele><time>2026-03-23T10:30:10.158Z</time></trkpt><trkpt lat="44.1556054" lon="10.4110179"><ele>574.0</ele><time>2026-03-23T10:30:11.159Z</time></trkpt><trkpt lat="44.1555071" lon="10.4110423"><ele>574.0</ele><time>2026-03-23T10:30:12.149Z</time></trkpt><trkpt lat="44.1554058" lon="10.4110713"><ele>572.6</ele><time>2026-03-23T10:30:13.153Z</time></trkpt><trkpt lat="44.1553043" lon="10.4110924"><ele>571.2</ele><time>2026-03-23T10:30:14.161Z</time></trkpt><trkpt lat="44.1551935" lon="10.4111055"><ele>569.8000000000001</ele><time>2026-03-23T10:30:15.156Z</time></trkpt><trkpt lat="44.1550841" lon="10.4111143"><ele>568.4</ele><time>2026-03-23T10:30:16.155Z</time></trkpt><trkpt lat="44.1549728" lon="10.4111255"><ele>567.0</ele><time>2026-03-23T10:30:17.158Z</time></trkpt><trkpt lat="44.1548561" lon="10.4111331"><ele>565.75</ele><time>2026-03-23T10:30:18.152Z</time></trkpt><trkpt lat="44.1547384" lon="10.4111402"><ele>564.5</ele><time>2026-03-23T10:30:19.143Z</time></trkpt><trkpt lat="44.1546199" lon="10.4111487"><ele>563.25</ele><time>2026-03-23T10:30:20.145Z</time></trkpt><trkpt lat="44.1545036" lon="10.4111566"><ele>562.0</ele><time>2026-03-23T10:30:21.157Z</time></trkpt><trkpt lat="44.1543877" lon="10.4111664"><ele>562.0</ele><time>2026-03-23T10:30:22.152Z</time></trkpt><trkpt lat="44.1542644" lon="10.411191"><ele>562.0</ele><time>2026-03-23T10:30:23.16Z</time></trkpt><trkpt lat="44.1541426" lon="10.4112164"><ele>562.0</ele><time>2026-03-23T10:30:24.148Z</time></trkpt><trkpt lat="44.1540149" lon="10.4112414"><ele>562.0</ele><time>2026-03-23T10:30:25.155Z</time></trkpt><trkpt lat="44.1538928" lon="10.4112719"><ele>558.75</ele><time>2026-03-23T10:30:26.154Z</time></trkpt><trkpt lat="44.1537721" lon="10.4112977"><ele>555.5</ele><time>2026-03-23T10:30:27.157Z</time></trkpt><trkpt lat="44.1536603" lon="10.4113082"><ele>552.25</ele><time>2026-03-23T10:30:28.166Z</time></trkpt><trkpt lat="44.1535412" lon="10.4112987"><ele>549.0</ele><time>2026-03-23T10:30:29.157Z</time></trkpt><trkpt lat="44.1534238" lon="10.4112664"><ele>549.0</ele><time>2026-03-23T10:30:30.157Z</time></trkpt><trkpt lat="44.1533042" lon="10.4112268"><ele>549.0</ele><time>2026-03-23T10:30:31.146Z</time></trkpt><trkpt lat="44.1531847" lon="10.4111856"><ele>549.0</ele><time>2026-03-23T10:30:32.149Z</time></trkpt><trkpt lat="44.1530663" lon="10.4111293"><ele>549.0</ele><time>2026-03-23T10:30:33.158Z</time></trkpt><trkpt lat="44.1529572" lon="10.4110736"><ele>547.0</ele><time>2026-03-23T10:30:34.157Z</time></trkpt><trkpt lat="44.1528513" lon="10.4110339"><ele>545.0</ele><time>2026-03-23T10:30:35.158Z</time></trkpt><trkpt lat="44.1527405" lon="10.4110256"><ele>543.0</ele><time>2026-03-23T10:30:36.165Z</time></trkpt><trkpt lat="44.1526266" lon="10.4110518"><ele>541.0</ele><time>2026-03-23T10:30:37.157Z</time></trkpt><trkpt lat="44.1525178" lon="10.4111105"><ele>541.0</ele><time>2026-03-23T10:30:38.168Z</time></trkpt><trkpt lat="44.1524176" lon="10.4111655"><ele>541.0</ele><time>2026-03-23T10:30:39.157Z</time></trkpt><trkpt lat="44.1523219" lon="10.4112157"><ele>541.0</ele><time>2026-03-23T10:30:40.158Z</time></trkpt><trkpt lat="44.1522539" lon="10.4112626"><ele>541.0</ele><time>2026-03-23T10:30:41.148Z</time></trkpt><trkpt lat="44.1521817" lon="10.4113099"><ele>541.0</ele><time>2026-03-23T10:30:42.152Z</time></trkpt><trkpt lat="44.152111" lon="10.4113623"><ele>541.0</ele><time>2026-03-23T10:30:43.152Z</time></trkpt><trkpt lat="44.15204" lon="10.4114159"><ele>540.8333333333334</ele><time>2026-03-23T10:30:44.152Z</time></trkpt><trkpt lat="44.1519652" lon="10.4114731"><ele>540.6666666666667</ele><time>2026-03-23T10:30:45.156Z</time></trkpt><trkpt lat="44.1518874" lon="10.4115324"><ele>540.5</ele><time>2026-03-23T10:30:46.157Z</time></trkpt><trkpt lat="44.1518154" lon="10.4115806"><ele>540.3333333333334</ele><time>2026-03-23T10:30:47.153Z</time></trkpt><trkpt lat="44.15174" lon="10.4116131"><ele>540.1666666666666</ele><time>2026-03-23T10:30:48.147Z</time></trkpt><trkpt lat="44.1516603" lon="10.4116356"><ele>540.0</ele><time>2026-03-23T10:30:49.15Z</time></trkpt><trkpt lat="44.1515813" lon="10.4116523"><ele>538.7142857142857</ele><time>2026-03-23T10:30:50.157Z</time></trkpt><trkpt lat="44.151503" lon="10.4116668"><ele>537.4285714285713</ele><time>2026-03-23T10:30:51.16Z</time></trkpt><trkpt lat="44.1514261" lon="10.4116781"><ele>536.1428571428571</ele><time>2026-03-23T10:30:52.149Z</time></trkpt><trkpt lat="44.1513499" lon="10.4116897"><ele>534.8571428571429</ele><time>2026-03-23T10:30:53.158Z</time></trkpt><trkpt lat="44.1512795" lon="10.411702"><ele>533.5714285714287</ele><time>2026-03-23T10:30:54.167Z</time></trkpt><trkpt lat="44.1512102" lon="10.4117171"><ele>532.2857142857143</ele><time>2026-03-23T10:30:55.163Z</time></trkpt><trkpt lat="44.1511459" lon="10.4117289"><ele>531.0</ele><time>2026-03-23T10:30:56.154Z</time></trkpt><trkpt lat="44.1510357" lon="10.4117502"><ele>531.0</ele><time>2026-03-23T10:30:58.16Z</time></trkpt><trkpt lat="44.1509581" lon="10.4117757"><ele>531.0</ele><time>2026-03-23T10:31:00.159Z</time></trkpt><trkpt lat="44.150907" lon="10.4118364"><ele>531.0</ele><time>2026-03-23T10:31:02.149Z</time></trkpt><trkpt lat="44.1509536" lon="10.4119177"><ele>531.0</ele><time>2026-03-23T10:31:07.165Z</time></trkpt><trkpt lat="44.1510255" lon="10.4119412"><ele>531.0</ele><time>2026-03-23T10:31:11.153Z</time></trkpt><trkpt lat="44.1510796" lon="10.412002"><ele>531.0</ele><time>2026-03-23T10:31:15.153Z</time></trkpt><trkpt lat="44.1510449" lon="10.4120901"><ele>531.0</ele><time>2026-03-23T10:31:20.148Z</time></trkpt><trkpt lat="44.1509734" lon="10.4121202"><ele>531.0</ele><time>2026-03-23T10:31:25.151Z</time></trkpt><trkpt lat="44.1509105" lon="10.4121654"><ele>546.0</ele><time>2026-03-23T10:31:29.155Z</time></trkpt><trkpt lat="44.1508441" lon="10.4121753"><ele>546.0</ele><time>2026-03-23T10:31:33.15Z</time></trkpt><trkpt lat="44.1508168" lon="10.4122659"><ele>546.0</ele><time>2026-03-23T10:31:38.161Z</time></trkpt><trkpt lat="44.1507926" lon="10.4123536"><ele>546.0</ele><time>2026-03-23T10:31:43.149Z</time></trkpt><trkpt lat="44.1507811" lon="10.4124471"><ele>546.0</ele><time>2026-03-23T10:31:47.156Z</time></trkpt><trkpt lat="44.1507551" lon="10.4125366"><ele>546.0</ele><time>2026-03-23T10:31:51.165Z</time></trkpt></trkseg></trk></gpx>